<?xml version='1.0' encoding='UTF-8'?><gpx version="1.1" creator="JPX - https://github.com/jenetics/jpx" xmlns="http://www.topografix.com/GPX/1/1"><trk><trkseg><trkpt lat="43.47152549040146" lon="11.42062417859437"><ele>522.0</ele><time>2026-04-04T15:30:14.999Z</time></trkpt><trkpt lat="43.471489637824625" lon="11.420531821972634"><ele>522.0</ele><time>2026-04-04T15:30:15.999Z</time></trkpt><trkpt lat="43.47143441225323" lon="11.420459750805211"><ele>522.0</ele><time>2026-04-04T15:30:16.999Z</time></trkpt><trkpt lat="43.471386248454834" lon="11.42036336346373"><ele>522.0</ele><time>2026-04-04T15:30:17.999Z</time></trkpt><trkpt lat="43.4713342272418" lon="11.42024517864442"><ele>522.0</ele><time>2026-04-04T15:30:18.999Z</time></trkpt><trkpt lat="43.4712887354364" lon="11.420136205546436"><ele>522.0</ele><time>2026-04-04T15:30:19.999Z</time></trkpt><trkpt lat="43.47123286397628" lon="11.420042739197124"><ele>520.5</ele><time>2026-04-04T15:30:20.999Z</time></trkpt><trkpt lat="43.471167350458366" lon="11.419966805116452"><ele>519.0</ele><time>2026-04-04T15:30:21.999Z</time></trkpt><trkpt lat="43.471116432911565" lon="11.419875860040497"><ele>517.5</ele><time>2026-04-04T15:30:22.999Z</time></trkpt><trkpt lat="43.47106445908596" lon="11.419786775403091"><ele>516.0</ele><time>2026-04-04T15:30:23.999Z</time></trkpt><trkpt lat="43.47101163032483" lon="11.419701432405205"><ele>514.5</ele><time>2026-04-04T15:30:24.999Z</time></trkpt><trkpt lat="43.470950129488266" lon="11.419619577154354"><ele>513.0</ele><time>2026-04-04T15:30:25.999Z</time></trkpt><trkpt lat="43.470887202579085" lon="11.41953079480175"><ele>511.8333333333333</ele><time>2026-04-04T15:30:26.999Z</time></trkpt><trkpt lat="43.47082817840159" lon="11.419442551020712"><ele>510.66666666666663</ele><time>2026-04-04T15:30:27.999Z</time></trkpt><trkpt lat="43.47077457301875" lon="11.419347171792921"><ele>509.5</ele><time>2026-04-04T15:30:28.999Z</time></trkpt><trkpt lat="43.470719713791844" lon="11.419253038859702"><ele>508.3333333333333</ele><time>2026-04-04T15:30:29.999Z</time></trkpt><trkpt lat="43.47066497532634" lon="11.419156796890732"><ele>507.16666666666663</ele><time>2026-04-04T15:30:30.999Z</time></trkpt><trkpt lat="43.470608885163394" lon="11.41906377009951"><ele>506.0</ele><time>2026-04-04T15:30:31.999Z</time></trkpt><trkpt lat="43.47055720046653" lon="11.418972304244415"><ele>505.99999999999994</ele><time>2026-04-04T15:30:32.999Z</time></trkpt><trkpt lat="43.470503949735985" lon="11.418882263743788"><ele>506.0</ele><time>2026-04-04T15:30:33.999Z</time></trkpt><trkpt lat="43.470453625868785" lon="11.418790228379702"><ele>506.0</ele><time>2026-04-04T15:30:34.999Z</time></trkpt><trkpt lat="43.470406193000166" lon="11.418706859181073"><ele>506.0</ele><time>2026-04-04T15:30:35.999Z</time></trkpt><trkpt lat="43.47035991001754" lon="11.418633174552898"><ele>505.99999999999994</ele><time>2026-04-04T15:30:36.999Z</time></trkpt><trkpt lat="43.47032860243473" lon="11.418554982392111"><ele>506.0</ele><time>2026-04-04T15:30:37.999Z</time></trkpt><trkpt lat="43.47021329543755" lon="11.418463365912167"><ele>505.6</ele><time>2026-04-04T15:30:39.999Z</time></trkpt><trkpt lat="43.47013526405437" lon="11.418497919802043"><ele>505.20000000000005</ele><time>2026-04-04T15:30:40.999Z</time></trkpt><trkpt lat="43.470078858282605" lon="11.41867528689873"><ele>504.79999999999995</ele><time>2026-04-04T15:30:41.999Z</time></trkpt><trkpt lat="43.47001709992199" lon="11.418787119398981"><ele>504.4</ele><time>2026-04-04T15:30:43.999Z</time></trkpt><trkpt lat="43.469971316004745" lon="11.41886043460841"><ele>504.0</ele><time>2026-04-04T15:30:44.999Z</time></trkpt><trkpt lat="43.469920620657206" lon="11.418938921405651"><ele>504.0</ele><time>2026-04-04T15:30:45.999Z</time></trkpt><trkpt lat="43.469870054818266" lon="11.41901720773205"><ele>504.0</ele><time>2026-04-04T15:30:46.999Z</time></trkpt><trkpt lat="43.46981735501725" lon="11.419101209580313"><ele>504.0</ele><time>2026-04-04T15:30:47.999Z</time></trkpt><trkpt lat="43.46976463693863" lon="11.41919106544154"><ele>504.0</ele><time>2026-04-04T15:30:48.999Z</time></trkpt><trkpt lat="43.469716604674495" lon="11.419285288986394"><ele>504.0</ele><time>2026-04-04T15:30:49.999Z</time></trkpt><trkpt lat="43.469697139109506" lon="11.41939734708224"><ele>504.0</ele><time>2026-04-04T15:30:50.999Z</time></trkpt><trkpt lat="43.46968803864769" lon="11.419508523568608"><ele>504.0</ele><time>2026-04-04T15:30:51.999Z</time></trkpt><trkpt lat="43.46969968439486" lon="11.419620733149317"><ele>504.0</ele><time>2026-04-04T15:30:52.999Z</time></trkpt><trkpt lat="43.469731051671474" lon="11.41974459734678"><ele>504.0</ele><time>2026-04-04T15:30:53.999Z</time></trkpt><trkpt lat="43.46978700542862" lon="11.419867280415838"><ele>504.0</ele><time>2026-04-04T15:30:54.999Z</time></trkpt><trkpt lat="43.46985203008031" lon="11.419990156383639"><ele>504.0</ele><time>2026-04-04T15:30:55.999Z</time></trkpt><trkpt lat="43.46992141606792" lon="11.42012649215141"><ele>503.25</ele><time>2026-04-04T15:30:56.999Z</time></trkpt><trkpt lat="43.46999936737889" lon="11.420271689587338"><ele>502.5</ele><time>2026-04-04T15:30:57.999Z</time></trkpt><trkpt lat="43.470068053523285" lon="11.4204188525606"><ele>501.75</ele><time>2026-04-04T15:30:58.999Z</time></trkpt><trkpt lat="43.47012759834293" lon="11.420555424003911"><ele>501.0</ele><time>2026-04-04T15:30:59.999Z</time></trkpt><trkpt lat="43.47018690701743" lon="11.420680427144479"><ele>498.8</ele><time>2026-04-04T15:31:00.999Z</time></trkpt><trkpt lat="43.470249480123584" lon="11.420794670055686"><ele>496.6</ele><time>2026-04-04T15:31:01.999Z</time></trkpt><trkpt lat="43.47029208016262" lon="11.420914165679843"><ele>494.4</ele><time>2026-04-04T15:31:02.999Z</time></trkpt><trkpt lat="43.47035019927475" lon="11.421014866119325"><ele>492.2</ele><time>2026-04-04T15:31:03.999Z</time></trkpt><trkpt lat="43.47036784735586" lon="11.421151282323347"><ele>490.0</ele><time>2026-04-04T15:31:04.999Z</time></trkpt><trkpt lat="43.47034350278389" lon="11.421307952513164"><ele>490.75</ele><time>2026-04-04T15:31:05.999Z</time></trkpt><trkpt lat="43.47025272454482" lon="11.421418696299058"><ele>491.5</ele><time>2026-04-04T15:31:06.999Z</time></trkpt><trkpt lat="43.47015305977912" lon="11.421527236298845"><ele>492.25</ele><time>2026-04-04T15:31:07.999Z</time></trkpt><trkpt lat="43.47003657723271" lon="11.421639247146597"><ele>493.0</ele><time>2026-04-04T15:31:08.999Z</time></trkpt><trkpt lat="43.469902443499876" lon="11.421730938909237"><ele>493.0</ele><time>2026-04-04T15:31:09.999Z</time></trkpt><trkpt lat="43.46977105253505" lon="11.421801241367035"><ele>493.0</ele><time>2026-04-04T15:31:10.999Z</time></trkpt><trkpt lat="43.46963207383736" lon="11.421896407875844"><ele>493.0</ele><time>2026-04-04T15:31:11.999Z</time></trkpt><trkpt lat="43.469482526001364" lon="11.422005145877137"><ele>492.0</ele><time>2026-04-04T15:31:12.999Z</time></trkpt><trkpt lat="43.46934125025888" lon="11.422109893471687"><ele>491.0</ele><time>2026-04-04T15:31:13.999Z</time></trkpt><trkpt lat="43.46918057852223" lon="11.422228132741791"><ele>490.0</ele><time>2026-04-04T15:31:14.999Z</time></trkpt><trkpt lat="43.46900631871881" lon="11.422350560916286"><ele>490.0</ele><time>2026-04-04T15:31:15.999Z</time></trkpt><trkpt lat="43.468821683660344" lon="11.4224812073475"><ele>490.0</ele><time>2026-04-04T15:31:16.999Z</time></trkpt><trkpt lat="43.46866774457389" lon="11.422595946461339"><ele>490.0</ele><time>2026-04-04T15:31:17.999Z</time></trkpt><trkpt lat="43.46852466676086" lon="11.422703885204914"><ele>487.75</ele><time>2026-04-04T15:31:18.999Z</time></trkpt><trkpt lat="43.46838564667022" lon="11.42280760423095"><ele>485.5</ele><time>2026-04-04T15:31:19.999Z</time></trkpt><trkpt lat="43.46825662287696" lon="11.422903017409094"><ele>483.25</ele><time>2026-04-04T15:31:20.999Z</time></trkpt><trkpt lat="43.46813980112116" lon="11.422982442523537"><ele>481.0</ele><time>2026-04-04T15:31:21.999Z</time></trkpt><trkpt lat="43.468019537186095" lon="11.423035802778756"><ele>480.6</ele><time>2026-04-04T15:31:22.999Z</time></trkpt><trkpt lat="43.467905785807545" lon="11.42305406219848"><ele>480.20000000000005</ele><time>2026-04-04T15:31:23.999Z</time></trkpt><trkpt lat="43.4678125833036" lon="11.42308180671492"><ele>479.79999999999995</ele><time>2026-04-04T15:31:24.999Z</time></trkpt><trkpt lat="43.46774324827751" lon="11.423092499527137"><ele>479.4</ele><time>2026-04-04T15:31:25.999Z</time></trkpt><trkpt lat="43.46767422803398" lon="11.42315660794867"><ele>479.0</ele><time>2026-04-04T15:31:26.999Z</time></trkpt><trkpt lat="43.467648783048304" lon="11.423283641440982"><ele>479.0</ele><time>2026-04-04T15:31:27.999Z</time></trkpt><trkpt lat="43.46766021569196" lon="11.423440133376339"><ele>479.0</ele><time>2026-04-04T15:31:28.999Z</time></trkpt><trkpt lat="43.467730960744746" lon="11.423578886987775"><ele>479.0</ele><time>2026-04-04T15:31:29.999Z</time></trkpt><trkpt lat="43.4678363586595" lon="11.423682461559402"><ele>479.0</ele><time>2026-04-04T15:31:30.999Z</time></trkpt><trkpt lat="43.46793689514083" lon="11.423754455657026"><ele>476.5</ele><time>2026-04-04T15:31:31.999Z</time></trkpt><trkpt lat="43.46805504279854" lon="11.423863130503523"><ele>474.0</ele><time>2026-04-04T15:31:32.999Z</time></trkpt><trkpt lat="43.468166660737374" lon="11.423967570870913"><ele>471.5</ele><time>2026-04-04T15:31:33.999Z</time></trkpt><trkpt lat="43.46827374502785" lon="11.424068132052929"><ele>469.0</ele><time>2026-04-04T15:31:34.999Z</time></trkpt><trkpt lat="43.46837877830531" lon="11.424164050398433"><ele>469.0</ele><time>2026-04-04T15:31:35.999Z</time></trkpt><trkpt lat="43.46848687587959" lon="11.424247332781384"><ele>469.0</ele><time>2026-04-04T15:31:36.999Z</time></trkpt><trkpt lat="43.46860798145217" lon="11.424301796433348"><ele>469.0</ele><time>2026-04-04T15:31:37.999Z</time></trkpt><trkpt lat="43.46875418052411" lon="11.424327319667148"><ele>469.0</ele><time>2026-04-04T15:31:38.999Z</time></trkpt><trkpt lat="43.46890329946332" lon="11.424366530416838"><ele>468.5</ele><time>2026-04-04T15:31:39.999Z</time></trkpt><trkpt lat="43.46904842050158" lon="11.424388985212627"><ele>468.0</ele><time>2026-04-04T15:31:40.999Z</time></trkpt><trkpt lat="43.46918601587549" lon="11.424412828469741"><ele>467.5</ele><time>2026-04-04T15:31:41.999Z</time></trkpt><trkpt lat="43.46931644396764" lon="11.424441552557584"><ele>467.0</ele><time>2026-04-04T15:31:42.999Z</time></trkpt><trkpt lat="43.46944024375404" lon="11.42448430929636"><ele>467.0</ele><time>2026-04-04T15:31:43.999Z</time></trkpt><trkpt lat="43.46955919853897" lon="11.424531896067402"><ele>467.0</ele><time>2026-04-04T15:31:44.999Z</time></trkpt><trkpt lat="43.46967082553157" lon="11.424593346485818"><ele>467.0</ele><time>2026-04-04T15:31:45.999Z</time></trkpt><trkpt lat="43.469754222418665" lon="11.424708843923568"><ele>467.0</ele><time>2026-04-04T15:31:46.999Z</time></trkpt><trkpt lat="43.46981294583062" lon="11.424846837127987"><ele>465.25</ele><time>2026-04-04T15:31:47.999Z</time></trkpt><trkpt lat="43.46984225773491" lon="11.424995525488916"><ele>463.5</ele><time>2026-04-04T15:31:48.999Z</time></trkpt><trkpt lat="43.46985438881442" lon="11.425176263752968"><ele>461.75</ele><time>2026-04-04T15:31:49.999Z</time></trkpt><trkpt lat="43.46986622169112" lon="11.425373417317317"><ele>460.0</ele><time>2026-04-04T15:31:50.999Z</time></trkpt><trkpt lat="43.46988040345847" lon="11.425562428160859"><ele>457.0</ele><time>2026-04-04T15:31:51.999Z</time></trkpt><trkpt lat="43.46989456223776" lon="11.425741309614923"><ele>454.0</ele><time>2026-04-04T15:31:52.999Z</time></trkpt><trkpt lat="43.46989834125823" lon="11.425916000892473"><ele>451.0</ele><time>2026-04-04T15:31:53.999Z</time></trkpt><trkpt lat="43.46990084229815" lon="11.426087174234281"><ele>448.0</ele><time>2026-04-04T15:31:54.999Z</time></trkpt><trkpt lat="43.469899814751024" lon="11.426264168144268"><ele>446.0</ele><time>2026-04-04T15:31:55.999Z</time></trkpt><trkpt lat="43.469886960731316" lon="11.426449229526318"><ele>444.0</ele><time>2026-04-04T15:31:56.999Z</time></trkpt><trkpt lat="43.46986726214621" lon="11.42663445030993"><ele>442.0</ele><time>2026-04-04T15:31:57.999Z</time></trkpt><trkpt lat="43.46984089876126" lon="11.426826723385789"><ele>440.0</ele><time>2026-04-04T15:31:58.999Z</time></trkpt><trkpt lat="43.4698081398888" lon="11.42700745491284"><ele>438.0</ele><time>2026-04-04T15:31:59.999Z</time></trkpt><trkpt lat="43.46977194748401" lon="11.427191656873596"><ele>436.0</ele><time>2026-04-04T15:32:00.999Z</time></trkpt><trkpt lat="43.46969693143531" lon="11.427353916861835"><ele>434.0</ele><time>2026-04-04T15:32:01.999Z</time></trkpt><trkpt lat="43.469609515418746" lon="11.427530784438087"><ele>432.0</ele><time>2026-04-04T15:32:02.999Z</time></trkpt><trkpt lat="43.469511513156995" lon="11.427702108030747"><ele>428.66666666666663</ele><time>2026-04-04T15:32:03.999Z</time></trkpt><trkpt lat="43.46940343559786" lon="11.427878398743527"><ele>425.3333333333333</ele><time>2026-04-04T15:32:04.999Z</time></trkpt><trkpt lat="43.469289795419584" lon="11.42806077752156"><ele>422.0</ele><time>2026-04-04T15:32:05.999Z</time></trkpt><trkpt lat="43.46918610683654" lon="11.428266791910401"><ele>421.66666666666663</ele><time>2026-04-04T15:32:06.999Z</time></trkpt><trkpt lat="43.46907023200621" lon="11.428457379896216"><ele>421.33333333333337</ele><time>2026-04-04T15:32:07.999Z</time></trkpt><trkpt lat="43.46894991845643" lon="11.428620125501935"><ele>421.0</ele><time>2026-04-04T15:32:08.999Z</time></trkpt><trkpt lat="43.46884228020983" lon="11.42879488897191"><ele>416.6666666666667</ele><time>2026-04-04T15:32:09.999Z</time></trkpt><trkpt lat="43.468733136363895" lon="11.428967653891748"><ele>412.33333333333337</ele><time>2026-04-04T15:32:10.999Z</time></trkpt><trkpt lat="43.46862974646572" lon="11.429130255145774"><ele>408.0</ele><time>2026-04-04T15:32:11.999Z</time></trkpt><trkpt lat="43.46853281032904" lon="11.42928013828416"><ele>408.0</ele><time>2026-04-04T15:32:12.999Z</time></trkpt><trkpt lat="43.46844538523309" lon="11.42941350523294"><ele>408.0</ele><time>2026-04-04T15:32:13.999Z</time></trkpt><trkpt lat="43.46835738155685" lon="11.429530355209849"><ele>408.0</ele><time>2026-04-04T15:32:14.999Z</time></trkpt><trkpt lat="43.46826195023096" lon="11.42965002740525"><ele>408.0</ele><time>2026-04-04T15:32:15.999Z</time></trkpt><trkpt lat="43.468121054822966" lon="11.429717732418752"><ele>406.33333333333337</ele><time>2026-04-04T15:32:16.999Z</time></trkpt><trkpt lat="43.467981826811744" lon="11.429811029333857"><ele>404.6666666666667</ele><time>2026-04-04T15:32:17.999Z</time></trkpt><trkpt lat="43.467838050023346" lon="11.429911693679648"><ele>403.0</ele><time>2026-04-04T15:32:18.999Z</time></trkpt><trkpt lat="43.46770061844033" lon="11.430007915908242"><ele>401.75</ele><time>2026-04-04T15:32:19.999Z</time></trkpt><trkpt lat="43.46757138099505" lon="11.430098401007893"><ele>400.5</ele><time>2026-04-04T15:32:20.999Z</time></trkpt><trkpt lat="43.46745337500305" lon="11.430203876528392"><ele>399.25</ele><time>2026-04-04T15:32:21.999Z</time></trkpt><trkpt lat="43.467336104594345" lon="11.430270756029511"><ele>398.0</ele><time>2026-04-04T15:32:22.999Z</time></trkpt><trkpt lat="43.46723288686657" lon="11.43032510628462"><ele>398.0</ele><time>2026-04-04T15:32:23.999Z</time></trkpt><trkpt lat="43.46713678914474" lon="11.430392109494209"><ele>398.0</ele><time>2026-04-04T15:32:24.999Z</time></trkpt><trkpt lat="43.467046392353204" lon="11.430474305768104"><ele>398.0</ele><time>2026-04-04T15:32:25.999Z</time></trkpt><trkpt lat="43.46694855504778" lon="11.430528906559719"><ele>398.0</ele><time>2026-04-04T15:32:26.999Z</time></trkpt><trkpt lat="43.46685708245038" lon="11.430587498915974"><ele>398.0</ele><time>2026-04-04T15:32:27.999Z</time></trkpt><trkpt lat="43.46677427334576" lon="11.430646907924723"><ele>395.5</ele><time>2026-04-04T15:32:28.999Z</time></trkpt><trkpt lat="43.46669942811973" lon="11.430684135217652"><ele>393.0</ele><time>2026-04-04T15:32:29.999Z</time></trkpt><trkpt lat="43.46657244083713" lon="11.430801909540742"><ele>390.5</ele><time>2026-04-04T15:32:32.999Z</time></trkpt><trkpt lat="43.466655872883614" lon="11.430984241292014"><ele>388.0</ele><time>2026-04-04T15:32:33.999Z</time></trkpt><trkpt lat="43.46671429334628" lon="11.43109228094781"><ele>388.0</ele><time>2026-04-04T15:32:34.999Z</time></trkpt><trkpt lat="43.46680799006541" lon="11.431205237238489"><ele>388.0</ele><time>2026-04-04T15:32:35.999Z</time></trkpt><trkpt lat="43.46692630723953" lon="11.431303717466267"><ele>388.0</ele><time>2026-04-04T15:32:36.999Z</time></trkpt><trkpt lat="43.46706862436468" lon="11.431352401282316"><ele>388.0</ele><time>2026-04-04T15:32:37.999Z</time></trkpt><trkpt lat="43.467215763507006" lon="11.43139043487412"><ele>385.0</ele><time>2026-04-04T15:32:38.999Z</time></trkpt><trkpt lat="43.46733506059062" lon="11.431451531998961"><ele>382.0</ele><time>2026-04-04T15:32:39.999Z</time></trkpt><trkpt lat="43.46744949757978" lon="11.4315172585618"><ele>379.0</ele><time>2026-04-04T15:32:40.999Z</time></trkpt><trkpt lat="43.46757259714156" lon="11.431581847376226"><ele>376.0</ele><time>2026-04-04T15:32:41.999Z</time></trkpt><trkpt lat="43.46766799786291" lon="11.431680694781367"><ele>376.0</ele><time>2026-04-04T15:32:42.999Z</time></trkpt><trkpt lat="43.4677566103575" lon="11.431764516219399"><ele>376.0</ele><time>2026-04-04T15:32:43.999Z</time></trkpt><trkpt lat="43.467835750592634" lon="11.431848523147911"><ele>376.0</ele><time>2026-04-04T15:32:44.999Z</time></trkpt><trkpt lat="43.467929404495514" lon="11.431928242209493"><ele>376.0</ele><time>2026-04-04T15:32:45.999Z</time></trkpt><trkpt lat="43.467995473693634" lon="11.43205266564164"><ele>376.0</ele><time>2026-04-04T15:32:46.999Z</time></trkpt><trkpt lat="43.46805785238928" lon="11.43213967035087"><ele>373.0</ele><time>2026-04-04T15:32:47.999Z</time></trkpt><trkpt lat="43.46817463855637" lon="11.432246648785302"><ele>370.0</ele><time>2026-04-04T15:32:48.999Z</time></trkpt><trkpt lat="43.4682612513288" lon="11.432343343162396"><ele>367.0</ele><time>2026-04-04T15:32:49.999Z</time></trkpt><trkpt lat="43.46834134275031" lon="11.432445527526035"><ele>364.0</ele><time>2026-04-04T15:32:50.999Z</time></trkpt><trkpt lat="43.468400080221386" lon="11.432551298209923"><ele>364.0</ele><time>2026-04-04T15:32:51.999Z</time></trkpt><trkpt lat="43.46843133246913" lon="11.432682053905927"><ele>364.0</ele><time>2026-04-04T15:32:52.999Z</time></trkpt><trkpt lat="43.46846337284063" lon="11.432809106586552"><ele>364.0</ele><time>2026-04-04T15:32:53.999Z</time></trkpt><trkpt lat="43.468491488490166" lon="11.432928462189892"><ele>364.0</ele><time>2026-04-04T15:32:54.999Z</time></trkpt><trkpt lat="43.46851591501502" lon="11.433022471293574"><ele>364.0</ele><time>2026-04-04T15:32:55.999Z</time></trkpt><trkpt lat="43.468538924127195" lon="11.433163336510432"><ele>362.79999999999995</ele><time>2026-04-04T15:32:57.999Z</time></trkpt><trkpt lat="43.468437640690155" lon="11.43324616257342"><ele>361.59999999999997</ele><time>2026-04-04T15:32:59.999Z</time></trkpt><trkpt lat="43.4683549343459" lon="11.433308176121315"><ele>360.4</ele><time>2026-04-04T15:33:00.999Z</time></trkpt><trkpt lat="43.468263563216524" lon="11.433353910730153"><ele>359.2</ele><time>2026-04-04T15:33:01.999Z</time></trkpt><trkpt lat="43.46817398769526" lon="11.433416900101035"><ele>358.0</ele><time>2026-04-04T15:33:02.999Z</time></trkpt><trkpt lat="43.46806755799041" lon="11.433507248976282"><ele>358.0</ele><time>2026-04-04T15:33:03.999Z</time></trkpt><trkpt lat="43.46795602008092" lon="11.433632665759763"><ele>358.0</ele><time>2026-04-04T15:33:04.999Z</time></trkpt><trkpt lat="43.467844556429704" lon="11.433762423196308"><ele>358.0</ele><time>2026-04-04T15:33:05.999Z</time></trkpt><trkpt lat="43.46774502208224" lon="11.433857288807465"><ele>358.0</ele><time>2026-04-04T15:33:06.999Z</time></trkpt><trkpt lat="43.46765559742677" lon="11.433944304205399"><ele>357.2</ele><time>2026-04-04T15:33:07.999Z</time></trkpt><trkpt lat="43.467571895919065" lon="11.434021788173219"><ele>356.4</ele><time>2026-04-04T15:33:08.999Z</time></trkpt><trkpt lat="43.46748783636931" lon="11.434089032731173"><ele>355.59999999999997</ele><time>2026-04-04T15:33:09.999Z</time></trkpt><trkpt lat="43.467400697025916" lon="11.434150234902738"><ele>354.79999999999995</ele><time>2026-04-04T15:33:10.999Z</time></trkpt><trkpt lat="43.46729071235954" lon="11.434207573436007"><ele>354.0</ele><time>2026-04-04T15:33:11.999Z</time></trkpt><trkpt lat="43.46716355271051" lon="11.434253158596201"><ele>353.25</ele><time>2026-04-04T15:33:12.999Z</time></trkpt><trkpt lat="43.46703359102307" lon="11.434279114921724"><ele>352.5</ele><time>2026-04-04T15:33:13.999Z</time></trkpt><trkpt lat="43.466892057256814" lon="11.434314317908427"><ele>351.75</ele><time>2026-04-04T15:33:14.999Z</time></trkpt><trkpt lat="43.46674069078506" lon="11.43435161770853"><ele>351.0</ele><time>2026-04-04T15:33:15.999Z</time></trkpt><trkpt lat="43.4665851916649" lon="11.434365789245502"><ele>351.0</ele><time>2026-04-04T15:33:16.999Z</time></trkpt><trkpt lat="43.46642828095471" lon="11.434358510058658"><ele>351.0</ele><time>2026-04-04T15:33:17.999Z</time></trkpt><trkpt lat="43.466268082591355" lon="11.434343733083658"><ele>351.0</ele><time>2026-04-04T15:33:18.999Z</time></trkpt><trkpt lat="43.46610951568757" lon="11.43428264309751"><ele>350.0</ele><time>2026-04-04T15:33:19.999Z</time></trkpt><trkpt lat="43.465945562372454" lon="11.43425208868768"><ele>349.0</ele><time>2026-04-04T15:33:20.999Z</time></trkpt><trkpt lat="43.465795481335576" lon="11.434188917584047"><ele>348.0</ele><time>2026-04-04T15:33:21.999Z</time></trkpt><trkpt lat="43.46565345824832" lon="11.434106100857443"><ele>348.0</ele><time>2026-04-04T15:33:22.999Z</time></trkpt><trkpt lat="43.46552805539278" lon="11.43400105895393"><ele>348.0</ele><time>2026-04-04T15:33:23.999Z</time></trkpt><trkpt lat="43.4654230310798" lon="11.433871891429312"><ele>348.0</ele><time>2026-04-04T15:33:24.999Z</time></trkpt><trkpt lat="43.465318143330606" lon="11.433721509617655"><ele>348.0</ele><time>2026-04-04T15:33:25.998Z</time></trkpt><trkpt lat="43.46521235088294" lon="11.433556578089965"><ele>348.0</ele><time>2026-04-04T15:33:26.998Z</time></trkpt><trkpt lat="43.46509248568553" lon="11.433393307601923"><ele>348.0</ele><time>2026-04-04T15:33:27.998Z</time></trkpt><trkpt lat="43.4649589435447" lon="11.433251855602425"><ele>348.0</ele><time>2026-04-04T15:33:28.998Z</time></trkpt><trkpt lat="43.464813012575476" lon="11.43313939862796"><ele>348.0</ele><time>2026-04-04T15:33:29.998Z</time></trkpt><trkpt lat="43.46466040070035" lon="11.433029078002852"><ele>348.0</ele><time>2026-04-04T15:33:30.998Z</time></trkpt><trkpt lat="43.46452169540842" lon="11.432902705578668"><ele>348.0</ele><time>2026-04-04T15:33:31.998Z</time></trkpt><trkpt lat="43.46438634880418" lon="11.432744295160454"><ele>348.3333333333333</ele><time>2026-04-04T15:33:32.998Z</time></trkpt><trkpt lat="43.46425475228907" lon="11.432570386134357"><ele>348.66666666666663</ele><time>2026-04-04T15:33:33.999Z</time></trkpt><trkpt lat="43.46415178054892" lon="11.432371945531639"><ele>349.0</ele><time>2026-04-04T15:33:34.999Z</time></trkpt><trkpt lat="43.4640606869028" lon="11.432148447646819"><ele>351.0</ele><time>2026-04-04T15:33:35.999Z</time></trkpt><trkpt lat="43.463970352036334" lon="11.431914262555145"><ele>353.0</ele><time>2026-04-04T15:33:36.999Z</time></trkpt><trkpt lat="43.463876112762634" lon="11.431671773108677"><ele>355.0</ele><time>2026-04-04T15:33:37.999Z</time></trkpt><trkpt lat="43.463780306134865" lon="11.43142529259612"><ele>352.3333333333333</ele><time>2026-04-04T15:33:38.999Z</time></trkpt><trkpt lat="43.463679526084746" lon="11.431183587021021"><ele>349.6666666666667</ele><time>2026-04-04T15:33:39.999Z</time></trkpt><trkpt lat="43.463568128382896" lon="11.430951224550938"><ele>347.0</ele><time>2026-04-04T15:33:40.999Z</time></trkpt><trkpt lat="43.463426579018424" lon="11.43074155028776"><ele>347.0</ele><time>2026-04-04T15:33:41.999Z</time></trkpt><trkpt lat="43.46329443103211" lon="11.430526957006604"><ele>347.0</ele><time>2026-04-04T15:33:42.999Z</time></trkpt><trkpt lat="43.46317022516878" lon="11.43030570477789"><ele>347.0</ele><time>2026-04-04T15:33:43.999Z</time></trkpt><trkpt lat="43.46304809851571" lon="11.430084594797764"><ele>346.6666666666667</ele><time>2026-04-04T15:33:44.999Z</time></trkpt><trkpt lat="43.46292186061793" lon="11.429866249209011"><ele>346.3333333333333</ele><time>2026-04-04T15:33:45.999Z</time></trkpt><trkpt lat="43.46277247364737" lon="11.429655094010686"><ele>346.0</ele><time>2026-04-04T15:33:46.999Z</time></trkpt><trkpt lat="43.46261132284408" lon="11.42944396115787"><ele>346.0</ele><time>2026-04-04T15:33:47.999Z</time></trkpt><trkpt lat="43.462443059033646" lon="11.429232861324977"><ele>346.0</ele><time>2026-04-04T15:33:48.999Z</time></trkpt><trkpt lat="43.46227376078391" lon="11.429022583957185"><ele>345.0</ele><time>2026-04-04T15:33:49.999Z</time></trkpt><trkpt lat="43.462104663826686" lon="11.428812876518474"><ele>344.0</ele><time>2026-04-04T15:33:50.999Z</time></trkpt><trkpt lat="43.46193215796297" lon="11.428607664972878"><ele>343.0</ele><time>2026-04-04T15:33:51.999Z</time></trkpt><trkpt lat="43.46176829886028" lon="11.428386736636307"><ele>342.0</ele><time>2026-04-04T15:33:52.999Z</time></trkpt><trkpt lat="43.46158875446899" lon="11.428187370637433"><ele>342.0</ele><time>2026-04-04T15:33:53.999Z</time></trkpt><trkpt lat="43.461399052084495" lon="11.42800705936443"><ele>342.0</ele><time>2026-04-04T15:33:54.999Z</time></trkpt><trkpt lat="43.46122280739772" lon="11.42781820504216"><ele>341.3333333333333</ele><time>2026-04-04T15:33:55.999Z</time></trkpt><trkpt lat="43.46105576354831" lon="11.427642219067447"><ele>340.66666666666663</ele><time>2026-04-04T15:33:56.999Z</time></trkpt><trkpt lat="43.46089983814951" lon="11.427476221448181"><ele>340.0</ele><time>2026-04-04T15:33:57.999Z</time></trkpt><trkpt lat="43.46075611990342" lon="11.427328474748933"><ele>340.0</ele><time>2026-04-04T15:33:58.999Z</time></trkpt><trkpt lat="43.460613033237685" lon="11.42718431020199"><ele>340.0</ele><time>2026-04-04T15:33:59.999Z</time></trkpt><trkpt lat="43.460424936103635" lon="11.427077574941512"><ele>340.0</ele><time>2026-04-04T15:34:00.999Z</time></trkpt><trkpt lat="43.46021924154554" lon="11.426983449927613"><ele>341.5</ele><time>2026-04-04T15:34:01.999Z</time></trkpt><trkpt lat="43.46000338568425" lon="11.42688892060421"><ele>343.0</ele><time>2026-04-04T15:34:02.999Z</time></trkpt><trkpt lat="43.45978241806349" lon="11.42679004042951"><ele>341.0</ele><time>2026-04-04T15:34:03.999Z</time></trkpt><trkpt lat="43.45956532647161" lon="11.426693759484444"><ele>339.0</ele><time>2026-04-04T15:34:04.999Z</time></trkpt><trkpt lat="43.459347551215295" lon="11.426615643661984"><ele>339.0</ele><time>2026-04-04T15:34:05.999Z</time></trkpt><trkpt lat="43.459126226229586" lon="11.426515272325554"><ele>339.0</ele><time>2026-04-04T15:34:06.999Z</time></trkpt><trkpt lat="43.45890004031895" lon="11.426416718623775"><ele>338.0</ele><time>2026-04-04T15:34:07.999Z</time></trkpt><trkpt lat="43.458670856104945" lon="11.426317904353597"><ele>337.0</ele><time>2026-04-04T15:34:08.999Z</time></trkpt><trkpt lat="43.45844049102819" lon="11.426215462668596"><ele>336.5</ele><time>2026-04-04T15:34:09.999Z</time></trkpt><trkpt lat="43.458214881532655" lon="11.42609501911205"><ele>336.0</ele><time>2026-04-04T15:34:10.999Z</time></trkpt><trkpt lat="43.45797643664034" lon="11.426011711278695"><ele>336.0</ele><time>2026-04-04T15:34:11.999Z</time></trkpt><trkpt lat="43.457739928534956" lon="11.425904898518695"><ele>336.0</ele><time>2026-04-04T15:34:12.999Z</time></trkpt><trkpt lat="43.457503200447746" lon="11.425798096427737"><ele>336.0</ele><time>2026-04-04T15:34:13.999Z</time></trkpt><trkpt lat="43.45727216649598" lon="11.425699806764197"><ele>336.0</ele><time>2026-04-04T15:34:14.999Z</time></trkpt><trkpt lat="43.45705676989773" lon="11.425610648839488"><ele>338.0</ele><time>2026-04-04T15:34:15.999Z</time></trkpt><trkpt lat="43.45684781114793" lon="11.425539179084977"><ele>340.0</ele><time>2026-04-04T15:34:16.999Z</time></trkpt><trkpt lat="43.4566447708588" lon="11.425499383751664"><ele>342.0</ele><time>2026-04-04T15:34:17.999Z</time></trkpt><trkpt lat="43.45645772223775" lon="11.425490568477013"><ele>342.0</ele><time>2026-04-04T15:34:18.999Z</time></trkpt><trkpt lat="43.456303282086076" lon="11.42548450974477"><ele>342.0</ele><time>2026-04-04T15:34:19.999Z</time></trkpt><trkpt lat="43.45616727842363" lon="11.425409138078985"><ele>342.0</ele><time>2026-04-04T15:34:20.999Z</time></trkpt><trkpt lat="43.45603434244617" lon="11.425291834444213"><ele>340.3333333333333</ele><time>2026-04-04T15:34:21.999Z</time></trkpt><trkpt lat="43.45588739145993" lon="11.425148656038862"><ele>338.66666666666663</ele><time>2026-04-04T15:34:22.999Z</time></trkpt><trkpt lat="43.45573174965419" lon="11.424980586313787"><ele>337.0</ele><time>2026-04-04T15:34:23.999Z</time></trkpt><trkpt lat="43.4555658721486" lon="11.424810304571267"><ele>335.66666666666663</ele><time>2026-04-04T15:34:24.999Z</time></trkpt><trkpt lat="43.455404333083834" lon="11.42463356359168"><ele>334.3333333333333</ele><time>2026-04-04T15:34:25.999Z</time></trkpt><trkpt lat="43.4552394632562" lon="11.424457598553362"><ele>333.0</ele><time>2026-04-04T15:34:26.999Z</time></trkpt><trkpt lat="43.45506905288686" lon="11.424281046537091"><ele>333.0</ele><time>2026-04-04T15:34:27.999Z</time></trkpt><trkpt lat="43.454898946256684" lon="11.424108450184296"><ele>333.0</ele><time>2026-04-04T15:34:28.999Z</time></trkpt><trkpt lat="43.454725938392045" lon="11.423942980294754"><ele>333.0</ele><time>2026-04-04T15:34:29.999Z</time></trkpt><trkpt lat="43.45457137931388" lon="11.423759198767446"><ele>332.3333333333333</ele><time>2026-04-04T15:34:30.999Z</time></trkpt><trkpt lat="43.4544115480399" lon="11.423594837108224"><ele>331.66666666666663</ele><time>2026-04-04T15:34:31.999Z</time></trkpt><trkpt lat="43.454254586204144" lon="11.423430426867604"><ele>331.0</ele><time>2026-04-04T15:34:32.999Z</time></trkpt><trkpt lat="43.45411606474823" lon="11.423209753791902"><ele>333.0</ele><time>2026-04-04T15:34:33.999Z</time></trkpt><trkpt lat="43.453973894663385" lon="11.422971488469157"><ele>335.0</ele><time>2026-04-04T15:34:34.999Z</time></trkpt><trkpt lat="43.45382354735555" lon="11.422730305523478"><ele>330.0</ele><time>2026-04-04T15:34:35.999Z</time></trkpt><trkpt lat="43.453671690743995" lon="11.422498591588454"><ele>325.0</ele><time>2026-04-04T15:34:36.999Z</time></trkpt><trkpt lat="43.45352071881745" lon="11.422269735262756"><ele>327.3333333333333</ele><time>2026-04-04T15:34:37.999Z</time></trkpt><trkpt lat="43.45337715997134" lon="11.42205066228695"><ele>329.6666666666667</ele><time>2026-04-04T15:34:38.999Z</time></trkpt><trkpt lat="43.453239687062016" lon="11.421848007534692"><ele>332.0</ele><time>2026-04-04T15:34:39.999Z</time></trkpt><trkpt lat="43.45312299138795" lon="11.421661700752695"><ele>332.0</ele><time>2026-04-04T15:34:40.999Z</time></trkpt><trkpt lat="43.453007376816046" lon="11.421486853233443"><ele>332.0</ele><time>2026-04-04T15:34:41.999Z</time></trkpt><trkpt lat="43.45285321516386" lon="11.421356687416933"><ele>332.0</ele><time>2026-04-04T15:34:42.999Z</time></trkpt><trkpt lat="43.45268115685065" lon="11.421230653078391"><ele>333.0</ele><time>2026-04-04T15:34:43.999Z</time></trkpt><trkpt lat="43.452521852051554" lon="11.421076345554592"><ele>334.0</ele><time>2026-04-04T15:34:44.999Z</time></trkpt><trkpt lat="43.452378732517914" lon="11.420911576436302"><ele>335.0</ele><time>2026-04-04T15:34:45.999Z</time></trkpt><trkpt lat="43.45224126948764" lon="11.420717335292219"><ele>333.6666666666667</ele><time>2026-04-04T15:34:46.999Z</time></trkpt><trkpt lat="43.45210714086425" lon="11.420506432792264"><ele>332.3333333333333</ele><time>2026-04-04T15:34:47.999Z</time></trkpt><trkpt lat="43.45197597742652" lon="11.42029701855922"><ele>331.0</ele><time>2026-04-04T15:34:48.999Z</time></trkpt><trkpt lat="43.4518489192891" lon="11.420102921965455"><ele>331.0</ele><time>2026-04-04T15:34:49.999Z</time></trkpt><trkpt lat="43.45173686024994" lon="11.419910630783534"><ele>331.0</ele><time>2026-04-04T15:34:50.999Z</time></trkpt><trkpt lat="43.451618010913556" lon="11.419734845036528"><ele>331.0</ele><time>2026-04-04T15:34:51.999Z</time></trkpt><trkpt lat="43.451493134410086" lon="11.419568012642374"><ele>332.0</ele><time>2026-04-04T15:34:52.999Z</time></trkpt><trkpt lat="43.45135611763998" lon="11.419427339340615"><ele>333.0</ele><time>2026-04-04T15:34:53.999Z</time></trkpt><trkpt lat="43.451210228456446" lon="11.419300331160052"><ele>334.0</ele><time>2026-04-04T15:34:54.999Z</time></trkpt><trkpt lat="43.45106453347698" lon="11.419192943332265"><ele>331.3333333333333</ele><time>2026-04-04T15:34:55.999Z</time></trkpt><trkpt lat="43.45092574456393" lon="11.419129305246027"><ele>328.6666666666667</ele><time>2026-04-04T15:34:56.999Z</time></trkpt><trkpt lat="43.450767836714355" lon="11.41907525967354"><ele>326.0</ele><time>2026-04-04T15:34:57.999Z</time></trkpt><trkpt lat="43.45059384589291" lon="11.419032986283593"><ele>325.33333333333337</ele><time>2026-04-04T15:34:58.999Z</time></trkpt><trkpt lat="43.450416644565145" lon="11.419005844969114"><ele>324.6666666666667</ele><time>2026-04-04T15:34:59.999Z</time></trkpt><trkpt lat="43.45024465038559" lon="11.418981662817822"><ele>324.0</ele><time>2026-04-04T15:35:00.999Z</time></trkpt><trkpt lat="43.45007500912625" lon="11.418945143884894"><ele>324.0</ele><time>2026-04-04T15:35:01.999Z</time></trkpt><trkpt lat="43.449902260771076" lon="11.418879995632123"><ele>324.0</ele><time>2026-04-04T15:35:02.999Z</time></trkpt><trkpt lat="43.44972825161058" lon="11.418792586582484"><ele>324.0</ele><time>2026-04-04T15:35:03.999Z</time></trkpt><trkpt lat="43.44955464298826" lon="11.41871242093229"><ele>326.3333333333333</ele><time>2026-04-04T15:35:04.999Z</time></trkpt><trkpt lat="43.449367893191216" lon="11.418652981812695"><ele>328.66666666666663</ele><time>2026-04-04T15:35:05.999Z</time></trkpt><trkpt lat="43.449182245005446" lon="11.418591934677428"><ele>331.0</ele><time>2026-04-04T15:35:06.999Z</time></trkpt><trkpt lat="43.44899638112658" lon="11.418575017751579"><ele>331.0</ele><time>2026-04-04T15:35:07.999Z</time></trkpt><trkpt lat="43.44882854549442" lon="11.418566399728572"><ele>331.0</ele><time>2026-04-04T15:35:08.999Z</time></trkpt><trkpt lat="43.44867409233136" lon="11.418538363822513"><ele>331.0</ele><time>2026-04-04T15:35:09.999Z</time></trkpt><trkpt lat="43.448526694440105" lon="11.418511429517247"><ele>331.0</ele><time>2026-04-04T15:35:10.999Z</time></trkpt><trkpt lat="43.44837792968264" lon="11.418457010559452"><ele>331.0</ele><time>2026-04-04T15:35:11.999Z</time></trkpt><trkpt lat="43.44822095252774" lon="11.418362939845071"><ele>331.0</ele><time>2026-04-04T15:35:12.999Z</time></trkpt><trkpt lat="43.44807148740118" lon="11.418232735941649"><ele>329.0</ele><time>2026-04-04T15:35:13.999Z</time></trkpt><trkpt lat="43.44793019676506" lon="11.41809450794123"><ele>327.0</ele><time>2026-04-04T15:35:14.999Z</time></trkpt><trkpt lat="43.44779084088349" lon="11.417965851672303"><ele>325.0</ele><time>2026-04-04T15:35:15.999Z</time></trkpt><trkpt lat="43.447652825357046" lon="11.417854728204299"><ele>329.3333333333333</ele><time>2026-04-04T15:35:16.999Z</time></trkpt><trkpt lat="43.44749531324832" lon="11.417776134248836"><ele>333.6666666666667</ele><time>2026-04-04T15:35:17.999Z</time></trkpt><trkpt lat="43.44732399314365" lon="11.417727085244296"><ele>338.0</ele><time>2026-04-04T15:35:18.999Z</time></trkpt><trkpt lat="43.44713320134209" lon="11.417686345431136"><ele>338.6666666666667</ele><time>2026-04-04T15:35:19.999Z</time></trkpt><trkpt lat="43.44693451781542" lon="11.417634057068732"><ele>339.3333333333333</ele><time>2026-04-04T15:35:20.999Z</time></trkpt><trkpt lat="43.446734658871684" lon="11.417579018122616"><ele>340.0</ele><time>2026-04-04T15:35:21.999Z</time></trkpt><trkpt lat="43.446556495631455" lon="11.417528876342113"><ele>340.0</ele><time>2026-04-04T15:35:22.999Z</time></trkpt><trkpt lat="43.44639944984877" lon="11.417487184867221"><ele>340.0</ele><time>2026-04-04T15:35:23.999Z</time></trkpt><trkpt lat="43.44626152941958" lon="11.417467096423893"><ele>340.0</ele><time>2026-04-04T15:35:24.999Z</time></trkpt><trkpt lat="43.446122034450454" lon="11.417512982939902"><ele>340.0</ele><time>2026-04-04T15:35:25.999Z</time></trkpt><trkpt lat="43.44598869761292" lon="11.417618800685494"><ele>340.66666666666663</ele><time>2026-04-04T15:35:26.999Z</time></trkpt><trkpt lat="43.44589659310311" lon="11.417765055384725"><ele>341.3333333333333</ele><time>2026-04-04T15:35:27.999Z</time></trkpt><trkpt lat="43.445816583510926" lon="11.417953277555418"><ele>342.0</ele><time>2026-04-04T15:35:28.999Z</time></trkpt><trkpt lat="43.44574347195925" lon="11.418185059215654"><ele>342.0</ele><time>2026-04-04T15:35:29.999Z</time></trkpt><trkpt lat="43.44568201068342" lon="11.418443275915571"><ele>342.0</ele><time>2026-04-04T15:35:30.999Z</time></trkpt><trkpt lat="43.445646451801075" lon="11.418723427506153"><ele>342.0</ele><time>2026-04-04T15:35:31.999Z</time></trkpt><trkpt lat="43.445644234446675" lon="11.418979502202639"><ele>340.0</ele><time>2026-04-04T15:35:32.999Z</time></trkpt><trkpt lat="43.44564848231267" lon="11.419212337667133"><ele>338.0</ele><time>2026-04-04T15:35:33.999Z</time></trkpt><trkpt lat="43.445646286357025" lon="11.419403954691465"><ele>336.0</ele><time>2026-04-04T15:35:34.999Z</time></trkpt><trkpt lat="43.445622159490526" lon="11.419561914856589"><ele>334.0</ele><time>2026-04-04T15:35:35.999Z</time></trkpt><trkpt lat="43.445560861353556" lon="11.419676603811757"><ele>335.66666666666663</ele><time>2026-04-04T15:35:36.999Z</time></trkpt><trkpt lat="43.44542158857661" lon="11.41974195638793"><ele>337.3333333333333</ele><time>2026-04-04T15:35:37.999Z</time></trkpt><trkpt lat="43.445264576279854" lon="11.419829356742396"><ele>339.0</ele><time>2026-04-04T15:35:38.999Z</time></trkpt><trkpt lat="43.445081235698986" lon="11.419937204143327"><ele>339.0</ele><time>2026-04-04T15:35:39.999Z</time></trkpt><trkpt lat="43.44490011531551" lon="11.420044529852456"><ele>339.0</ele><time>2026-04-04T15:35:40.999Z</time></trkpt><trkpt lat="43.44475108115351" lon="11.420160676508699"><ele>339.0</ele><time>2026-04-04T15:35:41.999Z</time></trkpt><trkpt lat="43.44460487344801" lon="11.420257253847293"><ele>338.3333333333333</ele><time>2026-04-04T15:35:42.999Z</time></trkpt><trkpt lat="43.44447071361938" lon="11.42044212363559"><ele>337.66666666666663</ele><time>2026-04-04T15:35:43.999Z</time></trkpt><trkpt lat="43.44434924238471" lon="11.420629776468433"><ele>337.0</ele><time>2026-04-04T15:35:44.999Z</time></trkpt><trkpt lat="43.44422917205134" lon="11.420793001381748"><ele>337.0</ele><time>2026-04-04T15:35:45.999Z</time></trkpt><trkpt lat="43.444083133649514" lon="11.420935069111831"><ele>337.0</ele><time>2026-04-04T15:35:46.999Z</time></trkpt><trkpt lat="43.44390754759186" lon="11.421068331179605"><ele>337.0</ele><time>2026-04-04T15:35:47.999Z</time></trkpt><trkpt lat="43.44372202517462" lon="11.421198562970943"><ele>334.0</ele><time>2026-04-04T15:35:48.999Z</time></trkpt><trkpt lat="43.44354599159809" lon="11.421326972519003"><ele>331.0</ele><time>2026-04-04T15:35:49.999Z</time></trkpt><trkpt lat="43.44338311551139" lon="11.421438570760236"><ele>328.0</ele><time>2026-04-04T15:35:50.999Z</time></trkpt><trkpt lat="43.443218322186816" lon="11.421518928507199"><ele>328.0</ele><time>2026-04-04T15:35:51.999Z</time></trkpt><trkpt lat="43.44303538949542" lon="11.421553481555689"><ele>328.0</ele><time>2026-04-04T15:35:52.999Z</time></trkpt><trkpt lat="43.44283119864261" lon="11.42158078581414"><ele>328.0</ele><time>2026-04-04T15:35:53.999Z</time></trkpt><trkpt lat="43.44261354561324" lon="11.421551737338966"><ele>328.0</ele><time>2026-04-04T15:35:55Z</time></trkpt><trkpt lat="43.44237948417441" lon="11.421526016144414"><ele>328.0</ele><time>2026-04-04T15:35:56Z</time></trkpt><trkpt lat="43.442153586213955" lon="11.421510666735427"><ele>325.5</ele><time>2026-04-04T15:35:57Z</time></trkpt><trkpt lat="43.441920962560715" lon="11.421475883073953"><ele>323.0</ele><time>2026-04-04T15:35:58Z</time></trkpt><trkpt lat="43.441697770471386" lon="11.421442948719463"><ele>323.0</ele><time>2026-04-04T15:35:59Z</time></trkpt><trkpt lat="43.44148868583321" lon="11.421415737125017"><ele>323.0</ele><time>2026-04-04T15:36:00Z</time></trkpt><trkpt lat="43.44129534208414" lon="11.421378231278148"><ele>323.0</ele><time>2026-04-04T15:36:01Z</time></trkpt><trkpt lat="43.44111734858988" lon="11.421306181188223"><ele>325.33333333333337</ele><time>2026-04-04T15:36:02Z</time></trkpt><trkpt lat="43.44095190377577" lon="11.421200402392778"><ele>327.6666666666667</ele><time>2026-04-04T15:36:03Z</time></trkpt><trkpt lat="43.44079550996788" lon="11.42107883100807"><ele>330.0</ele><time>2026-04-04T15:36:04Z</time></trkpt><trkpt lat="43.440633417656144" lon="11.420946309181607"><ele>325.6666666666667</ele><time>2026-04-04T15:36:05Z</time></trkpt><trkpt lat="43.440460251325526" lon="11.420803071833134"><ele>321.33333333333337</ele><time>2026-04-04T15:36:06Z</time></trkpt><trkpt lat="43.440281365628024" lon="11.42065072938308"><ele>317.0</ele><time>2026-04-04T15:36:07Z</time></trkpt><trkpt lat="43.4401100707123" lon="11.42050141772703"><ele>317.33333333333337</ele><time>2026-04-04T15:36:08Z</time></trkpt><trkpt lat="43.43993043884505" lon="11.42034312700007"><ele>317.6666666666667</ele><time>2026-04-04T15:36:09Z</time></trkpt><trkpt lat="43.43975461936446" lon="11.420189659062961"><ele>318.0</ele><time>2026-04-04T15:36:10Z</time></trkpt><trkpt lat="43.439577370753206" lon="11.420044990045604"><ele>318.0</ele><time>2026-04-04T15:36:11Z</time></trkpt><trkpt lat="43.43940058904268" lon="11.419913379152415"><ele>318.0</ele><time>2026-04-04T15:36:12Z</time></trkpt><trkpt lat="43.43923222641638" lon="11.419785409330538"><ele>318.0</ele><time>2026-04-04T15:36:13Z</time></trkpt><trkpt lat="43.43904360717473" lon="11.419700716576017"><ele>318.0</ele><time>2026-04-04T15:36:14Z</time></trkpt><trkpt lat="43.438833065568815" lon="11.41966414137531"><ele>318.0</ele><time>2026-04-04T15:36:15Z</time></trkpt><trkpt lat="43.43861025038028" lon="11.419633141774787"><ele>318.0</ele><time>2026-04-04T15:36:16Z</time></trkpt><trkpt lat="43.43837731358965" lon="11.41960443141206"><ele>320.5</ele><time>2026-04-04T15:36:17Z</time></trkpt><trkpt lat="43.438135488248676" lon="11.419574523103838"><ele>323.0</ele><time>2026-04-04T15:36:18Z</time></trkpt><trkpt lat="43.437901423818396" lon="11.419541759460179"><ele>323.0</ele><time>2026-04-04T15:36:19Z</time></trkpt><trkpt lat="43.43766277705741" lon="11.419498407439"><ele>323.0</ele><time>2026-04-04T15:36:20Z</time></trkpt><trkpt lat="43.43742243793297" lon="11.419455606745373"><ele>323.0</ele><time>2026-04-04T15:36:21Z</time></trkpt><trkpt lat="43.437183646240996" lon="11.419415395988425"><ele>323.0</ele><time>2026-04-04T15:36:22Z</time></trkpt><trkpt lat="43.43694504240378" lon="11.419371283294202"><ele>321.5</ele><time>2026-04-04T15:36:23Z</time></trkpt><trkpt lat="43.436709428008854" lon="11.419327581597233"><ele>320.0</ele><time>2026-04-04T15:36:24Z</time></trkpt><trkpt lat="43.43647978852343" lon="11.41928308655568"><ele>318.6666666666667</ele><time>2026-04-04T15:36:25Z</time></trkpt><trkpt lat="43.43626373027431" lon="11.419243469302025"><ele>317.3333333333333</ele><time>2026-04-04T15:36:26Z</time></trkpt><trkpt lat="43.43606181696131" lon="11.419196720891907"><ele>316.0</ele><time>2026-04-04T15:36:27Z</time></trkpt><trkpt lat="43.43587007083211" lon="11.419161890351187"><ele>316.0</ele><time>2026-04-04T15:36:28Z</time></trkpt><trkpt lat="43.435696011039965" lon="11.419126654207552"><ele>316.0</ele><time>2026-04-04T15:36:29Z</time></trkpt><trkpt lat="43.43553836773534" lon="11.41910435145614"><ele>316.0</ele><time>2026-04-04T15:36:30Z</time></trkpt><trkpt lat="43.43539459486055" lon="11.419099339768577"><ele>317.0</ele><time>2026-04-04T15:36:31Z</time></trkpt><trkpt lat="43.4352576952478" lon="11.419138897369857"><ele>318.0</ele><time>2026-04-04T15:36:32Z</time></trkpt><trkpt lat="43.435116534457826" lon="11.419220081957373"><ele>319.0</ele><time>2026-04-04T15:36:33Z</time></trkpt><trkpt lat="43.434970279416916" lon="11.419331862400178"><ele>319.0</ele><time>2026-04-04T15:36:34Z</time></trkpt><trkpt lat="43.43481481172475" lon="11.419457100414242"><ele>319.0</ele><time>2026-04-04T15:36:35Z</time></trkpt><trkpt lat="43.43465128090311" lon="11.419611705166155"><ele>319.0</ele><time>2026-04-04T15:36:36Z</time></trkpt><trkpt lat="43.43448894432223" lon="11.419801245020421"><ele>318.0</ele><time>2026-04-04T15:36:37Z</time></trkpt><trkpt lat="43.43432445769436" lon="11.420001460059188"><ele>317.0</ele><time>2026-04-04T15:36:38Z</time></trkpt><trkpt lat="43.43414739853705" lon="11.42018052039048"><ele>316.0</ele><time>2026-04-04T15:36:39Z</time></trkpt><trkpt lat="43.433975583423845" lon="11.42032363132329"><ele>316.0</ele><time>2026-04-04T15:36:40Z</time></trkpt><trkpt lat="43.43380762537262" lon="11.420439561744153"><ele>316.0</ele><time>2026-04-04T15:36:41Z</time></trkpt><trkpt lat="43.433654707729936" lon="11.420527411111584"><ele>316.0</ele><time>2026-04-04T15:36:42Z</time></trkpt><trkpt lat="43.43352268665808" lon="11.420573194098765"><ele>311.66666666666663</ele><time>2026-04-04T15:36:43Z</time></trkpt><trkpt lat="43.433379761363575" lon="11.420557949727012"><ele>307.3333333333333</ele><time>2026-04-04T15:36:44Z</time></trkpt><trkpt lat="43.43322037453167" lon="11.42048467892693"><ele>303.0</ele><time>2026-04-04T15:36:45Z</time></trkpt><trkpt lat="43.433308551091926" lon="11.420971474456394"><ele>303.0</ele><time>2026-04-04T15:36:46Z</time></trkpt><trkpt lat="43.43320507241526" lon="11.420883604417327"><ele>303.0</ele><time>2026-04-04T15:36:47Z</time></trkpt><trkpt lat="43.43311589472332" lon="11.420724387356994"><ele>303.0</ele><time>2026-04-04T15:36:48Z</time></trkpt><trkpt lat="43.43303637422916" lon="11.420545471946612"><ele>303.0</ele><time>2026-04-04T15:36:49Z</time></trkpt><trkpt lat="43.43295813893274" lon="11.42031577320908"><ele>303.3333333333333</ele><time>2026-04-04T15:36:50Z</time></trkpt><trkpt lat="43.432864642195156" lon="11.420060404047272"><ele>303.66666666666663</ele><time>2026-04-04T15:36:51Z</time></trkpt><trkpt lat="43.43276505351534" lon="11.419805648619944"><ele>304.0</ele><time>2026-04-04T15:36:52Z</time></trkpt><trkpt lat="43.432654290596744" lon="11.419578178338181"><ele>304.0</ele><time>2026-04-04T15:36:53Z</time></trkpt><trkpt lat="43.432529095979895" lon="11.419374356232629"><ele>304.0</ele><time>2026-04-04T15:36:54Z</time></trkpt><trkpt lat="43.432397597901364" lon="11.419177606533548"><ele>304.0</ele><time>2026-04-04T15:36:55Z</time></trkpt><trkpt lat="43.43226128129101" lon="11.418980222611792"><ele>302.3333333333333</ele><time>2026-04-04T15:36:56Z</time></trkpt><trkpt lat="43.43212748675781" lon="11.418791842760914"><ele>300.6666666666667</ele><time>2026-04-04T15:36:57Z</time></trkpt><trkpt lat="43.43200211059867" lon="11.418600560315848"><ele>299.0</ele><time>2026-04-04T15:36:58Z</time></trkpt><trkpt lat="43.43188887103128" lon="11.418431378998427"><ele>299.0</ele><time>2026-04-04T15:36:59Z</time></trkpt><trkpt lat="43.43178340409447" lon="11.418274331058376"><ele>299.0</ele><time>2026-04-04T15:37:00Z</time></trkpt><trkpt lat="43.43168409382419" lon="11.418123664955028"><ele>299.0</ele><time>2026-04-04T15:37:01Z</time></trkpt><trkpt lat="43.43159223742776" lon="11.417979280585257"><ele>299.0</ele><time>2026-04-04T15:37:02Z</time></trkpt><trkpt lat="43.43150259114347" lon="11.417853437925098"><ele>299.4</ele><time>2026-04-04T15:37:03Z</time></trkpt><trkpt lat="43.43142341549447" lon="11.417733623746757"><ele>299.79999999999995</ele><time>2026-04-04T15:37:04Z</time></trkpt><trkpt lat="43.43134509556741" lon="11.417637840974024"><ele>300.20000000000005</ele><time>2026-04-04T15:37:05Z</time></trkpt><trkpt lat="43.431261159084144" lon="11.417587599828048"><ele>300.6</ele><time>2026-04-04T15:37:06Z</time></trkpt><trkpt lat="43.43117339779801" lon="11.417593623248054"><ele>301.0</ele><time>2026-04-04T15:37:07Z</time></trkpt><trkpt lat="43.431074898549234" lon="11.417637143270412"><ele>301.0</ele><time>2026-04-04T15:37:08Z</time></trkpt><trkpt lat="43.43096180894177" lon="11.417761802636262"><ele>301.0</ele><time>2026-04-04T15:37:09Z</time></trkpt><trkpt lat="43.430842344770035" lon="11.417871396810508"><ele>301.0</ele><time>2026-04-04T15:37:10Z</time></trkpt><trkpt lat="43.43070574344834" lon="11.417998324891968"><ele>301.3333333333333</ele><time>2026-04-04T15:37:11Z</time></trkpt><trkpt lat="43.430553233510125" lon="11.418113459229733"><ele>301.6666666666667</ele><time>2026-04-04T15:37:12Z</time></trkpt><trkpt lat="43.430379866791164" lon="11.418227048832593"><ele>302.0</ele><time>2026-04-04T15:37:13Z</time></trkpt><trkpt lat="43.430204892620786" lon="11.418358098605072"><ele>302.0</ele><time>2026-04-04T15:37:14Z</time></trkpt><trkpt lat="43.430039340032586" lon="11.418492256567623"><ele>302.0</ele><time>2026-04-04T15:37:15Z</time></trkpt><trkpt lat="43.429878508614586" lon="11.4186153820352"><ele>302.0</ele><time>2026-04-04T15:37:16Z</time></trkpt><trkpt lat="43.429715917599665" lon="11.418736463071212"><ele>304.6666666666667</ele><time>2026-04-04T15:37:17Z</time></trkpt><trkpt lat="43.42953927310467" lon="11.418868777146157"><ele>307.3333333333333</ele><time>2026-04-04T15:37:18Z</time></trkpt><trkpt lat="43.429366032742145" lon="11.418979969741997"><ele>310.0</ele><time>2026-04-04T15:37:19Z</time></trkpt><trkpt lat="43.42918697344324" lon="11.419070684484073"><ele>310.0</ele><time>2026-04-04T15:37:20Z</time></trkpt><trkpt lat="43.42900277143582" lon="11.419121677108736"><ele>310.0</ele><time>2026-04-04T15:37:21Z</time></trkpt><trkpt lat="43.42882286582605" lon="11.4191578818363"><ele>310.0</ele><time>2026-04-04T15:37:22Z</time></trkpt><trkpt lat="43.42865682102344" lon="11.419186906519142"><ele>310.3333333333333</ele><time>2026-04-04T15:37:23Z</time></trkpt><trkpt lat="43.428500443592974" lon="11.419228171367651"><ele>310.6666666666667</ele><time>2026-04-04T15:37:24Z</time></trkpt><trkpt lat="43.42835002318605" lon="11.419304632437964"><ele>311.0</ele><time>2026-04-04T15:37:25Z</time></trkpt><trkpt lat="43.42820394999915" lon="11.419416809869949"><ele>311.0</ele><time>2026-04-04T15:37:26Z</time></trkpt><trkpt lat="43.428064770652654" lon="11.419585074105633"><ele>311.0</ele><time>2026-04-04T15:37:27Z</time></trkpt><trkpt lat="43.42792858218585" lon="11.419763770824424"><ele>311.0</ele><time>2026-04-04T15:37:28Z</time></trkpt><trkpt lat="43.427813985618066" lon="11.419936182913629"><ele>311.0</ele><time>2026-04-04T15:37:29Z</time></trkpt><trkpt lat="43.427728560284955" lon="11.420091544759325"><ele>311.0</ele><time>2026-04-04T15:37:30Z</time></trkpt><trkpt lat="43.42771219476242" lon="11.420235136806053"><ele>311.0</ele><time>2026-04-04T15:37:31Z</time></trkpt><trkpt lat="43.42770383527155" lon="11.420397262547135"><ele>311.0</ele><time>2026-04-04T15:37:32Z</time></trkpt><trkpt lat="43.427725371516196" lon="11.420578041731723"><ele>311.0</ele><time>2026-04-04T15:37:33Z</time></trkpt><trkpt lat="43.42775201158774" lon="11.420766125567678"><ele>311.0</ele><time>2026-04-04T15:37:34Z</time></trkpt><trkpt lat="43.427829280227314" lon="11.42098544180789"><ele>311.0</ele><time>2026-04-04T15:37:35Z</time></trkpt><trkpt lat="43.42786137875975" lon="11.42121298097746"><ele>310.6666666666667</ele><time>2026-04-04T15:37:36Z</time></trkpt><trkpt lat="43.42787098775801" lon="11.421454839464158"><ele>310.3333333333333</ele><time>2026-04-04T15:37:37Z</time></trkpt><trkpt lat="43.42784628749319" lon="11.421706515634396"><ele>310.0</ele><time>2026-04-04T15:37:38Z</time></trkpt><trkpt lat="43.42779761346061" lon="11.421967882359041"><ele>312.66666666666663</ele><time>2026-04-04T15:37:39Z</time></trkpt><trkpt lat="43.42774434682157" lon="11.422207905859592"><ele>315.3333333333333</ele><time>2026-04-04T15:37:40Z</time></trkpt><trkpt lat="43.42766666408367" lon="11.422425560078043"><ele>318.0</ele><time>2026-04-04T15:37:41Z</time></trkpt><trkpt lat="43.427572678669804" lon="11.422598764370091"><ele>318.0</ele><time>2026-04-04T15:37:42Z</time></trkpt><trkpt lat="43.427464318997195" lon="11.422713218297027"><ele>318.0</ele><time>2026-04-04T15:37:43Z</time></trkpt><trkpt lat="43.427343120319364" lon="11.422776733125602"><ele>318.0</ele><time>2026-04-04T15:37:44Z</time></trkpt><trkpt lat="43.42719926980561" lon="11.422799618093968"><ele>318.0</ele><time>2026-04-04T15:37:45Z</time></trkpt><trkpt lat="43.42704595819976" lon="11.422822673198155"><ele>316.6666666666667</ele><time>2026-04-04T15:37:46Z</time></trkpt><trkpt lat="43.426883683291074" lon="11.422845935878172"><ele>315.33333333333337</ele><time>2026-04-04T15:37:47Z</time></trkpt><trkpt lat="43.42671786080418" lon="11.422873385738376"><ele>314.0</ele><time>2026-04-04T15:37:48Z</time></trkpt><trkpt lat="43.42655760806246" lon="11.422913991475271"><ele>314.0</ele><time>2026-04-04T15:37:49Z</time></trkpt><trkpt lat="43.426400000287494" lon="11.422958126229272"><ele>314.0</ele><time>2026-04-04T15:37:50Z</time></trkpt><trkpt lat="43.426265200629175" lon="11.423031235681236"><ele>314.0</ele><time>2026-04-04T15:37:51Z</time></trkpt><trkpt lat="43.426179209419026" lon="11.423121189924158"><ele>314.0</ele><time>2026-04-04T15:37:52Z</time></trkpt><trkpt lat="43.42614189128382" lon="11.423252336000578"><ele>314.25</ele><time>2026-04-04T15:37:53Z</time></trkpt><trkpt lat="43.426136119284294" lon="11.423415212667368"><ele>314.5</ele><time>2026-04-04T15:37:54Z</time></trkpt><trkpt lat="43.42618007212696" lon="11.423595011595946"><ele>314.75</ele><time>2026-04-04T15:37:55Z</time></trkpt><trkpt lat="43.426235686042226" lon="11.423800306053916"><ele>315.0</ele><time>2026-04-04T15:37:56Z</time></trkpt><trkpt lat="43.426304099053404" lon="11.42403161832656"><ele>319.6666666666667</ele><time>2026-04-04T15:37:57Z</time></trkpt><trkpt lat="43.42637399953758" lon="11.424290018748637"><ele>324.33333333333337</ele><time>2026-04-04T15:37:58Z</time></trkpt><trkpt lat="43.42644205544877" lon="11.424571720188409"><ele>329.0</ele><time>2026-04-04T15:37:59Z</time></trkpt><trkpt lat="43.42650331765434" lon="11.424854307336407"><ele>329.0</ele><time>2026-04-04T15:38:00Z</time></trkpt><trkpt lat="43.426552482624295" lon="11.42512457463265"><ele>329.0</ele><time>2026-04-04T15:38:01Z</time></trkpt><trkpt lat="43.426586927687495" lon="11.425375035138945"><ele>329.0</ele><time>2026-04-04T15:38:02Z</time></trkpt><trkpt lat="43.426586972673014" lon="11.42561430178584"><ele>329.33333333333337</ele><time>2026-04-04T15:38:03Z</time></trkpt><trkpt lat="43.426578020656926" lon="11.425866257767462"><ele>329.6666666666667</ele><time>2026-04-04T15:38:04Z</time></trkpt><trkpt lat="43.426550975021215" lon="11.4261165153762"><ele>330.0</ele><time>2026-04-04T15:38:05Z</time></trkpt><trkpt lat="43.42650507823715" lon="11.426358265827197"><ele>330.3333333333333</ele><time>2026-04-04T15:38:06Z</time></trkpt><trkpt lat="43.4264421188905" lon="11.426584263200755"><ele>330.66666666666663</ele><time>2026-04-04T15:38:07Z</time></trkpt><trkpt lat="43.426374675910196" lon="11.42679817142366"><ele>331.0</ele><time>2026-04-04T15:38:08Z</time></trkpt><trkpt lat="43.426297730918535" lon="11.426995117217189"><ele>330.0</ele><time>2026-04-04T15:38:09Z</time></trkpt><trkpt lat="43.42620327412738" lon="11.427164451531924"><ele>329.0</ele><time>2026-04-04T15:38:10Z</time></trkpt><trkpt lat="43.42609382630623" lon="11.42729177838646"><ele>328.0</ele><time>2026-04-04T15:38:11Z</time></trkpt><trkpt lat="43.425986690169914" lon="11.427410873756813"><ele>327.0</ele><time>2026-04-04T15:38:12Z</time></trkpt><trkpt lat="43.42591511117344" lon="11.427529495378154"><ele>327.0</ele><time>2026-04-04T15:38:13Z</time></trkpt><trkpt lat="43.42589696517658" lon="11.427704406864011"><ele>327.0</ele><time>2026-04-04T15:38:14Z</time></trkpt><trkpt lat="43.425919295056076" lon="11.42791313057131"><ele>327.0</ele><time>2026-04-04T15:38:15Z</time></trkpt><trkpt lat="43.42593637050623" lon="11.42815106189346"><ele>327.3333333333333</ele><time>2026-04-04T15:38:16Z</time></trkpt><trkpt lat="43.42594525263191" lon="11.428424929605265"><ele>327.66666666666663</ele><time>2026-04-04T15:38:17Z</time></trkpt><trkpt lat="43.42594724673274" lon="11.428720800111828"><ele>328.0</ele><time>2026-04-04T15:38:18Z</time></trkpt><trkpt lat="43.425944331209756" lon="11.429025798132669"><ele>330.0</ele><time>2026-04-04T15:38:19Z</time></trkpt><trkpt lat="43.42593912480453" lon="11.429557871378371"><ele>332.0</ele><time>2026-04-04T15:38:21Z</time></trkpt><trkpt lat="43.425942566782766" lon="11.429788172703205"><ele>332.0</ele><time>2026-04-04T15:38:22Z</time></trkpt><trkpt lat="43.42594253200734" lon="11.429999379477035"><ele>332.0</ele><time>2026-04-04T15:38:23Z</time></trkpt><trkpt lat="43.42593584210528" lon="11.430205963656146"><ele>332.0</ele><time>2026-04-04T15:38:24Z</time></trkpt><trkpt lat="43.42591756259304" lon="11.43041798367315"><ele>332.6666666666667</ele><time>2026-04-04T15:38:25Z</time></trkpt><trkpt lat="43.42587623829269" lon="11.430627941067211"><ele>333.3333333333333</ele><time>2026-04-04T15:38:26Z</time></trkpt><trkpt lat="43.42580959334256" lon="11.430834465108312"><ele>334.0</ele><time>2026-04-04T15:38:27Z</time></trkpt><trkpt lat="43.42573122065337" lon="11.43103562254895"><ele>334.0</ele><time>2026-04-04T15:38:28Z</time></trkpt><trkpt lat="43.42564035697389" lon="11.431235182380275"><ele>334.0</ele><time>2026-04-04T15:38:29Z</time></trkpt><trkpt lat="43.425561999013304" lon="11.431432259044703"><ele>334.0</ele><time>2026-04-04T15:38:30Z</time></trkpt><trkpt lat="43.42549974523489" lon="11.43160746544529"><ele>335.2</ele><time>2026-04-04T15:38:31Z</time></trkpt><trkpt lat="43.42544146305951" lon="11.431762133887487"><ele>336.4</ele><time>2026-04-04T15:38:32Z</time></trkpt><trkpt lat="43.42539672730096" lon="11.43189267136994"><ele>337.6</ele><time>2026-04-04T15:38:33Z</time></trkpt><trkpt lat="43.42535440268773" lon="11.432005242454016"><ele>338.8</ele><time>2026-04-04T15:38:34Z</time></trkpt><trkpt lat="43.42532067830554" lon="11.432102100048894"><ele>340.0</ele><time>2026-04-04T15:38:35Z</time></trkpt><trkpt lat="43.42527318567741" lon="11.43217987195982"><ele>340.0</ele><time>2026-04-04T15:38:36Z</time></trkpt><trkpt lat="43.42520142535122" lon="11.43222893819412"><ele>340.0</ele><time>2026-04-04T15:38:37Z</time></trkpt><trkpt lat="43.425104568353795" lon="11.432257361269873"><ele>340.0</ele><time>2026-04-04T15:38:38Z</time></trkpt><trkpt lat="43.42500563579108" lon="11.432306310374859"><ele>340.0</ele><time>2026-04-04T15:38:39Z</time></trkpt><trkpt lat="43.42492436153541" lon="11.432426864190608"><ele>340.0</ele><time>2026-04-04T15:38:40Z</time></trkpt><trkpt lat="43.42486455681962" lon="11.43260054358703"><ele>340.0</ele><time>2026-04-04T15:38:41Z</time></trkpt><trkpt lat="43.42480936450401" lon="11.432804412752935"><ele>340.0</ele><time>2026-04-04T15:38:42Z</time></trkpt><trkpt lat="43.424744512535526" lon="11.433014933168987"><ele>340.0</ele><time>2026-04-04T15:38:43Z</time></trkpt><trkpt lat="43.42466496133544" lon="11.433238988471512"><ele>343.66666666666663</ele><time>2026-04-04T15:38:44Z</time></trkpt><trkpt lat="43.42457619186181" lon="11.433470754190894"><ele>347.3333333333333</ele><time>2026-04-04T15:38:45Z</time></trkpt><trkpt lat="43.42448645035653" lon="11.433706978965697"><ele>351.0</ele><time>2026-04-04T15:38:46Z</time></trkpt><trkpt lat="43.42441321039521" lon="11.433917462122992"><ele>351.0</ele><time>2026-04-04T15:38:47Z</time></trkpt><trkpt lat="43.424378217893825" lon="11.434106844845411"><ele>351.0</ele><time>2026-04-04T15:38:48Z</time></trkpt><trkpt lat="43.42436857294238" lon="11.43429264699989"><ele>351.0</ele><time>2026-04-04T15:38:49Z</time></trkpt><trkpt lat="43.424357968802106" lon="11.434456256146827"><ele>351.0</ele><time>2026-04-04T15:38:50Z</time></trkpt><trkpt lat="43.424378636644676" lon="11.434608127754737"><ele>350.6</ele><time>2026-04-04T15:38:51Z</time></trkpt><trkpt lat="43.42440798019103" lon="11.434743074352241"><ele>350.20000000000005</ele><time>2026-04-04T15:38:52Z</time></trkpt><trkpt lat="43.42445230471451" lon="11.43486198683033"><ele>349.79999999999995</ele><time>2026-04-04T15:38:53Z</time></trkpt><trkpt lat="43.4245317561486" lon="11.43499033332137"><ele>349.4</ele><time>2026-04-04T15:38:54Z</time></trkpt><trkpt lat="43.42462992818965" lon="11.435076804142113"><ele>349.0</ele><time>2026-04-04T15:38:55Z</time></trkpt><trkpt lat="43.424761200704964" lon="11.435169517406653"><ele>347.0</ele><time>2026-04-04T15:38:56Z</time></trkpt><trkpt lat="43.424908063649575" lon="11.435254924608447"><ele>345.0</ele><time>2026-04-04T15:38:57Z</time></trkpt><trkpt lat="43.42505944810952" lon="11.435331057073556"><ele>343.0</ele><time>2026-04-04T15:38:58Z</time></trkpt><trkpt lat="43.4251867939584" lon="11.435412268554485"><ele>344.79999999999995</ele><time>2026-04-04T15:38:59Z</time></trkpt><trkpt lat="43.42528655085355" lon="11.435496188906699"><ele>346.6</ele><time>2026-04-04T15:39:00Z</time></trkpt><trkpt lat="43.42535397862837" lon="11.435597246829785"><ele>348.4</ele><time>2026-04-04T15:39:01Z</time></trkpt><trkpt lat="43.425387960514406" lon="11.435737900745668"><ele>350.20000000000005</ele><time>2026-04-04T15:39:02Z</time></trkpt><trkpt lat="43.42535893126463" lon="11.435886602183647"><ele>352.0</ele><time>2026-04-04T15:39:03Z</time></trkpt><trkpt lat="43.4252897945203" lon="11.436022296706529"><ele>352.0</ele><time>2026-04-04T15:39:04Z</time></trkpt><trkpt lat="43.42518771935447" lon="11.43613177831591"><ele>352.0</ele><time>2026-04-04T15:39:05Z</time></trkpt><trkpt lat="43.425084632004136" lon="11.436272154129995"><ele>352.0</ele><time>2026-04-04T15:39:06Z</time></trkpt><trkpt lat="43.42501786648466" lon="11.436468316561124"><ele>352.0</ele><time>2026-04-04T15:39:07Z</time></trkpt><trkpt lat="43.42496944472056" lon="11.436672942531905"><ele>353.0</ele><time>2026-04-04T15:39:08Z</time></trkpt><trkpt lat="43.42494519522762" lon="11.43688493511443"><ele>354.0</ele><time>2026-04-04T15:39:09Z</time></trkpt><trkpt lat="43.424937414221176" lon="11.437088904950084"><ele>355.0</ele><time>2026-04-04T15:39:10Z</time></trkpt><trkpt lat="43.4249468140528" lon="11.437300985013172"><ele>355.0</ele><time>2026-04-04T15:39:11Z</time></trkpt><trkpt lat="43.424962095985535" lon="11.437523665159548"><ele>355.0</ele><time>2026-04-04T15:39:12Z</time></trkpt><trkpt lat="43.42498040816829" lon="11.437753825335498"><ele>355.0</ele><time>2026-04-04T15:39:13Z</time></trkpt><trkpt lat="43.42502291995664" lon="11.437998616407409"><ele>357.0</ele><time>2026-04-04T15:39:14Z</time></trkpt><trkpt lat="43.42508971959337" lon="11.43825575292827"><ele>359.0</ele><time>2026-04-04T15:39:15Z</time></trkpt><trkpt lat="43.42514937748508" lon="11.438508695122243"><ele>361.0</ele><time>2026-04-04T15:39:16Z</time></trkpt><trkpt lat="43.42519260059593" lon="11.438747062447307"><ele>362.75</ele><time>2026-04-04T15:39:17Z</time></trkpt><trkpt lat="43.425236370718736" lon="11.438951136234495"><ele>364.5</ele><time>2026-04-04T15:39:18Z</time></trkpt><trkpt lat="43.42528463536013" lon="11.439108436853362"><ele>366.25</ele><time>2026-04-04T15:39:19Z</time></trkpt><trkpt lat="43.42534556113811" lon="11.439246785929118"><ele>368.0</ele><time>2026-04-04T15:39:20Z</time></trkpt><trkpt lat="43.4254263906145" lon="11.439318714439077"><ele>364.75</ele><time>2026-04-04T15:39:21Z</time></trkpt><trkpt lat="43.42553697880081" lon="11.43935384071314"><ele>361.5</ele><time>2026-04-04T15:39:22Z</time></trkpt><trkpt lat="43.4256495930991" lon="11.439348984803333"><ele>358.25</ele><time>2026-04-04T15:39:23Z</time></trkpt><trkpt lat="43.42576404038505" lon="11.439342785840719"><ele>355.0</ele><time>2026-04-04T15:39:24Z</time></trkpt><trkpt lat="43.4258774333439" lon="11.439371403616969"><ele>355.0</ele><time>2026-04-04T15:39:25Z</time></trkpt><trkpt lat="43.42598498276696" lon="11.439458528153395"><ele>355.0</ele><time>2026-04-04T15:39:26Z</time></trkpt><trkpt lat="43.426057049916636" lon="11.439607467182135"><ele>355.0</ele><time>2026-04-04T15:39:27Z</time></trkpt><trkpt lat="43.42609493197462" lon="11.439779455333396"><ele>355.0</ele><time>2026-04-04T15:39:28Z</time></trkpt><trkpt lat="43.42611044738492" lon="11.439989057901128"><ele>357.0</ele><time>2026-04-04T15:39:29Z</time></trkpt><trkpt lat="43.4261175821129" lon="11.440229139319309"><ele>359.0</ele><time>2026-04-04T15:39:30Z</time></trkpt><trkpt lat="43.426138775746054" lon="11.440497660235348"><ele>361.0</ele><time>2026-04-04T15:39:31Z</time></trkpt><trkpt lat="43.42614057055228" lon="11.440741900799516"><ele>361.75</ele><time>2026-04-04T15:39:32Z</time></trkpt><trkpt lat="43.42615369277792" lon="11.440961701869162"><ele>362.5</ele><time>2026-04-04T15:39:33Z</time></trkpt><trkpt lat="43.42616303184657" lon="11.441145655994966"><ele>363.25</ele><time>2026-04-04T15:39:34Z</time></trkpt><trkpt lat="43.42613124056561" lon="11.44130164972349"><ele>364.0</ele><time>2026-04-04T15:39:35Z</time></trkpt><trkpt lat="43.42607221242038" lon="11.441431623185284"><ele>364.0</ele><time>2026-04-04T15:39:36Z</time></trkpt><trkpt lat="43.42596479829953" lon="11.441518717524604"><ele>364.0</ele><time>2026-04-04T15:39:37Z</time></trkpt><trkpt lat="43.425827230023316" lon="11.441581660187094"><ele>364.0</ele><time>2026-04-04T15:39:38Z</time></trkpt><trkpt lat="43.42568016768095" lon="11.441653103269507"><ele>364.0</ele><time>2026-04-04T15:39:39Z</time></trkpt><trkpt lat="43.42551764407897" lon="11.441738709976551"><ele>366.66666666666663</ele><time>2026-04-04T15:39:40Z</time></trkpt><trkpt lat="43.42536240432172" lon="11.441835846403066"><ele>369.3333333333333</ele><time>2026-04-04T15:39:41Z</time></trkpt><trkpt lat="43.42523543713248" lon="11.441945357155333"><ele>372.0</ele><time>2026-04-04T15:39:42Z</time></trkpt><trkpt lat="43.42512855653035" lon="11.442106943255755"><ele>371.0</ele><time>2026-04-04T15:39:43Z</time></trkpt><trkpt lat="43.425041514378734" lon="11.442314827124633"><ele>370.0</ele><time>2026-04-04T15:39:44Z</time></trkpt><trkpt lat="43.424960381893015" lon="11.44253908519133"><ele>369.0</ele><time>2026-04-04T15:39:45Z</time></trkpt><trkpt lat="43.424891525567425" lon="11.44277833224745"><ele>368.6666666666667</ele><time>2026-04-04T15:39:46Z</time></trkpt><trkpt lat="43.42485774428254" lon="11.443030057147302"><ele>368.33333333333337</ele><time>2026-04-04T15:39:47Z</time></trkpt><trkpt lat="43.424836786661665" lon="11.443274501231244"><ele>368.0</ele><time>2026-04-04T15:39:48Z</time></trkpt><trkpt lat="43.42482631659012" lon="11.4434873116802"><ele>368.0</ele><time>2026-04-04T15:39:49Z</time></trkpt><trkpt lat="43.4248112191731" lon="11.443666749223532"><ele>368.0</ele><time>2026-04-04T15:39:50Z</time></trkpt><trkpt lat="43.42477427437456" lon="11.443827070831198"><ele>368.0</ele><time>2026-04-04T15:39:51Z</time></trkpt><trkpt lat="43.42471457736543" lon="11.443953402187313"><ele>368.0</ele><time>2026-04-04T15:39:52Z</time></trkpt><trkpt lat="43.42462876132043" lon="11.444078117559023"><ele>371.0</ele><time>2026-04-04T15:39:53Z</time></trkpt><trkpt lat="43.424530287944364" lon="11.444195969562363"><ele>374.0</ele><time>2026-04-04T15:39:54Z</time></trkpt><trkpt lat="43.42443374802411" lon="11.44433630522691"><ele>377.0</ele><time>2026-04-04T15:39:55Z</time></trkpt><trkpt lat="43.42434354563915" lon="11.444507352036794"><ele>380.0</ele><time>2026-04-04T15:39:56Z</time></trkpt><trkpt lat="43.424254017503856" lon="11.44470223812548"><ele>380.0</ele><time>2026-04-04T15:39:57Z</time></trkpt><trkpt lat="43.424167263310196" lon="11.44490106652437"><ele>380.0</ele><time>2026-04-04T15:39:58Z</time></trkpt><trkpt lat="43.42408724805678" lon="11.445087024393938"><ele>380.0</ele><time>2026-04-04T15:39:59Z</time></trkpt><trkpt lat="43.42401765512871" lon="11.445252656911924"><ele>380.0</ele><time>2026-04-04T15:40:00Z</time></trkpt><trkpt lat="43.423958929296646" lon="11.445395167900907"><ele>380.0</ele><time>2026-04-04T15:40:01Z</time></trkpt><trkpt lat="43.4239086423081" lon="11.445525461162536"><ele>380.0</ele><time>2026-04-04T15:40:02Z</time></trkpt><trkpt lat="43.42387000905331" lon="11.445643447223057"><ele>380.0</ele><time>2026-04-04T15:40:03Z</time></trkpt><trkpt lat="43.42385044380058" lon="11.445747066303932"><ele>380.0</ele><time>2026-04-04T15:40:04Z</time></trkpt><trkpt lat="43.42384944948793" lon="11.445849951794097"><ele>380.0</ele><time>2026-04-04T15:40:05Z</time></trkpt><trkpt lat="43.42387564196075" lon="11.445940395347812"><ele>380.0</ele><time>2026-04-04T15:40:06Z</time></trkpt><trkpt lat="43.42395979195652" lon="11.446075103526459"><ele>380.0</ele><time>2026-04-04T15:40:08Z</time></trkpt><trkpt lat="43.42402067598808" lon="11.446127628243692"><ele>380.0</ele><time>2026-04-04T15:40:09Z</time></trkpt><trkpt lat="43.4241008230466" lon="11.446158053871104"><ele>380.0</ele><time>2026-04-04T15:40:10Z</time></trkpt><trkpt lat="43.42419346029015" lon="11.446174028045894"><ele>380.0</ele><time>2026-04-04T15:40:11Z</time></trkpt><trkpt lat="43.424290397085954" lon="11.446225365539878"><ele>382.5</ele><time>2026-04-04T15:40:12Z</time></trkpt><trkpt lat="43.424381456144204" lon="11.446368312252659"><ele>385.0</ele><time>2026-04-04T15:40:13Z</time></trkpt><trkpt lat="43.42444755425977" lon="11.446523118634966"><ele>387.5</ele><time>2026-04-04T15:40:14Z</time></trkpt><trkpt lat="43.42448088586158" lon="11.446704549682009"><ele>390.0</ele><time>2026-04-04T15:40:15Z</time></trkpt><trkpt lat="43.42446119968323" lon="11.446894727465176"><ele>390.0</ele><time>2026-04-04T15:40:16Z</time></trkpt><trkpt lat="43.42443167758465" lon="11.447111545585642"><ele>390.0</ele><time>2026-04-04T15:40:17Z</time></trkpt><trkpt lat="43.42438061306888" lon="11.447319959932598"><ele>390.0</ele><time>2026-04-04T15:40:18Z</time></trkpt><trkpt lat="43.42429778705568" lon="11.447501343895961"><ele>391.33333333333337</ele><time>2026-04-04T15:40:19Z</time></trkpt><trkpt lat="43.42418436588799" lon="11.447637885240741"><ele>392.6666666666667</ele><time>2026-04-04T15:40:20Z</time></trkpt><trkpt lat="43.42406021333183" lon="11.44776646990297"><ele>394.0</ele><time>2026-04-04T15:40:21Z</time></trkpt><trkpt lat="43.423944060105754" lon="11.44789032880485"><ele>393.5</ele><time>2026-04-04T15:40:22Z</time></trkpt><trkpt lat="43.423860934662116" lon="11.448012239168822"><ele>393.0</ele><time>2026-04-04T15:40:23Z</time></trkpt><trkpt lat="43.42380745925706" lon="11.448182614193048"><ele>392.5</ele><time>2026-04-04T15:40:24Z</time></trkpt><trkpt lat="43.423803649518774" lon="11.448382576386289"><ele>392.0</ele><time>2026-04-04T15:40:25Z</time></trkpt><trkpt lat="43.42386283499094" lon="11.44857290438377"><ele>392.0</ele><time>2026-04-04T15:40:26Z</time></trkpt><trkpt lat="43.42390891918372" lon="11.448762806804428"><ele>392.0</ele><time>2026-04-04T15:40:27Z</time></trkpt><trkpt lat="43.42395645204853" lon="11.448940474777997"><ele>392.0</ele><time>2026-04-04T15:40:28Z</time></trkpt><trkpt lat="43.42398682639492" lon="11.449132607076766"><ele>392.0</ele><time>2026-04-04T15:40:29Z</time></trkpt><trkpt lat="43.42398160000902" lon="11.449339473706397"><ele>392.0</ele><time>2026-04-04T15:40:30Z</time></trkpt><trkpt lat="43.423940687164524" lon="11.449548413011751"><ele>392.0</ele><time>2026-04-04T15:40:31Z</time></trkpt><trkpt lat="43.42387649101494" lon="11.449748935906186"><ele>392.0</ele><time>2026-04-04T15:40:32Z</time></trkpt><trkpt lat="43.42378934376391" lon="11.449928693580077"><ele>398.66666666666663</ele><time>2026-04-04T15:40:33Z</time></trkpt><trkpt lat="43.42368030076085" lon="11.450091934509427"><ele>405.33333333333337</ele><time>2026-04-04T15:40:34Z</time></trkpt><trkpt lat="43.42355664638332" lon="11.450269585737527"><ele>412.0</ele><time>2026-04-04T15:40:35Z</time></trkpt><trkpt lat="43.42343433348464" lon="11.45044968826759"><ele>407.0</ele><time>2026-04-04T15:40:36Z</time></trkpt><trkpt lat="43.42330361466599" lon="11.450617230678693"><ele>402.0</ele><time>2026-04-04T15:40:37Z</time></trkpt><trkpt lat="43.42315204236185" lon="11.450775883662269"><ele>397.0</ele><time>2026-04-04T15:40:38Z</time></trkpt><trkpt lat="43.422991140624184" lon="11.450925083846338"><ele>404.6666666666667</ele><time>2026-04-04T15:40:39Z</time></trkpt><trkpt lat="43.42283539296421" lon="11.451060841945235"><ele>412.33333333333337</ele><time>2026-04-04T15:40:40Z</time></trkpt><trkpt lat="43.422686441452605" lon="11.451178389501477"><ele>420.0</ele><time>2026-04-04T15:40:41Z</time></trkpt><trkpt lat="43.42253103470809" lon="11.451262568921564"><ele>422.66666666666663</ele><time>2026-04-04T15:40:42Z</time></trkpt><trkpt lat="43.422370488759185" lon="11.451332167014511"><ele>425.3333333333333</ele><time>2026-04-04T15:40:43Z</time></trkpt><trkpt lat="43.422212717726026" lon="11.451340740134965"><ele>428.0</ele><time>2026-04-04T15:40:44Z</time></trkpt><trkpt lat="43.42208332386194" lon="11.451333581521977"><ele>428.0</ele><time>2026-04-04T15:40:45Z</time></trkpt><trkpt lat="43.42198656990272" lon="11.451339084093627"><ele>428.0</ele><time>2026-04-04T15:40:46Z</time></trkpt><trkpt lat="43.42190684194716" lon="11.451414680029972"><ele>428.0</ele><time>2026-04-04T15:40:47Z</time></trkpt><trkpt lat="43.421815880381516" lon="11.451500903071976"><ele>428.0</ele><time>2026-04-04T15:40:48Z</time></trkpt><trkpt lat="43.421761647353925" lon="11.451720275913882"><ele>428.0</ele><time>2026-04-04T15:40:49Z</time></trkpt><trkpt lat="43.42176306705501" lon="11.451940826762362"><ele>428.0</ele><time>2026-04-04T15:40:50Z</time></trkpt><trkpt lat="43.421761574892166" lon="11.45211698086588"><ele>428.0</ele><time>2026-04-04T15:40:51Z</time></trkpt><trkpt lat="43.42171634354575" lon="11.45228797008262"><ele>428.0</ele><time>2026-04-04T15:40:52Z</time></trkpt><trkpt lat="43.42165058615886" lon="11.452486169283592"><ele>425.75</ele><time>2026-04-04T15:40:53Z</time></trkpt><trkpt lat="43.42158736233228" lon="11.452661252017876"><ele>423.5</ele><time>2026-04-04T15:40:54Z</time></trkpt><trkpt lat="43.42154799102637" lon="11.452835195761322"><ele>421.25</ele><time>2026-04-04T15:40:55Z</time></trkpt><trkpt lat="43.421565911691374" lon="11.453026934123015"><ele>419.0</ele><time>2026-04-04T15:40:56Z</time></trkpt><trkpt lat="43.4216458647013" lon="11.453185302027043"><ele>418.0</ele><time>2026-04-04T15:40:57Z</time></trkpt><trkpt lat="43.421724816007654" lon="11.453329969362251"><ele>417.0</ele><time>2026-04-04T15:40:58Z</time></trkpt><trkpt lat="43.421792939374086" lon="11.45345203620611"><ele>416.0</ele><time>2026-04-04T15:40:59Z</time></trkpt><trkpt lat="43.42183586010603" lon="11.453589195904147"><ele>415.0</ele><time>2026-04-04T15:41:00Z</time></trkpt><trkpt lat="43.42182191641435" lon="11.45374111027378"><ele>414.5</ele><time>2026-04-04T15:41:01Z</time></trkpt><trkpt lat="43.42179545613407" lon="11.453890227810787"><ele>414.0</ele><time>2026-04-04T15:41:02Z</time></trkpt><trkpt lat="43.42173199709754" lon="11.45403106681628"><ele>413.5</ele><time>2026-04-04T15:41:03Z</time></trkpt><trkpt lat="43.42164532282716" lon="11.454157229027238"><ele>413.0</ele><time>2026-04-04T15:41:04Z</time></trkpt><trkpt lat="43.421517143638475" lon="11.454279717331794"><ele>413.0</ele><time>2026-04-04T15:41:05Z</time></trkpt><trkpt lat="43.42137410534404" lon="11.454399147932142"><ele>413.0</ele><time>2026-04-04T15:41:06Z</time></trkpt><trkpt lat="43.421219846154834" lon="11.454507047171926"><ele>413.0</ele><time>2026-04-04T15:41:07Z</time></trkpt><trkpt lat="43.42106857261317" lon="11.454629602129584"><ele>416.0</ele><time>2026-04-04T15:41:08Z</time></trkpt><trkpt lat="43.4209510765244" lon="11.45479246319557"><ele>419.0</ele><time>2026-04-04T15:41:09Z</time></trkpt><trkpt lat="43.42084459681582" lon="11.45500073199033"><ele>422.0</ele><time>2026-04-04T15:41:10Z</time></trkpt><trkpt lat="43.42073880207073" lon="11.455188590013888"><ele>422.0</ele><time>2026-04-04T15:41:11Z</time></trkpt><trkpt lat="43.42060716714557" lon="11.455367209030154"><ele>422.0</ele><time>2026-04-04T15:41:12Z</time></trkpt><trkpt lat="43.4204711955722" lon="11.45555648987204"><ele>422.0</ele><time>2026-04-04T15:41:13Z</time></trkpt><trkpt lat="43.420338851847234" lon="11.45574267369621"><ele>422.3333333333333</ele><time>2026-04-04T15:41:14Z</time></trkpt><trkpt lat="43.420211371997674" lon="11.455929575768371"><ele>422.66666666666663</ele><time>2026-04-04T15:41:15Z</time></trkpt><trkpt lat="43.420088691623214" lon="11.456111490852269"><ele>423.0</ele><time>2026-04-04T15:41:16Z</time></trkpt><trkpt lat="43.419969413015" lon="11.456288361805436"><ele>423.0</ele><time>2026-04-04T15:41:17Z</time></trkpt><trkpt lat="43.41985297360227" lon="11.456456393415893"><ele>423.0</ele><time>2026-04-04T15:41:18Z</time></trkpt><trkpt lat="43.41974165854086" lon="11.45660460332261"><ele>423.0</ele><time>2026-04-04T15:41:19Z</time></trkpt><trkpt lat="43.419633800412655" lon="11.456719152649638"><ele>426.25</ele><time>2026-04-04T15:41:20Z</time></trkpt><trkpt lat="43.41952004502887" lon="11.456797974610435"><ele>429.5</ele><time>2026-04-04T15:41:21Z</time></trkpt><trkpt lat="43.419391777370826" lon="11.45684345951676"><ele>432.75</ele><time>2026-04-04T15:41:22Z</time></trkpt><trkpt lat="43.41925567405999" lon="11.4568571652686"><ele>436.0</ele><time>2026-04-04T15:41:23Z</time></trkpt><trkpt lat="43.41914232038911" lon="11.456928556828377"><ele>436.0</ele><time>2026-04-04T15:41:24Z</time></trkpt><trkpt lat="43.419055292823565" lon="11.457006175048875"><ele>436.0</ele><time>2026-04-04T15:41:25Z</time></trkpt><trkpt lat="43.41901072063762" lon="11.45718615611658"><ele>436.0</ele><time>2026-04-04T15:41:26Z</time></trkpt><trkpt lat="43.41898568707133" lon="11.457356364419415"><ele>436.0</ele><time>2026-04-04T15:41:27Z</time></trkpt><trkpt lat="43.41897594263444" lon="11.45753956281214"><ele>435.25</ele><time>2026-04-04T15:41:28Z</time></trkpt><trkpt lat="43.4189041598761" lon="11.457674992765035"><ele>434.5</ele><time>2026-04-04T15:41:29Z</time></trkpt><trkpt lat="43.41881710215278" lon="11.45778777887473"><ele>433.75</ele><time>2026-04-04T15:41:30Z</time></trkpt><trkpt lat="43.418689843957644" lon="11.457869197147875"><ele>433.0</ele><time>2026-04-04T15:41:31Z</time></trkpt><trkpt lat="43.41854248929866" lon="11.457987154726238"><ele>433.0</ele><time>2026-04-04T15:41:32Z</time></trkpt><trkpt lat="43.41838564305742" lon="11.458109748616392"><ele>433.0</ele><time>2026-04-04T15:41:33Z</time></trkpt><trkpt lat="43.41823270703054" lon="11.458228057329432"><ele>433.0</ele><time>2026-04-04T15:41:34Z</time></trkpt><trkpt lat="43.4180915024448" lon="11.458331127847911"><ele>434.5</ele><time>2026-04-04T15:41:35Z</time></trkpt><trkpt lat="43.41796374320203" lon="11.458391342372593"><ele>436.0</ele><time>2026-04-04T15:41:36Z</time></trkpt><trkpt lat="43.41782247374295" lon="11.458396660418696"><ele>437.5</ele><time>2026-04-04T15:41:37Z</time></trkpt><trkpt lat="43.417680607089835" lon="11.45834494177145"><ele>439.0</ele><time>2026-04-04T15:41:38Z</time></trkpt><trkpt lat="43.41754590726643" lon="11.458239974574933"><ele>439.0</ele><time>2026-04-04T15:41:39Z</time></trkpt><trkpt lat="43.417411396039434" lon="11.458144256651117"><ele>439.0</ele><time>2026-04-04T15:41:40Z</time></trkpt><trkpt lat="43.4172920557399" lon="11.45806665574162"><ele>439.0</ele><time>2026-04-04T15:41:41Z</time></trkpt><trkpt lat="43.41717141776947" lon="11.458027673096101"><ele>439.0</ele><time>2026-04-04T15:41:42Z</time></trkpt><trkpt lat="43.41705105827433" lon="11.457995907753148"><ele>439.5</ele><time>2026-04-04T15:41:43Z</time></trkpt><trkpt lat="43.41692167488457" lon="11.457980605637953"><ele>440.0</ele><time>2026-04-04T15:41:44Z</time></trkpt><trkpt lat="43.41679128629512" lon="11.457986846989284"><ele>440.5</ele><time>2026-04-04T15:41:45Z</time></trkpt><trkpt lat="43.41666074766041" lon="11.457959459883195"><ele>441.0</ele><time>2026-04-04T15:41:46Z</time></trkpt><trkpt lat="43.416525558425086" lon="11.457976086712375"><ele>441.0</ele><time>2026-04-04T15:41:47Z</time></trkpt><trkpt lat="43.41639817394888" lon="11.458009767255277"><ele>441.0</ele><time>2026-04-04T15:41:48Z</time></trkpt><trkpt lat="43.41630649642332" lon="11.458082048923073"><ele>441.0</ele><time>2026-04-04T15:41:49Z</time></trkpt><trkpt lat="43.41621415191399" lon="11.458156914120083"><ele>441.0</ele><time>2026-04-04T15:41:50Z</time></trkpt><trkpt lat="43.41612028224843" lon="11.458233015481497"><ele>442.0</ele><time>2026-04-04T15:41:51Z</time></trkpt><trkpt lat="43.416067914756155" lon="11.458366216628866"><ele>443.0</ele><time>2026-04-04T15:41:52Z</time></trkpt><trkpt lat="43.41600954728312" lon="11.458461329348099"><ele>444.0</ele><time>2026-04-04T15:41:53Z</time></trkpt><trkpt lat="43.41596243883646" lon="11.458568262569264"><ele>445.0</ele><time>2026-04-04T15:41:54Z</time></trkpt><trkpt lat="43.41592713675393" lon="11.458690288925316"><ele>446.0</ele><time>2026-04-04T15:41:55Z</time></trkpt><trkpt lat="43.41589723091902" lon="11.458820733633422"><ele>446.66666666666663</ele><time>2026-04-04T15:41:56Z</time></trkpt><trkpt lat="43.41587479673665" lon="11.458955047750305"><ele>447.3333333333333</ele><time>2026-04-04T15:41:57Z</time></trkpt><trkpt lat="43.41586150452378" lon="11.4590766366048"><ele>448.0</ele><time>2026-04-04T15:41:58Z</time></trkpt><trkpt lat="43.41585972180008" lon="11.459180186793848"><ele>448.66666666666663</ele><time>2026-04-04T15:41:59Z</time></trkpt><trkpt lat="43.41587361300849" lon="11.45926837331392"><ele>449.3333333333333</ele><time>2026-04-04T15:42:00Z</time></trkpt><trkpt lat="43.41589335905591" lon="11.45935066963446"><ele>450.0</ele><time>2026-04-04T15:42:01Z</time></trkpt><trkpt lat="43.41590972854308" lon="11.45944464632635"><ele>450.0</ele><time>2026-04-04T15:42:02Z</time></trkpt><trkpt lat="43.41591317613307" lon="11.459547643272108"><ele>450.0</ele><time>2026-04-04T15:42:03Z</time></trkpt><trkpt lat="43.415906639789746" lon="11.459660234118804"><ele>450.0</ele><time>2026-04-04T15:42:04Z</time></trkpt><trkpt lat="43.415913872901655" lon="11.459783093998057"><ele>450.0</ele><time>2026-04-04T15:42:05Z</time></trkpt><trkpt lat="43.41591852974222" lon="11.45991845377657"><ele>450.0</ele><time>2026-04-04T15:42:06Z</time></trkpt><trkpt lat="43.41591603451832" lon="11.460074292374859"><ele>451.1666666666667</ele><time>2026-04-04T15:42:07Z</time></trkpt><trkpt lat="43.415917065715476" lon="11.460214941628548"><ele>452.33333333333337</ele><time>2026-04-04T15:42:08Z</time></trkpt><trkpt lat="43.41591882111662" lon="11.460351954939352"><ele>453.5</ele><time>2026-04-04T15:42:09Z</time></trkpt><trkpt lat="43.4159245555239" lon="11.460469497157055"><ele>454.6666666666667</ele><time>2026-04-04T15:42:10Z</time></trkpt><trkpt lat="43.41593560293676" lon="11.460587172774062"><ele>455.83333333333337</ele><time>2026-04-04T15:42:11Z</time></trkpt><trkpt lat="43.41594979632718" lon="11.460677510628308"><ele>457.0</ele><time>2026-04-04T15:42:12Z</time></trkpt><trkpt lat="43.41598256015423" lon="11.460783919013272"><ele>459.33333333333337</ele><time>2026-04-04T15:42:13Z</time></trkpt><trkpt lat="43.41603793673507" lon="11.4608683814918"><ele>461.6666666666667</ele><time>2026-04-04T15:42:14Z</time></trkpt><trkpt lat="43.41607920041584" lon="11.460945006549398"><ele>464.0</ele><time>2026-04-04T15:42:15Z</time></trkpt><trkpt lat="43.41612163094426" lon="11.461016181238152"><ele>466.33333333333337</ele><time>2026-04-04T15:42:16Z</time></trkpt><trkpt lat="43.416150429540416" lon="11.461109235652424"><ele>468.6666666666667</ele><time>2026-04-04T15:42:17Z</time></trkpt><trkpt lat="43.416150851791826" lon="11.461224822891559"><ele>471.0</ele><time>2026-04-04T15:42:19Z</time></trkpt><trkpt lat="43.41609471233452" lon="11.4613075758577"><ele>472.20000000000005</ele><time>2026-04-04T15:42:20Z</time></trkpt><trkpt lat="43.41599886430188" lon="11.46142789950063"><ele>473.40000000000003</ele><time>2026-04-04T15:42:22Z</time></trkpt><trkpt lat="43.41593000768526" lon="11.461468249537475"><ele>474.6</ele><time>2026-04-04T15:42:23Z</time></trkpt><trkpt lat="43.415864169704044" lon="11.461487480678546"><ele>475.8</ele><time>2026-04-04T15:42:24Z</time></trkpt><trkpt lat="43.41577018287358" lon="11.461456300648106"><ele>477.0</ele><time>2026-04-04T15:42:25Z</time></trkpt><trkpt lat="43.41565985661421" lon="11.461363373284746"><ele>475.8</ele><time>2026-04-04T15:42:27Z</time></trkpt><trkpt lat="43.41564760425264" lon="11.461221447329153"><ele>474.6</ele><time>2026-04-04T15:42:28Z</time></trkpt><trkpt lat="43.4156176480013" lon="11.461033706106576"><ele>473.40000000000003</ele><time>2026-04-04T15:42:30Z</time></trkpt><trkpt lat="43.415596431515674" lon="11.460932435070644"><ele>472.20000000000005</ele><time>2026-04-04T15:42:31Z</time></trkpt><trkpt lat="43.41554824618364" lon="11.46083618646113"><ele>471.0</ele><time>2026-04-04T15:42:32Z</time></trkpt><trkpt lat="43.41549670762653" lon="11.460753599503384"><ele>472.5</ele><time>2026-04-04T15:42:33Z</time></trkpt><trkpt lat="43.415440766385544" lon="11.460690881885851"><ele>474.0</ele><time>2026-04-04T15:42:34Z</time></trkpt><trkpt lat="43.41537933912439" lon="11.460638741586818"><ele>475.5</ele><time>2026-04-04T15:42:35Z</time></trkpt><trkpt lat="43.41531223577788" lon="11.460627085072877"><ele>477.0</ele><time>2026-04-04T15:42:36Z</time></trkpt><trkpt lat="43.415230682896876" lon="11.460713133665472"><ele>478.5</ele><time>2026-04-04T15:42:38Z</time></trkpt><trkpt lat="43.415275061977596" lon="11.460801540255568"><ele>480.0</ele><time>2026-04-04T15:42:40Z</time></trkpt><trkpt lat="43.41533674311182" lon="11.460820758106584"><ele>480.0</ele><time>2026-04-04T15:42:41Z</time></trkpt><trkpt lat="43.41542278076183" lon="11.46089206007258"><ele>480.0</ele><time>2026-04-04T15:42:43Z</time></trkpt><trkpt lat="43.41544585991952" lon="11.460985488319718"><ele>480.0</ele><time>2026-04-04T15:42:45Z</time></trkpt><trkpt lat="43.4154570718741" lon="11.461136369652158"><ele>480.0</ele><time>2026-04-04T15:42:47Z</time></trkpt><trkpt lat="43.41545870446754" lon="11.461262503958618"><ele>480.0</ele><time>2026-04-04T15:42:49Z</time></trkpt><trkpt lat="43.41539920250664" lon="11.461307702064058"><ele>480.0</ele><time>2026-04-04T15:42:50Z</time></trkpt><trkpt lat="43.415372798867274" lon="11.461395574692077"><ele>481.6666666666667</ele><time>2026-04-04T15:42:51Z</time></trkpt><trkpt lat="43.415367214735284" lon="11.461539320349699"><ele>483.33333333333337</ele><time>2026-04-04T15:42:53Z</time></trkpt><trkpt lat="43.41537753790354" lon="11.461682464014952"><ele>485.0</ele><time>2026-04-04T15:42:55Z</time></trkpt><trkpt lat="43.41534444777747" lon="11.461776467232601"><ele>486.6666666666667</ele><time>2026-04-04T15:42:57Z</time></trkpt><trkpt lat="43.41526479465235" lon="11.461767138391588"><ele>488.33333333333337</ele><time>2026-04-04T15:42:59Z</time></trkpt><trkpt lat="43.41522257279868" lon="11.461694950989257"><ele>490.0</ele><time>2026-04-04T15:43:01Z</time></trkpt><trkpt lat="43.415204926729494" lon="11.461547297824273"><ele>490.0</ele><time>2026-04-04T15:43:03Z</time></trkpt><trkpt lat="43.41514407014614" lon="11.46149048066803"><ele>490.0</ele><time>2026-04-04T15:43:05Z</time></trkpt><trkpt lat="43.41506236892375" lon="11.46143033832292"><ele>490.0</ele><time>2026-04-04T15:43:07Z</time></trkpt><trkpt lat="43.41500358030896" lon="11.461512649044272"><ele>490.0</ele><time>2026-04-04T15:43:10Z</time></trkpt><trkpt lat="43.4149701103755" lon="11.461658724473848"><ele>490.0</ele><time>2026-04-04T15:43:12Z</time></trkpt><trkpt lat="43.41495279867108" lon="11.46180988554362"><ele>490.00000000000006</ele><time>2026-04-04T15:43:14Z</time></trkpt><trkpt lat="43.41490579947157" lon="11.461968851839268"><ele>490.0</ele><time>2026-04-04T15:43:16Z</time></trkpt><trkpt lat="43.4148374288728" lon="11.462039391955276"><ele>490.0</ele><time>2026-04-04T15:43:18Z</time></trkpt><trkpt lat="43.41480214975609" lon="11.462129379444919"><ele>490.0</ele><time>2026-04-04T15:43:21Z</time></trkpt><trkpt lat="43.41475042375979" lon="11.462211291707762"><ele>490.00000000000006</ele><time>2026-04-04T15:43:40Z</time></trkpt><trkpt lat="43.41470136468273" lon="11.462286085013004"><ele>490.0</ele><time>2026-04-04T15:43:43Z</time></trkpt><trkpt lat="43.414726771541254" lon="11.462396465230766"><ele>491.33333333333337</ele><time>2026-04-04T15:43:45Z</time></trkpt><trkpt lat="43.414688215461155" lon="11.462502644214782"><ele>492.6666666666667</ele><time>2026-04-04T15:43:47Z</time></trkpt><trkpt lat="43.41464997175719" lon="11.462615297049124"><ele>494.0</ele><time>2026-04-04T15:43:49Z</time></trkpt><trkpt lat="43.41461334289063" lon="11.462721942665835"><ele>495.33333333333337</ele><time>2026-04-04T15:43:51Z</time></trkpt><trkpt lat="43.41458415752054" lon="11.46280697200326"><ele>496.6666666666667</ele><time>2026-04-04T15:43:53Z</time></trkpt><trkpt lat="43.41456440864752" lon="11.46292782489655"><ele>498.0</ele><time>2026-04-04T15:43:55Z</time></trkpt><trkpt lat="43.41455348938086" lon="11.463090353717378"><ele>504.0</ele><time>2026-04-04T15:43:57Z</time></trkpt><trkpt lat="43.41455777744662" lon="11.463177518126958"><ele>509.99999999999994</ele><time>2026-04-04T15:43:58Z</time></trkpt><trkpt lat="43.41456481937374" lon="11.463264193453142"><ele>516.0</ele><time>2026-04-04T15:43:59Z</time></trkpt><trkpt lat="43.41457821638291" lon="11.463448277416726"><ele>522.0</ele><time>2026-04-04T15:44:01Z</time></trkpt><trkpt lat="43.41457473454146" lon="11.463627609704531"><ele>528.0</ele><time>2026-04-04T15:44:03Z</time></trkpt><trkpt lat="43.41455871251145" lon="11.463728574186757"><ele>527.3333333333334</ele><time>2026-04-04T15:44:04Z</time></trkpt><trkpt lat="43.414539130448766" lon="11.463818412412193"><ele>526.6666666666666</ele><time>2026-04-04T15:44:05Z</time></trkpt><trkpt lat="43.414511987734095" lon="11.463897558211357"><ele>526.0</ele><time>2026-04-04T15:44:06Z</time></trkpt><trkpt lat="43.414474541262685" lon="11.463986726051724"><ele>525.3333333333333</ele><time>2026-04-04T15:44:07Z</time></trkpt><trkpt lat="43.41442768295625" lon="11.464060201221479"><ele>524.6666666666666</ele><time>2026-04-04T15:44:08Z</time></trkpt><trkpt lat="43.41434911438947" lon="11.464098938809343"><ele>524.0</ele><time>2026-04-04T15:44:10Z</time></trkpt><trkpt lat="43.41427017322464" lon="11.464178648833816"><ele>524.0</ele><time>2026-04-04T15:44:11Z</time></trkpt><trkpt lat="43.414217632044654" lon="11.464246311254165"><ele>524.0</ele><time>2026-04-04T15:44:12Z</time></trkpt><trkpt lat="43.41415658888191" lon="11.464315717869049"><ele>524.0</ele><time>2026-04-04T15:44:13Z</time></trkpt><trkpt lat="43.41409956432625" lon="11.464395761246767"><ele>524.0</ele><time>2026-04-04T15:44:14Z</time></trkpt><trkpt lat="43.41401197611215" lon="11.464449272454686"><ele>524.0</ele><time>2026-04-04T15:44:15Z</time></trkpt><trkpt lat="43.41393902000725" lon="11.464497323029866"><ele>524.0</ele><time>2026-04-04T15:44:16Z</time></trkpt><trkpt lat="43.4138807845051" lon="11.464531854369204"><ele>525.4</ele><time>2026-04-04T15:44:17Z</time></trkpt><trkpt lat="43.413756342663994" lon="11.464590920304568"><ele>526.8</ele><time>2026-04-04T15:44:19Z</time></trkpt><trkpt lat="43.41368758416871" lon="11.464612093409237"><ele>528.2</ele><time>2026-04-04T15:44:20Z</time></trkpt><trkpt lat="43.41356748872983" lon="11.464618620734017"><ele>529.6</ele><time>2026-04-04T15:44:22Z</time></trkpt><trkpt lat="43.413495547724445" lon="11.464616538239149"><ele>531.0</ele><time>2026-04-04T15:44:23Z</time></trkpt><trkpt lat="43.41342080559161" lon="11.464597436695776"><ele>531.0</ele><time>2026-04-04T15:44:24Z</time></trkpt><trkpt lat="43.41335267659724" lon="11.464584869674516"><ele>531.0</ele><time>2026-04-04T15:44:25Z</time></trkpt><trkpt lat="43.41325783269212" lon="11.464561087340265"><ele>531.0</ele><time>2026-04-04T15:44:27Z</time></trkpt><trkpt lat="43.41319163030471" lon="11.464532518801242"><ele>531.0</ele><time>2026-04-04T15:44:29Z</time></trkpt><trkpt lat="43.41311646369418" lon="11.464465363716993"><ele>531.0</ele><time>2026-04-04T15:44:31Z</time></trkpt><trkpt lat="43.41302851244725" lon="11.464401061732524"><ele>531.0</ele><time>2026-04-04T15:44:33Z</time></trkpt><trkpt lat="43.4129258444813" lon="11.46436129459639"><ele>527.6</ele><time>2026-04-04T15:44:35Z</time></trkpt><trkpt lat="43.41284567827016" lon="11.464363315694477"><ele>524.2</ele><time>2026-04-04T15:44:37Z</time></trkpt><trkpt lat="43.412767471580786" lon="11.464353173748373"><ele>520.8</ele><time>2026-04-04T15:44:38Z</time></trkpt><trkpt lat="43.41265914505873" lon="11.464337984591209"><ele>517.4</ele><time>2026-04-04T15:44:40Z</time></trkpt><trkpt lat="43.41254798885285" lon="11.464325640828777"><ele>514.0</ele><time>2026-04-04T15:44:42Z</time></trkpt><trkpt lat="43.41242367229414" lon="11.464361756066959"><ele>514.0</ele><time>2026-04-04T15:44:44Z</time></trkpt><trkpt lat="43.41236335521158" lon="11.46440150143847"><ele>514.0</ele><time>2026-04-04T15:44:45Z</time></trkpt><trkpt lat="43.41229847118069" lon="11.464445522672737"><ele>514.0</ele><time>2026-04-04T15:44:46Z</time></trkpt><trkpt lat="43.41223861727534" lon="11.464507309958504"><ele>514.0</ele><time>2026-04-04T15:44:47Z</time></trkpt><trkpt lat="43.41216506920258" lon="11.464537375780102"><ele>514.0</ele><time>2026-04-04T15:44:48Z</time></trkpt><trkpt lat="43.412092267137204" lon="11.46458666944212"><ele>514.0</ele><time>2026-04-04T15:44:49Z</time></trkpt><trkpt lat="43.41202115420014" lon="11.464634093054116"><ele>512.1666666666667</ele><time>2026-04-04T15:44:50Z</time></trkpt><trkpt lat="43.411948427555004" lon="11.464681495462134"><ele>510.33333333333337</ele><time>2026-04-04T15:44:51Z</time></trkpt><trkpt lat="43.411876279773665" lon="11.464726282219061"><ele>508.5</ele><time>2026-04-04T15:44:52Z</time></trkpt><trkpt lat="43.41180138803713" lon="11.464777124423742"><ele>506.66666666666663</ele><time>2026-04-04T15:44:53Z</time></trkpt><trkpt lat="43.41172717933899" lon="11.464800471371001"><ele>504.8333333333333</ele><time>2026-04-04T15:44:54Z</time></trkpt><trkpt lat="43.411657995622" lon="11.464811617960759"><ele>503.0</ele><time>2026-04-04T15:44:55Z</time></trkpt><trkpt lat="43.411578947092906" lon="11.464806119383754"><ele>503.0</ele><time>2026-04-04T15:44:56Z</time></trkpt><trkpt lat="43.411496634350655" lon="11.464765739397803"><ele>502.99999999999994</ele><time>2026-04-04T15:44:57Z</time></trkpt><trkpt lat="43.41141369433326" lon="11.464699602956115"><ele>502.99999999999994</ele><time>2026-04-04T15:44:58Z</time></trkpt><trkpt lat="43.41132598188705" lon="11.46463876522009"><ele>503.0</ele><time>2026-04-04T15:44:59Z</time></trkpt><trkpt lat="43.41123886071804" lon="11.464580534446398"><ele>503.0</ele><time>2026-04-04T15:45:00Z</time></trkpt><trkpt lat="43.41116797545166" lon="11.464510624966453"><ele>501.49999999999994</ele><time>2026-04-04T15:45:01Z</time></trkpt><trkpt lat="43.411098003931514" lon="11.464469245012571"><ele>500.0</ele><time>2026-04-04T15:45:02Z</time></trkpt><trkpt lat="43.411027020538896" lon="11.464429370786988"><ele>498.5</ele><time>2026-04-04T15:45:03Z</time></trkpt><trkpt lat="43.41095580571707" lon="11.46440816299433"><ele>497.0</ele><time>2026-04-04T15:45:04Z</time></trkpt><trkpt lat="43.4108752421893" lon="11.464412370003327"><ele>495.49999999999994</ele><time>2026-04-04T15:45:05Z</time></trkpt><trkpt lat="43.41078611741498" lon="11.464423210275873"><ele>494.0</ele><time>2026-04-04T15:45:06Z</time></trkpt><trkpt lat="43.410685620013254" lon="11.46443785387933"><ele>494.0</ele><time>2026-04-04T15:45:07Z</time></trkpt><trkpt lat="43.41054955708685" lon="11.464450639848883"><ele>494.0</ele><time>2026-04-04T15:45:08Z</time></trkpt><trkpt lat="43.41039428740921" lon="11.464454549572933"><ele>494.0</ele><time>2026-04-04T15:45:09Z</time></trkpt><trkpt lat="43.41024082916916" lon="11.464455862009396"><ele>494.0</ele><time>2026-04-04T15:45:10Z</time></trkpt><trkpt lat="43.41007176451057" lon="11.464458301010799"><ele>493.66666666666663</ele><time>2026-04-04T15:45:11Z</time></trkpt><trkpt lat="43.409887875043545" lon="11.464462290839686"><ele>493.33333333333337</ele><time>2026-04-04T15:45:12Z</time></trkpt><trkpt lat="43.40972164578919" lon="11.46446913584858"><ele>493.0</ele><time>2026-04-04T15:45:13Z</time></trkpt><trkpt lat="43.40957238148969" lon="11.464476519171837"><ele>493.0</ele><time>2026-04-04T15:45:14Z</time></trkpt><trkpt lat="43.409429242550075" lon="11.46449817963948"><ele>493.0</ele><time>2026-04-04T15:45:15Z</time></trkpt><trkpt lat="43.409306879362056" lon="11.464505763048844"><ele>493.0</ele><time>2026-04-04T15:45:16Z</time></trkpt><trkpt lat="43.409190848456234" lon="11.46451008041607"><ele>493.0</ele><time>2026-04-04T15:45:17Z</time></trkpt><trkpt lat="43.40908335367932" lon="11.464528295825824"><ele>493.0</ele><time>2026-04-04T15:45:18Z</time></trkpt><trkpt lat="43.408980425537216" lon="11.464542381735141"><ele>492.99999999999994</ele><time>2026-04-04T15:45:19Z</time></trkpt><trkpt lat="43.40888374584327" lon="11.464555261807762"><ele>492.99999999999994</ele><time>2026-04-04T15:45:20Z</time></trkpt><trkpt lat="43.40878930329407" lon="11.464571321920848"><ele>493.0</ele><time>2026-04-04T15:45:21Z</time></trkpt><trkpt lat="43.408705255349034" lon="11.46457376566386"><ele>493.0</ele><time>2026-04-04T15:45:22Z</time></trkpt><trkpt lat="43.408617538667386" lon="11.464568094737698"><ele>492.33333333333337</ele><time>2026-04-04T15:45:23Z</time></trkpt><trkpt lat="43.40853802246981" lon="11.464538502150834"><ele>491.6666666666667</ele><time>2026-04-04T15:45:24Z</time></trkpt><trkpt lat="43.40846539406218" lon="11.464533029638824"><ele>491.0</ele><time>2026-04-04T15:45:25Z</time></trkpt><trkpt lat="43.40838043322128" lon="11.464523154293234"><ele>490.33333333333337</ele><time>2026-04-04T15:45:26Z</time></trkpt><trkpt lat="43.40829846603194" lon="11.464533657079205"><ele>489.6666666666667</ele><time>2026-04-04T15:45:27Z</time></trkpt><trkpt lat="43.40820933677162" lon="11.46453158582986"><ele>489.0</ele><time>2026-04-04T15:45:28Z</time></trkpt><trkpt lat="43.40811140538324" lon="11.46452102508794"><ele>489.0</ele><time>2026-04-04T15:45:29Z</time></trkpt><trkpt lat="43.40800759719285" lon="11.46453318466328"><ele>489.0</ele><time>2026-04-04T15:45:30Z</time></trkpt><trkpt lat="43.40789883282584" lon="11.464546885161552"><ele>489.0</ele><time>2026-04-04T15:45:31Z</time></trkpt><trkpt lat="43.40778002303288" lon="11.464561014364204"><ele>489.0</ele><time>2026-04-04T15:45:32Z</time></trkpt><trkpt lat="43.407655397097415" lon="11.464575682508213"><ele>487.0</ele><time>2026-04-04T15:45:33Z</time></trkpt><trkpt lat="43.40752148457556" lon="11.46459369531341"><ele>485.0</ele><time>2026-04-04T15:45:34Z</time></trkpt><trkpt lat="43.40739544585592" lon="11.46461161256832"><ele>483.0</ele><time>2026-04-04T15:45:35Z</time></trkpt><trkpt lat="43.40728196835415" lon="11.464629858668363"><ele>481.0</ele><time>2026-04-04T15:45:36Z</time></trkpt><trkpt lat="43.407182191195126" lon="11.46463737416686"><ele>480.50000000000006</ele><time>2026-04-04T15:45:37Z</time></trkpt><trkpt lat="43.40709378750602" lon="11.46465210652805"><ele>480.0</ele><time>2026-04-04T15:45:38Z</time></trkpt><trkpt lat="43.40701167673361" lon="11.46464922221127"><ele>479.5</ele><time>2026-04-04T15:45:39Z</time></trkpt><trkpt lat="43.406930833394796" lon="11.46463972898061"><ele>479.0</ele><time>2026-04-04T15:45:40Z</time></trkpt><trkpt lat="43.40685405493921" lon="11.46461798258121"><ele>478.50000000000006</ele><time>2026-04-04T15:45:41Z</time></trkpt><trkpt lat="43.40677151935512" lon="11.46458779862442"><ele>478.0</ele><time>2026-04-04T15:45:42Z</time></trkpt><trkpt lat="43.40667531337167" lon="11.464551691391867"><ele>477.2</ele><time>2026-04-04T15:45:43Z</time></trkpt><trkpt lat="43.40658203111092" lon="11.464516982495496"><ele>476.4</ele><time>2026-04-04T15:45:44Z</time></trkpt><trkpt lat="43.406488517668556" lon="11.464495667804446"><ele>475.59999999999997</ele><time>2026-04-04T15:45:45Z</time></trkpt><trkpt lat="43.40639223764973" lon="11.464454819314863"><ele>474.79999999999995</ele><time>2026-04-04T15:45:46Z</time></trkpt><trkpt lat="43.4063080287892" lon="11.464431510423696"><ele>474.0</ele><time>2026-04-04T15:45:47Z</time></trkpt><trkpt lat="43.406217333059395" lon="11.46439535812746"><ele>472.79999999999995</ele><time>2026-04-04T15:45:48Z</time></trkpt><trkpt lat="43.40612289313617" lon="11.464347037208466"><ele>471.59999999999997</ele><time>2026-04-04T15:45:49Z</time></trkpt><trkpt lat="43.40601987421032" lon="11.464292662207319"><ele>470.4</ele><time>2026-04-04T15:45:50Z</time></trkpt><trkpt lat="43.405920233071214" lon="11.464231806360395"><ele>469.2</ele><time>2026-04-04T15:45:51Z</time></trkpt><trkpt lat="43.405824862361925" lon="11.46416136968953"><ele>468.0</ele><time>2026-04-04T15:45:52Z</time></trkpt><trkpt lat="43.40573182465088" lon="11.464085814316762"><ele>468.0</ele><time>2026-04-04T15:45:53Z</time></trkpt><trkpt lat="43.40564190162964" lon="11.463998888647351"><ele>467.99999999999994</ele><time>2026-04-04T15:45:54Z</time></trkpt><trkpt lat="43.40556139267633" lon="11.463925218117566"><ele>467.99999999999994</ele><time>2026-04-04T15:45:55Z</time></trkpt><trkpt lat="43.40547760885446" lon="11.463838349145663"><ele>468.0</ele><time>2026-04-04T15:45:56Z</time></trkpt><trkpt lat="43.40539881331789" lon="11.463756006543969"><ele>468.0</ele><time>2026-04-04T15:45:57Z</time></trkpt><trkpt lat="43.40531608675554" lon="11.463671750596484"><ele>465.5</ele><time>2026-04-04T15:45:58Z</time></trkpt><trkpt lat="43.40526239924514" lon="11.463575501355278"><ele>463.0</ele><time>2026-04-04T15:45:59Z</time></trkpt><trkpt lat="43.405192358021914" lon="11.46350384497753"><ele>460.5</ele><time>2026-04-04T15:46:00Z</time></trkpt><trkpt lat="43.40513649631616" lon="11.463423940561768"><ele>458.0</ele><time>2026-04-04T15:46:01Z</time></trkpt><trkpt lat="43.40508021340168" lon="11.463351251075059"><ele>455.5</ele><time>2026-04-04T15:46:02Z</time></trkpt><trkpt lat="43.405026913542684" lon="11.463275868441597"><ele>453.0</ele><time>2026-04-04T15:46:03Z</time></trkpt><trkpt lat="43.40497075502439" lon="11.463192539805853"><ele>453.0</ele><time>2026-04-04T15:46:04Z</time></trkpt><trkpt lat="43.404924556417704" lon="11.46308434143409"><ele>452.99999999999994</ele><time>2026-04-04T15:46:05Z</time></trkpt><trkpt lat="43.40486013599069" lon="11.462969407016509"><ele>452.99999999999994</ele><time>2026-04-04T15:46:06Z</time></trkpt><trkpt lat="43.40478375844744" lon="11.462866255746547"><ele>453.0</ele><time>2026-04-04T15:46:07Z</time></trkpt><trkpt lat="43.40473619993427" lon="11.462740231844519"><ele>453.0</ele><time>2026-04-04T15:46:08Z</time></trkpt><trkpt lat="43.404713816759816" lon="11.46259232874467"><ele>452.5</ele><time>2026-04-04T15:46:09Z</time></trkpt><trkpt lat="43.40469161009676" lon="11.46242884923626"><ele>452.0</ele><time>2026-04-04T15:46:10Z</time></trkpt><trkpt lat="43.40466221742078" lon="11.462241845022605"><ele>451.5</ele><time>2026-04-04T15:46:11Z</time></trkpt><trkpt lat="43.40462942586779" lon="11.462056063840311"><ele>451.0</ele><time>2026-04-04T15:46:12Z</time></trkpt><trkpt lat="43.40460518574184" lon="11.461888431717155"><ele>452.0</ele><time>2026-04-04T15:46:13Z</time></trkpt><trkpt lat="43.404583289128844" lon="11.461749716161995"><ele>453.0</ele><time>2026-04-04T15:46:14Z</time></trkpt><trkpt lat="43.404554145032236" lon="11.4616346370498"><ele>454.0</ele><time>2026-04-04T15:46:15Z</time></trkpt><trkpt lat="43.40451019446229" lon="11.46152326597877"><ele>455.0</ele><time>2026-04-04T15:46:16Z</time></trkpt><trkpt lat="43.40446604169269" lon="11.461392016073683"><ele>456.0</ele><time>2026-04-04T15:46:17Z</time></trkpt><trkpt lat="43.40439664116463" lon="11.46124739041821"><ele>456.5</ele><time>2026-04-04T15:46:18Z</time></trkpt><trkpt lat="43.40431264916145" lon="11.461071880354538"><ele>457.0</ele><time>2026-04-04T15:46:19Z</time></trkpt><trkpt lat="43.40423403138743" lon="11.460900630338205"><ele>457.5</ele><time>2026-04-04T15:46:20Z</time></trkpt><trkpt lat="43.40415873980335" lon="11.460761466337818"><ele>458.0</ele><time>2026-04-04T15:46:21Z</time></trkpt><trkpt lat="43.404115746418995" lon="11.460631530412526"><ele>458.0</ele><time>2026-04-04T15:46:22Z</time></trkpt><trkpt lat="43.40409122402697" lon="11.460500555941755"><ele>457.99999999999994</ele><time>2026-04-04T15:46:23Z</time></trkpt><trkpt lat="43.404084282772054" lon="11.460382168484813"><ele>457.99999999999994</ele><time>2026-04-04T15:46:24Z</time></trkpt><trkpt lat="43.40409639005125" lon="11.460272288051327"><ele>458.0</ele><time>2026-04-04T15:46:25Z</time></trkpt><trkpt lat="43.4041170092729" lon="11.460147464565011"><ele>458.0</ele><time>2026-04-04T15:46:26Z</time></trkpt><trkpt lat="43.404138487590465" lon="11.460000129466973"><ele>457.59999999999997</ele><time>2026-04-04T15:46:27Z</time></trkpt><trkpt lat="43.4041568866211" lon="11.459840631145237"><ele>457.19999999999993</ele><time>2026-04-04T15:46:28Z</time></trkpt><trkpt lat="43.40418255831326" lon="11.459693805660754"><ele>456.8</ele><time>2026-04-04T15:46:29Z</time></trkpt><trkpt lat="43.40422143153117" lon="11.459566023099736"><ele>456.4</ele><time>2026-04-04T15:46:30Z</time></trkpt><trkpt lat="43.40427293989612" lon="11.459443678035724"><ele>456.0</ele><time>2026-04-04T15:46:31Z</time></trkpt><trkpt lat="43.404333797756934" lon="11.459321354369157"><ele>455.8</ele><time>2026-04-04T15:46:32Z</time></trkpt><trkpt lat="43.4043999424462" lon="11.45920827721473"><ele>455.6</ele><time>2026-04-04T15:46:33Z</time></trkpt><trkpt lat="43.404471179844954" lon="11.459099712237935"><ele>455.4</ele><time>2026-04-04T15:46:34Z</time></trkpt><trkpt lat="43.404545584435596" lon="11.459002687980549"><ele>455.2</ele><time>2026-04-04T15:46:35Z</time></trkpt><trkpt lat="43.40460982920182" lon="11.458913683361924"><ele>455.0</ele><time>2026-04-04T15:46:36Z</time></trkpt><trkpt lat="43.40466219939885" lon="11.458840953567035"><ele>454.3333333333333</ele><time>2026-04-04T15:46:37Z</time></trkpt><trkpt lat="43.40470806011547" lon="11.458776345624985"><ele>453.66666666666663</ele><time>2026-04-04T15:46:38Z</time></trkpt><trkpt lat="43.40475713954379" lon="11.45871753822294"><ele>453.0</ele><time>2026-04-04T15:46:39Z</time></trkpt><trkpt lat="43.404784442866465" lon="11.458635074457844"><ele>452.33333333333337</ele><time>2026-04-04T15:46:40Z</time></trkpt><trkpt lat="43.404809695304614" lon="11.458494331299097"><ele>451.6666666666667</ele><time>2026-04-04T15:46:42Z</time></trkpt><trkpt lat="43.40483958093137" lon="11.45836852807415"><ele>451.0</ele><time>2026-04-04T15:46:44Z</time></trkpt><trkpt lat="43.40487226428099" lon="11.458250070609155"><ele>451.0</ele><time>2026-04-04T15:46:46Z</time></trkpt><trkpt lat="43.40491691397401" lon="11.458143396152645"><ele>451.0</ele><time>2026-04-04T15:46:48Z</time></trkpt><trkpt lat="43.40498555012555" lon="11.458063039291536"><ele>451.0</ele><time>2026-04-04T15:46:50Z</time></trkpt><trkpt lat="43.40503119247583" lon="11.457953379738166"><ele>451.0</ele><time>2026-04-04T15:46:52Z</time></trkpt><trkpt lat="43.40503452301798" lon="11.457811274409352"><ele>451.0</ele><time>2026-04-04T15:46:54Z</time></trkpt><trkpt lat="43.40503878902156" lon="11.45766403580256"><ele>449.6666666666667</ele><time>2026-04-04T15:46:56Z</time></trkpt><trkpt lat="43.405031642133515" lon="11.457510111779682"><ele>448.33333333333337</ele><time>2026-04-04T15:46:58Z</time></trkpt><trkpt lat="43.40502317357701" lon="11.457395985055324"><ele>447.0</ele><time>2026-04-04T15:47:00Z</time></trkpt><trkpt lat="43.4050127173441" lon="11.457296679087317"><ele>445.66666666666663</ele><time>2026-04-04T15:47:02Z</time></trkpt><trkpt lat="43.40499254008814" lon="11.457210752136064"><ele>444.3333333333333</ele><time>2026-04-04T15:47:04Z</time></trkpt><trkpt lat="43.40498894791776" lon="11.457111889758117"><ele>443.0</ele><time>2026-04-04T15:47:21Z</time></trkpt><trkpt lat="43.40496615706951" lon="11.456989416851178"><ele>441.59999999999997</ele><time>2026-04-04T15:47:24Z</time></trkpt><trkpt lat="43.40493571572873" lon="11.456880852679506"><ele>440.19999999999993</ele><time>2026-04-04T15:47:26Z</time></trkpt><trkpt lat="43.4048699128859" lon="11.456692786119113"><ele>438.8</ele><time>2026-04-04T15:47:30Z</time></trkpt><trkpt lat="43.40484090335029" lon="11.456603007171427"><ele>437.4</ele><time>2026-04-04T15:47:32Z</time></trkpt><trkpt lat="43.40481357959652" lon="11.456515372204725"><ele>436.0</ele><time>2026-04-04T15:47:34Z</time></trkpt><trkpt lat="43.4048611360207" lon="11.456379261068104"><ele>436.00000000000006</ele><time>2026-04-04T15:47:37Z</time></trkpt><trkpt lat="43.4049254295187" lon="11.456344607498355"><ele>436.0</ele><time>2026-04-04T15:47:38Z</time></trkpt><trkpt lat="43.40499773423349" lon="11.456357041720935"><ele>436.0</ele><time>2026-04-04T15:47:39Z</time></trkpt><trkpt lat="43.40508316335533" lon="11.456374158753936"><ele>436.0</ele><time>2026-04-04T15:47:40Z</time></trkpt><trkpt lat="43.40518749599915" lon="11.456387313512106"><ele>436.00000000000006</ele><time>2026-04-04T15:47:41Z</time></trkpt><trkpt lat="43.40529903554408" lon="11.456388273444528"><ele>436.0</ele><time>2026-04-04T15:47:42Z</time></trkpt><trkpt lat="43.40539327400762" lon="11.456401400186547"><ele>436.00000000000006</ele><time>2026-04-04T15:47:43Z</time></trkpt><trkpt lat="43.40548229984614" lon="11.45641587585184"><ele>436.0</ele><time>2026-04-04T15:47:44Z</time></trkpt><trkpt lat="43.40556317653592" lon="11.456414053714457"><ele>436.0</ele><time>2026-04-04T15:47:45Z</time></trkpt><trkpt lat="43.40563785212098" lon="11.456392794124614"><ele>436.0</ele><time>2026-04-04T15:47:46Z</time></trkpt><trkpt lat="43.40570972571296" lon="11.45633975354414"><ele>436.00000000000006</ele><time>2026-04-04T15:47:47Z</time></trkpt><trkpt lat="43.40577683222335" lon="11.456267980957522"><ele>436.0</ele><time>2026-04-04T15:47:48Z</time></trkpt><trkpt lat="43.405840775348224" lon="11.456192103365035"><ele>434.0</ele><time>2026-04-04T15:47:49Z</time></trkpt><trkpt lat="43.40589406019177" lon="11.456101779206362"><ele>432.0</ele><time>2026-04-04T15:47:50Z</time></trkpt><trkpt lat="43.405946491232925" lon="11.456001401395696"><ele>430.0</ele><time>2026-04-04T15:47:51Z</time></trkpt><trkpt lat="43.405990860179976" lon="11.455889672674312"><ele>428.0</ele><time>2026-04-04T15:47:52Z</time></trkpt><trkpt lat="43.406036784139864" lon="11.455775392735722"><ele>426.0</ele><time>2026-04-04T15:47:53Z</time></trkpt><trkpt lat="43.406058995338796" lon="11.455639181353439"><ele>426.0</ele><time>2026-04-04T15:47:54Z</time></trkpt><trkpt lat="43.40607469465828" lon="11.455505625970716"><ele>426.0</ele><time>2026-04-04T15:47:55Z</time></trkpt><trkpt lat="43.40609319703847" lon="11.455378077437093"><ele>426.0</ele><time>2026-04-04T15:47:56Z</time></trkpt><trkpt lat="43.406122316642616" lon="11.45523333266581"><ele>426.0</ele><time>2026-04-04T15:47:57Z</time></trkpt><trkpt lat="43.40615415648482" lon="11.455088344047235"><ele>426.0</ele><time>2026-04-04T15:47:58Z</time></trkpt><trkpt lat="43.406185014450124" lon="11.454950215779009"><ele>425.20000000000005</ele><time>2026-04-04T15:47:59Z</time></trkpt><trkpt lat="43.406214337394104" lon="11.454832670041412"><ele>424.40000000000003</ele><time>2026-04-04T15:48:00Z</time></trkpt><trkpt lat="43.40623596029195" lon="11.454715437926476"><ele>423.6</ele><time>2026-04-04T15:48:01Z</time></trkpt><trkpt lat="43.406293198662866" lon="11.454610621730207"><ele>422.8</ele><time>2026-04-04T15:48:02Z</time></trkpt><trkpt lat="43.40636378321098" lon="11.4545079779414"><ele>422.0</ele><time>2026-04-04T15:48:03Z</time></trkpt><trkpt lat="43.40642418999546" lon="11.454406802513827"><ele>420.0</ele><time>2026-04-04T15:48:04Z</time></trkpt><trkpt lat="43.40646980473087" lon="11.454282687045932"><ele>418.0</ele><time>2026-04-04T15:48:05Z</time></trkpt><trkpt lat="43.40651012303992" lon="11.454145766997012"><ele>416.0</ele><time>2026-04-04T15:48:06Z</time></trkpt><trkpt lat="43.406536710330926" lon="11.454016292613229"><ele>414.0</ele><time>2026-04-04T15:48:07Z</time></trkpt><trkpt lat="43.40655461234324" lon="11.453900954982293"><ele>412.0</ele><time>2026-04-04T15:48:07.999Z</time></trkpt><trkpt lat="43.40656109705542" lon="11.453799138723465"><ele>412.00000000000006</ele><time>2026-04-04T15:48:08.999Z</time></trkpt><trkpt lat="43.40655439954297" lon="11.453708207416927"><ele>412.0</ele><time>2026-04-04T15:48:09.999Z</time></trkpt><trkpt lat="43.40654738792099" lon="11.453611010315251"><ele>412.0</ele><time>2026-04-04T15:48:10.999Z</time></trkpt><trkpt lat="43.40651173186779" lon="11.453502016677046"><ele>412.0</ele><time>2026-04-04T15:48:11.999Z</time></trkpt><trkpt lat="43.40647835041793" lon="11.453370073565255"><ele>412.00000000000006</ele><time>2026-04-04T15:48:12.999Z</time></trkpt><trkpt lat="43.40645883647463" lon="11.453228727392519"><ele>412.0</ele><time>2026-04-04T15:48:13.999Z</time></trkpt><trkpt lat="43.406435909912716" lon="11.453093797522016"><ele>412.0</ele><time>2026-04-04T15:48:14.999Z</time></trkpt><trkpt lat="43.406447157306296" lon="11.452972908066828"><ele>412.0</ele><time>2026-04-04T15:48:15.999Z</time></trkpt><trkpt lat="43.40648494850378" lon="11.452852617755003"><ele>412.0</ele><time>2026-04-04T15:48:16.999Z</time></trkpt><trkpt lat="43.40650928496284" lon="11.452712742832757"><ele>412.0</ele><time>2026-04-04T15:48:17.999Z</time></trkpt><trkpt lat="43.40652201493001" lon="11.452535995966784"><ele>412.0</ele><time>2026-04-04T15:48:18.999Z</time></trkpt><trkpt lat="43.40652744415928" lon="11.452375512194514"><ele>411.40000000000003</ele><time>2026-04-04T15:48:19.999Z</time></trkpt><trkpt lat="43.40652471920209" lon="11.452224748389812"><ele>410.8</ele><time>2026-04-04T15:48:20.999Z</time></trkpt><trkpt lat="43.40651582069288" lon="11.452093980382799"><ele>410.2</ele><time>2026-04-04T15:48:21.999Z</time></trkpt><trkpt lat="43.40649880070053" lon="11.451968666326977"><ele>409.6</ele><time>2026-04-04T15:48:22.999Z</time></trkpt><trkpt lat="43.406464595891116" lon="11.451850808190336"><ele>409.0</ele><time>2026-04-04T15:48:23.999Z</time></trkpt><trkpt lat="43.406418560780864" lon="11.451739665451065"><ele>409.5</ele><time>2026-04-04T15:48:24.999Z</time></trkpt><trkpt lat="43.406363789286424" lon="11.451615285741918"><ele>410.0</ele><time>2026-04-04T15:48:25.999Z</time></trkpt><trkpt lat="43.406296218890304" lon="11.451471176336193"><ele>410.5</ele><time>2026-04-04T15:48:26.999Z</time></trkpt><trkpt lat="43.40621139267341" lon="11.451317955545209"><ele>411.0</ele><time>2026-04-04T15:48:27.999Z</time></trkpt><trkpt lat="43.40611648153593" lon="11.451196630126406"><ele>411.0</ele><time>2026-04-04T15:48:28.999Z</time></trkpt><trkpt lat="43.40605190576099" lon="11.451059056175119"><ele>411.0</ele><time>2026-04-04T15:48:29.999Z</time></trkpt><trkpt lat="43.40599451386575" lon="11.450932279000195"><ele>411.0</ele><time>2026-04-04T15:48:30.999Z</time></trkpt><trkpt lat="43.40593762972049" lon="11.450764625629738"><ele>411.0</ele><time>2026-04-04T15:48:31.999Z</time></trkpt><trkpt lat="43.40591831965036" lon="11.450593204183876"><ele>410.25</ele><time>2026-04-04T15:48:32.999Z</time></trkpt><trkpt lat="43.40588354784496" lon="11.450423218737097"><ele>409.5</ele><time>2026-04-04T15:48:33.999Z</time></trkpt><trkpt lat="43.40582844997686" lon="11.450264368877503"><ele>408.75</ele><time>2026-04-04T15:48:34.999Z</time></trkpt><trkpt lat="43.40576289878062" lon="11.450108370947879"><ele>408.0</ele><time>2026-04-04T15:48:35.999Z</time></trkpt><trkpt lat="43.40569604702394" lon="11.44995053678043"><ele>408.0</ele><time>2026-04-04T15:48:36.999Z</time></trkpt><trkpt lat="43.4056235621496" lon="11.449788043662762"><ele>408.0</ele><time>2026-04-04T15:48:37.999Z</time></trkpt><trkpt lat="43.40553780964809" lon="11.449629913488575"><ele>408.0</ele><time>2026-04-04T15:48:38.999Z</time></trkpt><trkpt lat="43.40544552525087" lon="11.449486285847296"><ele>408.0</ele><time>2026-04-04T15:48:39.999Z</time></trkpt><trkpt lat="43.4053518595214" lon="11.449337249791038"><ele>406.25</ele><time>2026-04-04T15:48:40.999Z</time></trkpt><trkpt lat="43.405258621220995" lon="11.449188370671827"><ele>404.5</ele><time>2026-04-04T15:48:41.999Z</time></trkpt><trkpt lat="43.405179563570094" lon="11.449046588377739"><ele>402.75</ele><time>2026-04-04T15:48:42.999Z</time></trkpt><trkpt lat="43.4051207715279" lon="11.448910303448406"><ele>401.0</ele><time>2026-04-04T15:48:43.999Z</time></trkpt><trkpt lat="43.40508124182143" lon="11.44877504312682"><ele>400.6</ele><time>2026-04-04T15:48:44.999Z</time></trkpt><trkpt lat="43.404981379677764" lon="11.448643819705488"><ele>400.20000000000005</ele><time>2026-04-04T15:48:45.999Z</time></trkpt><trkpt lat="43.4049087430363" lon="11.448578777203288"><ele>399.79999999999995</ele><time>2026-04-04T15:48:46.999Z</time></trkpt><trkpt lat="43.40482864726273" lon="11.448507055669348"><ele>399.4</ele><time>2026-04-04T15:48:47.999Z</time></trkpt><trkpt lat="43.40472867988156" lon="11.448425622295606"><ele>399.0</ele><time>2026-04-04T15:48:48.999Z</time></trkpt><trkpt lat="43.40459922869133" lon="11.448344621540748"><ele>398.66666666666663</ele><time>2026-04-04T15:48:50Z</time></trkpt><trkpt lat="43.404466720506974" lon="11.448227776720941"><ele>398.3333333333333</ele><time>2026-04-04T15:48:51Z</time></trkpt><trkpt lat="43.4043286037338" lon="11.44813375002166"><ele>398.0</ele><time>2026-04-04T15:48:52Z</time></trkpt><trkpt lat="43.404188143745216" lon="11.448030916206767"><ele>398.3333333333333</ele><time>2026-04-04T15:48:53Z</time></trkpt><trkpt lat="43.40403710261557" lon="11.447916212862632"><ele>398.66666666666663</ele><time>2026-04-04T15:48:54Z</time></trkpt><trkpt lat="43.40385438387963" lon="11.447834939530852"><ele>399.0</ele><time>2026-04-04T15:48:55Z</time></trkpt><trkpt lat="43.403664375785596" lon="11.447758096920094"><ele>399.0</ele><time>2026-04-04T15:48:56Z</time></trkpt><trkpt lat="43.40347119628112" lon="11.447669347443668"><ele>399.0</ele><time>2026-04-04T15:48:57Z</time></trkpt><trkpt lat="43.4032900340416" lon="11.447581779983828"><ele>399.0</ele><time>2026-04-04T15:48:58Z</time></trkpt><trkpt lat="43.40312090486232" lon="11.447485276152792"><ele>396.33333333333337</ele><time>2026-04-04T15:48:59Z</time></trkpt><trkpt lat="43.40296256431336" lon="11.447396075760622"><ele>393.6666666666667</ele><time>2026-04-04T15:49:00Z</time></trkpt><trkpt lat="43.40281250524013" lon="11.447299143018473"><ele>391.0</ele><time>2026-04-04T15:49:01Z</time></trkpt><trkpt lat="43.40265096469077" lon="11.447209859262506"><ele>393.6666666666667</ele><time>2026-04-04T15:49:02Z</time></trkpt><trkpt lat="43.402484403502676" lon="11.447113877546848"><ele>396.33333333333337</ele><time>2026-04-04T15:49:03Z</time></trkpt><trkpt lat="43.402319515939226" lon="11.4470082568818"><ele>399.0</ele><time>2026-04-04T15:49:04Z</time></trkpt><trkpt lat="43.402165748007384" lon="11.446902823933746"><ele>395.33333333333337</ele><time>2026-04-04T15:49:05Z</time></trkpt><trkpt lat="43.40202494396612" lon="11.446789233264035"><ele>391.6666666666667</ele><time>2026-04-04T15:49:06Z</time></trkpt><trkpt lat="43.40189308115866" lon="11.446648501830934"><ele>388.0</ele><time>2026-04-04T15:49:07Z</time></trkpt><trkpt lat="43.4017585370879" lon="11.446494229958013"><ele>388.0</ele><time>2026-04-04T15:49:08Z</time></trkpt><trkpt lat="43.40161604088161" lon="11.446351154437854"><ele>388.0</ele><time>2026-04-04T15:49:09Z</time></trkpt><trkpt lat="43.40148623482402" lon="11.446192428181833"><ele>388.0</ele><time>2026-04-04T15:49:10Z</time></trkpt><trkpt lat="43.40138509744765" lon="11.446018424214206"><ele>386.33333333333337</ele><time>2026-04-04T15:49:11Z</time></trkpt><trkpt lat="43.40127914484354" lon="11.445845310159342"><ele>384.6666666666667</ele><time>2026-04-04T15:49:12Z</time></trkpt><trkpt lat="43.40117080578089" lon="11.445662992447366"><ele>383.0</ele><time>2026-04-04T15:49:13Z</time></trkpt><trkpt lat="43.4010588219606" lon="11.445477942600752"><ele>382.6666666666667</ele><time>2026-04-04T15:49:14Z</time></trkpt><trkpt lat="43.40093749528956" lon="11.445288454045153"><ele>382.3333333333333</ele><time>2026-04-04T15:49:15Z</time></trkpt><trkpt lat="43.400805254046595" lon="11.445105447878076"><ele>382.0</ele><time>2026-04-04T15:49:16Z</time></trkpt><trkpt lat="43.40066125697254" lon="11.444915519689914"><ele>382.0</ele><time>2026-04-04T15:49:17Z</time></trkpt><trkpt lat="43.400516067930894" lon="11.444725429510493"><ele>382.0</ele><time>2026-04-04T15:49:18Z</time></trkpt><trkpt lat="43.40037616802917" lon="11.444538504466452"><ele>382.0</ele><time>2026-04-04T15:49:19Z</time></trkpt><trkpt lat="43.40024612497812" lon="11.444364307668208"><ele>380.3333333333333</ele><time>2026-04-04T15:49:20Z</time></trkpt><trkpt lat="43.40012187378543" lon="11.444198685120883"><ele>378.6666666666667</ele><time>2026-04-04T15:49:21Z</time></trkpt><trkpt lat="43.40000823269781" lon="11.444048293711628"><ele>377.0</ele><time>2026-04-04T15:49:22Z</time></trkpt><trkpt lat="43.399901727951466" lon="11.443909666318632"><ele>376.75</ele><time>2026-04-04T15:49:23Z</time></trkpt><trkpt lat="43.39979599292825" lon="11.443781156329496"><ele>376.5</ele><time>2026-04-04T15:49:24Z</time></trkpt><trkpt lat="43.39966900089985" lon="11.443711817157347"><ele>376.25</ele><time>2026-04-04T15:49:25Z</time></trkpt><trkpt lat="43.39954848487301" lon="11.44365541752808"><ele>376.0</ele><time>2026-04-04T15:49:26Z</time></trkpt><trkpt lat="43.39942817052911" lon="11.443605400782669"><ele>376.0</ele><time>2026-04-04T15:49:27Z</time></trkpt><trkpt lat="43.39931231680913" lon="11.44355991313704"><ele>376.0</ele><time>2026-04-04T15:49:28Z</time></trkpt><trkpt lat="43.399211179181655" lon="11.443499177690203"><ele>376.0</ele><time>2026-04-04T15:49:29Z</time></trkpt><trkpt lat="43.39910289965663" lon="11.443460689231872"><ele>376.0</ele><time>2026-04-04T15:49:30Z</time></trkpt><trkpt lat="43.39898841331626" lon="11.443440061240658"><ele>376.0</ele><time>2026-04-04T15:49:31Z</time></trkpt><trkpt lat="43.3988725203282" lon="11.443445443237923"><ele>376.0</ele><time>2026-04-04T15:49:32Z</time></trkpt><trkpt lat="43.39875057457966" lon="11.443475967738147"><ele>376.0</ele><time>2026-04-04T15:49:33Z</time></trkpt><trkpt lat="43.398616773074124" lon="11.443514802433192"><ele>376.0</ele><time>2026-04-04T15:49:34Z</time></trkpt><trkpt lat="43.39847710006316" lon="11.443521418361186"><ele>376.0</ele><time>2026-04-04T15:49:35Z</time></trkpt><trkpt lat="43.398323659618036" lon="11.443550281119924"><ele>376.0</ele><time>2026-04-04T15:49:36Z</time></trkpt><trkpt lat="43.39817311324648" lon="11.443577131006068"><ele>376.0</ele><time>2026-04-04T15:49:37Z</time></trkpt><trkpt lat="43.39803046037194" lon="11.443603487613922"><ele>375.25</ele><time>2026-04-04T15:49:38Z</time></trkpt><trkpt lat="43.39789712669482" lon="11.443626560877782"><ele>374.5</ele><time>2026-04-04T15:49:39Z</time></trkpt><trkpt lat="43.397777790885456" lon="11.443593364116277"><ele>373.75</ele><time>2026-04-04T15:49:40Z</time></trkpt><trkpt lat="43.39764718953034" lon="11.443538391193126"><ele>373.0</ele><time>2026-04-04T15:49:41Z</time></trkpt><trkpt lat="43.397505381337794" lon="11.443491620936282"><ele>373.0</ele><time>2026-04-04T15:49:42Z</time></trkpt><trkpt lat="43.39735788106707" lon="11.443431928228419"><ele>373.0</ele><time>2026-04-04T15:49:43Z</time></trkpt><trkpt lat="43.39720485796636" lon="11.443373851183525"><ele>373.0</ele><time>2026-04-04T15:49:44Z</time></trkpt><trkpt lat="43.397044774514775" lon="11.443312906944136"><ele>372.3333333333333</ele><time>2026-04-04T15:49:45Z</time></trkpt><trkpt lat="43.39687379393345" lon="11.443252189820068"><ele>371.6666666666667</ele><time>2026-04-04T15:49:46Z</time></trkpt><trkpt lat="43.396697931423" lon="11.443187211923666"><ele>371.0</ele><time>2026-04-04T15:49:47Z</time></trkpt><trkpt lat="43.39651835903828" lon="11.443099462417191"><ele>369.6666666666667</ele><time>2026-04-04T15:49:48Z</time></trkpt><trkpt lat="43.39632952969863" lon="11.443025530890242"><ele>368.3333333333333</ele><time>2026-04-04T15:49:49Z</time></trkpt><trkpt lat="43.39613956671724" lon="11.442950541245343"><ele>367.0</ele><time>2026-04-04T15:49:50Z</time></trkpt><trkpt lat="43.39594218062129" lon="11.442890919912424"><ele>367.0</ele><time>2026-04-04T15:49:51Z</time></trkpt><trkpt lat="43.39576021695433" lon="11.44281664534287"><ele>367.0</ele><time>2026-04-04T15:49:52Z</time></trkpt><trkpt lat="43.395596116762064" lon="11.44275062482877"><ele>367.0</ele><time>2026-04-04T15:49:53Z</time></trkpt><trkpt lat="43.3954394352832" lon="11.442702444815462"><ele>367.3333333333333</ele><time>2026-04-04T15:49:54Z</time></trkpt><trkpt lat="43.395285634106564" lon="11.442671357861771"><ele>367.6666666666667</ele><time>2026-04-04T15:49:55Z</time></trkpt><trkpt lat="43.39511596389547" lon="11.442663063357202"><ele>368.0</ele><time>2026-04-04T15:49:56Z</time></trkpt><trkpt lat="43.39492635010857" lon="11.442679346733456"><ele>368.0</ele><time>2026-04-04T15:49:57Z</time></trkpt><trkpt lat="43.39473303473109" lon="11.442684248507199"><ele>368.0</ele><time>2026-04-04T15:49:58Z</time></trkpt><trkpt lat="43.39455362897765" lon="11.442686760556702"><ele>368.0</ele><time>2026-04-04T15:49:59Z</time></trkpt><trkpt lat="43.39437793903804" lon="11.442671675311317"><ele>368.0</ele><time>2026-04-04T15:50:00Z</time></trkpt><trkpt lat="43.39421238059853" lon="11.44265063575059"><ele>368.0</ele><time>2026-04-04T15:50:01Z</time></trkpt><trkpt lat="43.39403948645165" lon="11.442626311749986"><ele>368.0</ele><time>2026-04-04T15:50:02Z</time></trkpt><trkpt lat="43.39386141691437" lon="11.442597232966675"><ele>368.0</ele><time>2026-04-04T15:50:03Z</time></trkpt><trkpt lat="43.39367968426634" lon="11.442561892826463"><ele>368.0</ele><time>2026-04-04T15:50:04Z</time></trkpt><trkpt lat="43.39350912719453" lon="11.442502942086776"><ele>368.0</ele><time>2026-04-04T15:50:05Z</time></trkpt><trkpt lat="43.393344249987656" lon="11.442421502933634"><ele>368.0</ele><time>2026-04-04T15:50:06Z</time></trkpt><trkpt lat="43.39318815557304" lon="11.442348502474294"><ele>368.0</ele><time>2026-04-04T15:50:07Z</time></trkpt><trkpt lat="43.393021144828744" lon="11.442312919153835"><ele>368.0</ele><time>2026-04-04T15:50:08Z</time></trkpt><trkpt lat="43.39284627172785" lon="11.442294263384017"><ele>368.33333333333337</ele><time>2026-04-04T15:50:09Z</time></trkpt><trkpt lat="43.39266532912336" lon="11.442323161842953"><ele>368.6666666666667</ele><time>2026-04-04T15:50:10Z</time></trkpt><trkpt lat="43.392489865015264" lon="11.442378487724552"><ele>369.0</ele><time>2026-04-04T15:50:11Z</time></trkpt><trkpt lat="43.39232594952135" lon="11.442444787907792"><ele>368.0</ele><time>2026-04-04T15:50:12Z</time></trkpt><trkpt lat="43.39216721083146" lon="11.442544910685877"><ele>367.0</ele><time>2026-04-04T15:50:13Z</time></trkpt><trkpt lat="43.39200159816133" lon="11.4426259531562"><ele>366.0</ele><time>2026-04-04T15:50:14Z</time></trkpt><trkpt lat="43.391859657104284" lon="11.442728178812825"><ele>366.0</ele><time>2026-04-04T15:50:15Z</time></trkpt><trkpt lat="43.39172389430283" lon="11.442805821970254"><ele>366.0</ele><time>2026-04-04T15:50:16Z</time></trkpt><trkpt lat="43.39157886649675" lon="11.442832415180579"><ele>366.0</ele><time>2026-04-04T15:50:17Z</time></trkpt><trkpt lat="43.39141868917455" lon="11.442830975671498"><ele>366.6666666666667</ele><time>2026-04-04T15:50:18Z</time></trkpt><trkpt lat="43.391250302033875" lon="11.442838092949408"><ele>367.33333333333337</ele><time>2026-04-04T15:50:19Z</time></trkpt><trkpt lat="43.39108281610629" lon="11.442858041533997"><ele>368.0</ele><time>2026-04-04T15:50:20Z</time></trkpt><trkpt lat="43.39090567463842" lon="11.442895758657503"><ele>368.0</ele><time>2026-04-04T15:50:21Z</time></trkpt><trkpt lat="43.39073185365703" lon="11.442925550870498"><ele>368.0</ele><time>2026-04-04T15:50:22Z</time></trkpt><trkpt lat="43.39056576380661" lon="11.442940797772112"><ele>368.0</ele><time>2026-04-04T15:50:23Z</time></trkpt><trkpt lat="43.39040411784132" lon="11.44292783113943"><ele>367.25</ele><time>2026-04-04T15:50:24Z</time></trkpt><trkpt lat="43.39024647966886" lon="11.442907412822883"><ele>366.5</ele><time>2026-04-04T15:50:25Z</time></trkpt><trkpt lat="43.39009495369065" lon="11.442884592985527"><ele>365.75</ele><time>2026-04-04T15:50:26Z</time></trkpt><trkpt lat="43.38996399542557" lon="11.442859096608416"><ele>365.0</ele><time>2026-04-04T15:50:27Z</time></trkpt><trkpt lat="43.389848176227034" lon="11.442797848596083"><ele>365.0</ele><time>2026-04-04T15:50:28Z</time></trkpt><trkpt lat="43.38976747707005" lon="11.442672133648093"><ele>365.0</ele><time>2026-04-04T15:50:29Z</time></trkpt><trkpt lat="43.38971697933629" lon="11.442518633060137"><ele>365.0</ele><time>2026-04-04T15:50:30Z</time></trkpt><trkpt lat="43.38965120974679" lon="11.442363120284593"><ele>365.0</ele><time>2026-04-04T15:50:31Z</time></trkpt><trkpt lat="43.38957893121096" lon="11.442215411286046"><ele>362.33333333333337</ele><time>2026-04-04T15:50:32Z</time></trkpt><trkpt lat="43.38948751520972" lon="11.442086043221417"><ele>359.6666666666667</ele><time>2026-04-04T15:50:33Z</time></trkpt><trkpt lat="43.389378998267134" lon="11.441914691039099"><ele>357.0</ele><time>2026-04-04T15:50:34Z</time></trkpt><trkpt lat="43.38928299628208" lon="11.441731056633081"><ele>357.0</ele><time>2026-04-04T15:50:35Z</time></trkpt><trkpt lat="43.38917498284199" lon="11.44155804491137"><ele>357.0</ele><time>2026-04-04T15:50:36Z</time></trkpt><trkpt lat="43.38906855615865" lon="11.441402487919087"><ele>357.0</ele><time>2026-04-04T15:50:37Z</time></trkpt><trkpt lat="43.38895507049919" lon="11.441271663272234"><ele>356.25</ele><time>2026-04-04T15:50:38Z</time></trkpt><trkpt lat="43.38886880581217" lon="11.44112291852317"><ele>355.5</ele><time>2026-04-04T15:50:39Z</time></trkpt><trkpt lat="43.38876896209767" lon="11.440999578647494"><ele>354.75</ele><time>2026-04-04T15:50:40Z</time></trkpt><trkpt lat="43.38867016047719" lon="11.4408852082789"><ele>354.0</ele><time>2026-04-04T15:50:41Z</time></trkpt><trkpt lat="43.38857638609579" lon="11.440764644495037"><ele>354.0</ele><time>2026-04-04T15:50:42Z</time></trkpt><trkpt lat="43.38847361964227" lon="11.440669042012917"><ele>354.0</ele><time>2026-04-04T15:50:43Z</time></trkpt><trkpt lat="43.38839281618011" lon="11.440540841708422"><ele>354.0</ele><time>2026-04-04T15:50:44Z</time></trkpt><trkpt lat="43.388293195506364" lon="11.440442407118173"><ele>354.0</ele><time>2026-04-04T15:50:45Z</time></trkpt><trkpt lat="43.38821376839376" lon="11.440309109688922"><ele>352.0</ele><time>2026-04-04T15:50:46Z</time></trkpt><trkpt lat="43.388126922354935" lon="11.440179755474496"><ele>350.0</ele><time>2026-04-04T15:50:47Z</time></trkpt><trkpt lat="43.3880361689524" lon="11.44005373624809"><ele>348.0</ele><time>2026-04-04T15:50:48Z</time></trkpt><trkpt lat="43.38795098307321" lon="11.439913752679741"><ele>346.0</ele><time>2026-04-04T15:50:49Z</time></trkpt><trkpt lat="43.38787737173359" lon="11.43975654031037"><ele>345.0</ele><time>2026-04-04T15:50:50Z</time></trkpt><trkpt lat="43.38779250836054" lon="11.439618755478389"><ele>344.0</ele><time>2026-04-04T15:50:51Z</time></trkpt><trkpt lat="43.387720358929236" lon="11.439470884064894"><ele>343.0</ele><time>2026-04-04T15:50:52Z</time></trkpt><trkpt lat="43.38763924727556" lon="11.439325623067068"><ele>342.0</ele><time>2026-04-04T15:50:53Z</time></trkpt><trkpt lat="43.38755604095217" lon="11.439181093963164"><ele>342.0</ele><time>2026-04-04T15:50:54Z</time></trkpt><trkpt lat="43.387481792719186" lon="11.439017321031352"><ele>342.0</ele><time>2026-04-04T15:50:55Z</time></trkpt><trkpt lat="43.387374084333" lon="11.438909008714534"><ele>342.0</ele><time>2026-04-04T15:50:56Z</time></trkpt><trkpt lat="43.387285058117236" lon="11.4387661957911"><ele>342.0</ele><time>2026-04-04T15:50:57Z</time></trkpt><trkpt lat="43.38720427256621" lon="11.43861844759496"><ele>342.25</ele><time>2026-04-04T15:50:58Z</time></trkpt><trkpt lat="43.38713428267593" lon="11.438459067921485"><ele>342.5</ele><time>2026-04-04T15:50:59Z</time></trkpt><trkpt lat="43.38708196117751" lon="11.438280407485644"><ele>342.75</ele><time>2026-04-04T15:51:00Z</time></trkpt><trkpt lat="43.38703933486011" lon="11.438083730443186"><ele>343.0</ele><time>2026-04-04T15:51:01Z</time></trkpt><trkpt lat="43.38699062640909" lon="11.437878079239093"><ele>343.3333333333333</ele><time>2026-04-04T15:51:02Z</time></trkpt><trkpt lat="43.38693065876248" lon="11.437669243176012"><ele>343.6666666666667</ele><time>2026-04-04T15:51:03Z</time></trkpt><trkpt lat="43.386871393787814" lon="11.437454790248625"><ele>344.0</ele><time>2026-04-04T15:51:04Z</time></trkpt><trkpt lat="43.38681974563566" lon="11.437257284409572"><ele>342.0</ele><time>2026-04-04T15:51:05Z</time></trkpt><trkpt lat="43.38676144363935" lon="11.437083101288739"><ele>340.0</ele><time>2026-04-04T15:51:06Z</time></trkpt><trkpt lat="43.386655677566544" lon="11.436947780213114"><ele>338.0</ele><time>2026-04-04T15:51:07Z</time></trkpt><trkpt lat="43.38653212623216" lon="11.436807223814663"><ele>336.0</ele><time>2026-04-04T15:51:08Z</time></trkpt><trkpt lat="43.38639519509804" lon="11.436665328959403"><ele>336.0</ele><time>2026-04-04T15:51:09Z</time></trkpt><trkpt lat="43.38626866599498" lon="11.43652405218511"><ele>336.0</ele><time>2026-04-04T15:51:10Z</time></trkpt><trkpt lat="43.386153838258785" lon="11.436381790479086"><ele>336.0</ele><time>2026-04-04T15:51:11Z</time></trkpt><trkpt lat="43.386050996246446" lon="11.436247324821094"><ele>336.0</ele><time>2026-04-04T15:51:12Z</time></trkpt><trkpt lat="43.3859615547699" lon="11.436110915955693"><ele>336.0</ele><time>2026-04-04T15:51:13Z</time></trkpt><trkpt lat="43.385874753758216" lon="11.435988008067284"><ele>336.0</ele><time>2026-04-04T15:51:14Z</time></trkpt><trkpt lat="43.38576933453818" lon="11.435884806570915"><ele>336.0</ele><time>2026-04-04T15:51:15Z</time></trkpt><trkpt lat="43.38564685781597" lon="11.43578379329258"><ele>336.0</ele><time>2026-04-04T15:51:16Z</time></trkpt><trkpt lat="43.385512685166745" lon="11.435674437314548"><ele>336.0</ele><time>2026-04-04T15:51:17Z</time></trkpt><trkpt lat="43.38536508202593" lon="11.435546044453025"><ele>336.0</ele><time>2026-04-04T15:51:18Z</time></trkpt><trkpt lat="43.385198426673945" lon="11.435423015318257"><ele>333.6666666666667</ele><time>2026-04-04T15:51:19Z</time></trkpt><trkpt lat="43.38503374809415" lon="11.435282229175224"><ele>331.33333333333337</ele><time>2026-04-04T15:51:20Z</time></trkpt><trkpt lat="43.38483670920537" lon="11.435184595768455"><ele>329.0</ele><time>2026-04-04T15:51:21Z</time></trkpt><trkpt lat="43.384622389684004" lon="11.435150027136103"><ele>327.6666666666667</ele><time>2026-04-04T15:51:22Z</time></trkpt><trkpt lat="43.384404121125264" lon="11.435099800953175"><ele>326.3333333333333</ele><time>2026-04-04T15:51:23Z</time></trkpt><trkpt lat="43.38419171356678" lon="11.435030914853705"><ele>325.0</ele><time>2026-04-04T15:51:24Z</time></trkpt><trkpt lat="43.3839951355714" lon="11.434979660274957"><ele>324.66666666666663</ele><time>2026-04-04T15:51:25Z</time></trkpt><trkpt lat="43.383807766509356" lon="11.434926225421798"><ele>324.3333333333333</ele><time>2026-04-04T15:51:26Z</time></trkpt><trkpt lat="43.38363090304209" lon="11.434862460057614"><ele>324.0</ele><time>2026-04-04T15:51:27Z</time></trkpt><trkpt lat="43.38346990319577" lon="11.434777444590313"><ele>324.0</ele><time>2026-04-04T15:51:28Z</time></trkpt><trkpt lat="43.38332795463209" lon="11.434673595487636"><ele>324.0</ele><time>2026-04-04T15:51:29Z</time></trkpt><trkpt lat="43.38320110763632" lon="11.434563587889224"><ele>324.0</ele><time>2026-04-04T15:51:30Z</time></trkpt><trkpt lat="43.38308872418902" lon="11.434453002648029"><ele>324.0</ele><time>2026-04-04T15:51:31Z</time></trkpt><trkpt lat="43.3829813125348" lon="11.4343629593502"><ele>324.75</ele><time>2026-04-04T15:51:32Z</time></trkpt><trkpt lat="43.382880596673864" lon="11.434275793837864"><ele>325.5</ele><time>2026-04-04T15:51:33Z</time></trkpt><trkpt lat="43.3827691967549" lon="11.43419785039058"><ele>326.25</ele><time>2026-04-04T15:51:34Z</time></trkpt><trkpt lat="43.38264387183427" lon="11.434131072246533"><ele>327.0</ele><time>2026-04-04T15:51:35Z</time></trkpt><trkpt lat="43.38250573069442" lon="11.43407456029329"><ele>327.0</ele><time>2026-04-04T15:51:36Z</time></trkpt><trkpt lat="43.38235840924999" lon="11.43404436501913"><ele>327.0</ele><time>2026-04-04T15:51:37Z</time></trkpt><trkpt lat="43.382201577749164" lon="11.434024904173668"><ele>327.0</ele><time>2026-04-04T15:51:38Z</time></trkpt><trkpt lat="43.38204352983843" lon="11.434002610830012"><ele>326.5</ele><time>2026-04-04T15:51:39Z</time></trkpt><trkpt lat="43.38189478669363" lon="11.433990336861045"><ele>326.0</ele><time>2026-04-04T15:51:40Z</time></trkpt><trkpt lat="43.38176838360619" lon="11.43396960568633"><ele>325.5</ele><time>2026-04-04T15:51:41Z</time></trkpt><trkpt lat="43.38165928282731" lon="11.433902137047882"><ele>325.0</ele><time>2026-04-04T15:51:42Z</time></trkpt><trkpt lat="43.381552467354744" lon="11.433834143842327"><ele>323.75</ele><time>2026-04-04T15:51:43Z</time></trkpt><trkpt lat="43.3814321325329" lon="11.433754399689718"><ele>322.5</ele><time>2026-04-04T15:51:44Z</time></trkpt><trkpt lat="43.3813059348971" lon="11.433671356237932"><ele>321.25</ele><time>2026-04-04T15:51:45Z</time></trkpt><trkpt lat="43.3811819269255" lon="11.433590926541891"><ele>320.0</ele><time>2026-04-04T15:51:46Z</time></trkpt><trkpt lat="43.381064169224956" lon="11.433502139623414"><ele>319.5</ele><time>2026-04-04T15:51:47Z</time></trkpt><trkpt lat="43.380952627381795" lon="11.43338549755628"><ele>319.0</ele><time>2026-04-04T15:51:48Z</time></trkpt><trkpt lat="43.38084978646268" lon="11.433246957327682"><ele>318.5</ele><time>2026-04-04T15:51:49Z</time></trkpt><trkpt lat="43.38077584525295" lon="11.433094795722976"><ele>318.0</ele><time>2026-04-04T15:51:50Z</time></trkpt><trkpt lat="43.380709420718624" lon="11.43294453875533"><ele>318.0</ele><time>2026-04-04T15:51:51Z</time></trkpt><trkpt lat="43.38063104606721" lon="11.432827100462752"><ele>318.0</ele><time>2026-04-04T15:51:52Z</time></trkpt><trkpt lat="43.380538296473134" lon="11.432734562569483"><ele>318.0</ele><time>2026-04-04T15:51:53Z</time></trkpt><trkpt lat="43.38042497072281" lon="11.4326779959483"><ele>318.0</ele><time>2026-04-04T15:51:54Z</time></trkpt><trkpt lat="43.38030594420169" lon="11.432663093018688"><ele>318.75</ele><time>2026-04-04T15:51:55Z</time></trkpt><trkpt lat="43.380182245010275" lon="11.432624599668461"><ele>319.5</ele><time>2026-04-04T15:51:56Z</time></trkpt><trkpt lat="43.38004013573726" lon="11.432603573310248"><ele>320.25</ele><time>2026-04-04T15:51:57Z</time></trkpt><trkpt lat="43.37988903927454" lon="11.43258405917556"><ele>321.0</ele><time>2026-04-04T15:51:58Z</time></trkpt><trkpt lat="43.3797314279867" lon="11.432556034921005"><ele>320.0</ele><time>2026-04-04T15:51:59Z</time></trkpt><trkpt lat="43.37956929007516" lon="11.43249967149099"><ele>319.0</ele><time>2026-04-04T15:52:00Z</time></trkpt><trkpt lat="43.37940381803493" lon="11.432413096744432"><ele>318.0</ele><time>2026-04-04T15:52:01Z</time></trkpt><trkpt lat="43.37922790685402" lon="11.43233278687895"><ele>318.0</ele><time>2026-04-04T15:52:02Z</time></trkpt><trkpt lat="43.37905062072091" lon="11.432252693746412"><ele>318.0</ele><time>2026-04-04T15:52:03Z</time></trkpt><trkpt lat="43.37887056445733" lon="11.432165385174546"><ele>318.0</ele><time>2026-04-04T15:52:04Z</time></trkpt><trkpt lat="43.37868386071431" lon="11.432072527990346"><ele>317.6666666666667</ele><time>2026-04-04T15:52:05Z</time></trkpt><trkpt lat="43.37849311865365" lon="11.431975515972972"><ele>317.33333333333337</ele><time>2026-04-04T15:52:06Z</time></trkpt><trkpt lat="43.37829920417364" lon="11.431873267976597"><ele>317.0</ele><time>2026-04-04T15:52:07Z</time></trkpt><trkpt lat="43.37809780579971" lon="11.431772256460615"><ele>317.6666666666667</ele><time>2026-04-04T15:52:08Z</time></trkpt><trkpt lat="43.37790390743567" lon="11.431675065762297"><ele>318.3333333333333</ele><time>2026-04-04T15:52:09Z</time></trkpt><trkpt lat="43.377711921080014" lon="11.431594465119021"><ele>319.0</ele><time>2026-04-04T15:52:10Z</time></trkpt><trkpt lat="43.377534186491665" lon="11.431503684159932"><ele>319.0</ele><time>2026-04-04T15:52:11Z</time></trkpt><trkpt lat="43.37736413862864" lon="11.431414257794245"><ele>319.0</ele><time>2026-04-04T15:52:12Z</time></trkpt><trkpt lat="43.37718878822483" lon="11.431364060373332"><ele>319.0</ele><time>2026-04-04T15:52:13Z</time></trkpt><trkpt lat="43.3770065808074" lon="11.431335374200689"><ele>318.0</ele><time>2026-04-04T15:52:14Z</time></trkpt><trkpt lat="43.376822676307604" lon="11.43131318341578"><ele>317.0</ele><time>2026-04-04T15:52:15Z</time></trkpt><trkpt lat="43.37664158704961" lon="11.431292455568498"><ele>316.0</ele><time>2026-04-04T15:52:16Z</time></trkpt><trkpt lat="43.376473654310544" lon="11.43127323345058"><ele>315.0</ele><time>2026-04-04T15:52:17Z</time></trkpt><trkpt lat="43.37631516848449" lon="11.431248317200373"><ele>314.0</ele><time>2026-04-04T15:52:18Z</time></trkpt><trkpt lat="43.3761623679611" lon="11.431222698808588"><ele>313.0</ele><time>2026-04-04T15:52:19Z</time></trkpt><trkpt lat="43.37600614314141" lon="11.431193547565002"><ele>313.0</ele><time>2026-04-04T15:52:20Z</time></trkpt><trkpt lat="43.375863214079324" lon="11.431157453637159"><ele>313.0</ele><time>2026-04-04T15:52:21Z</time></trkpt><trkpt lat="43.37572131196936" lon="11.431097301846279"><ele>313.0</ele><time>2026-04-04T15:52:22Z</time></trkpt><trkpt lat="43.3755709659552" lon="11.430996392479319"><ele>310.0</ele><time>2026-04-04T15:52:23Z</time></trkpt><trkpt lat="43.37541336196557" lon="11.430869262155086"><ele>307.0</ele><time>2026-04-04T15:52:24Z</time></trkpt><trkpt lat="43.37524759503878" lon="11.430739942815432"><ele>304.0</ele><time>2026-04-04T15:52:25Z</time></trkpt><trkpt lat="43.37507014391247" lon="11.430618250810578"><ele>304.0</ele><time>2026-04-04T15:52:26Z</time></trkpt><trkpt lat="43.3748916205456" lon="11.43053974823926"><ele>304.0</ele><time>2026-04-04T15:52:27Z</time></trkpt><trkpt lat="43.374718616520305" lon="11.430444814235878"><ele>304.0</ele><time>2026-04-04T15:52:28Z</time></trkpt><trkpt lat="43.374532886861395" lon="11.430381674979488"><ele>304.3333333333333</ele><time>2026-04-04T15:52:29Z</time></trkpt><trkpt lat="43.37434293660304" lon="11.430321400963486"><ele>304.6666666666667</ele><time>2026-04-04T15:52:30Z</time></trkpt><trkpt lat="43.37415950195702" lon="11.430264475301014"><ele>305.0</ele><time>2026-04-04T15:52:31Z</time></trkpt><trkpt lat="43.373970307846974" lon="11.430201745748125"><ele>304.6666666666667</ele><time>2026-04-04T15:52:32Z</time></trkpt><trkpt lat="43.37378254741345" lon="11.430129409633597"><ele>304.3333333333333</ele><time>2026-04-04T15:52:33Z</time></trkpt><trkpt lat="43.37358494763915" lon="11.430040435895068"><ele>304.0</ele><time>2026-04-04T15:52:34Z</time></trkpt><trkpt lat="43.373381481942296" lon="11.429932971837859"><ele>304.0</ele><time>2026-04-04T15:52:35Z</time></trkpt><trkpt lat="43.37316304126834" lon="11.429803568921837"><ele>304.0</ele><time>2026-04-04T15:52:36Z</time></trkpt><trkpt lat="43.3729371112898" lon="11.429667578525912"><ele>300.5</ele><time>2026-04-04T15:52:37Z</time></trkpt><trkpt lat="43.37270845321086" lon="11.429534247744614"><ele>297.0</ele><time>2026-04-04T15:52:38Z</time></trkpt><trkpt lat="43.372481003635144" lon="11.429402979622294"><ele>297.0</ele><time>2026-04-04T15:52:39Z</time></trkpt><trkpt lat="43.37225837197455" lon="11.429275729602209"><ele>297.0</ele><time>2026-04-04T15:52:40Z</time></trkpt><trkpt lat="43.37204137271655" lon="11.429176999563783"><ele>295.6666666666667</ele><time>2026-04-04T15:52:41Z</time></trkpt><trkpt lat="43.37184362151281" lon="11.429063152718346"><ele>294.33333333333337</ele><time>2026-04-04T15:52:42Z</time></trkpt><trkpt lat="43.37165840890949" lon="11.428949928031125"><ele>293.0</ele><time>2026-04-04T15:52:43Z</time></trkpt><trkpt lat="43.37148244939413" lon="11.428859899662893"><ele>293.33333333333337</ele><time>2026-04-04T15:52:44Z</time></trkpt><trkpt lat="43.37131568277074" lon="11.428790086583009"><ele>293.6666666666667</ele><time>2026-04-04T15:52:45Z</time></trkpt><trkpt lat="43.37114947950459" lon="11.428756360857346"><ele>294.0</ele><time>2026-04-04T15:52:46Z</time></trkpt><trkpt lat="43.37096848517676" lon="11.428706649770177"><ele>294.0</ele><time>2026-04-04T15:52:47Z</time></trkpt><trkpt lat="43.37077532780904" lon="11.428648042420281"><ele>294.0</ele><time>2026-04-04T15:52:48Z</time></trkpt><trkpt lat="43.37056960922779" lon="11.428613839339985"><ele>294.0</ele><time>2026-04-04T15:52:49Z</time></trkpt><trkpt lat="43.3703494054132" lon="11.42860461641436"><ele>290.5</ele><time>2026-04-04T15:52:50Z</time></trkpt><trkpt lat="43.37011977391937" lon="11.428551980904933"><ele>287.0</ele><time>2026-04-04T15:52:51Z</time></trkpt><trkpt lat="43.36988813304106" lon="11.42852378297273"><ele>285.33333333333337</ele><time>2026-04-04T15:52:52Z</time></trkpt><trkpt lat="43.36967607883397" lon="11.428502458745323"><ele>283.6666666666667</ele><time>2026-04-04T15:52:53Z</time></trkpt><trkpt lat="43.36947377236457" lon="11.428486381489332"><ele>282.0</ele><time>2026-04-04T15:52:54Z</time></trkpt><trkpt lat="43.369281176613285" lon="11.42847794382305"><ele>282.0</ele><time>2026-04-04T15:52:55Z</time></trkpt><trkpt lat="43.3691004643362" lon="11.428494095590676"><ele>282.0</ele><time>2026-04-04T15:52:56Z</time></trkpt><trkpt lat="43.36893741727725" lon="11.428462990430948"><ele>282.0</ele><time>2026-04-04T15:52:57Z</time></trkpt><trkpt lat="43.36879307017103" lon="11.428439592069363"><ele>282.6666666666667</ele><time>2026-04-04T15:52:58Z</time></trkpt><trkpt lat="43.368656294774794" lon="11.42838247100468"><ele>283.33333333333337</ele><time>2026-04-04T15:52:59Z</time></trkpt><trkpt lat="43.36851311722464" lon="11.428317303942208"><ele>284.0</ele><time>2026-04-04T15:53:00Z</time></trkpt><trkpt lat="43.3683819505872" lon="11.428197626923874"><ele>284.0</ele><time>2026-04-04T15:53:01Z</time></trkpt><trkpt lat="43.368259605896704" lon="11.428062967508126"><ele>284.0</ele><time>2026-04-04T15:53:02Z</time></trkpt><trkpt lat="43.36816863279517" lon="11.427882607099441"><ele>284.0</ele><time>2026-04-04T15:53:03Z</time></trkpt><trkpt lat="43.368091863745526" lon="11.427692931576683"><ele>284.0</ele><time>2026-04-04T15:53:04Z</time></trkpt><trkpt lat="43.36802539888052" lon="11.427485113904897"><ele>284.0</ele><time>2026-04-04T15:53:05Z</time></trkpt><trkpt lat="43.36797540816287" lon="11.427279140087252"><ele>284.0</ele><time>2026-04-04T15:53:06Z</time></trkpt><trkpt lat="43.36791844741599" lon="11.427103724614401"><ele>284.0</ele><time>2026-04-04T15:53:07Z</time></trkpt><trkpt lat="43.36783975788509" lon="11.426946009919122"><ele>284.0</ele><time>2026-04-04T15:53:08Z</time></trkpt><trkpt lat="43.36773598618946" lon="11.426820843479906"><ele>284.0</ele><time>2026-04-04T15:53:09Z</time></trkpt><trkpt lat="43.36760577074341" lon="11.426737431553926"><ele>284.0</ele><time>2026-04-04T15:53:10Z</time></trkpt><trkpt lat="43.367457960304215" lon="11.426687994818538"><ele>284.0</ele><time>2026-04-04T15:53:11Z</time></trkpt><trkpt lat="43.36730822533763" lon="11.426620861803547"><ele>284.0</ele><time>2026-04-04T15:53:12Z</time></trkpt><trkpt lat="43.367154577555034" lon="11.426557656099783"><ele>284.0</ele><time>2026-04-04T15:53:13Z</time></trkpt><trkpt lat="43.3669988897838" lon="11.426493611280582"><ele>285.6666666666667</ele><time>2026-04-04T15:53:14Z</time></trkpt><trkpt lat="43.366845322338804" lon="11.426430438560407"><ele>287.3333333333333</ele><time>2026-04-04T15:53:15Z</time></trkpt><trkpt lat="43.36669516953438" lon="11.426390069426152"><ele>289.0</ele><time>2026-04-04T15:53:16Z</time></trkpt><trkpt lat="43.36655823927281" lon="11.42634313725472"><ele>289.0</ele><time>2026-04-04T15:53:17Z</time></trkpt><trkpt lat="43.366413032916185" lon="11.42633394021685"><ele>289.0</ele><time>2026-04-04T15:53:18Z</time></trkpt><trkpt lat="43.36627416640971" lon="11.426353690309746"><ele>289.0</ele><time>2026-04-04T15:53:19Z</time></trkpt><trkpt lat="43.366139213915" lon="11.426392738865683"><ele>289.0</ele><time>2026-04-04T15:53:20Z</time></trkpt><trkpt lat="43.366018964520784" lon="11.426410920844061"><ele>289.25</ele><time>2026-04-04T15:53:21Z</time></trkpt><trkpt lat="43.36590194563483" lon="11.426379148541068"><ele>289.5</ele><time>2026-04-04T15:53:22Z</time></trkpt><trkpt lat="43.36579985196809" lon="11.426274610190433"><ele>289.75</ele><time>2026-04-04T15:53:23Z</time></trkpt><trkpt lat="43.3657055010822" lon="11.42614232413571"><ele>290.0</ele><time>2026-04-04T15:53:24Z</time></trkpt><trkpt lat="43.36560923600031" lon="11.425981194294208"><ele>287.33333333333337</ele><time>2026-04-04T15:53:25Z</time></trkpt><trkpt lat="43.36549696848327" lon="11.425808100139722"><ele>284.6666666666667</ele><time>2026-04-04T15:53:26Z</time></trkpt><trkpt lat="43.36538198513897" lon="11.425632517938155"><ele>282.0</ele><time>2026-04-04T15:53:27Z</time></trkpt><trkpt lat="43.36526312172547" lon="11.425446453233242"><ele>281.6666666666667</ele><time>2026-04-04T15:53:28Z</time></trkpt><trkpt lat="43.36515281159098" lon="11.425238108396641"><ele>281.33333333333337</ele><time>2026-04-04T15:53:29Z</time></trkpt><trkpt lat="43.36503251297086" lon="11.42505210220856"><ele>281.0</ele><time>2026-04-04T15:53:30Z</time></trkpt><trkpt lat="43.36491160702776" lon="11.424884026075109"><ele>281.0</ele><time>2026-04-04T15:53:31Z</time></trkpt><trkpt lat="43.3648136108691" lon="11.424698304476474"><ele>281.0</ele><time>2026-04-04T15:53:32Z</time></trkpt><trkpt lat="43.36474307556337" lon="11.424500844670387"><ele>281.0</ele><time>2026-04-04T15:53:33Z</time></trkpt><trkpt lat="43.36467501181193" lon="11.424307543169348"><ele>280.0</ele><time>2026-04-04T15:53:34Z</time></trkpt><trkpt lat="43.36461905685341" lon="11.424103970878411"><ele>279.0</ele><time>2026-04-04T15:53:35Z</time></trkpt><trkpt lat="43.36456016553291" lon="11.423887632881367"><ele>278.0</ele><time>2026-04-04T15:53:36Z</time></trkpt><trkpt lat="43.36453581957158" lon="11.423635178895676"><ele>275.6666666666667</ele><time>2026-04-04T15:53:37Z</time></trkpt><trkpt lat="43.364535582918904" lon="11.42337090335222"><ele>273.3333333333333</ele><time>2026-04-04T15:53:38Z</time></trkpt><trkpt lat="43.364520374364396" lon="11.423089095691141"><ele>271.0</ele><time>2026-04-04T15:53:39Z</time></trkpt><trkpt lat="43.36449614427035" lon="11.422789688531985"><ele>268.66666666666663</ele><time>2026-04-04T15:53:40Z</time></trkpt><trkpt lat="43.36448538668863" lon="11.422482908984101"><ele>266.3333333333333</ele><time>2026-04-04T15:53:41Z</time></trkpt><trkpt lat="43.36446434532514" lon="11.422180972829388"><ele>264.0</ele><time>2026-04-04T15:53:42Z</time></trkpt><trkpt lat="43.36444462347432" lon="11.421917501819307"><ele>261.6666666666667</ele><time>2026-04-04T15:53:43Z</time></trkpt><trkpt lat="43.36443038362655" lon="11.42168943638374"><ele>259.33333333333337</ele><time>2026-04-04T15:53:44Z</time></trkpt><trkpt lat="43.36440495686153" lon="11.421467948715618"><ele>257.0</ele><time>2026-04-04T15:53:45Z</time></trkpt><trkpt lat="43.364375883854976" lon="11.421252991240063"><ele>256.6666666666667</ele><time>2026-04-04T15:53:46Z</time></trkpt><trkpt lat="43.36431119613949" lon="11.421047884300833"><ele>256.3333333333333</ele><time>2026-04-04T15:53:47Z</time></trkpt><trkpt lat="43.36424388703498" lon="11.420843188654347"><ele>256.0</ele><time>2026-04-04T15:53:48Z</time></trkpt><trkpt lat="43.36418371776885" lon="11.420641517759263"><ele>255.33333333333331</ele><time>2026-04-04T15:53:49Z</time></trkpt><trkpt lat="43.3641391145634" lon="11.420437206632874"><ele>254.66666666666669</ele><time>2026-04-04T15:53:50Z</time></trkpt><trkpt lat="43.3641116228067" lon="11.420228509326318"><ele>254.0</ele><time>2026-04-04T15:53:51Z</time></trkpt><trkpt lat="43.364085520332296" lon="11.420017946622494"><ele>254.0</ele><time>2026-04-04T15:53:52Z</time></trkpt><trkpt lat="43.36406484370159" lon="11.419818691673957"><ele>254.0</ele><time>2026-04-04T15:53:53Z</time></trkpt><trkpt lat="43.36404754122005" lon="11.419615980849803"><ele>254.0</ele><time>2026-04-04T15:53:54Z</time></trkpt><trkpt lat="43.364032955561484" lon="11.41946419912014"><ele>254.0</ele><time>2026-04-04T15:53:55Z</time></trkpt><trkpt lat="43.36402353442385" lon="11.419292476374515"><ele>253.33333333333334</ele><time>2026-04-04T15:53:56Z</time></trkpt><trkpt lat="43.36401570421326" lon="11.419133644157688"><ele>252.66666666666669</ele><time>2026-04-04T15:53:57Z</time></trkpt><trkpt lat="43.364015924508564" lon="11.418986162677554"><ele>252.0</ele><time>2026-04-04T15:53:58Z</time></trkpt><trkpt lat="43.36402194554682" lon="11.4188667351131"><ele>251.33333333333331</ele><time>2026-04-04T15:53:59Z</time></trkpt><trkpt lat="43.36401956521315" lon="11.418774864778518"><ele>250.66666666666666</ele><time>2026-04-04T15:54:00Z</time></trkpt><trkpt lat="43.36404186447524" lon="11.418683705162886"><ele>250.0</ele><time>2026-04-04T15:54:02Z</time></trkpt><trkpt lat="43.3638666118008" lon="11.418615809089864"><ele>248.0</ele><time>2026-04-04T15:54:04Z</time></trkpt><trkpt lat="43.36377910245387" lon="11.418586793090695"><ele>246.0</ele><time>2026-04-04T15:54:06Z</time></trkpt><trkpt lat="43.363688333464864" lon="11.41852601566119"><ele>244.0</ele><time>2026-04-04T15:54:13Z</time></trkpt><trkpt lat="43.36362002284198" lon="11.418490121196548"><ele>242.0</ele><time>2026-04-04T15:54:14Z</time></trkpt><trkpt lat="43.363531444900204" lon="11.418469502833048"><ele>240.0</ele><time>2026-04-04T15:54:15Z</time></trkpt><trkpt lat="43.36342820705914" lon="11.41847102001853"><ele>240.0</ele><time>2026-04-04T15:54:16Z</time></trkpt><trkpt lat="43.363291175978055" lon="11.418447327681372"><ele>240.0</ele><time>2026-04-04T15:54:17Z</time></trkpt><trkpt lat="43.36314526263731" lon="11.418438941202648"><ele>240.0</ele><time>2026-04-04T15:54:18Z</time></trkpt><trkpt lat="43.362992366199556" lon="11.418413202621341"><ele>240.0</ele><time>2026-04-04T15:54:19Z</time></trkpt><trkpt lat="43.36283817073539" lon="11.418386971288243"><ele>239.25</ele><time>2026-04-04T15:54:20Z</time></trkpt><trkpt lat="43.36269364690215" lon="11.418333938596271"><ele>238.5</ele><time>2026-04-04T15:54:21Z</time></trkpt><trkpt lat="43.362556457478426" lon="11.418285833690058"><ele>237.75</ele><time>2026-04-04T15:54:22Z</time></trkpt><trkpt lat="43.362426002876646" lon="11.418246911211652"><ele>237.0</ele><time>2026-04-04T15:54:23Z</time></trkpt><trkpt lat="43.36229929239374" lon="11.418242043423213"><ele>235.5</ele><time>2026-04-04T15:54:24Z</time></trkpt><trkpt lat="43.36217357791916" lon="11.418282351435145"><ele>234.0</ele><time>2026-04-04T15:54:25Z</time></trkpt><trkpt lat="43.36205151338571" lon="11.418398682150531"><ele>232.5</ele><time>2026-04-04T15:54:26.001Z</time></trkpt><trkpt lat="43.36194976967986" lon="11.418546024507673"><ele>231.0</ele><time>2026-04-04T15:54:27.001Z</time></trkpt><trkpt lat="43.36184615000815" lon="11.418698927288997"><ele>232.75</ele><time>2026-04-04T15:54:28.001Z</time></trkpt><trkpt lat="43.3617514945552" lon="11.418867615743547"><ele>234.5</ele><time>2026-04-04T15:54:29.001Z</time></trkpt><trkpt lat="43.36166361070663" lon="11.418999402090531"><ele>236.25</ele><time>2026-04-04T15:54:30.001Z</time></trkpt><trkpt lat="43.36155324549944" lon="11.419095537365479"><ele>238.0</ele><time>2026-04-04T15:54:31Z</time></trkpt><trkpt lat="43.36141301401667" lon="11.419158826741386"><ele>236.0</ele><time>2026-04-04T15:54:32Z</time></trkpt><trkpt lat="43.36122794795944" lon="11.41922387753815"><ele>234.0</ele><time>2026-04-04T15:54:33Z</time></trkpt><trkpt lat="43.36101339237" lon="11.419302370667078"><ele>232.0</ele><time>2026-04-04T15:54:34Z</time></trkpt><trkpt lat="43.36080187440805" lon="11.41940282294375"><ele>232.0</ele><time>2026-04-04T15:54:35Z</time></trkpt><trkpt lat="43.36058629489827" lon="11.419458254419673"><ele>232.0</ele><time>2026-04-04T15:54:36Z</time></trkpt><trkpt lat="43.360382000764616" lon="11.419532818469893"><ele>232.0</ele><time>2026-04-04T15:54:37Z</time></trkpt><trkpt lat="43.360175252517806" lon="11.41960828004427"><ele>232.0</ele><time>2026-04-04T15:54:38Z</time></trkpt><trkpt lat="43.35997832610129" lon="11.419705110277443"><ele>232.0</ele><time>2026-04-04T15:54:39Z</time></trkpt><trkpt lat="43.35979069583517" lon="11.419775412601185"><ele>232.0</ele><time>2026-04-04T15:54:40Z</time></trkpt><trkpt lat="43.359609472922926" lon="11.419820364462343"><ele>230.66666666666666</ele><time>2026-04-04T15:54:41Z</time></trkpt><trkpt lat="43.35944381541496" lon="11.41988258037811"><ele>229.33333333333331</ele><time>2026-04-04T15:54:42Z</time></trkpt><trkpt lat="43.359294275570335" lon="11.419929373780631"><ele>228.0</ele><time>2026-04-04T15:54:43Z</time></trkpt><trkpt lat="43.35915686528997" lon="11.419944758476916"><ele>228.0</ele><time>2026-04-04T15:54:44Z</time></trkpt><trkpt lat="43.359030524824114" lon="11.419919829133677"><ele>228.0</ele><time>2026-04-04T15:54:45Z</time></trkpt><trkpt lat="43.3589201782242" lon="11.419818925481508"><ele>228.0</ele><time>2026-04-04T15:54:46Z</time></trkpt><trkpt lat="43.35883112033208" lon="11.419645998351182"><ele>228.0</ele><time>2026-04-04T15:54:47Z</time></trkpt><trkpt lat="43.358718557155434" lon="11.419471871411652"><ele>226.0</ele><time>2026-04-04T15:54:48Z</time></trkpt><trkpt lat="43.358577369106285" lon="11.419289503735861"><ele>224.0</ele><time>2026-04-04T15:54:49Z</time></trkpt><trkpt lat="43.358446434210286" lon="11.419054588991099"><ele>222.0</ele><time>2026-04-04T15:54:50Z</time></trkpt><trkpt lat="43.358297441698255" lon="11.418826119047145"><ele>221.66666666666669</ele><time>2026-04-04T15:54:51Z</time></trkpt><trkpt lat="43.3581624565297" lon="11.418619174058913"><ele>221.33333333333334</ele><time>2026-04-04T15:54:52Z</time></trkpt><trkpt lat="43.35802858993046" lon="11.418414641063782"><ele>221.0</ele><time>2026-04-04T15:54:53Z</time></trkpt><trkpt lat="43.357895205738586" lon="11.418210844964785"><ele>220.66666666666669</ele><time>2026-04-04T15:54:54Z</time></trkpt><trkpt lat="43.35776062963597" lon="11.418005227862102"><ele>220.33333333333331</ele><time>2026-04-04T15:54:55Z</time></trkpt><trkpt lat="43.35762783283886" lon="11.4178023291253"><ele>220.0</ele><time>2026-04-04T15:54:56Z</time></trkpt><trkpt lat="43.357499559539406" lon="11.41760634416214"><ele>220.0</ele><time>2026-04-04T15:54:57Z</time></trkpt><trkpt lat="43.35738439674065" lon="11.417426252684173"><ele>220.0</ele><time>2026-04-04T15:54:58Z</time></trkpt><trkpt lat="43.35727606251954" lon="11.41725781130256"><ele>220.0</ele><time>2026-04-04T15:54:59Z</time></trkpt><trkpt lat="43.35717397741272" lon="11.417099485997117"><ele>219.75</ele><time>2026-04-04T15:55:00Z</time></trkpt><trkpt lat="43.357073273356896" lon="11.416945955991995"><ele>219.5</ele><time>2026-04-04T15:55:01Z</time></trkpt><trkpt lat="43.35697082079603" lon="11.416796205815555"><ele>219.25</ele><time>2026-04-04T15:55:02Z</time></trkpt><trkpt lat="43.356872309988624" lon="11.416653852120147"><ele>219.0</ele><time>2026-04-04T15:55:03Z</time></trkpt><trkpt lat="43.35677711595158" lon="11.41652851836952"><ele>219.0</ele><time>2026-04-04T15:55:04Z</time></trkpt><trkpt lat="43.35670464761624" lon="11.416401240285074"><ele>219.0</ele><time>2026-04-04T15:55:05Z</time></trkpt><trkpt lat="43.35663225703493" lon="11.41627707200669"><ele>219.0</ele><time>2026-04-04T15:55:06Z</time></trkpt><trkpt lat="43.356562537440105" lon="11.416156864869007"><ele>219.0</ele><time>2026-04-04T15:55:07Z</time></trkpt><trkpt lat="43.35649367167512" lon="11.4160437931093"><ele>219.5</ele><time>2026-04-04T15:55:08Z</time></trkpt><trkpt lat="43.356379465638724" lon="11.415842647017984"><ele>220.0</ele><time>2026-04-04T15:55:10Z</time></trkpt><trkpt lat="43.35633901531995" lon="11.415745565601641"><ele>220.5</ele><time>2026-04-04T15:55:11Z</time></trkpt><trkpt lat="43.35635918070293" lon="11.415575245274795"><ele>221.0</ele><time>2026-04-04T15:55:12Z</time></trkpt><trkpt lat="43.356394592061015" lon="11.41540223541179"><ele>222.5</ele><time>2026-04-04T15:55:13Z</time></trkpt><trkpt lat="43.35643833590045" lon="11.415215700382488"><ele>224.0</ele><time>2026-04-04T15:55:14Z</time></trkpt><trkpt lat="43.35647835719123" lon="11.415012798564787"><ele>225.5</ele><time>2026-04-04T15:55:15Z</time></trkpt><trkpt lat="43.35651371667188" lon="11.414818415301024"><ele>227.0</ele><time>2026-04-04T15:55:16Z</time></trkpt><trkpt lat="43.35655157921624" lon="11.41462472416444"><ele>228.0</ele><time>2026-04-04T15:55:17Z</time></trkpt><trkpt lat="43.3565951776977" lon="11.414433217845769"><ele>229.0</ele><time>2026-04-04T15:55:18Z</time></trkpt><trkpt lat="43.356642316321924" lon="11.414240108208288"><ele>230.0</ele><time>2026-04-04T15:55:19Z</time></trkpt><trkpt lat="43.35669278617036" lon="11.414044889756868"><ele>231.0</ele><time>2026-04-04T15:55:20Z</time></trkpt><trkpt lat="43.356743917853564" lon="11.41384771037998"><ele>232.0</ele><time>2026-04-04T15:55:21Z</time></trkpt><trkpt lat="43.35679580733727" lon="11.413650443028905"><ele>233.0</ele><time>2026-04-04T15:55:22Z</time></trkpt><trkpt lat="43.35684959122753" lon="11.413455716368514"><ele>234.0</ele><time>2026-04-04T15:55:23Z</time></trkpt><trkpt lat="43.35690601867008" lon="11.413254284306085"><ele>234.0</ele><time>2026-04-04T15:55:24Z</time></trkpt><trkpt lat="43.35696746852872" lon="11.413055779480322"><ele>234.0</ele><time>2026-04-04T15:55:25Z</time></trkpt><trkpt lat="43.3570281883813" lon="11.412873389794646"><ele>234.0</ele><time>2026-04-04T15:55:26Z</time></trkpt><trkpt lat="43.35709269247838" lon="11.412716203973217"><ele>234.0</ele><time>2026-04-04T15:55:27Z</time></trkpt><trkpt lat="43.35715374519627" lon="11.41259670580724"><ele>235.6</ele><time>2026-04-04T15:55:28Z</time></trkpt><trkpt lat="43.357217755961614" lon="11.412500291285905"><ele>237.2</ele><time>2026-04-04T15:55:29Z</time></trkpt><trkpt lat="43.357285672062766" lon="11.412422424932029"><ele>238.79999999999998</ele><time>2026-04-04T15:55:30Z</time></trkpt><trkpt lat="43.35736393392588" lon="11.412359694185197"><ele>240.39999999999998</ele><time>2026-04-04T15:55:31Z</time></trkpt><trkpt lat="43.357462929290946" lon="11.412332644771766"><ele>242.0</ele><time>2026-04-04T15:55:32Z</time></trkpt><trkpt lat="43.35755928063708" lon="11.41230710486209"><ele>242.0</ele><time>2026-04-04T15:55:33Z</time></trkpt><trkpt lat="43.3576524810249" lon="11.412287754249974"><ele>242.0</ele><time>2026-04-04T15:55:34Z</time></trkpt><trkpt lat="43.35774193313066" lon="11.412302777732515"><ele>242.0</ele><time>2026-04-04T15:55:35Z</time></trkpt><trkpt lat="43.35783513300583" lon="11.412366970600551"><ele>242.0</ele><time>2026-04-04T15:55:36Z</time></trkpt><trkpt lat="43.357939531960994" lon="11.412419141177427"><ele>242.0</ele><time>2026-04-04T15:55:37Z</time></trkpt><trkpt lat="43.35804360876557" lon="11.412435529209032"><ele>243.25</ele><time>2026-04-04T15:55:38Z</time></trkpt><trkpt lat="43.35814955420451" lon="11.412460344715061"><ele>244.5</ele><time>2026-04-04T15:55:39Z</time></trkpt><trkpt lat="43.358266277154335" lon="11.412461789575138"><ele>245.75</ele><time>2026-04-04T15:55:40Z</time></trkpt><trkpt lat="43.358390838130035" lon="11.412459129304834"><ele>247.0</ele><time>2026-04-04T15:55:41Z</time></trkpt><trkpt lat="43.35851324902856" lon="11.412455235196035"><ele>246.99999999999997</ele><time>2026-04-04T15:55:42Z</time></trkpt><trkpt lat="43.35861788940563" lon="11.412446163012847"><ele>247.0</ele><time>2026-04-04T15:55:43Z</time></trkpt><trkpt lat="43.358708968538984" lon="11.412413004489336"><ele>247.0</ele><time>2026-04-04T15:55:44Z</time></trkpt><trkpt lat="43.35878241414041" lon="11.41236357982266"><ele>247.0</ele><time>2026-04-04T15:55:45Z</time></trkpt><trkpt lat="43.35885157841338" lon="11.412316134950952"><ele>246.99999999999997</ele><time>2026-04-04T15:55:46Z</time></trkpt><trkpt lat="43.35890929656681" lon="11.412248388426262"><ele>247.0</ele><time>2026-04-04T15:55:47Z</time></trkpt><trkpt lat="43.35895994483042" lon="11.41215633118127"><ele>249.2</ele><time>2026-04-04T15:55:48Z</time></trkpt><trkpt lat="43.35900354102401" lon="11.41208505330631"><ele>251.39999999999998</ele><time>2026-04-04T15:55:49Z</time></trkpt><trkpt lat="43.359006553682576" lon="11.411972442717408"><ele>253.60000000000002</ele><time>2026-04-04T15:55:50Z</time></trkpt><trkpt lat="43.35901062575284" lon="11.411855744439755"><ele>255.8</ele><time>2026-04-04T15:55:51Z</time></trkpt><trkpt lat="43.35900852397714" lon="11.411712539659426"><ele>258.0</ele><time>2026-04-04T15:55:52Z</time></trkpt><trkpt lat="43.359008605744066" lon="11.411546918747364"><ele>258.0</ele><time>2026-04-04T15:55:53Z</time></trkpt><trkpt lat="43.359020565014674" lon="11.41139747485005"><ele>258.0</ele><time>2026-04-04T15:55:54Z</time></trkpt><trkpt lat="43.3590409740038" lon="11.411257756693201"><ele>258.0</ele><time>2026-04-04T15:55:55Z</time></trkpt><trkpt lat="43.359073638253" lon="11.411147237828482"><ele>258.0</ele><time>2026-04-04T15:55:56Z</time></trkpt><trkpt lat="43.359116165926764" lon="11.411058981303977"><ele>258.0</ele><time>2026-04-04T15:55:57Z</time></trkpt><trkpt lat="43.35916642878357" lon="11.410975551404938"><ele>259.0</ele><time>2026-04-04T15:55:58Z</time></trkpt><trkpt lat="43.359290143488394" lon="11.410929880953564"><ele>260.0</ele><time>2026-04-04T15:56:00Z</time></trkpt><trkpt lat="43.35936032117675" lon="11.41096432145377"><ele>261.0</ele><time>2026-04-04T15:56:01Z</time></trkpt><trkpt lat="43.35941521113271" lon="11.411019925740053"><ele>262.0</ele><time>2026-04-04T15:56:02Z</time></trkpt><trkpt lat="43.359463270187234" lon="11.411093606236125"><ele>263.0</ele><time>2026-04-04T15:56:03Z</time></trkpt><trkpt lat="43.35950217037782" lon="11.41118733989119"><ele>264.0</ele><time>2026-04-04T15:56:04Z</time></trkpt><trkpt lat="43.35953325055932" lon="11.411295348141351"><ele>262.8</ele><time>2026-04-04T15:56:05Z</time></trkpt><trkpt lat="43.35955678221284" lon="11.411427953401615"><ele>261.59999999999997</ele><time>2026-04-04T15:56:06Z</time></trkpt><trkpt lat="43.35957498214069" lon="11.411567715273634"><ele>260.4</ele><time>2026-04-04T15:56:07Z</time></trkpt><trkpt lat="43.359590199916035" lon="11.411705049267338"><ele>259.2</ele><time>2026-04-04T15:56:08Z</time></trkpt><trkpt lat="43.359620016472775" lon="11.411826406110292"><ele>258.0</ele><time>2026-04-04T15:56:09Z</time></trkpt><trkpt lat="43.35965137141815" lon="11.411918612497443"><ele>258.0</ele><time>2026-04-04T15:56:10Z</time></trkpt><trkpt lat="43.359693175364626" lon="11.411988788734417"><ele>258.0</ele><time>2026-04-04T15:56:11Z</time></trkpt><trkpt lat="43.35986074202306" lon="11.4120718444021"><ele>258.0</ele><time>2026-04-04T15:56:14Z</time></trkpt><trkpt lat="43.35996602140019" lon="11.412001000070962"><ele>258.0</ele><time>2026-04-04T15:56:16Z</time></trkpt><trkpt lat="43.36000412063471" lon="11.411928821249813"><ele>258.0</ele><time>2026-04-04T15:56:17Z</time></trkpt><trkpt lat="43.36001463602777" lon="11.41182479223486"><ele>260.0</ele><time>2026-04-04T15:56:18Z</time></trkpt><trkpt lat="43.35996113230053" lon="11.411719838344625"><ele>262.0</ele><time>2026-04-04T15:56:19Z</time></trkpt><trkpt lat="43.35994389703054" lon="11.411619649109777"><ele>264.0</ele><time>2026-04-04T15:56:20Z</time></trkpt><trkpt lat="43.3599436740852" lon="11.411525328862439"><ele>266.0</ele><time>2026-04-04T15:56:21Z</time></trkpt><trkpt lat="43.35993276455652" lon="11.411390779715813"><ele>268.0</ele><time>2026-04-04T15:56:22Z</time></trkpt><trkpt lat="43.359966990175565" lon="11.411285214701259"><ele>270.0</ele><time>2026-04-04T15:56:23Z</time></trkpt><trkpt lat="43.36000623467305" lon="11.411191744492015"><ele>270.0</ele><time>2026-04-04T15:56:24Z</time></trkpt><trkpt lat="43.36004432616092" lon="11.41112008578574"><ele>270.0</ele><time>2026-04-04T15:56:25Z</time></trkpt><trkpt lat="43.36009598768315" lon="11.411065296986385"><ele>270.0</ele><time>2026-04-04T15:56:26Z</time></trkpt><trkpt lat="43.360161012033814" lon="11.411027550537018"><ele>270.0</ele><time>2026-04-04T15:56:27Z</time></trkpt><trkpt lat="43.360220993280066" lon="11.410992143299541"><ele>270.0</ele><time>2026-04-04T15:56:28Z</time></trkpt><trkpt lat="43.36029224732735" lon="11.410952020553736"><ele>270.0</ele><time>2026-04-04T15:56:29Z</time></trkpt><trkpt lat="43.36036925513982" lon="11.41091324355146"><ele>270.0</ele><time>2026-04-04T15:56:30Z</time></trkpt><trkpt lat="43.360456097152905" lon="11.410872148009306"><ele>271.6</ele><time>2026-04-04T15:56:31Z</time></trkpt><trkpt lat="43.36055475724041" lon="11.41083103489704"><ele>273.2</ele><time>2026-04-04T15:56:32Z</time></trkpt><trkpt lat="43.3606559452965" lon="11.410784090042961"><ele>274.8</ele><time>2026-04-04T15:56:33Z</time></trkpt><trkpt lat="43.360740533727814" lon="11.410726311913617"><ele>276.4</ele><time>2026-04-04T15:56:34Z</time></trkpt><trkpt lat="43.360798170908076" lon="11.41064250439153"><ele>278.0</ele><time>2026-04-04T15:56:35Z</time></trkpt><trkpt lat="43.360842498832625" lon="11.410545428956741"><ele>278.6</ele><time>2026-04-04T15:56:36Z</time></trkpt><trkpt lat="43.3608671256023" lon="11.410433000619582"><ele>279.20000000000005</ele><time>2026-04-04T15:56:37Z</time></trkpt><trkpt lat="43.36087764736661" lon="11.410310077599968"><ele>279.8</ele><time>2026-04-04T15:56:38Z</time></trkpt><trkpt lat="43.36089437405774" lon="11.410182195050549"><ele>280.40000000000003</ele><time>2026-04-04T15:56:39Z</time></trkpt><trkpt lat="43.36084951001067" lon="11.410051145927344"><ele>281.0</ele><time>2026-04-04T15:56:40Z</time></trkpt><trkpt lat="43.36081680825141" lon="11.40990293123736"><ele>281.0</ele><time>2026-04-04T15:56:41Z</time></trkpt><trkpt lat="43.36076479670204" lon="11.409748354343368"><ele>281.0</ele><time>2026-04-04T15:56:42Z</time></trkpt><trkpt lat="43.36070186702442" lon="11.40958043870385"><ele>281.0</ele><time>2026-04-04T15:56:43Z</time></trkpt><trkpt lat="43.360614097266506" lon="11.409408473804929"><ele>281.0</ele><time>2026-04-04T15:56:44Z</time></trkpt><trkpt lat="43.36054691949201" lon="11.409249935744613"><ele>280.75</ele><time>2026-04-04T15:56:45Z</time></trkpt><trkpt lat="43.36047261437212" lon="11.409124121042739"><ele>280.5</ele><time>2026-04-04T15:56:46Z</time></trkpt><trkpt lat="43.36040501533691" lon="11.408977955550572"><ele>280.25</ele><time>2026-04-04T15:56:47Z</time></trkpt><trkpt lat="43.36031607100619" lon="11.408838742663779"><ele>280.0</ele><time>2026-04-04T15:56:48Z</time></trkpt><trkpt lat="43.360188759193626" lon="11.408752485829986"><ele>282.25</ele><time>2026-04-04T15:56:49Z</time></trkpt><trkpt lat="43.360078330261175" lon="11.408642708376712"><ele>284.5</ele><time>2026-04-04T15:56:50Z</time></trkpt><trkpt lat="43.359950773816344" lon="11.408540222409432"><ele>286.75</ele><time>2026-04-04T15:56:51Z</time></trkpt><trkpt lat="43.359831964627645" lon="11.408444764151826"><ele>289.0</ele><time>2026-04-04T15:56:52Z</time></trkpt><trkpt lat="43.359722580642334" lon="11.408356875449456"><ele>289.0</ele><time>2026-04-04T15:56:53Z</time></trkpt><trkpt lat="43.359631681416126" lon="11.408283265008423"><ele>289.0</ele><time>2026-04-04T15:56:54Z</time></trkpt><trkpt lat="43.35956328318996" lon="11.408216898847565"><ele>289.0</ele><time>2026-04-04T15:56:55Z</time></trkpt><trkpt lat="43.35950440245977" lon="11.408151073216152"><ele>289.0</ele><time>2026-04-04T15:56:56Z</time></trkpt><trkpt lat="43.35947817778856" lon="11.408046270644654"><ele>289.0</ele><time>2026-04-04T15:56:57Z</time></trkpt><trkpt lat="43.35947257484131" lon="11.40792982292061"><ele>289.0</ele><time>2026-04-04T15:56:58Z</time></trkpt><trkpt lat="43.3594805903507" lon="11.407817322632166"><ele>290.0</ele><time>2026-04-04T15:56:59Z</time></trkpt><trkpt lat="43.359515780659315" lon="11.407718301168103"><ele>291.0</ele><time>2026-04-04T15:57:00Z</time></trkpt><trkpt lat="43.35956559309948" lon="11.407621566343316"><ele>292.0</ele><time>2026-04-04T15:57:01Z</time></trkpt><trkpt lat="43.359632013950495" lon="11.407534349978713"><ele>293.0</ele><time>2026-04-04T15:57:02Z</time></trkpt><trkpt lat="43.35970518003343" lon="11.407466120209886"><ele>294.0</ele><time>2026-04-04T15:57:03Z</time></trkpt><trkpt lat="43.35978423046115" lon="11.407421897028634"><ele>295.0</ele><time>2026-04-04T15:57:04Z</time></trkpt><trkpt lat="43.35986789143166" lon="11.407404125373171"><ele>295.0</ele><time>2026-04-04T15:57:05Z</time></trkpt><trkpt lat="43.359949674355" lon="11.407413034759614"><ele>295.0</ele><time>2026-04-04T15:57:06Z</time></trkpt><trkpt lat="43.36003480556612" lon="11.407432206470558"><ele>295.0</ele><time>2026-04-04T15:57:07Z</time></trkpt><trkpt lat="43.36013410100609" lon="11.40746184574623"><ele>295.0</ele><time>2026-04-04T15:57:08Z</time></trkpt><trkpt lat="43.36025340926457" lon="11.40749677356616"><ele>295.0</ele><time>2026-04-04T15:57:09Z</time></trkpt><trkpt lat="43.36038375635066" lon="11.40752605574732"><ele>295.0</ele><time>2026-04-04T15:57:10Z</time></trkpt><trkpt lat="43.36051882170865" lon="11.407554518187064"><ele>295.0</ele><time>2026-04-04T15:57:11Z</time></trkpt><trkpt lat="43.3606499050205" lon="11.407575649719437"><ele>295.0</ele><time>2026-04-04T15:57:12Z</time></trkpt><trkpt lat="43.36076946689801" lon="11.407584415183456"><ele>295.0</ele><time>2026-04-04T15:57:13Z</time></trkpt><trkpt lat="43.36089698662584" lon="11.40758345102158"><ele>295.75</ele><time>2026-04-04T15:57:14Z</time></trkpt><trkpt lat="43.36103318642571" lon="11.407573975547447"><ele>296.5</ele><time>2026-04-04T15:57:15Z</time></trkpt><trkpt lat="43.36117478018651" lon="11.407554048556957"><ele>297.25</ele><time>2026-04-04T15:57:16Z</time></trkpt><trkpt lat="43.36132325434997" lon="11.40752246520321"><ele>298.0</ele><time>2026-04-04T15:57:17Z</time></trkpt><trkpt lat="43.36148826425542" lon="11.407479062708513"><ele>300.66666666666663</ele><time>2026-04-04T15:57:18Z</time></trkpt><trkpt lat="43.36167686354234" lon="11.40743930461448"><ele>303.3333333333333</ele><time>2026-04-04T15:57:19Z</time></trkpt><trkpt lat="43.361856531244214" lon="11.407412864639724"><ele>306.0</ele><time>2026-04-04T15:57:20Z</time></trkpt><trkpt lat="43.36200385502159" lon="11.407358829266835"><ele>306.0</ele><time>2026-04-04T15:57:21Z</time></trkpt><trkpt lat="43.362145842225615" lon="11.407344145725508"><ele>306.0</ele><time>2026-04-04T15:57:22Z</time></trkpt><trkpt lat="43.36228915007423" lon="11.407289609122152"><ele>306.0</ele><time>2026-04-04T15:57:23Z</time></trkpt><trkpt lat="43.3624352146777" lon="11.407238713602345"><ele>306.0</ele><time>2026-04-04T15:57:24Z</time></trkpt><trkpt lat="43.362584498643" lon="11.407186569524919"><ele>307.6666666666667</ele><time>2026-04-04T15:57:25Z</time></trkpt><trkpt lat="43.36273870158187" lon="11.407120020019988"><ele>309.33333333333337</ele><time>2026-04-04T15:57:26Z</time></trkpt><trkpt lat="43.36289130183678" lon="11.407042755659578"><ele>311.0</ele><time>2026-04-04T15:57:27Z</time></trkpt><trkpt lat="43.36304176931761" lon="11.406953077538894"><ele>313.6666666666667</ele><time>2026-04-04T15:57:28Z</time></trkpt><trkpt lat="43.36318985299538" lon="11.406859109090519"><ele>316.3333333333333</ele><time>2026-04-04T15:57:29Z</time></trkpt><trkpt lat="43.36335569760768" lon="11.406773077016368"><ele>319.0</ele><time>2026-04-04T15:57:30Z</time></trkpt><trkpt lat="43.36350220777735" lon="11.40667324142192"><ele>319.0</ele><time>2026-04-04T15:57:31Z</time></trkpt><trkpt lat="43.36365379913693" lon="11.406575701908457"><ele>319.0</ele><time>2026-04-04T15:57:32Z</time></trkpt><trkpt lat="43.36379534001723" lon="11.406477286408691"><ele>319.0</ele><time>2026-04-04T15:57:33Z</time></trkpt><trkpt lat="43.36392966641036" lon="11.406381930248815"><ele>321.5</ele><time>2026-04-04T15:57:34Z</time></trkpt><trkpt lat="43.36405137931542" lon="11.406293192429166"><ele>324.0</ele><time>2026-04-04T15:57:35Z</time></trkpt><trkpt lat="43.364168447021164" lon="11.406203870340303"><ele>326.5</ele><time>2026-04-04T15:57:36Z</time></trkpt><trkpt lat="43.36428196414394" lon="11.406126399860906"><ele>329.0</ele><time>2026-04-04T15:57:37Z</time></trkpt><trkpt lat="43.364384761946475" lon="11.406062001034043"><ele>329.0</ele><time>2026-04-04T15:57:38Z</time></trkpt><trkpt lat="43.364477923110385" lon="11.406027570488972"><ele>329.0</ele><time>2026-04-04T15:57:39Z</time></trkpt><trkpt lat="43.36456349809103" lon="11.406017536487923"><ele>329.0</ele><time>2026-04-04T15:57:40Z</time></trkpt><trkpt lat="43.36463235812263" lon="11.406033789779253"><ele>329.0</ele><time>2026-04-04T15:57:41Z</time></trkpt><trkpt lat="43.364694211953044" lon="11.406082171392365"><ele>329.0</ele><time>2026-04-04T15:57:42Z</time></trkpt><trkpt lat="43.36473364028455" lon="11.406181609494856"><ele>329.0</ele><time>2026-04-04T15:57:43Z</time></trkpt><trkpt lat="43.364800538644836" lon="11.406271076321817"><ele>330.6666666666667</ele><time>2026-04-04T15:57:44Z</time></trkpt><trkpt lat="43.36488010041407" lon="11.406353642140738"><ele>332.33333333333337</ele><time>2026-04-04T15:57:45Z</time></trkpt><trkpt lat="43.36496007133437" lon="11.406432712681179"><ele>334.0</ele><time>2026-04-04T15:57:46Z</time></trkpt><trkpt lat="43.36501587071467" lon="11.406504041711301"><ele>335.6666666666667</ele><time>2026-04-04T15:57:47Z</time></trkpt><trkpt lat="43.36509168214966" lon="11.406509888822056"><ele>337.3333333333333</ele><time>2026-04-04T15:57:48Z</time></trkpt><trkpt lat="43.36516583421439" lon="11.406506943758512"><ele>339.0</ele><time>2026-04-04T15:57:49Z</time></trkpt><trkpt lat="43.365255571660185" lon="11.406476559533697"><ele>339.0</ele><time>2026-04-04T15:57:50Z</time></trkpt><trkpt lat="43.36536336374249" lon="11.406431699821537"><ele>339.0</ele><time>2026-04-04T15:57:51Z</time></trkpt><trkpt lat="43.36548770750202" lon="11.406373716570721"><ele>339.0</ele><time>2026-04-04T15:57:52Z</time></trkpt><trkpt lat="43.36562015371153" lon="11.406324386403126"><ele>339.0</ele><time>2026-04-04T15:57:53Z</time></trkpt><trkpt lat="43.3657390216964" lon="11.406279362761925"><ele>339.8333333333333</ele><time>2026-04-04T15:57:54Z</time></trkpt><trkpt lat="43.36583085822923" lon="11.406235855181386"><ele>340.6666666666667</ele><time>2026-04-04T15:57:55Z</time></trkpt><trkpt lat="43.36590167244135" lon="11.406190627242646"><ele>341.5</ele><time>2026-04-04T15:57:56Z</time></trkpt><trkpt lat="43.36595013304505" lon="11.406123734903089"><ele>342.33333333333337</ele><time>2026-04-04T15:57:57Z</time></trkpt><trkpt lat="43.36599668056496" lon="11.406032775147317"><ele>343.1666666666667</ele><time>2026-04-04T15:57:58Z</time></trkpt><trkpt lat="43.366033671980176" lon="11.40590332709258"><ele>344.0</ele><time>2026-04-04T15:57:59Z</time></trkpt><trkpt lat="43.36610323699811" lon="11.405766466913985"><ele>344.0</ele><time>2026-04-04T15:58:00Z</time></trkpt><trkpt lat="43.36617256575906" lon="11.405592485394568"><ele>344.0</ele><time>2026-04-04T15:58:01Z</time></trkpt><trkpt lat="43.36624260339766" lon="11.405416415946092"><ele>344.0</ele><time>2026-04-04T15:58:02Z</time></trkpt><trkpt lat="43.36631430985935" lon="11.405235352842208"><ele>344.0</ele><time>2026-04-04T15:58:03Z</time></trkpt><trkpt lat="43.36636682285901" lon="11.405059842889973"><ele>344.0</ele><time>2026-04-04T15:58:04Z</time></trkpt><trkpt lat="43.36643382574519" lon="11.404922454356885"><ele>344.0</ele><time>2026-04-04T15:58:05Z</time></trkpt><trkpt lat="43.36648684623721" lon="11.404801291136039"><ele>344.0</ele><time>2026-04-04T15:58:06Z</time></trkpt><trkpt lat="43.36655210341047" lon="11.404689999138471"><ele>344.0</ele><time>2026-04-04T15:58:07Z</time></trkpt><trkpt lat="43.366628111982" lon="11.40459150031016"><ele>344.0</ele><time>2026-04-04T15:58:08Z</time></trkpt><trkpt lat="43.36671726239462" lon="11.404493928583205"><ele>345.25</ele><time>2026-04-04T15:58:09Z</time></trkpt><trkpt lat="43.36681580918153" lon="11.40440051615879"><ele>346.5</ele><time>2026-04-04T15:58:10Z</time></trkpt><trkpt lat="43.36692254920437" lon="11.404360991375182"><ele>347.75</ele><time>2026-04-04T15:58:11Z</time></trkpt><trkpt lat="43.36702583788808" lon="11.404301190990095"><ele>349.0</ele><time>2026-04-04T15:58:12Z</time></trkpt><trkpt lat="43.36714544613749" lon="11.404273946796607"><ele>349.0</ele><time>2026-04-04T15:58:13Z</time></trkpt><trkpt lat="43.367279239011665" lon="11.404285200015465"><ele>349.0</ele><time>2026-04-04T15:58:14Z</time></trkpt><trkpt lat="43.36741904811576" lon="11.404300979637357"><ele>349.0</ele><time>2026-04-04T15:58:15Z</time></trkpt><trkpt lat="43.367567321268936" lon="11.404317760118042"><ele>349.0</ele><time>2026-04-04T15:58:16Z</time></trkpt><trkpt lat="43.367727130927676" lon="11.404339952982305"><ele>349.0</ele><time>2026-04-04T15:58:17Z</time></trkpt><trkpt lat="43.367893686226026" lon="11.404389151222185"><ele>349.0</ele><time>2026-04-04T15:58:18Z</time></trkpt><trkpt lat="43.36807790560255" lon="11.40442289589486"><ele>349.0</ele><time>2026-04-04T15:58:19Z</time></trkpt><trkpt lat="43.36827172419002" lon="11.404437931853398"><ele>350.0</ele><time>2026-04-04T15:58:20Z</time></trkpt><trkpt lat="43.36844912489908" lon="11.404472501581196"><ele>351.0</ele><time>2026-04-04T15:58:21Z</time></trkpt><trkpt lat="43.368619356040675" lon="11.404516425739269"><ele>352.0</ele><time>2026-04-04T15:58:22Z</time></trkpt><trkpt lat="43.36878994969593" lon="11.404527807117386"><ele>353.0</ele><time>2026-04-04T15:58:23Z</time></trkpt><trkpt lat="43.368954023359535" lon="11.4045192416516"><ele>354.0</ele><time>2026-04-04T15:58:24Z</time></trkpt><trkpt lat="43.36912035024219" lon="11.404492815930366"><ele>355.0</ele><time>2026-04-04T15:58:25Z</time></trkpt><trkpt lat="43.369278942921454" lon="11.404478392695763"><ele>355.0</ele><time>2026-04-04T15:58:26Z</time></trkpt><trkpt lat="43.36944245817159" lon="11.404471552290294"><ele>355.0</ele><time>2026-04-04T15:58:27Z</time></trkpt><trkpt lat="43.36960621766502" lon="11.404475258378502"><ele>355.0</ele><time>2026-04-04T15:58:28Z</time></trkpt><trkpt lat="43.36977572031022" lon="11.404478735787531"><ele>357.0</ele><time>2026-04-04T15:58:29Z</time></trkpt><trkpt lat="43.369944377714226" lon="11.404508105533637"><ele>359.0</ele><time>2026-04-04T15:58:30Z</time></trkpt><trkpt lat="43.37011013021449" lon="11.404517262836205"><ele>361.0</ele><time>2026-04-04T15:58:31Z</time></trkpt><trkpt lat="43.370273337624546" lon="11.404526279531858"><ele>361.0</ele><time>2026-04-04T15:58:32Z</time></trkpt><trkpt lat="43.37041560303673" lon="11.404509429433809"><ele>361.0</ele><time>2026-04-04T15:58:33Z</time></trkpt><trkpt lat="43.37053712466702" lon="11.404514581344705"><ele>361.0</ele><time>2026-04-04T15:58:34Z</time></trkpt><trkpt lat="43.37064496058018" lon="11.404495215660802"><ele>361.0</ele><time>2026-04-04T15:58:35Z</time></trkpt><trkpt lat="43.37074082473607" lon="11.404461702153512"><ele>362.0</ele><time>2026-04-04T15:58:36Z</time></trkpt><trkpt lat="43.37082395015371" lon="11.404411188942293"><ele>363.0</ele><time>2026-04-04T15:58:37Z</time></trkpt><trkpt lat="43.37089867976397" lon="11.404349686103755"><ele>364.0</ele><time>2026-04-04T15:58:38Z</time></trkpt><trkpt lat="43.370969795073826" lon="11.404268569649735"><ele>365.0</ele><time>2026-04-04T15:58:39Z</time></trkpt><trkpt lat="43.371031618426805" lon="11.404163535747362"><ele>366.0</ele><time>2026-04-04T15:58:40Z</time></trkpt><trkpt lat="43.371088758122724" lon="11.40403708104011"><ele>366.0</ele><time>2026-04-04T15:58:41Z</time></trkpt><trkpt lat="43.37114998829772" lon="11.403888525799156"><ele>366.0</ele><time>2026-04-04T15:58:42Z</time></trkpt><trkpt lat="43.37121171163921" lon="11.4037270681165"><ele>366.0</ele><time>2026-04-04T15:58:43Z</time></trkpt><trkpt lat="43.371288226701964" lon="11.403562951609478"><ele>366.0</ele><time>2026-04-04T15:58:44Z</time></trkpt><trkpt lat="43.37135854105819" lon="11.40338655048765"><ele>367.5</ele><time>2026-04-04T15:58:45Z</time></trkpt><trkpt lat="43.371437650878036" lon="11.40322452225947"><ele>369.0</ele><time>2026-04-04T15:58:46Z</time></trkpt><trkpt lat="43.371505113253306" lon="11.403074828688464"><ele>370.5</ele><time>2026-04-04T15:58:47Z</time></trkpt><trkpt lat="43.37155282335494" lon="11.402920116488456"><ele>372.0</ele><time>2026-04-04T15:58:48Z</time></trkpt><trkpt lat="43.371605360099615" lon="11.402781618648559"><ele>373.75</ele><time>2026-04-04T15:58:49Z</time></trkpt><trkpt lat="43.37166502508219" lon="11.402661985611072"><ele>375.5</ele><time>2026-04-04T15:58:50Z</time></trkpt><trkpt lat="43.37174174518827" lon="11.40254653899661"><ele>377.25</ele><time>2026-04-04T15:58:51Z</time></trkpt><trkpt lat="43.3717991129695" lon="11.402405769440403"><ele>379.0</ele><time>2026-04-04T15:58:52Z</time></trkpt><trkpt lat="43.371851032623596" lon="11.40225890502027"><ele>379.4</ele><time>2026-04-04T15:58:53Z</time></trkpt><trkpt lat="43.37188260785252" lon="11.402100567215824"><ele>379.79999999999995</ele><time>2026-04-04T15:58:54Z</time></trkpt><trkpt lat="43.37188599789906" lon="11.40193341858273"><ele>380.20000000000005</ele><time>2026-04-04T15:58:55Z</time></trkpt><trkpt lat="43.37188252010903" lon="11.401785163555488"><ele>380.6</ele><time>2026-04-04T15:58:56Z</time></trkpt><trkpt lat="43.37194146904495" lon="11.401672856999834"><ele>381.0</ele><time>2026-04-04T15:58:57Z</time></trkpt><trkpt lat="43.37199262205138" lon="11.401550584422958"><ele>381.0</ele><time>2026-04-04T15:58:58Z</time></trkpt><trkpt lat="43.372094690671126" lon="11.401473922253086"><ele>381.0</ele><time>2026-04-04T15:58:59Z</time></trkpt><trkpt lat="43.37219407887244" lon="11.401373052384008"><ele>381.0</ele><time>2026-04-04T15:59:00Z</time></trkpt><trkpt lat="43.37229995394516" lon="11.401257157695317"><ele>381.0</ele><time>2026-04-04T15:59:01Z</time></trkpt><trkpt lat="43.372411790347606" lon="11.401147184785348"><ele>382.25</ele><time>2026-04-04T15:59:02Z</time></trkpt><trkpt lat="43.37252192479811" lon="11.40101698306524"><ele>383.5</ele><time>2026-04-04T15:59:03Z</time></trkpt><trkpt lat="43.37262446555211" lon="11.40090132943151"><ele>384.75</ele><time>2026-04-04T15:59:04Z</time></trkpt><trkpt lat="43.372735814448845" lon="11.40078613336249"><ele>386.0</ele><time>2026-04-04T15:59:05Z</time></trkpt><trkpt lat="43.37283958749849" lon="11.400656761193863"><ele>386.0</ele><time>2026-04-04T15:59:06Z</time></trkpt><trkpt lat="43.3729471602653" lon="11.40053699128659"><ele>386.0</ele><time>2026-04-04T15:59:07Z</time></trkpt><trkpt lat="43.37305719059636" lon="11.40042246593321"><ele>386.0</ele><time>2026-04-04T15:59:08Z</time></trkpt><trkpt lat="43.37316508097359" lon="11.400321184559015"><ele>386.0</ele><time>2026-04-04T15:59:09Z</time></trkpt><trkpt lat="43.373281046159974" lon="11.40023461176338"><ele>385.0</ele><time>2026-04-04T15:59:10Z</time></trkpt><trkpt lat="43.37341077713325" lon="11.400167199058767"><ele>384.0</ele><time>2026-04-04T15:59:11Z</time></trkpt><trkpt lat="43.37355785748591" lon="11.400107608241807"><ele>383.0</ele><time>2026-04-04T15:59:12Z</time></trkpt><trkpt lat="43.37370986396127" lon="11.40004696353331"><ele>383.0</ele><time>2026-04-04T15:59:13Z</time></trkpt><trkpt lat="43.373856556619366" lon="11.399984913938404"><ele>383.0</ele><time>2026-04-04T15:59:14Z</time></trkpt><trkpt lat="43.37398627428994" lon="11.3999176604426"><ele>383.0</ele><time>2026-04-04T15:59:15Z</time></trkpt><trkpt lat="43.3741008667611" lon="11.399842764691343"><ele>383.0</ele><time>2026-04-04T15:59:16Z</time></trkpt><trkpt lat="43.374207731057076" lon="11.39975870343318"><ele>383.0</ele><time>2026-04-04T15:59:17Z</time></trkpt><trkpt lat="43.37433491432824" lon="11.399674228338872"><ele>383.0</ele><time>2026-04-04T15:59:18Z</time></trkpt><trkpt lat="43.374459383150366" lon="11.399548975410788"><ele>383.0</ele><time>2026-04-04T15:59:19Z</time></trkpt><trkpt lat="43.37458791226995" lon="11.399412131847148"><ele>382.6666666666667</ele><time>2026-04-04T15:59:20Z</time></trkpt><trkpt lat="43.37471796329015" lon="11.39926827370034"><ele>382.3333333333333</ele><time>2026-04-04T15:59:21Z</time></trkpt><trkpt lat="43.374845108465266" lon="11.39912574175973"><ele>382.0</ele><time>2026-04-04T15:59:22Z</time></trkpt><trkpt lat="43.374971785326366" lon="11.398983734816982"><ele>382.0</ele><time>2026-04-04T15:59:23Z</time></trkpt><trkpt lat="43.37509091123881" lon="11.398849258543109"><ele>382.0</ele><time>2026-04-04T15:59:24Z</time></trkpt><trkpt lat="43.37521070677138" lon="11.398723042108248"><ele>382.0</ele><time>2026-04-04T15:59:25Z</time></trkpt><trkpt lat="43.37532744878659" lon="11.39859938386908"><ele>382.25</ele><time>2026-04-04T15:59:26Z</time></trkpt><trkpt lat="43.37545793561205" lon="11.398511615776908"><ele>382.5</ele><time>2026-04-04T15:59:27Z</time></trkpt><trkpt lat="43.37559492303964" lon="11.398440628874345"><ele>382.75</ele><time>2026-04-04T15:59:28Z</time></trkpt><trkpt lat="43.3757413869951" lon="11.398375336556533"><ele>383.0</ele><time>2026-04-04T15:59:29Z</time></trkpt><trkpt lat="43.375899675284494" lon="11.398315734098867"><ele>383.0</ele><time>2026-04-04T15:59:30Z</time></trkpt><trkpt lat="43.37606135129347" lon="11.398257881595034"><ele>383.0</ele><time>2026-04-04T15:59:31Z</time></trkpt><trkpt lat="43.37622005338731" lon="11.39820161176976"><ele>383.0</ele><time>2026-04-04T15:59:32Z</time></trkpt><trkpt lat="43.37637063924647" lon="11.3981450068064"><ele>382.5</ele><time>2026-04-04T15:59:33Z</time></trkpt><trkpt lat="43.37652359903047" lon="11.39809927431358"><ele>382.0</ele><time>2026-04-04T15:59:34Z</time></trkpt><trkpt lat="43.376659876532386" lon="11.398013379194367"><ele>381.5</ele><time>2026-04-04T15:59:35Z</time></trkpt><trkpt lat="43.37677009058661" lon="11.397905269335816"><ele>381.0</ele><time>2026-04-04T15:59:36Z</time></trkpt><trkpt lat="43.37686758405462" lon="11.397784205830403"><ele>382.25</ele><time>2026-04-04T15:59:37Z</time></trkpt><trkpt lat="43.376961993286805" lon="11.397666242828945"><ele>383.5</ele><time>2026-04-04T15:59:38Z</time></trkpt><trkpt lat="43.377069634832566" lon="11.397555481996058"><ele>384.75</ele><time>2026-04-04T15:59:39Z</time></trkpt><trkpt lat="43.37718355509297" lon="11.39746224723976"><ele>386.0</ele><time>2026-04-04T15:59:40Z</time></trkpt><trkpt lat="43.377303463920676" lon="11.397368882978855"><ele>386.0</ele><time>2026-04-04T15:59:41Z</time></trkpt><trkpt lat="43.3774259843059" lon="11.397275003678335"><ele>386.0</ele><time>2026-04-04T15:59:42Z</time></trkpt><trkpt lat="43.37755663228605" lon="11.397193784794823"><ele>386.0</ele><time>2026-04-04T15:59:43Z</time></trkpt><trkpt lat="43.37769211528603" lon="11.397146288608784"><ele>386.0</ele><time>2026-04-04T15:59:44Z</time></trkpt><trkpt lat="43.37783746021336" lon="11.397127365877662"><ele>387.0</ele><time>2026-04-04T15:59:45Z</time></trkpt><trkpt lat="43.378006534744095" lon="11.39711334557526"><ele>388.0</ele><time>2026-04-04T15:59:46Z</time></trkpt><trkpt lat="43.37819827476558" lon="11.397057206637394"><ele>389.0</ele><time>2026-04-04T15:59:47Z</time></trkpt><trkpt lat="43.378396592024735" lon="11.396976260809287"><ele>390.66666666666663</ele><time>2026-04-04T15:59:48Z</time></trkpt><trkpt lat="43.37860408051469" lon="11.396899147935128"><ele>392.33333333333337</ele><time>2026-04-04T15:59:49Z</time></trkpt><trkpt lat="43.37880122634289" lon="11.396835439243535"><ele>394.0</ele><time>2026-04-04T15:59:50Z</time></trkpt><trkpt lat="43.378991190016954" lon="11.396773406587322"><ele>396.0</ele><time>2026-04-04T15:59:51Z</time></trkpt><trkpt lat="43.37918529489363" lon="11.396713886094574"><ele>398.0</ele><time>2026-04-04T15:59:52Z</time></trkpt><trkpt lat="43.37937584845253" lon="11.396652693195087"><ele>400.0</ele><time>2026-04-04T15:59:53Z</time></trkpt><trkpt lat="43.379556246058755" lon="11.39659905175898"><ele>401.33333333333337</ele><time>2026-04-04T15:59:54Z</time></trkpt><trkpt lat="43.37973574385275" lon="11.396546580645278"><ele>402.66666666666663</ele><time>2026-04-04T15:59:55Z</time></trkpt><trkpt lat="43.37992183080792" lon="11.396505283465064"><ele>404.0</ele><time>2026-04-04T15:59:56Z</time></trkpt><trkpt lat="43.3801091133438" lon="11.396453741085285"><ele>404.0</ele><time>2026-04-04T15:59:57Z</time></trkpt><trkpt lat="43.38030098083948" lon="11.39642086224614"><ele>404.0</ele><time>2026-04-04T15:59:58Z</time></trkpt><trkpt lat="43.380488969065084" lon="11.396350562101892"><ele>404.0</ele><time>2026-04-04T15:59:59Z</time></trkpt><trkpt lat="43.38067298135176" lon="11.39633001336364"><ele>405.3333333333333</ele><time>2026-04-04T16:00:00Z</time></trkpt><trkpt lat="43.38084630809542" lon="11.396303519557662"><ele>406.66666666666663</ele><time>2026-04-04T16:00:01Z</time></trkpt><trkpt lat="43.381012316597264" lon="11.396291178922874"><ele>408.0</ele><time>2026-04-04T16:00:02Z</time></trkpt><trkpt lat="43.38117956713098" lon="11.396293527362282"><ele>408.0</ele><time>2026-04-04T16:00:03Z</time></trkpt><trkpt lat="43.38134809433747" lon="11.39629276620776"><ele>408.0</ele><time>2026-04-04T16:00:04Z</time></trkpt><trkpt lat="43.38151369678962" lon="11.396264912233423"><ele>408.0</ele><time>2026-04-04T16:00:05Z</time></trkpt><trkpt lat="43.38167320112531" lon="11.396252353217124"><ele>408.5</ele><time>2026-04-04T16:00:06Z</time></trkpt><trkpt lat="43.381821410800654" lon="11.396231725594403"><ele>409.0</ele><time>2026-04-04T16:00:07Z</time></trkpt><trkpt lat="43.3819659072686" lon="11.396204853062317"><ele>409.5</ele><time>2026-04-04T16:00:08Z</time></trkpt><trkpt lat="43.382114206774865" lon="11.396176886053395"><ele>410.0</ele><time>2026-04-04T16:00:09Z</time></trkpt><trkpt lat="43.38227396040979" lon="11.396139433701201"><ele>411.3333333333333</ele><time>2026-04-04T16:00:10Z</time></trkpt><trkpt lat="43.382442844645745" lon="11.396096595808997"><ele>412.66666666666663</ele><time>2026-04-04T16:00:11Z</time></trkpt><trkpt lat="43.38260914878998" lon="11.396057286298056"><ele>414.0</ele><time>2026-04-04T16:00:12Z</time></trkpt><trkpt lat="43.382783035187806" lon="11.39600195477668"><ele>414.0</ele><time>2026-04-04T16:00:13Z</time></trkpt><trkpt lat="43.38295032040532" lon="11.395938486546902"><ele>414.0</ele><time>2026-04-04T16:00:14Z</time></trkpt><trkpt lat="43.383125926756236" lon="11.395893272014675"><ele>414.0</ele><time>2026-04-04T16:00:15Z</time></trkpt><trkpt lat="43.38330126413862" lon="11.39582424239973"><ele>415.33333333333337</ele><time>2026-04-04T16:00:16Z</time></trkpt><trkpt lat="43.38347508745192" lon="11.395754288861793"><ele>416.6666666666667</ele><time>2026-04-04T16:00:17Z</time></trkpt><trkpt lat="43.38364397634059" lon="11.395665883169805"><ele>418.0</ele><time>2026-04-04T16:00:18Z</time></trkpt><trkpt lat="43.38381230589733" lon="11.395605706194956"><ele>417.33333333333337</ele><time>2026-04-04T16:00:19Z</time></trkpt><trkpt lat="43.38397694726697" lon="11.395545046948886"><ele>416.66666666666663</ele><time>2026-04-04T16:00:20Z</time></trkpt><trkpt lat="43.38413346732393" lon="11.395482201668557"><ele>416.0</ele><time>2026-04-04T16:00:21Z</time></trkpt><trkpt lat="43.38427003094984" lon="11.395422264278332"><ele>416.0</ele><time>2026-04-04T16:00:22Z</time></trkpt><trkpt lat="43.38439916161281" lon="11.39537215472294"><ele>416.0</ele><time>2026-04-04T16:00:23Z</time></trkpt><trkpt lat="43.38451448529218" lon="11.39530992221734"><ele>416.0</ele><time>2026-04-04T16:00:24Z</time></trkpt><trkpt lat="43.38462419508453" lon="11.395242297127893"><ele>416.0</ele><time>2026-04-04T16:00:25Z</time></trkpt><trkpt lat="43.38472258674006" lon="11.39513479062264"><ele>417.75</ele><time>2026-04-04T16:00:26Z</time></trkpt><trkpt lat="43.38480924584367" lon="11.39501246323361"><ele>419.5</ele><time>2026-04-04T16:00:27Z</time></trkpt><trkpt lat="43.38489628865087" lon="11.39487724209143"><ele>421.25</ele><time>2026-04-04T16:00:28Z</time></trkpt><trkpt lat="43.38499312714903" lon="11.394723166323077"><ele>423.0</ele><time>2026-04-04T16:00:29Z</time></trkpt><trkpt lat="43.38510164060802" lon="11.394566124208358"><ele>423.66666666666663</ele><time>2026-04-04T16:00:30Z</time></trkpt><trkpt lat="43.385216967967686" lon="11.394401200729362"><ele>424.3333333333333</ele><time>2026-04-04T16:00:31Z</time></trkpt><trkpt lat="43.38533969862433" lon="11.394221963223668"><ele>425.0</ele><time>2026-04-04T16:00:32Z</time></trkpt><trkpt lat="43.38546892276248" lon="11.394026881389586"><ele>426.0</ele><time>2026-04-04T16:00:33Z</time></trkpt><trkpt lat="43.38560483753636" lon="11.393821699077318"><ele>427.0</ele><time>2026-04-04T16:00:34Z</time></trkpt><trkpt lat="43.38574007019548" lon="11.393620420315404"><ele>428.0</ele><time>2026-04-04T16:00:35Z</time></trkpt><trkpt lat="43.38587747447432" lon="11.393422817470531"><ele>428.0</ele><time>2026-04-04T16:00:36Z</time></trkpt><trkpt lat="43.386005571439235" lon="11.393237512569526"><ele>428.0</ele><time>2026-04-04T16:00:37Z</time></trkpt><trkpt lat="43.38611980277024" lon="11.393066789515872"><ele>428.0</ele><time>2026-04-04T16:00:38Z</time></trkpt><trkpt lat="43.386221479746794" lon="11.392913852719216"><ele>428.0</ele><time>2026-04-04T16:00:39Z</time></trkpt><trkpt lat="43.3863193038909" lon="11.392779539423344"><ele>428.0</ele><time>2026-04-04T16:00:40Z</time></trkpt><trkpt lat="43.386435178561314" lon="11.3926603691406"><ele>428.0</ele><time>2026-04-04T16:00:41Z</time></trkpt><trkpt lat="43.38655899380181" lon="11.392548868049351"><ele>428.0</ele><time>2026-04-04T16:00:42Z</time></trkpt><trkpt lat="43.3866879487098" lon="11.392435428419368"><ele>428.66666666666663</ele><time>2026-04-04T16:00:43Z</time></trkpt><trkpt lat="43.386817160055294" lon="11.39230848499975"><ele>429.33333333333337</ele><time>2026-04-04T16:00:44Z</time></trkpt><trkpt lat="43.38693479069219" lon="11.392175002792078"><ele>430.0</ele><time>2026-04-04T16:00:45Z</time></trkpt><trkpt lat="43.38704687232931" lon="11.392027208757774"><ele>430.0</ele><time>2026-04-04T16:00:46Z</time></trkpt><trkpt lat="43.387155759819294" lon="11.39185478534469"><ele>430.0</ele><time>2026-04-04T16:00:47Z</time></trkpt><trkpt lat="43.38727620276946" lon="11.391667606729271"><ele>430.0</ele><time>2026-04-04T16:00:48Z</time></trkpt><trkpt lat="43.387399715908565" lon="11.39147951598526"><ele>432.0</ele><time>2026-04-04T16:00:49Z</time></trkpt><trkpt lat="43.38752026770915" lon="11.391295934876121"><ele>434.0</ele><time>2026-04-04T16:00:50Z</time></trkpt><trkpt lat="43.387630945586665" lon="11.391127804765256"><ele>436.0</ele><time>2026-04-04T16:00:51Z</time></trkpt><trkpt lat="43.387732317247135" lon="11.390974282839203"><ele>436.0</ele><time>2026-04-04T16:00:52Z</time></trkpt><trkpt lat="43.38782394626422" lon="11.39083551572334"><ele>436.0</ele><time>2026-04-04T16:00:53Z</time></trkpt><trkpt lat="43.38791161674547" lon="11.390702743515401"><ele>436.0</ele><time>2026-04-04T16:00:54Z</time></trkpt><trkpt lat="43.38797756894076" lon="11.390564309236455"><ele>436.0</ele><time>2026-04-04T16:00:55Z</time></trkpt><trkpt lat="43.38804349435857" lon="11.390447430679709"><ele>434.4</ele><time>2026-04-04T16:00:56Z</time></trkpt><trkpt lat="43.38808536989818" lon="11.3903272913064"><ele>432.8</ele><time>2026-04-04T16:00:57Z</time></trkpt><trkpt lat="43.3881099875814" lon="11.390202395862353"><ele>431.19999999999993</ele><time>2026-04-04T16:00:58Z</time></trkpt><trkpt lat="43.38812238612456" lon="11.39006826826384"><ele>429.59999999999997</ele><time>2026-04-04T16:00:59Z</time></trkpt><trkpt lat="43.388149086109955" lon="11.389935175273532"><ele>428.0</ele><time>2026-04-04T16:01:00Z</time></trkpt><trkpt lat="43.38820749016798" lon="11.389627314552332"><ele>427.75</ele><time>2026-04-04T16:01:02Z</time></trkpt><trkpt lat="43.38826681569694" lon="11.389468646665224"><ele>427.5</ele><time>2026-04-04T16:01:03Z</time></trkpt><trkpt lat="43.38832897934862" lon="11.3893111566653"><ele>427.25</ele><time>2026-04-04T16:01:04Z</time></trkpt><trkpt lat="43.38840542245125" lon="11.389139106763773"><ele>427.0</ele><time>2026-04-04T16:01:05Z</time></trkpt><trkpt lat="43.38848791884463" lon="11.388949320370982"><ele>427.6666666666667</ele><time>2026-04-04T16:01:06Z</time></trkpt><trkpt lat="43.388578036254884" lon="11.388749187858934"><ele>428.33333333333337</ele><time>2026-04-04T16:01:07Z</time></trkpt><trkpt lat="43.38866952537347" lon="11.388540763908745"><ele>429.0</ele><time>2026-04-04T16:01:08Z</time></trkpt><trkpt lat="43.388758527842576" lon="11.388341558147813"><ele>426.66666666666663</ele><time>2026-04-04T16:01:09Z</time></trkpt><trkpt lat="43.38884984962149" lon="11.388136099735704"><ele>424.3333333333333</ele><time>2026-04-04T16:01:10Z</time></trkpt><trkpt lat="43.388948541449295" lon="11.38794736523238"><ele>422.0</ele><time>2026-04-04T16:01:11Z</time></trkpt><trkpt lat="43.38902936368673" lon="11.387749574116432"><ele>422.0</ele><time>2026-04-04T16:01:12Z</time></trkpt><trkpt lat="43.389085985302756" lon="11.387545010009042"><ele>422.0</ele><time>2026-04-04T16:01:13Z</time></trkpt><trkpt lat="43.38915377235315" lon="11.38736272867223"><ele>422.0</ele><time>2026-04-04T16:01:14Z</time></trkpt><trkpt lat="43.38924588692629" lon="11.387217167918845"><ele>422.0</ele><time>2026-04-04T16:01:15Z</time></trkpt><trkpt lat="43.38932913178416" lon="11.387063570827985"><ele>422.75</ele><time>2026-04-04T16:01:16Z</time></trkpt><trkpt lat="43.389398586515576" lon="11.386897255679848"><ele>423.5</ele><time>2026-04-04T16:01:17Z</time></trkpt><trkpt lat="43.38948860446169" lon="11.386751442861957"><ele>424.25</ele><time>2026-04-04T16:01:18Z</time></trkpt><trkpt lat="43.389565652416955" lon="11.38659018837261"><ele>425.0</ele><time>2026-04-04T16:01:19Z</time></trkpt><trkpt lat="43.389636515745764" lon="11.386435348010192"><ele>424.25</ele><time>2026-04-04T16:01:20Z</time></trkpt><trkpt lat="43.38970363593633" lon="11.3862763937295"><ele>423.5</ele><time>2026-04-04T16:01:21Z</time></trkpt><trkpt lat="43.389748434636424" lon="11.386101769928363"><ele>422.75</ele><time>2026-04-04T16:01:22Z</time></trkpt><trkpt lat="43.38979136904793" lon="11.385941629192482"><ele>422.0</ele><time>2026-04-04T16:01:23Z</time></trkpt><trkpt lat="43.38983885412035" lon="11.385812915638239"><ele>421.99999999999994</ele><time>2026-04-04T16:01:24Z</time></trkpt><trkpt lat="43.3898955276003" lon="11.38570790329151"><ele>422.0</ele><time>2026-04-04T16:01:25Z</time></trkpt><trkpt lat="43.38992632612348" lon="11.38560849092086"><ele>422.0</ele><time>2026-04-04T16:01:26Z</time></trkpt><trkpt lat="43.38999896548213" lon="11.38563893370508"><ele>422.0</ele><time>2026-04-04T16:01:27Z</time></trkpt><trkpt lat="43.390053181200514" lon="11.385586711468953"><ele>421.99999999999994</ele><time>2026-04-04T16:01:28Z</time></trkpt><trkpt lat="43.39016541449617" lon="11.385530017308614"><ele>422.0</ele><time>2026-04-04T16:01:30Z</time></trkpt><trkpt lat="43.39027548921021" lon="11.385460285380974"><ele>422.16666666666663</ele><time>2026-04-04T16:01:32Z</time></trkpt><trkpt lat="43.39033860640584" lon="11.38541961496668"><ele>422.3333333333333</ele><time>2026-04-04T16:01:33Z</time></trkpt><trkpt lat="43.390398470377235" lon="11.385371655078277"><ele>422.5</ele><time>2026-04-04T16:01:34Z</time></trkpt><trkpt lat="43.39045997374862" lon="11.385322965257322"><ele>422.66666666666663</ele><time>2026-04-04T16:01:35Z</time></trkpt><trkpt lat="43.390517179563034" lon="11.385278838862652"><ele>422.8333333333333</ele><time>2026-04-04T16:01:36Z</time></trkpt><trkpt lat="43.39058250069715" lon="11.385244873169283"><ele>423.0</ele><time>2026-04-04T16:01:37Z</time></trkpt><trkpt lat="43.39067893986754" lon="11.38517659346206"><ele>423.1666666666667</ele><time>2026-04-04T16:01:39Z</time></trkpt><trkpt lat="43.390755835827306" lon="11.38512446993641"><ele>423.33333333333337</ele><time>2026-04-04T16:01:41Z</time></trkpt><trkpt lat="43.390820045379094" lon="11.385082125358267"><ele>423.5</ele><time>2026-04-04T16:01:44Z</time></trkpt><trkpt lat="43.39087325857874" lon="11.38498205208805"><ele>423.6666666666667</ele><time>2026-04-04T16:05:39Z</time></trkpt><trkpt lat="43.3909755370974" lon="11.384879674608477"><ele>423.83333333333337</ele><time>2026-04-04T16:05:41Z</time></trkpt><trkpt lat="43.391037050830974" lon="11.384841175583514"><ele>424.0</ele><time>2026-04-04T16:05:42Z</time></trkpt><trkpt lat="43.39108730426741" lon="11.384782144539978"><ele>424.0</ele><time>2026-04-04T16:05:43Z</time></trkpt><trkpt lat="43.3911531214517" lon="11.384722743152437"><ele>424.0</ele><time>2026-04-04T16:05:44Z</time></trkpt><trkpt lat="43.39122570849374" lon="11.384657876328243"><ele>424.0</ele><time>2026-04-04T16:05:45Z</time></trkpt><trkpt lat="43.391309566437165" lon="11.384586569263712"><ele>424.0</ele><time>2026-04-04T16:05:46Z</time></trkpt><trkpt lat="43.391403875509326" lon="11.384531950247526"><ele>424.0</ele><time>2026-04-04T16:05:47Z</time></trkpt><trkpt lat="43.3914945775382" lon="11.384456953004454"><ele>424.25</ele><time>2026-04-04T16:05:48Z</time></trkpt><trkpt lat="43.3915877050608" lon="11.384373410907196"><ele>424.5</ele><time>2026-04-04T16:05:49Z</time></trkpt><trkpt lat="43.39168526395229" lon="11.384278567137308"><ele>424.75</ele><time>2026-04-04T16:05:50Z</time></trkpt><trkpt lat="43.39177369218222" lon="11.384169037851493"><ele>425.0</ele><time>2026-04-04T16:05:51Z</time></trkpt><trkpt lat="43.39184962428779" lon="11.384038775099473"><ele>425.0</ele><time>2026-04-04T16:05:52Z</time></trkpt><trkpt lat="43.3919111745734" lon="11.383890415251724"><ele>425.0</ele><time>2026-04-04T16:05:53Z</time></trkpt><trkpt lat="43.39195723762331" lon="11.383737016519907"><ele>425.0</ele><time>2026-04-04T16:05:54Z</time></trkpt><trkpt lat="43.391974197406476" lon="11.383520145420576"><ele>425.0</ele><time>2026-04-04T16:05:55Z</time></trkpt><trkpt lat="43.39199239074535" lon="11.38326535157087"><ele>425.0</ele><time>2026-04-04T16:05:56Z</time></trkpt><trkpt lat="43.392037631966765" lon="11.383042130187379"><ele>425.0</ele><time>2026-04-04T16:05:57Z</time></trkpt><trkpt lat="43.392106039678445" lon="11.382866581729841"><ele>425.0</ele><time>2026-04-04T16:05:58Z</time></trkpt><trkpt lat="43.39219252792247" lon="11.382721659304362"><ele>425.0</ele><time>2026-04-04T16:05:59Z</time></trkpt><trkpt lat="43.39229727604583" lon="11.382596403956198"><ele>425.0</ele><time>2026-04-04T16:06:00Z</time></trkpt><trkpt lat="43.392404702352906" lon="11.382484991545445"><ele>425.0</ele><time>2026-04-04T16:06:01Z</time></trkpt><trkpt lat="43.39251517819842" lon="11.382382838621144"><ele>425.0</ele><time>2026-04-04T16:06:02Z</time></trkpt><trkpt lat="43.39262239901909" lon="11.382289003468614"><ele>425.0</ele><time>2026-04-04T16:06:03Z</time></trkpt><trkpt lat="43.39272645348653" lon="11.382191195508788"><ele>425.25</ele><time>2026-04-04T16:06:04Z</time></trkpt><trkpt lat="43.39283043015559" lon="11.382100422129499"><ele>425.5</ele><time>2026-04-04T16:06:05Z</time></trkpt><trkpt lat="43.392930831749325" lon="11.382008044956894"><ele>425.75</ele><time>2026-04-04T16:06:06Z</time></trkpt><trkpt lat="43.39302997063215" lon="11.381924938813585"><ele>426.0</ele><time>2026-04-04T16:06:07Z</time></trkpt><trkpt lat="43.393133688003246" lon="11.381843840535813"><ele>424.75</ele><time>2026-04-04T16:06:08Z</time></trkpt><trkpt lat="43.393236484063635" lon="11.381754068185584"><ele>423.5</ele><time>2026-04-04T16:06:09Z</time></trkpt><trkpt lat="43.39333940238034" lon="11.381671793085333"><ele>422.25</ele><time>2026-04-04T16:06:10Z</time></trkpt><trkpt lat="43.39343701645766" lon="11.381594571000349"><ele>421.0</ele><time>2026-04-04T16:06:11Z</time></trkpt><trkpt lat="43.39352691362178" lon="11.381535305417918"><ele>421.0</ele><time>2026-04-04T16:06:12Z</time></trkpt><trkpt lat="43.39360732267302" lon="11.38147478232619"><ele>421.0</ele><time>2026-04-04T16:06:13Z</time></trkpt><trkpt lat="43.39367463449218" lon="11.381426175950478"><ele>421.0</ele><time>2026-04-04T16:06:14Z</time></trkpt><trkpt lat="43.393778824834534" lon="11.381353472057233"><ele>421.0</ele><time>2026-04-04T16:06:16Z</time></trkpt><trkpt lat="43.393895714492054" lon="11.381285178285815"><ele>421.0</ele><time>2026-04-04T16:06:18Z</time></trkpt><trkpt lat="43.393973844003064" lon="11.381250973800556"><ele>419.8</ele><time>2026-04-04T16:06:19Z</time></trkpt><trkpt lat="43.39406078181531" lon="11.381215708798408"><ele>418.6</ele><time>2026-04-04T16:06:20Z</time></trkpt><trkpt lat="43.39415645038644" lon="11.381176718734977"><ele>417.4</ele><time>2026-04-04T16:06:21Z</time></trkpt><trkpt lat="43.394269073952806" lon="11.381128133408787"><ele>416.2</ele><time>2026-04-04T16:06:22Z</time></trkpt><trkpt lat="43.39439875105077" lon="11.381083221575938"><ele>415.0</ele><time>2026-04-04T16:06:23Z</time></trkpt><trkpt lat="43.39454231447632" lon="11.381041021128794"><ele>415.33333333333337</ele><time>2026-04-04T16:06:24Z</time></trkpt><trkpt lat="43.39469436907678" lon="11.381005560576753"><ele>415.66666666666663</ele><time>2026-04-04T16:06:25Z</time></trkpt><trkpt lat="43.39484983148461" lon="11.380990681323167"><ele>416.0</ele><time>2026-04-04T16:06:26Z</time></trkpt><trkpt lat="43.39500042340614" lon="11.380986314844684"><ele>416.0</ele><time>2026-04-04T16:06:27Z</time></trkpt><trkpt lat="43.395138687633334" lon="11.380983772117641"><ele>416.0</ele><time>2026-04-04T16:06:28Z</time></trkpt><trkpt lat="43.39526127245907" lon="11.380991240709509"><ele>416.0</ele><time>2026-04-04T16:06:29Z</time></trkpt><trkpt lat="43.395336556687916" lon="11.381018851836272"><ele>416.0</ele><time>2026-04-04T16:06:30Z</time></trkpt><trkpt lat="43.39540598443287" lon="11.381035980976712"><ele>416.0</ele><time>2026-04-04T16:06:31Z</time></trkpt><trkpt lat="43.395466337760816" lon="11.381061818152824"><ele>416.0</ele><time>2026-04-04T16:06:33Z</time></trkpt><trkpt lat="43.39548752370102" lon="11.38123681318889"><ele>416.0</ele><time>2026-04-04T16:06:34Z</time></trkpt><trkpt lat="43.395523861137356" lon="11.381307645473765"><ele>416.0</ele><time>2026-04-04T16:06:38Z</time></trkpt><trkpt lat="43.395581376082035" lon="11.38121267183836"><ele>416.0</ele><time>2026-04-04T16:06:39Z</time></trkpt><trkpt lat="43.395583642622135" lon="11.381093018422993"><ele>416.0</ele><time>2026-04-04T16:06:41Z</time></trkpt><trkpt lat="43.39553387968313" lon="11.38100497159376"><ele>416.0</ele><time>2026-04-04T16:06:43Z</time></trkpt><trkpt lat="43.3954391253508" lon="11.380993175822573"><ele>416.0</ele><time>2026-04-04T16:06:44Z</time></trkpt><trkpt lat="43.395357156011876" lon="11.380999765661917"><ele>416.0</ele><time>2026-04-04T16:06:45Z</time></trkpt><trkpt lat="43.395266579048496" lon="11.380980865897369"><ele>416.0</ele><time>2026-04-04T16:06:46Z</time></trkpt><trkpt lat="43.39515306912135" lon="11.380972512975884"><ele>416.0</ele><time>2026-04-04T16:06:47Z</time></trkpt><trkpt lat="43.39502545900566" lon="11.380970120056997"><ele>416.0</ele><time>2026-04-04T16:06:48Z</time></trkpt><trkpt lat="43.39489615784407" lon="11.380979812877488"><ele>416.0</ele><time>2026-04-04T16:06:49Z</time></trkpt><trkpt lat="43.394777434275824" lon="11.380994639614661"><ele>416.0</ele><time>2026-04-04T16:06:50Z</time></trkpt><trkpt lat="43.39465351692866" lon="11.381012092955151"><ele>416.0</ele><time>2026-04-04T16:06:51Z</time></trkpt><trkpt lat="43.39452881376204" lon="11.381035249456167"><ele>415.75</ele><time>2026-04-04T16:06:52Z</time></trkpt><trkpt lat="43.394420838919366" lon="11.381066943868685"><ele>415.5</ele><time>2026-04-04T16:06:53Z</time></trkpt><trkpt lat="43.39430287343356" lon="11.381117378522463"><ele>415.25</ele><time>2026-04-04T16:06:54Z</time></trkpt><trkpt lat="43.39419137392651" lon="11.381162812435823"><ele>415.0</ele><time>2026-04-04T16:06:55Z</time></trkpt><trkpt lat="43.39408628522497" lon="11.381215619755382"><ele>415.0</ele><time>2026-04-04T16:06:56Z</time></trkpt><trkpt lat="43.39399340061763" lon="11.381259852824076"><ele>415.0</ele><time>2026-04-04T16:06:57Z</time></trkpt><trkpt lat="43.39391278498958" lon="11.381280411118617"><ele>415.0</ele><time>2026-04-04T16:06:58Z</time></trkpt><trkpt lat="43.393848363111296" lon="11.381279247927672"><ele>415.0</ele><time>2026-04-04T16:06:59Z</time></trkpt><trkpt lat="43.39374509316107" lon="11.38123912164461"><ele>415.0</ele><time>2026-04-04T16:07:01Z</time></trkpt><trkpt lat="43.39363817023387" lon="11.381210821701925"><ele>416.4</ele><time>2026-04-04T16:07:03Z</time></trkpt><trkpt lat="43.393531245004546" lon="11.381219497105157"><ele>417.8</ele><time>2026-04-04T16:07:05Z</time></trkpt><trkpt lat="43.393425252695955" lon="11.38122504140624"><ele>419.20000000000005</ele><time>2026-04-04T16:07:07Z</time></trkpt><trkpt lat="43.39330207226804" lon="11.381195615242738"><ele>420.6</ele><time>2026-04-04T16:07:09Z</time></trkpt><trkpt lat="43.393238844974825" lon="11.381187243413622"><ele>422.0</ele><time>2026-04-04T16:07:10Z</time></trkpt><trkpt lat="43.39313257743997" lon="11.381189575208317"><ele>421.99999999999994</ele><time>2026-04-04T16:07:12Z</time></trkpt><trkpt lat="43.3930694106404" lon="11.38124814101864"><ele>422.0</ele><time>2026-04-04T16:07:14Z</time></trkpt><trkpt lat="43.39298215418166" lon="11.38132917026264"><ele>422.0</ele><time>2026-04-04T16:07:16Z</time></trkpt><trkpt lat="43.39287913815606" lon="11.381384538039974"><ele>422.0</ele><time>2026-04-04T16:07:18Z</time></trkpt><trkpt lat="43.392811095442546" lon="11.381402851501178"><ele>421.99999999999994</ele><time>2026-04-04T16:07:20Z</time></trkpt><trkpt lat="43.39274188100299" lon="11.38141570460059"><ele>422.0</ele><time>2026-04-04T16:07:22Z</time></trkpt><trkpt lat="43.39268112957134" lon="11.381472783132406"><ele>422.49999999999994</ele><time>2026-04-04T16:07:25Z</time></trkpt><trkpt lat="43.3926752227776" lon="11.381576669946666"><ele>423.0</ele><time>2026-04-04T16:07:29Z</time></trkpt><trkpt lat="43.39275621556553" lon="11.381575856080556"><ele>423.5</ele><time>2026-04-04T16:07:33Z</time></trkpt><trkpt lat="43.39279573908583" lon="11.38149887799863"><ele>424.0</ele><time>2026-04-04T16:07:35Z</time></trkpt><trkpt lat="43.39283826644816" lon="11.381416261820743"><ele>424.49999999999994</ele><time>2026-04-04T16:07:37Z</time></trkpt><trkpt lat="43.39291098830993" lon="11.381358908250307"><ele>425.0</ele><time>2026-04-04T16:07:39Z</time></trkpt><trkpt lat="43.392994387599934" lon="11.381298544384581"><ele>424.49999999999994</ele><time>2026-04-04T16:07:41Z</time></trkpt><trkpt lat="43.39306532495578" lon="11.38123408967027"><ele>424.0</ele><time>2026-04-04T16:07:43Z</time></trkpt><trkpt lat="43.39316481826949" lon="11.381196165334783"><ele>423.5</ele><time>2026-04-04T16:07:45Z</time></trkpt><trkpt lat="43.39327002418797" lon="11.381175860959274"><ele>423.0</ele><time>2026-04-04T16:07:46Z</time></trkpt><trkpt lat="43.39333857153726" lon="11.381177469904493"><ele>422.49999999999994</ele><time>2026-04-04T16:07:47Z</time></trkpt><trkpt lat="43.39340345927919" lon="11.381187775094379"><ele>422.0</ele><time>2026-04-04T16:07:48Z</time></trkpt><trkpt lat="43.39347373256769" lon="11.381196739418895"><ele>421.99999999999994</ele><time>2026-04-04T16:07:49Z</time></trkpt><trkpt lat="43.39354507313355" lon="11.381200076447358"><ele>422.0</ele><time>2026-04-04T16:07:50Z</time></trkpt><trkpt lat="43.39361693921695" lon="11.381207700770494"><ele>422.0</ele><time>2026-04-04T16:07:51Z</time></trkpt><trkpt lat="43.393725738645834" lon="11.381229406633665"><ele>422.0</ele><time>2026-04-04T16:07:53Z</time></trkpt><trkpt lat="43.39378763001306" lon="11.381273338254779"><ele>421.99999999999994</ele><time>2026-04-04T16:07:55Z</time></trkpt><trkpt lat="43.39385275432182" lon="11.381268749662018"><ele>422.0</ele><time>2026-04-04T16:07:57Z</time></trkpt><trkpt lat="43.393925054016606" lon="11.381251306091787"><ele>420.6</ele><time>2026-04-04T16:07:58Z</time></trkpt><trkpt lat="43.39401120986339" lon="11.381218675893171"><ele>419.20000000000005</ele><time>2026-04-04T16:07:59Z</time></trkpt><trkpt lat="43.39409572337542" lon="11.381183536077682"><ele>417.8</ele><time>2026-04-04T16:08:00Z</time></trkpt><trkpt lat="43.39419567552037" lon="11.381161745746237"><ele>416.4</ele><time>2026-04-04T16:08:01Z</time></trkpt><trkpt lat="43.3943264700821" lon="11.381099965487039"><ele>415.0</ele><time>2026-04-04T16:08:02Z</time></trkpt><trkpt lat="43.39448300564985" lon="11.38107019516836"><ele>415.0</ele><time>2026-04-04T16:08:03Z</time></trkpt><trkpt lat="43.39462793641678" lon="11.381032836099271"><ele>415.0</ele><time>2026-04-04T16:08:04Z</time></trkpt><trkpt lat="43.39477430742552" lon="11.381013629022162"><ele>415.0</ele><time>2026-04-04T16:08:05Z</time></trkpt><trkpt lat="43.394943101183934" lon="11.380996257112898"><ele>415.33333333333337</ele><time>2026-04-04T16:08:06Z</time></trkpt><trkpt lat="43.39513178556522" lon="11.380994187309982"><ele>415.66666666666663</ele><time>2026-04-04T16:08:07Z</time></trkpt><trkpt lat="43.39532918976227" lon="11.381006615553247"><ele>416.0</ele><time>2026-04-04T16:08:08Z</time></trkpt><trkpt lat="43.395518996939096" lon="11.381036075542282"><ele>414.66666666666663</ele><time>2026-04-04T16:08:09Z</time></trkpt><trkpt lat="43.39569357838308" lon="11.38105727708506"><ele>413.33333333333337</ele><time>2026-04-04T16:08:10Z</time></trkpt><trkpt lat="43.395858205199005" lon="11.381068242931184"><ele>412.0</ele><time>2026-04-04T16:08:11Z</time></trkpt><trkpt lat="43.39600077227397" lon="11.381041875921014"><ele>412.0</ele><time>2026-04-04T16:08:12Z</time></trkpt><trkpt lat="43.39613919620343" lon="11.380982233579017"><ele>412.0</ele><time>2026-04-04T16:08:13Z</time></trkpt><trkpt lat="43.39627866020575" lon="11.380906696981203"><ele>412.0</ele><time>2026-04-04T16:08:14Z</time></trkpt><trkpt lat="43.39640283545944" lon="11.380760603045696"><ele>411.0</ele><time>2026-04-04T16:08:15Z</time></trkpt><trkpt lat="43.39651254930397" lon="11.380573046455677"><ele>410.0</ele><time>2026-04-04T16:08:16Z</time></trkpt><trkpt lat="43.39659195602442" lon="11.380332898650918"><ele>409.0</ele><time>2026-04-04T16:08:17Z</time></trkpt><trkpt lat="43.39664662483718" lon="11.380078402889794"><ele>409.0</ele><time>2026-04-04T16:08:18Z</time></trkpt><trkpt lat="43.396694547657674" lon="11.379831214520472"><ele>409.0</ele><time>2026-04-04T16:08:19Z</time></trkpt><trkpt lat="43.39674011357916" lon="11.37959266345159"><ele>409.0</ele><time>2026-04-04T16:08:20Z</time></trkpt><trkpt lat="43.39678129536313" lon="11.379377064685537"><ele>410.25</ele><time>2026-04-04T16:08:21Z</time></trkpt><trkpt lat="43.39681954376959" lon="11.379177971406172"><ele>411.5</ele><time>2026-04-04T16:08:22Z</time></trkpt><trkpt lat="43.39685749670233" lon="11.378997358405108"><ele>412.75</ele><time>2026-04-04T16:08:23Z</time></trkpt><trkpt lat="43.396896013822726" lon="11.37883403937047"><ele>414.0</ele><time>2026-04-04T16:08:24Z</time></trkpt><trkpt lat="43.396941631048435" lon="11.378684267304113"><ele>414.0</ele><time>2026-04-04T16:08:25Z</time></trkpt><trkpt lat="43.39699818974149" lon="11.378549137017998"><ele>414.0</ele><time>2026-04-04T16:08:26Z</time></trkpt><trkpt lat="43.397081351989556" lon="11.378404197176073"><ele>414.0</ele><time>2026-04-04T16:08:27Z</time></trkpt><trkpt lat="43.39717090366997" lon="11.37824468873651"><ele>414.0</ele><time>2026-04-04T16:08:28Z</time></trkpt><trkpt lat="43.39726577795877" lon="11.378075636402562"><ele>415.66666666666663</ele><time>2026-04-04T16:08:29Z</time></trkpt><trkpt lat="43.39736582588632" lon="11.37790188698934"><ele>417.3333333333333</ele><time>2026-04-04T16:08:30Z</time></trkpt><trkpt lat="43.397471119982036" lon="11.377723698516649"><ele>419.0</ele><time>2026-04-04T16:08:31Z</time></trkpt><trkpt lat="43.397585139088356" lon="11.377537639929221"><ele>419.0</ele><time>2026-04-04T16:08:32Z</time></trkpt><trkpt lat="43.39768945615573" lon="11.37733958202581"><ele>419.0</ele><time>2026-04-04T16:08:33Z</time></trkpt><trkpt lat="43.39781120370302" lon="11.377167868971847"><ele>419.0</ele><time>2026-04-04T16:08:34Z</time></trkpt><trkpt lat="43.397927747233226" lon="11.377007262014194"><ele>419.66666666666663</ele><time>2026-04-04T16:08:35Z</time></trkpt><trkpt lat="43.39804243164764" lon="11.3768510196352"><ele>420.33333333333337</ele><time>2026-04-04T16:08:36Z</time></trkpt><trkpt lat="43.39816288414323" lon="11.376695814654482"><ele>421.0</ele><time>2026-04-04T16:08:37Z</time></trkpt><trkpt lat="43.398289609956414" lon="11.376560282414143"><ele>421.0</ele><time>2026-04-04T16:08:38Z</time></trkpt><trkpt lat="43.39842123884328" lon="11.376432488827456"><ele>421.0</ele><time>2026-04-04T16:08:39Z</time></trkpt><trkpt lat="43.398550644869445" lon="11.376311371711612"><ele>421.0</ele><time>2026-04-04T16:08:40Z</time></trkpt><trkpt lat="43.398685935843275" lon="11.376208673977137"><ele>421.5</ele><time>2026-04-04T16:08:41Z</time></trkpt><trkpt lat="43.3988225945483" lon="11.376125806040564"><ele>422.0</ele><time>2026-04-04T16:08:42Z</time></trkpt><trkpt lat="43.39896713878217" lon="11.376070751808099"><ele>422.5</ele><time>2026-04-04T16:08:43Z</time></trkpt><trkpt lat="43.399099518291266" lon="11.37603110400072"><ele>423.0</ele><time>2026-04-04T16:08:44Z</time></trkpt><trkpt lat="43.399215880372715" lon="11.376004476704498"><ele>424.25</ele><time>2026-04-04T16:08:45Z</time></trkpt><trkpt lat="43.39932537046724" lon="11.375973039440538"><ele>425.5</ele><time>2026-04-04T16:08:46Z</time></trkpt><trkpt lat="43.39943597244725" lon="11.375936642901397"><ele>426.75</ele><time>2026-04-04T16:08:47Z</time></trkpt><trkpt lat="43.399536839552034" lon="11.375857361588904"><ele>428.0</ele><time>2026-04-04T16:08:48Z</time></trkpt><trkpt lat="43.399617334474755" lon="11.375726667974764"><ele>429.25</ele><time>2026-04-04T16:08:49Z</time></trkpt><trkpt lat="43.39969207849702" lon="11.37561844100707"><ele>430.5</ele><time>2026-04-04T16:08:50Z</time></trkpt><trkpt lat="43.39975331054866" lon="11.375497284912232"><ele>431.75</ele><time>2026-04-04T16:08:51Z</time></trkpt><trkpt lat="43.39983700118338" lon="11.375362794427394"><ele>433.0</ele><time>2026-04-04T16:08:52Z</time></trkpt><trkpt lat="43.399921181863455" lon="11.375219703715306"><ele>434.0</ele><time>2026-04-04T16:08:53Z</time></trkpt><trkpt lat="43.400018133322746" lon="11.375057411151104"><ele>435.0</ele><time>2026-04-04T16:08:54Z</time></trkpt><trkpt lat="43.400124059689304" lon="11.374869503817234"><ele>436.0</ele><time>2026-04-04T16:08:55Z</time></trkpt><trkpt lat="43.40022972275826" lon="11.374717925012162"><ele>436.0</ele><time>2026-04-04T16:08:56Z</time></trkpt><trkpt lat="43.400329260102325" lon="11.37455248862635"><ele>436.0</ele><time>2026-04-04T16:08:57Z</time></trkpt><trkpt lat="43.40040967992487" lon="11.374398734168373"><ele>436.0</ele><time>2026-04-04T16:08:58Z</time></trkpt><trkpt lat="43.400479420986144" lon="11.374276541489113"><ele>436.0</ele><time>2026-04-04T16:08:59Z</time></trkpt><trkpt lat="43.40053311444617" lon="11.374160532254633"><ele>436.0</ele><time>2026-04-04T16:09:00Z</time></trkpt><trkpt lat="43.400567002046856" lon="11.374052638740144"><ele>436.0</ele><time>2026-04-04T16:09:01Z</time></trkpt><trkpt lat="43.4005912426822" lon="11.373929998410397"><ele>436.0</ele><time>2026-04-04T16:09:02Z</time></trkpt><trkpt lat="43.400631124572804" lon="11.373782174849637"><ele>436.0</ele><time>2026-04-04T16:09:03Z</time></trkpt><trkpt lat="43.40066301820218" lon="11.373625810044642"><ele>436.0</ele><time>2026-04-04T16:09:04Z</time></trkpt><trkpt lat="43.40070141171066" lon="11.373476471195323"><ele>436.0</ele><time>2026-04-04T16:09:05Z</time></trkpt><trkpt lat="43.400738802528046" lon="11.373352893790557"><ele>436.0</ele><time>2026-04-04T16:09:06Z</time></trkpt><trkpt lat="43.40077966487345" lon="11.373249053640851"><ele>436.0</ele><time>2026-04-04T16:09:07Z</time></trkpt><trkpt lat="43.40084524432711" lon="11.373175771065995"><ele>436.0</ele><time>2026-04-04T16:09:08Z</time></trkpt><trkpt lat="43.400922865380096" lon="11.373083790534226"><ele>436.0</ele><time>2026-04-04T16:09:09Z</time></trkpt><trkpt lat="43.40100561213318" lon="11.372980355436045"><ele>436.0</ele><time>2026-04-04T16:09:10Z</time></trkpt><trkpt lat="43.40108060217583" lon="11.372885698724604"><ele>436.0</ele><time>2026-04-04T16:09:11Z</time></trkpt><trkpt lat="43.40114647274458" lon="11.372795587588213"><ele>436.0</ele><time>2026-04-04T16:09:12Z</time></trkpt><trkpt lat="43.40120622644301" lon="11.372700695887707"><ele>436.0</ele><time>2026-04-04T16:09:13Z</time></trkpt><trkpt lat="43.4012509848985" lon="11.372595989961187"><ele>436.0</ele><time>2026-04-04T16:09:14Z</time></trkpt><trkpt lat="43.40128206322102" lon="11.372490201424437"><ele>436.0</ele><time>2026-04-04T16:09:15Z</time></trkpt><trkpt lat="43.401294882893744" lon="11.372364296835125"><ele>436.0</ele><time>2026-04-04T16:09:16Z</time></trkpt><trkpt lat="43.40129450292135" lon="11.372241446299459"><ele>436.0</ele><time>2026-04-04T16:09:17Z</time></trkpt><trkpt lat="43.40131209223" lon="11.372108940859391"><ele>436.0</ele><time>2026-04-04T16:09:18Z</time></trkpt><trkpt lat="43.40131187833947" lon="11.371952918303974"><ele>436.0</ele><time>2026-04-04T16:09:19Z</time></trkpt><trkpt lat="43.40130871953744" lon="11.371798623084048"><ele>435.5</ele><time>2026-04-04T16:09:20Z</time></trkpt><trkpt lat="43.401299746864304" lon="11.371645777507775"><ele>435.0</ele><time>2026-04-04T16:09:21Z</time></trkpt><trkpt lat="43.401276215587025" lon="11.371491410039656"><ele>434.5</ele><time>2026-04-04T16:09:22Z</time></trkpt><trkpt lat="43.401284060529264" lon="11.37132225263388"><ele>434.0</ele><time>2026-04-04T16:09:23Z</time></trkpt><trkpt lat="43.401285132026544" lon="11.371154705273977"><ele>433.0</ele><time>2026-04-04T16:09:24Z</time></trkpt><trkpt lat="43.401284995699555" lon="11.370996994020505"><ele>432.0</ele><time>2026-04-04T16:09:25Z</time></trkpt><trkpt lat="43.401315226027286" lon="11.370833713905915"><ele>431.0</ele><time>2026-04-04T16:09:26Z</time></trkpt><trkpt lat="43.40134857876519" lon="11.370663825955614"><ele>430.0</ele><time>2026-04-04T16:09:27Z</time></trkpt><trkpt lat="43.401385800486466" lon="11.370515412638039"><ele>429.75</ele><time>2026-04-04T16:09:28Z</time></trkpt><trkpt lat="43.4014384840221" lon="11.37035769662343"><ele>429.5</ele><time>2026-04-04T16:09:29Z</time></trkpt><trkpt lat="43.40148840321655" lon="11.37018592411133"><ele>429.25</ele><time>2026-04-04T16:09:30Z</time></trkpt><trkpt lat="43.401537652945606" lon="11.370017344805479"><ele>429.0</ele><time>2026-04-04T16:09:31Z</time></trkpt><trkpt lat="43.401591215376676" lon="11.369855476590693"><ele>429.25</ele><time>2026-04-04T16:09:32Z</time></trkpt><trkpt lat="43.40162319718024" lon="11.36968053689772"><ele>429.5</ele><time>2026-04-04T16:09:33Z</time></trkpt><trkpt lat="43.40165236656886" lon="11.369518221094223"><ele>429.75</ele><time>2026-04-04T16:09:34Z</time></trkpt><trkpt lat="43.401677046274145" lon="11.369359734560684"><ele>430.0</ele><time>2026-04-04T16:09:35Z</time></trkpt><trkpt lat="43.40171635562599" lon="11.369206831775495"><ele>430.0</ele><time>2026-04-04T16:09:36Z</time></trkpt><trkpt lat="43.40173099700636" lon="11.369038172470985"><ele>430.0</ele><time>2026-04-04T16:09:37Z</time></trkpt><trkpt lat="43.40173414689221" lon="11.368863802762812"><ele>430.0</ele><time>2026-04-04T16:09:38Z</time></trkpt><trkpt lat="43.40172921184908" lon="11.368690773242983"><ele>430.0</ele><time>2026-04-04T16:09:39Z</time></trkpt><trkpt lat="43.40171502682675" lon="11.368520321388422"><ele>430.5</ele><time>2026-04-04T16:09:40Z</time></trkpt><trkpt lat="43.40169169592338" lon="11.368336999485356"><ele>431.0</ele><time>2026-04-04T16:09:41Z</time></trkpt><trkpt lat="43.401666004571226" lon="11.36814692614223"><ele>431.5</ele><time>2026-04-04T16:09:42Z</time></trkpt><trkpt lat="43.40165364573795" lon="11.36794299891154"><ele>432.0</ele><time>2026-04-04T16:09:43Z</time></trkpt><trkpt lat="43.40163995390024" lon="11.367726517602783"><ele>432.5</ele><time>2026-04-04T16:09:44Z</time></trkpt><trkpt lat="43.40162141123725" lon="11.367527459838165"><ele>433.0</ele><time>2026-04-04T16:09:45Z</time></trkpt><trkpt lat="43.40160895863267" lon="11.367337499848214"><ele>433.5</ele><time>2026-04-04T16:09:46Z</time></trkpt><trkpt lat="43.40158175854433" lon="11.367174586815539"><ele>434.0</ele><time>2026-04-04T16:09:47Z</time></trkpt><trkpt lat="43.4015501901139" lon="11.367036555232566"><ele>434.2</ele><time>2026-04-04T16:09:48Z</time></trkpt><trkpt lat="43.40150469903508" lon="11.366917435271647"><ele>434.4</ele><time>2026-04-04T16:09:49Z</time></trkpt><trkpt lat="43.401448719827485" lon="11.36679117910718"><ele>434.6</ele><time>2026-04-04T16:09:50Z</time></trkpt><trkpt lat="43.40140060382136" lon="11.366647858850156"><ele>434.8</ele><time>2026-04-04T16:09:51Z</time></trkpt><trkpt lat="43.40133697908036" lon="11.366514786244542"><ele>435.0</ele><time>2026-04-04T16:09:52Z</time></trkpt><trkpt lat="43.40131311772012" lon="11.366369985123955"><ele>436.5</ele><time>2026-04-04T16:09:53Z</time></trkpt><trkpt lat="43.40128311701631" lon="11.366213287265216"><ele>438.0</ele><time>2026-04-04T16:09:54Z</time></trkpt><trkpt lat="43.4012386453384" lon="11.366048536081093"><ele>439.5</ele><time>2026-04-04T16:09:55Z</time></trkpt><trkpt lat="43.40121443605206" lon="11.365872247424553"><ele>441.0</ele><time>2026-04-04T16:09:56Z</time></trkpt><trkpt lat="43.40118532940286" lon="11.365695983978878"><ele>440.8</ele><time>2026-04-04T16:09:57Z</time></trkpt><trkpt lat="43.401156213198455" lon="11.365526356301766"><ele>440.6</ele><time>2026-04-04T16:09:58Z</time></trkpt><trkpt lat="43.40113378022601" lon="11.365369333050163"><ele>440.4</ele><time>2026-04-04T16:09:59Z</time></trkpt><trkpt lat="43.40111515967096" lon="11.365236712536767"><ele>440.2</ele><time>2026-04-04T16:10:00Z</time></trkpt><trkpt lat="43.40109620986442" lon="11.36511067637771"><ele>440.0</ele><time>2026-04-04T16:10:01Z</time></trkpt><trkpt lat="43.40108151197837" lon="11.36497692441097"><ele>440.0</ele><time>2026-04-04T16:10:02Z</time></trkpt><trkpt lat="43.40106215625829" lon="11.364825552560706"><ele>440.0</ele><time>2026-04-04T16:10:03Z</time></trkpt><trkpt lat="43.401026440552975" lon="11.364683009622768"><ele>440.0</ele><time>2026-04-04T16:10:04Z</time></trkpt><trkpt lat="43.40098153184643" lon="11.364552370260194"><ele>440.0</ele><time>2026-04-04T16:10:05Z</time></trkpt><trkpt lat="43.400933697682945" lon="11.364418403246818"><ele>440.0</ele><time>2026-04-04T16:10:06Z</time></trkpt><trkpt lat="43.40087062600859" lon="11.36428876432504"><ele>440.0</ele><time>2026-04-04T16:10:07Z</time></trkpt><trkpt lat="43.40081909627608" lon="11.36414543144413"><ele>440.0</ele><time>2026-04-04T16:10:08Z</time></trkpt><trkpt lat="43.400777069614485" lon="11.36399540064105"><ele>440.0</ele><time>2026-04-04T16:10:09Z</time></trkpt><trkpt lat="43.400774330037756" lon="11.363843801125153"><ele>440.0</ele><time>2026-04-04T16:10:10Z</time></trkpt><trkpt lat="43.40078217001538" lon="11.363712089290548"><ele>440.0</ele><time>2026-04-04T16:10:11Z</time></trkpt><trkpt lat="43.40081708736975" lon="11.363590652596287"><ele>439.99999999999994</ele><time>2026-04-04T16:10:12Z</time></trkpt><trkpt lat="43.400851562376076" lon="11.36347313808283"><ele>440.0</ele><time>2026-04-04T16:10:13Z</time></trkpt><trkpt lat="43.40089930152019" lon="11.363365115955451"><ele>440.0</ele><time>2026-04-04T16:10:14Z</time></trkpt><trkpt lat="43.400966585669366" lon="11.363288519622254"><ele>440.0</ele><time>2026-04-04T16:10:15Z</time></trkpt><trkpt lat="43.401035197656746" lon="11.363238849881665"><ele>439.99999999999994</ele><time>2026-04-04T16:10:16Z</time></trkpt><trkpt lat="43.40112274903321" lon="11.363207329911011"><ele>440.0</ele><time>2026-04-04T16:10:17Z</time></trkpt><trkpt lat="43.40121748348724" lon="11.363158489052854"><ele>440.0</ele><time>2026-04-04T16:10:18Z</time></trkpt><trkpt lat="43.40130187041136" lon="11.363092300822917"><ele>440.0</ele><time>2026-04-04T16:10:19Z</time></trkpt><trkpt lat="43.401361700033284" lon="11.363003171574158"><ele>440.0</ele><time>2026-04-04T16:10:20Z</time></trkpt><trkpt lat="43.401395580209886" lon="11.362898343124957"><ele>440.0</ele><time>2026-04-04T16:10:21Z</time></trkpt><trkpt lat="43.40140932587458" lon="11.362771880980784"><ele>440.0</ele><time>2026-04-04T16:10:22Z</time></trkpt><trkpt lat="43.401433096257016" lon="11.36264412971873"><ele>440.8</ele><time>2026-04-04T16:10:23Z</time></trkpt><trkpt lat="43.4014175574999" lon="11.362506640273887"><ele>441.6</ele><time>2026-04-04T16:10:24Z</time></trkpt><trkpt lat="43.401386004365044" lon="11.362358603214277"><ele>442.4</ele><time>2026-04-04T16:10:25Z</time></trkpt><trkpt lat="43.40134401795172" lon="11.362208909754068"><ele>443.2</ele><time>2026-04-04T16:10:26Z</time></trkpt><trkpt lat="43.40132258020054" lon="11.362084686568293"><ele>444.0</ele><time>2026-04-04T16:10:27Z</time></trkpt><trkpt lat="43.40133652880361" lon="11.361994453350619"><ele>444.0</ele><time>2026-04-04T16:10:28Z</time></trkpt><trkpt lat="43.40140546389865" lon="11.361851372743581"><ele>444.0</ele><time>2026-04-04T16:10:30Z</time></trkpt><trkpt lat="43.40147596948991" lon="11.361778105845247"><ele>444.0</ele><time>2026-04-04T16:10:31Z</time></trkpt><trkpt lat="43.4015603715493" lon="11.361708723181565"><ele>444.0</ele><time>2026-04-04T16:10:32Z</time></trkpt><trkpt lat="43.401647400412685" lon="11.361625164727284"><ele>444.0</ele><time>2026-04-04T16:10:33Z</time></trkpt><trkpt lat="43.401736915269055" lon="11.361521386936266"><ele>444.0</ele><time>2026-04-04T16:10:34Z</time></trkpt><trkpt lat="43.40184116320852" lon="11.36141133042316"><ele>444.0</ele><time>2026-04-04T16:10:35Z</time></trkpt><trkpt lat="43.401937405221204" lon="11.36128947321641"><ele>444.0</ele><time>2026-04-04T16:10:36Z</time></trkpt><trkpt lat="43.40202423601881" lon="11.36117123383842"><ele>444.0</ele><time>2026-04-04T16:10:37Z</time></trkpt><trkpt lat="43.40211477506741" lon="11.361069005017372"><ele>443.4</ele><time>2026-04-04T16:10:38Z</time></trkpt><trkpt lat="43.40221312809283" lon="11.360978552336269"><ele>442.79999999999995</ele><time>2026-04-04T16:10:39Z</time></trkpt><trkpt lat="43.402303791035585" lon="11.360908024825903"><ele>442.20000000000005</ele><time>2026-04-04T16:10:40Z</time></trkpt><trkpt lat="43.40240576227105" lon="11.360880297516928"><ele>441.6</ele><time>2026-04-04T16:10:41Z</time></trkpt><trkpt lat="43.4025014250645" lon="11.360889571206297"><ele>441.0</ele><time>2026-04-04T16:10:42Z</time></trkpt><trkpt lat="43.40260131726656" lon="11.360897111140366"><ele>441.0</ele><time>2026-04-04T16:10:43Z</time></trkpt><trkpt lat="43.402706755015366" lon="11.360928082842829"><ele>441.0</ele><time>2026-04-04T16:10:44Z</time></trkpt><trkpt lat="43.40281244389259" lon="11.36096155642187"><ele>441.0</ele><time>2026-04-04T16:10:45Z</time></trkpt><trkpt lat="43.40290669663703" lon="11.360969739034587"><ele>441.0</ele><time>2026-04-04T16:10:46Z</time></trkpt><trkpt lat="43.403002298823914" lon="11.36094466243132"><ele>441.0</ele><time>2026-04-04T16:10:47Z</time></trkpt><trkpt lat="43.4031047917922" lon="11.360906485563055"><ele>442.0</ele><time>2026-04-04T16:10:48Z</time></trkpt><trkpt lat="43.40321330766549" lon="11.360876850135963"><ele>443.0</ele><time>2026-04-04T16:10:49Z</time></trkpt><trkpt lat="43.4033170462844" lon="11.36084037248834"><ele>444.0</ele><time>2026-04-04T16:10:50Z</time></trkpt><trkpt lat="43.4033983084483" lon="11.360795763874748"><ele>445.0</ele><time>2026-04-04T16:10:51Z</time></trkpt><trkpt lat="43.40346907271407" lon="11.360735528833622"><ele>446.0</ele><time>2026-04-04T16:10:52Z</time></trkpt><trkpt lat="43.40352406017551" lon="11.360652832677061"><ele>444.6</ele><time>2026-04-04T16:10:53Z</time></trkpt><trkpt lat="43.4035224737124" lon="11.360516552833742"><ele>443.20000000000005</ele><time>2026-04-04T16:10:54Z</time></trkpt><trkpt lat="43.40352935041714" lon="11.360383062687564"><ele>441.79999999999995</ele><time>2026-04-04T16:10:55Z</time></trkpt><trkpt lat="43.40351540347088" lon="11.36023187030863"><ele>440.4</ele><time>2026-04-04T16:10:56Z</time></trkpt><trkpt lat="43.40350751791966" lon="11.360088695263483"><ele>439.0</ele><time>2026-04-04T16:10:57Z</time></trkpt><trkpt lat="43.40352256522544" lon="11.35994629419571"><ele>439.0</ele><time>2026-04-04T16:10:58Z</time></trkpt><trkpt lat="43.40354995366042" lon="11.359784723863418"><ele>439.0</ele><time>2026-04-04T16:10:59Z</time></trkpt><trkpt lat="43.40357305566837" lon="11.359618902958912"><ele>439.0</ele><time>2026-04-04T16:11:00Z</time></trkpt><trkpt lat="43.40359406819199" lon="11.359478654905706"><ele>439.0</ele><time>2026-04-04T16:11:01Z</time></trkpt><trkpt lat="43.403616032744786" lon="11.359366558848983"><ele>439.0</ele><time>2026-04-04T16:11:02Z</time></trkpt><trkpt lat="43.4035782948192" lon="11.359254332343387"><ele>440.2</ele><time>2026-04-04T16:11:03Z</time></trkpt><trkpt lat="43.403526213658196" lon="11.359168184167846"><ele>441.4</ele><time>2026-04-04T16:11:04Z</time></trkpt><trkpt lat="43.40345941945683" lon="11.35908442717989"><ele>442.6</ele><time>2026-04-04T16:11:05Z</time></trkpt><trkpt lat="43.403380686724674" lon="11.35901555340421"><ele>443.8</ele><time>2026-04-04T16:11:06Z</time></trkpt><trkpt lat="43.403286363156035" lon="11.358963016250968"><ele>445.0</ele><time>2026-04-04T16:11:07.001Z</time></trkpt><trkpt lat="43.40317899812991" lon="11.35894403290919"><ele>445.0</ele><time>2026-04-04T16:11:08.001Z</time></trkpt><trkpt lat="43.40308496857853" lon="11.358908802586894"><ele>445.0</ele><time>2026-04-04T16:11:09.001Z</time></trkpt><trkpt lat="43.403012623593746" lon="11.358850926808273"><ele>445.0</ele><time>2026-04-04T16:11:10.001Z</time></trkpt><trkpt lat="43.40295235561125" lon="11.358759840489563"><ele>445.0</ele><time>2026-04-04T16:11:11.001Z</time></trkpt><trkpt lat="43.402913936510245" lon="11.358629944515108"><ele>445.0</ele><time>2026-04-04T16:11:12.001Z</time></trkpt><trkpt lat="43.402881746214796" lon="11.358506202961685"><ele>444.5</ele><time>2026-04-04T16:11:13.001Z</time></trkpt><trkpt lat="43.40284875643453" lon="11.358367951145125"><ele>444.0</ele><time>2026-04-04T16:11:14.001Z</time></trkpt><trkpt lat="43.402833602186966" lon="11.358181337784634"><ele>443.5</ele><time>2026-04-04T16:11:15.001Z</time></trkpt><trkpt lat="43.40279663289267" lon="11.357996893830657"><ele>443.0</ele><time>2026-04-04T16:11:16.001Z</time></trkpt><trkpt lat="43.402764122026795" lon="11.357845017749106"><ele>443.0</ele><time>2026-04-04T16:11:17.001Z</time></trkpt><trkpt lat="43.4027482670716" lon="11.357711540382669"><ele>442.99999999999994</ele><time>2026-04-04T16:11:18.001Z</time></trkpt><trkpt lat="43.402747303909635" lon="11.357593351577782"><ele>442.99999999999994</ele><time>2026-04-04T16:11:19.001Z</time></trkpt><trkpt lat="43.402769039978466" lon="11.35747171434634"><ele>443.0</ele><time>2026-04-04T16:11:20Z</time></trkpt><trkpt lat="43.40281020423459" lon="11.357363874739061"><ele>443.0</ele><time>2026-04-04T16:11:21Z</time></trkpt><trkpt lat="43.402872547431265" lon="11.357273670215717"><ele>443.0</ele><time>2026-04-04T16:11:22Z</time></trkpt><trkpt lat="43.40295209808283" lon="11.357203468695987"><ele>442.99999999999994</ele><time>2026-04-04T16:11:23Z</time></trkpt><trkpt lat="43.40304387055911" lon="11.357145447080221"><ele>442.99999999999994</ele><time>2026-04-04T16:11:24Z</time></trkpt><trkpt lat="43.4031329002047" lon="11.357127924120373"><ele>443.0</ele><time>2026-04-04T16:11:25Z</time></trkpt><trkpt lat="43.40324567093124" lon="11.35712874311586"><ele>443.0</ele><time>2026-04-04T16:11:26Z</time></trkpt><trkpt lat="43.40336590618195" lon="11.35715013163647"><ele>443.79999999999995</ele><time>2026-04-04T16:11:27Z</time></trkpt><trkpt lat="43.40348260447279" lon="11.357140241063677"><ele>444.59999999999997</ele><time>2026-04-04T16:11:28Z</time></trkpt><trkpt lat="43.40358636211322" lon="11.357129732108191"><ele>445.40000000000003</ele><time>2026-04-04T16:11:29Z</time></trkpt><trkpt lat="43.40367235409821" lon="11.35710930938529"><ele>446.20000000000005</ele><time>2026-04-04T16:11:30Z</time></trkpt><trkpt lat="43.40375541591513" lon="11.35706739813942"><ele>447.0</ele><time>2026-04-04T16:11:31Z</time></trkpt><trkpt lat="43.40381174892702" lon="11.3569958447861"><ele>447.0</ele><time>2026-04-04T16:11:32Z</time></trkpt><trkpt lat="43.403851403192704" lon="11.356907894387112"><ele>447.0</ele><time>2026-04-04T16:11:33Z</time></trkpt><trkpt lat="43.40387693437307" lon="11.356813524522485"><ele>447.0</ele><time>2026-04-04T16:11:34Z</time></trkpt><trkpt lat="43.403854199653175" lon="11.356699309816012"><ele>447.0</ele><time>2026-04-04T16:11:35Z</time></trkpt><trkpt lat="43.40382549518378" lon="11.3566020277447"><ele>447.0</ele><time>2026-04-04T16:11:36Z</time></trkpt><trkpt lat="43.40376915944771" lon="11.35650593873748"><ele>447.0</ele><time>2026-04-04T16:11:37Z</time></trkpt><trkpt lat="43.40369854914166" lon="11.35640188850663"><ele>446.8333333333333</ele><time>2026-04-04T16:11:38Z</time></trkpt><trkpt lat="43.40363022181925" lon="11.356307200901663"><ele>446.66666666666663</ele><time>2026-04-04T16:11:39Z</time></trkpt><trkpt lat="43.40358355556541" lon="11.356204344773408"><ele>446.5</ele><time>2026-04-04T16:11:40Z</time></trkpt><trkpt lat="43.403574551025315" lon="11.356098744965607"><ele>446.3333333333333</ele><time>2026-04-04T16:11:41Z</time></trkpt><trkpt lat="43.403605581418134" lon="11.356010891502086"><ele>446.16666666666663</ele><time>2026-04-04T16:11:42Z</time></trkpt><trkpt lat="43.40366037095344" lon="11.355943765141758"><ele>446.0</ele><time>2026-04-04T16:11:43Z</time></trkpt><trkpt lat="43.40373849901923" lon="11.355864716420644"><ele>447.20000000000005</ele><time>2026-04-04T16:11:44Z</time></trkpt><trkpt lat="43.40383202113813" lon="11.355786289636594"><ele>448.40000000000003</ele><time>2026-04-04T16:11:45Z</time></trkpt><trkpt lat="43.40393134915283" lon="11.35570879508042"><ele>449.6</ele><time>2026-04-04T16:11:46Z</time></trkpt><trkpt lat="43.40402160930445" lon="11.3556480237808"><ele>450.8</ele><time>2026-04-04T16:11:47Z</time></trkpt><trkpt lat="43.404113449272245" lon="11.355605530291431"><ele>452.0</ele><time>2026-04-04T16:11:48Z</time></trkpt><trkpt lat="43.404207503560045" lon="11.355597570137006"><ele>452.0</ele><time>2026-04-04T16:11:49Z</time></trkpt><trkpt lat="43.40430845294718" lon="11.355610753318674"><ele>452.00000000000006</ele><time>2026-04-04T16:11:50Z</time></trkpt><trkpt lat="43.40442233885036" lon="11.355636768280798"><ele>452.00000000000006</ele><time>2026-04-04T16:11:51Z</time></trkpt><trkpt lat="43.40453422897373" lon="11.355672568224245"><ele>452.0</ele><time>2026-04-04T16:11:52Z</time></trkpt><trkpt lat="43.40463900252616" lon="11.355721465685857"><ele>452.0</ele><time>2026-04-04T16:11:53Z</time></trkpt><trkpt lat="43.4047436384997" lon="11.35580731389532"><ele>452.8</ele><time>2026-04-04T16:11:54Z</time></trkpt><trkpt lat="43.4048411650843" lon="11.35588232667651"><ele>453.6</ele><time>2026-04-04T16:11:55Z</time></trkpt><trkpt lat="43.404937551042025" lon="11.355956758099952"><ele>454.40000000000003</ele><time>2026-04-04T16:11:56Z</time></trkpt><trkpt lat="43.404994980542426" lon="11.356008637395702"><ele>455.20000000000005</ele><time>2026-04-04T16:11:57Z</time></trkpt><trkpt lat="43.40512541030705" lon="11.35607888260265"><ele>456.0</ele><time>2026-04-04T16:11:59Z</time></trkpt><trkpt lat="43.40519264221166" lon="11.356106938871317"><ele>456.0</ele><time>2026-04-04T16:12:00Z</time></trkpt><trkpt lat="43.405271152581314" lon="11.356081525245026"><ele>456.0</ele><time>2026-04-04T16:12:01Z</time></trkpt><trkpt lat="43.40535658529742" lon="11.355952411523583"><ele>456.0</ele><time>2026-04-04T16:12:03Z</time></trkpt><trkpt lat="43.405382671455264" lon="11.35587323994168"><ele>456.0</ele><time>2026-04-04T16:12:04Z</time></trkpt><trkpt lat="43.40540326349514" lon="11.35575287474504"><ele>456.0</ele><time>2026-04-04T16:12:05Z</time></trkpt><trkpt lat="43.40541782212203" lon="11.355622832256085"><ele>455.5</ele><time>2026-04-04T16:12:06Z</time></trkpt><trkpt lat="43.40546333762878" lon="11.355508951690075"><ele>455.0</ele><time>2026-04-04T16:12:07Z</time></trkpt><trkpt lat="43.40551881955673" lon="11.355437446424698"><ele>454.5</ele><time>2026-04-04T16:12:08Z</time></trkpt><trkpt lat="43.40558041181704" lon="11.35541412021963"><ele>454.0</ele><time>2026-04-04T16:12:09Z</time></trkpt><trkpt lat="43.40565880432771" lon="11.355416848484301"><ele>453.5</ele><time>2026-04-04T16:12:10Z</time></trkpt><trkpt lat="43.40573629599463" lon="11.355419612701205"><ele>453.0</ele><time>2026-04-04T16:12:11Z</time></trkpt><trkpt lat="43.405815721058566" lon="11.355498127791401"><ele>455.5</ele><time>2026-04-04T16:12:12Z</time></trkpt><trkpt lat="43.40590524691563" lon="11.355572792026765"><ele>458.0</ele><time>2026-04-04T16:12:13Z</time></trkpt><trkpt lat="43.40601177406011" lon="11.35565670487569"><ele>460.5</ele><time>2026-04-04T16:12:14Z</time></trkpt><trkpt lat="43.40611889911061" lon="11.35574449902445"><ele>463.0</ele><time>2026-04-04T16:12:15Z</time></trkpt><trkpt lat="43.406236181363894" lon="11.355841447831578"><ele>463.0</ele><time>2026-04-04T16:12:16Z</time></trkpt><trkpt lat="43.40631630901745" lon="11.355940278457007"><ele>462.99999999999994</ele><time>2026-04-04T16:12:17Z</time></trkpt><trkpt lat="43.40639456217563" lon="11.35602416606215"><ele>462.99999999999994</ele><time>2026-04-04T16:12:18Z</time></trkpt><trkpt lat="43.406453088203165" lon="11.356064865555814"><ele>463.0</ele><time>2026-04-04T16:12:19Z</time></trkpt><trkpt lat="43.40651968009086" lon="11.356099735887941"><ele>463.0</ele><time>2026-04-04T16:12:20Z</time></trkpt><trkpt lat="43.40663064198445" lon="11.356067340766048"><ele>462.83333333333337</ele><time>2026-04-04T16:12:22Z</time></trkpt><trkpt lat="43.40667309156574" lon="11.35598035627206"><ele>462.6666666666667</ele><time>2026-04-04T16:12:23Z</time></trkpt><trkpt lat="43.406700941841066" lon="11.355881419600022"><ele>462.5</ele><time>2026-04-04T16:12:24Z</time></trkpt><trkpt lat="43.40670386827981" lon="11.355767526385055"><ele>462.33333333333337</ele><time>2026-04-04T16:12:25Z</time></trkpt><trkpt lat="43.40668195159379" lon="11.355640470617962"><ele>462.1666666666667</ele><time>2026-04-04T16:12:26Z</time></trkpt><trkpt lat="43.40664430336866" lon="11.355524502089278"><ele>462.0</ele><time>2026-04-04T16:12:27Z</time></trkpt><trkpt lat="43.406616670968205" lon="11.355389974601742"><ele>462.0</ele><time>2026-04-04T16:12:28Z</time></trkpt><trkpt lat="43.40659093539024" lon="11.355224474887677"><ele>462.00000000000006</ele><time>2026-04-04T16:12:29Z</time></trkpt><trkpt lat="43.4065749788171" lon="11.35507019081243"><ele>462.00000000000006</ele><time>2026-04-04T16:12:30Z</time></trkpt><trkpt lat="43.40657300693117" lon="11.354936149495636"><ele>462.0</ele><time>2026-04-04T16:12:31Z</time></trkpt><trkpt lat="43.40657095279631" lon="11.35483250018181"><ele>462.0</ele><time>2026-04-04T16:12:32Z</time></trkpt><trkpt lat="43.406627823239" lon="11.354765623923061"><ele>460.25</ele><time>2026-04-04T16:12:33Z</time></trkpt><trkpt lat="43.40672960605404" lon="11.354630383438039"><ele>458.5</ele><time>2026-04-04T16:12:35Z</time></trkpt><trkpt lat="43.40681492449254" lon="11.35455324239499"><ele>456.75</ele><time>2026-04-04T16:12:36Z</time></trkpt><trkpt lat="43.406915414722185" lon="11.354479366307439"><ele>455.0</ele><time>2026-04-04T16:12:37Z</time></trkpt><trkpt lat="43.4070223580037" lon="11.354416133680475"><ele>455.0</ele><time>2026-04-04T16:12:38Z</time></trkpt><trkpt lat="43.40713135528036" lon="11.354379796043927"><ele>455.0</ele><time>2026-04-04T16:12:39Z</time></trkpt><trkpt lat="43.40723430429691" lon="11.354366065141537"><ele>455.0</ele><time>2026-04-04T16:12:40Z</time></trkpt><trkpt lat="43.4073109995762" lon="11.354407784500031"><ele>455.0</ele><time>2026-04-04T16:12:41Z</time></trkpt><trkpt lat="43.40738616525291" lon="11.354413286036026"><ele>455.0</ele><time>2026-04-04T16:12:42Z</time></trkpt><trkpt lat="43.40746111943857" lon="11.354443683391201"><ele>457.0</ele><time>2026-04-04T16:12:43Z</time></trkpt><trkpt lat="43.4075748884928" lon="11.354432414793584"><ele>459.0</ele><time>2026-04-04T16:12:45Z</time></trkpt><trkpt lat="43.40761917165645" lon="11.354354240204477"><ele>461.0</ele><time>2026-04-04T16:12:46Z</time></trkpt><trkpt lat="43.40764578965921" lon="11.35423842072624"><ele>463.0</ele><time>2026-04-04T16:12:47Z</time></trkpt><trkpt lat="43.40767209930029" lon="11.354112201949658"><ele>465.0</ele><time>2026-04-04T16:12:48Z</time></trkpt><trkpt lat="43.407698583247715" lon="11.35398079152239"><ele>465.0</ele><time>2026-04-04T16:12:49Z</time></trkpt><trkpt lat="43.407750010749965" lon="11.353893230396146"><ele>465.0</ele><time>2026-04-04T16:12:50Z</time></trkpt><trkpt lat="43.40780457699443" lon="11.353827402313073"><ele>465.0</ele><time>2026-04-04T16:12:51Z</time></trkpt><trkpt lat="43.407871288704065" lon="11.353767036160715"><ele>465.0</ele><time>2026-04-04T16:12:52Z</time></trkpt><trkpt lat="43.407948683528815" lon="11.353754220210025"><ele>465.0</ele><time>2026-04-04T16:12:53Z</time></trkpt><trkpt lat="43.40802827675276" lon="11.353775271069168"><ele>465.0</ele><time>2026-04-04T16:12:54Z</time></trkpt><trkpt lat="43.40810783160182" lon="11.353817583088771"><ele>466.4</ele><time>2026-04-04T16:12:55Z</time></trkpt><trkpt lat="43.408181981448045" lon="11.353894063326878"><ele>467.8</ele><time>2026-04-04T16:12:56Z</time></trkpt><trkpt lat="43.40826102308048" lon="11.353987322074184"><ele>469.20000000000005</ele><time>2026-04-04T16:12:57Z</time></trkpt><trkpt lat="43.40834437966177" lon="11.354081733540777"><ele>470.6</ele><time>2026-04-04T16:12:58Z</time></trkpt><trkpt lat="43.40841735133616" lon="11.354151608467268"><ele>472.0</ele><time>2026-04-04T16:12:59Z</time></trkpt><trkpt lat="43.40849286026542" lon="11.354184809469963"><ele>472.0</ele><time>2026-04-04T16:13:00Z</time></trkpt><trkpt lat="43.40861928406455" lon="11.354160293456987"><ele>472.00000000000006</ele><time>2026-04-04T16:13:02Z</time></trkpt><trkpt lat="43.40866980108631" lon="11.354064860525241"><ele>472.00000000000006</ele><time>2026-04-04T16:13:03Z</time></trkpt><trkpt lat="43.408735986704535" lon="11.354002096468637"><ele>472.0</ele><time>2026-04-04T16:13:04Z</time></trkpt><trkpt lat="43.408775609957196" lon="11.353897469374141"><ele>472.0</ele><time>2026-04-04T16:13:05Z</time></trkpt><trkpt lat="43.40875909545219" lon="11.353752688739"><ele>471.33333333333337</ele><time>2026-04-04T16:13:06Z</time></trkpt><trkpt lat="43.408784548657216" lon="11.353617890440708"><ele>470.6666666666667</ele><time>2026-04-04T16:13:07Z</time></trkpt><trkpt lat="43.40880513800295" lon="11.353483847922531"><ele>470.0</ele><time>2026-04-04T16:13:08Z</time></trkpt><trkpt lat="43.40883166904541" lon="11.353379597168404"><ele>469.33333333333337</ele><time>2026-04-04T16:13:09Z</time></trkpt><trkpt lat="43.408880647279354" lon="11.353317458369352"><ele>468.6666666666667</ele><time>2026-04-04T16:13:10Z</time></trkpt><trkpt lat="43.40893889118306" lon="11.353257019162594"><ele>468.0</ele><time>2026-04-04T16:13:11Z</time></trkpt><trkpt lat="43.4090236423582" lon="11.35322448076536"><ele>468.0</ele><time>2026-04-04T16:13:12Z</time></trkpt><trkpt lat="43.409125178360654" lon="11.353202251923395"><ele>467.99999999999994</ele><time>2026-04-04T16:13:13Z</time></trkpt><trkpt lat="43.409233703608244" lon="11.353198717959991"><ele>467.99999999999994</ele><time>2026-04-04T16:13:14Z</time></trkpt><trkpt lat="43.40934184906427" lon="11.35322136708294"><ele>468.0</ele><time>2026-04-04T16:13:15Z</time></trkpt><trkpt lat="43.40944719529702" lon="11.353273967802684"><ele>468.0</ele><time>2026-04-04T16:13:16Z</time></trkpt><trkpt lat="43.409540088488356" lon="11.353337383030027"><ele>468.0</ele><time>2026-04-04T16:13:17Z</time></trkpt><trkpt lat="43.409616983175894" lon="11.35336397476364"><ele>467.99999999999994</ele><time>2026-04-04T16:13:18Z</time></trkpt><trkpt lat="43.409702199721345" lon="11.35336106040011"><ele>467.99999999999994</ele><time>2026-04-04T16:13:19Z</time></trkpt><trkpt lat="43.40979850684419" lon="11.353247909116561"><ele>468.0</ele><time>2026-04-04T16:13:21Z</time></trkpt><trkpt lat="43.40982432256191" lon="11.35312723718175"><ele>468.0</ele><time>2026-04-04T16:13:22Z</time></trkpt><trkpt lat="43.409840118915604" lon="11.353017819521238"><ele>468.1666666666667</ele><time>2026-04-04T16:13:23Z</time></trkpt><trkpt lat="43.40985975370008" lon="11.35289918641215"><ele>468.33333333333337</ele><time>2026-04-04T16:13:24Z</time></trkpt><trkpt lat="43.4098884417943" lon="11.352795577887449"><ele>468.5</ele><time>2026-04-04T16:13:25Z</time></trkpt><trkpt lat="43.40994371393974" lon="11.352699536593496"><ele>468.6666666666667</ele><time>2026-04-04T16:13:26Z</time></trkpt><trkpt lat="43.41000328627637" lon="11.352621131472512"><ele>468.83333333333337</ele><time>2026-04-04T16:13:27Z</time></trkpt><trkpt lat="43.41006934737702" lon="11.352537505706911"><ele>469.0</ele><time>2026-04-04T16:13:28Z</time></trkpt><trkpt lat="43.41014647221139" lon="11.352441931095361"><ele>469.0</ele><time>2026-04-04T16:13:29Z</time></trkpt><trkpt lat="43.4101946758028" lon="11.352372916811278"><ele>469.0</ele><time>2026-04-04T16:13:30Z</time></trkpt><trkpt lat="43.41025078412853" lon="11.352329034519569"><ele>469.0</ele><time>2026-04-04T16:13:31Z</time></trkpt><trkpt lat="43.410411901967436" lon="11.352300359128709"><ele>469.0</ele><time>2026-04-04T16:13:33Z</time></trkpt><trkpt lat="43.410671949753215" lon="11.352269650891442"><ele>469.5</ele><time>2026-04-04T16:13:35Z</time></trkpt><trkpt lat="43.41082211303153" lon="11.352229279299126"><ele>470.0</ele><time>2026-04-04T16:13:36Z</time></trkpt><trkpt lat="43.41095629350572" lon="11.35217165796016"><ele>470.5</ele><time>2026-04-04T16:13:37Z</time></trkpt><trkpt lat="43.411106496876315" lon="11.35212465929499"><ele>471.0</ele><time>2026-04-04T16:13:38Z</time></trkpt><trkpt lat="43.4112652131622" lon="11.352082486614144"><ele>469.66666666666663</ele><time>2026-04-04T16:13:39Z</time></trkpt><trkpt lat="43.41143524238982" lon="11.352054315994337"><ele>468.3333333333333</ele><time>2026-04-04T16:13:40Z</time></trkpt><trkpt lat="43.41161362839221" lon="11.351988560321068"><ele>467.0</ele><time>2026-04-04T16:13:41Z</time></trkpt><trkpt lat="43.411782725682684" lon="11.351968022258589"><ele>467.0</ele><time>2026-04-04T16:13:42Z</time></trkpt><trkpt lat="43.411954506718175" lon="11.351927054917017"><ele>467.0</ele><time>2026-04-04T16:13:43Z</time></trkpt><trkpt lat="43.41213230357696" lon="11.351863608950346"><ele>467.0</ele><time>2026-04-04T16:13:44Z</time></trkpt><trkpt lat="43.41231106825694" lon="11.35182714227215"><ele>468.66666666666663</ele><time>2026-04-04T16:13:45Z</time></trkpt><trkpt lat="43.41247799041936" lon="11.351800165159544"><ele>470.33333333333337</ele><time>2026-04-04T16:13:46Z</time></trkpt><trkpt lat="43.412637388667356" lon="11.351756559795785"><ele>472.0</ele><time>2026-04-04T16:13:47Z</time></trkpt><trkpt lat="43.4127989598175" lon="11.35168312207755"><ele>472.0</ele><time>2026-04-04T16:13:48Z</time></trkpt><trkpt lat="43.41293981968525" lon="11.351576724338425"><ele>472.0</ele><time>2026-04-04T16:13:49Z</time></trkpt><trkpt lat="43.41305550306006" lon="11.351417916653329"><ele>472.0</ele><time>2026-04-04T16:13:50Z</time></trkpt><trkpt lat="43.41316617495036" lon="11.351248757571149"><ele>474.6666666666667</ele><time>2026-04-04T16:13:51Z</time></trkpt><trkpt lat="43.41329744943046" lon="11.351099097784353"><ele>477.33333333333337</ele><time>2026-04-04T16:13:52Z</time></trkpt><trkpt lat="43.413417852569786" lon="11.350928145510839"><ele>480.0</ele><time>2026-04-04T16:13:53Z</time></trkpt><trkpt lat="43.41351924449188" lon="11.350753666306522"><ele>480.0</ele><time>2026-04-04T16:13:54Z</time></trkpt><trkpt lat="43.41362383038069" lon="11.350638620491805"><ele>480.0</ele><time>2026-04-04T16:13:55Z</time></trkpt><trkpt lat="43.413732512200994" lon="11.350498715974707"><ele>480.0</ele><time>2026-04-04T16:13:56Z</time></trkpt><trkpt lat="43.41382947274466" lon="11.350388484128823"><ele>480.0</ele><time>2026-04-04T16:13:57Z</time></trkpt><trkpt lat="43.41395017543086" lon="11.350343376017465"><ele>483.5</ele><time>2026-04-04T16:13:58Z</time></trkpt><trkpt lat="43.414084311359005" lon="11.35035293060744"><ele>487.0</ele><time>2026-04-04T16:13:59Z</time></trkpt><trkpt lat="43.41420104911444" lon="11.350408671933996"><ele>490.5</ele><time>2026-04-04T16:14:00Z</time></trkpt><trkpt lat="43.414308969154376" lon="11.350476754055123"><ele>494.0</ele><time>2026-04-04T16:14:01Z</time></trkpt><trkpt lat="43.4144097483105" lon="11.350526674099138"><ele>494.0</ele><time>2026-04-04T16:14:02Z</time></trkpt><trkpt lat="43.41450649620145" lon="11.350501637464367"><ele>494.0</ele><time>2026-04-04T16:14:03Z</time></trkpt><trkpt lat="43.41457739852168" lon="11.350417499128353"><ele>494.0</ele><time>2026-04-04T16:14:04Z</time></trkpt><trkpt lat="43.414624848475135" lon="11.350296950700402"><ele>494.0</ele><time>2026-04-04T16:14:05Z</time></trkpt><trkpt lat="43.41463797294347" lon="11.35013660207513"><ele>494.0</ele><time>2026-04-04T16:14:06Z</time></trkpt><trkpt lat="43.41464076323578" lon="11.34994985006269"><ele>494.0</ele><time>2026-04-04T16:14:07Z</time></trkpt><trkpt lat="43.4146260337581" lon="11.349742979920393"><ele>494.0</ele><time>2026-04-04T16:14:08Z</time></trkpt><trkpt lat="43.41464565278138" lon="11.349514461426994"><ele>494.0</ele><time>2026-04-04T16:14:09Z</time></trkpt><trkpt lat="43.414674288263036" lon="11.349328702855397"><ele>493.25</ele><time>2026-04-04T16:14:10Z</time></trkpt><trkpt lat="43.41474425373809" lon="11.34919119188689"><ele>492.5</ele><time>2026-04-04T16:14:11Z</time></trkpt><trkpt lat="43.41483447655604" lon="11.349072701812982"><ele>491.75</ele><time>2026-04-04T16:14:12Z</time></trkpt><trkpt lat="43.414935653503704" lon="11.348952024506948"><ele>491.0</ele><time>2026-04-04T16:14:13Z</time></trkpt><trkpt lat="43.41505968289323" lon="11.348880309591832"><ele>491.0</ele><time>2026-04-04T16:14:14Z</time></trkpt><trkpt lat="43.41517239591875" lon="11.348831563517823"><ele>491.0</ele><time>2026-04-04T16:14:15Z</time></trkpt><trkpt lat="43.415288473817824" lon="11.34883833742874"><ele>491.0</ele><time>2026-04-04T16:14:16Z</time></trkpt><trkpt lat="43.41541462859508" lon="11.348891376888762"><ele>491.0</ele><time>2026-04-04T16:14:17Z</time></trkpt><trkpt lat="43.415546935959334" lon="11.348946814031931"><ele>490.66666666666663</ele><time>2026-04-04T16:14:18Z</time></trkpt><trkpt lat="43.4156973741718" lon="11.34897652038022"><ele>490.33333333333337</ele><time>2026-04-04T16:14:19Z</time></trkpt><trkpt lat="43.41585381976407" lon="11.348951280962687"><ele>490.0</ele><time>2026-04-04T16:14:20Z</time></trkpt><trkpt lat="43.41601187265839" lon="11.348909231720592"><ele>494.33333333333337</ele><time>2026-04-04T16:14:21Z</time></trkpt><trkpt lat="43.416180066245815" lon="11.348866403933254"><ele>498.66666666666663</ele><time>2026-04-04T16:14:22Z</time></trkpt><trkpt lat="43.41635228844851" lon="11.348832696421132"><ele>503.0</ele><time>2026-04-04T16:14:23Z</time></trkpt><trkpt lat="43.41651693966003" lon="11.34881543108909"><ele>503.5</ele><time>2026-04-04T16:14:24Z</time></trkpt><trkpt lat="43.41667031813953" lon="11.348806279404565"><ele>504.0</ele><time>2026-04-04T16:14:25Z</time></trkpt><trkpt lat="43.41679628339408" lon="11.34879832863454"><ele>504.5</ele><time>2026-04-04T16:14:26Z</time></trkpt><trkpt lat="43.41691104919934" lon="11.348772828427686"><ele>505.0</ele><time>2026-04-04T16:14:27Z</time></trkpt><trkpt lat="43.417021034037774" lon="11.348719602356852"><ele>505.0</ele><time>2026-04-04T16:14:28Z</time></trkpt><trkpt lat="43.4171174178438" lon="11.34862875458921"><ele>505.0</ele><time>2026-04-04T16:14:29Z</time></trkpt><trkpt lat="43.41718989170209" lon="11.348531533706934"><ele>505.0</ele><time>2026-04-04T16:14:30Z</time></trkpt><trkpt lat="43.4172202714754" lon="11.348402883378501"><ele>505.0</ele><time>2026-04-04T16:14:31Z</time></trkpt><trkpt lat="43.41721973405876" lon="11.348265915303893"><ele>505.0</ele><time>2026-04-04T16:14:32Z</time></trkpt><trkpt lat="43.41716901084384" lon="11.348104079116826"><ele>506.5</ele><time>2026-04-04T16:14:33Z</time></trkpt><trkpt lat="43.41714267969324" lon="11.34791548123127"><ele>508.0</ele><time>2026-04-04T16:14:34Z</time></trkpt><trkpt lat="43.41712131264765" lon="11.34772947750666"><ele>509.5</ele><time>2026-04-04T16:14:35Z</time></trkpt><trkpt lat="43.417126902607556" lon="11.347539637637839"><ele>511.0</ele><time>2026-04-04T16:14:36Z</time></trkpt><trkpt lat="43.41718154451838" lon="11.347381892321337"><ele>511.0</ele><time>2026-04-04T16:14:37Z</time></trkpt><trkpt lat="43.417277451984106" lon="11.34727226392375"><ele>511.0</ele><time>2026-04-04T16:14:38Z</time></trkpt><trkpt lat="43.417399677479004" lon="11.347137231499428"><ele>511.0</ele><time>2026-04-04T16:14:39Z</time></trkpt><trkpt lat="43.417538358323775" lon="11.347001034555433"><ele>511.0</ele><time>2026-04-04T16:14:40Z</time></trkpt><trkpt lat="43.41768434230854" lon="11.346863624785572"><ele>511.0</ele><time>2026-04-04T16:14:41Z</time></trkpt><trkpt lat="43.41783497806923" lon="11.346747923687662"><ele>511.0</ele><time>2026-04-04T16:14:42Z</time></trkpt><trkpt lat="43.41798464982255" lon="11.346656561175473"><ele>507.0</ele><time>2026-04-04T16:14:43Z</time></trkpt><trkpt lat="43.418138210503635" lon="11.346570312816084"><ele>503.0</ele><time>2026-04-04T16:14:44Z</time></trkpt><trkpt lat="43.41829477813975" lon="11.346514419606878"><ele>499.0</ele><time>2026-04-04T16:14:45Z</time></trkpt><trkpt lat="43.418454706293616" lon="11.346495366156292"><ele>499.0</ele><time>2026-04-04T16:14:46Z</time></trkpt><trkpt lat="43.418603851944845" lon="11.346450022980015"><ele>499.0</ele><time>2026-04-04T16:14:47Z</time></trkpt><trkpt lat="43.418743788072135" lon="11.346464971577038"><ele>499.0</ele><time>2026-04-04T16:14:48Z</time></trkpt><trkpt lat="43.41887861685642" lon="11.346526270359403"><ele>499.0</ele><time>2026-04-04T16:14:49Z</time></trkpt><trkpt lat="43.41899452579803" lon="11.346614343635988"><ele>499.4</ele><time>2026-04-04T16:14:50Z</time></trkpt><trkpt lat="43.41909189677086" lon="11.346699478095003"><ele>499.79999999999995</ele><time>2026-04-04T16:14:51Z</time></trkpt><trkpt lat="43.419179972380036" lon="11.346757748344968"><ele>500.20000000000005</ele><time>2026-04-04T16:14:52Z</time></trkpt><trkpt lat="43.41925591745839" lon="11.346845323064949"><ele>500.6</ele><time>2026-04-04T16:14:53Z</time></trkpt><trkpt lat="43.41935264943967" lon="11.346916769492923"><ele>501.0</ele><time>2026-04-04T16:14:54Z</time></trkpt><trkpt lat="43.41945976844204" lon="11.346978792714232"><ele>501.0</ele><time>2026-04-04T16:14:55Z</time></trkpt><trkpt lat="43.41957233420788" lon="11.347015657189608"><ele>501.0</ele><time>2026-04-04T16:14:56Z</time></trkpt><trkpt lat="43.41968391794863" lon="11.347020258109367"><ele>501.0</ele><time>2026-04-04T16:14:57Z</time></trkpt><trkpt lat="43.41981003319866" lon="11.346989995565576"><ele>501.0</ele><time>2026-04-04T16:14:58Z</time></trkpt><trkpt lat="43.419961319665035" lon="11.346973265144147"><ele>500.0</ele><time>2026-04-04T16:14:59Z</time></trkpt><trkpt lat="43.420100611314346" lon="11.34701645650014"><ele>499.0</ele><time>2026-04-04T16:15:00Z</time></trkpt><trkpt lat="43.42021429238903" lon="11.347091766976112"><ele>498.0</ele><time>2026-04-04T16:15:01Z</time></trkpt><trkpt lat="43.4203145505824" lon="11.347167722268734"><ele>497.0</ele><time>2026-04-04T16:15:02Z</time></trkpt><trkpt lat="43.42040257228695" lon="11.34724025779517"><ele>498.0</ele><time>2026-04-04T16:15:03Z</time></trkpt><trkpt lat="43.42049151541654" lon="11.34729304499977"><ele>499.0</ele><time>2026-04-04T16:15:04Z</time></trkpt><trkpt lat="43.420596191266526" lon="11.347301459304528"><ele>500.0</ele><time>2026-04-04T16:15:05Z</time></trkpt><trkpt lat="43.420714875836666" lon="11.347284152490445"><ele>501.0</ele><time>2026-04-04T16:15:06Z</time></trkpt><trkpt lat="43.42084945224819" lon="11.347280623815566"><ele>501.0</ele><time>2026-04-04T16:15:07Z</time></trkpt><trkpt lat="43.42097691623567" lon="11.347291542754673"><ele>501.0</ele><time>2026-04-04T16:15:08Z</time></trkpt><trkpt lat="43.42109823099733" lon="11.34732866576624"><ele>501.0</ele><time>2026-04-04T16:15:09Z</time></trkpt><trkpt lat="43.42120343467151" lon="11.347380441711582"><ele>501.0</ele><time>2026-04-04T16:15:10Z</time></trkpt><trkpt lat="43.42128828596314" lon="11.347462414170527"><ele>501.0</ele><time>2026-04-04T16:15:11Z</time></trkpt><trkpt lat="43.4213402532691" lon="11.34755106871301"><ele>501.0</ele><time>2026-04-04T16:15:12Z</time></trkpt><trkpt lat="43.42136999127859" lon="11.347637168718407"><ele>501.0</ele><time>2026-04-04T16:15:13Z</time></trkpt><trkpt lat="43.42139115729567" lon="11.347777618783331"><ele>501.0</ele><time>2026-04-04T16:15:15Z</time></trkpt><trkpt lat="43.42138921272835" lon="11.347948625591254"><ele>501.0</ele><time>2026-04-04T16:15:17Z</time></trkpt><trkpt lat="43.421384175837815" lon="11.348061136284393"><ele>501.6</ele><time>2026-04-04T16:15:18Z</time></trkpt><trkpt lat="43.4213789209488" lon="11.34818880059066"><ele>502.20000000000005</ele><time>2026-04-04T16:15:19Z</time></trkpt><trkpt lat="43.42136664789311" lon="11.348321389280107"><ele>502.79999999999995</ele><time>2026-04-04T16:15:20Z</time></trkpt><trkpt lat="43.42134089287118" lon="11.348471245109677"><ele>503.4</ele><time>2026-04-04T16:15:21Z</time></trkpt><trkpt lat="43.42132134247992" lon="11.34864552399643"><ele>504.0</ele><time>2026-04-04T16:15:22Z</time></trkpt><trkpt lat="43.42130847387775" lon="11.348832534567252"><ele>502.5</ele><time>2026-04-04T16:15:23Z</time></trkpt><trkpt lat="43.42130957710135" lon="11.349012067943569"><ele>501.0</ele><time>2026-04-04T16:15:24Z</time></trkpt><trkpt lat="43.42131193945045" lon="11.349181520137998"><ele>499.5</ele><time>2026-04-04T16:15:25Z</time></trkpt><trkpt lat="43.42132273233542" lon="11.349327103146301"><ele>498.0</ele><time>2026-04-04T16:15:26Z</time></trkpt><trkpt lat="43.421355428250905" lon="11.349447135864054"><ele>498.0</ele><time>2026-04-04T16:15:27Z</time></trkpt><trkpt lat="43.421384688655415" lon="11.349554826768157"><ele>498.0</ele><time>2026-04-04T16:15:28Z</time></trkpt><trkpt lat="43.421487568960835" lon="11.349585139079453"><ele>498.0</ele><time>2026-04-04T16:15:29Z</time></trkpt><trkpt lat="43.42156561654007" lon="11.349598718846071"><ele>498.0</ele><time>2026-04-04T16:15:30Z</time></trkpt><trkpt lat="43.42165046434525" lon="11.349576208909182"><ele>498.0</ele><time>2026-04-04T16:15:31Z</time></trkpt><trkpt lat="43.42173396873101" lon="11.349549073421178"><ele>498.0</ele><time>2026-04-04T16:15:32Z</time></trkpt><trkpt lat="43.421831008560126" lon="11.349534109231476"><ele>498.0</ele><time>2026-04-04T16:15:33Z</time></trkpt><trkpt lat="43.42192416773624" lon="11.349574291275882"><ele>497.99999999999994</ele><time>2026-04-04T16:15:34Z</time></trkpt><trkpt lat="43.42200992587134" lon="11.349637923508178"><ele>497.99999999999994</ele><time>2026-04-04T16:15:35Z</time></trkpt><trkpt lat="43.42209724143864" lon="11.34971964147634"><ele>498.0</ele><time>2026-04-04T16:15:36Z</time></trkpt><trkpt lat="43.42217731587012" lon="11.349825889615476"><ele>498.0</ele><time>2026-04-04T16:15:37Z</time></trkpt><trkpt lat="43.422264536029886" lon="11.349905197686635"><ele>495.2</ele><time>2026-04-04T16:15:38Z</time></trkpt><trkpt lat="43.42236377137288" lon="11.349965438426018"><ele>492.4</ele><time>2026-04-04T16:15:39Z</time></trkpt><trkpt lat="43.42245201070895" lon="11.350023750238508"><ele>489.59999999999997</ele><time>2026-04-04T16:15:40Z</time></trkpt><trkpt lat="43.422545474201804" lon="11.35008186938976"><ele>486.79999999999995</ele><time>2026-04-04T16:15:41Z</time></trkpt><trkpt lat="43.422635390867136" lon="11.350149343862284"><ele>484.0</ele><time>2026-04-04T16:15:42Z</time></trkpt><trkpt lat="43.42270403700188" lon="11.350233608558558"><ele>484.00000000000006</ele><time>2026-04-04T16:15:43Z</time></trkpt><trkpt lat="43.42275876066643" lon="11.350315644622606"><ele>484.0</ele><time>2026-04-04T16:15:44Z</time></trkpt><trkpt lat="43.42279725732805" lon="11.350416377862613"><ele>484.0</ele><time>2026-04-04T16:15:45Z</time></trkpt><trkpt lat="43.42281008254343" lon="11.35051657634491"><ele>484.0</ele><time>2026-04-04T16:15:46Z</time></trkpt><trkpt lat="43.42284515763913" lon="11.35061249492117"><ele>484.00000000000006</ele><time>2026-04-04T16:15:47Z</time></trkpt><trkpt lat="43.42290828929563" lon="11.350706338762702"><ele>484.0</ele><time>2026-04-04T16:15:49Z</time></trkpt><trkpt lat="43.422973734457926" lon="11.35070975128871"><ele>482.6666666666667</ele><time>2026-04-04T16:15:50Z</time></trkpt><trkpt lat="43.4230306259635" lon="11.350650026277776"><ele>481.33333333333337</ele><time>2026-04-04T16:15:51Z</time></trkpt><trkpt lat="43.42310586540517" lon="11.350556166803107"><ele>480.0</ele><time>2026-04-04T16:15:53Z</time></trkpt><trkpt lat="43.42315915295886" lon="11.35050562310825"><ele>478.66666666666663</ele><time>2026-04-04T16:15:54Z</time></trkpt><trkpt lat="43.423214944954495" lon="11.35043512662887"><ele>477.3333333333333</ele><time>2026-04-04T16:15:55Z</time></trkpt><trkpt lat="43.42328313989541" lon="11.350384489751137"><ele>476.0</ele><time>2026-04-04T16:15:56Z</time></trkpt><trkpt lat="43.423361398395876" lon="11.350338213536217"><ele>476.0</ele><time>2026-04-04T16:15:57Z</time></trkpt><trkpt lat="43.42344865988312" lon="11.350299112504713"><ele>476.0</ele><time>2026-04-04T16:15:58Z</time></trkpt><trkpt lat="43.42356447059237" lon="11.350252696883937"><ele>476.0</ele><time>2026-04-04T16:15:59Z</time></trkpt><trkpt lat="43.42365587766715" lon="11.350220981916168"><ele>476.0</ele><time>2026-04-04T16:16:00Z</time></trkpt><trkpt lat="43.42373535367175" lon="11.350206474057579"><ele>476.0</ele><time>2026-04-04T16:16:01Z</time></trkpt><trkpt lat="43.423817110646844" lon="11.350206142576422"><ele>473.99999999999994</ele><time>2026-04-04T16:16:02Z</time></trkpt><trkpt lat="43.42388574282114" lon="11.350236801340523"><ele>472.0</ele><time>2026-04-04T16:16:03Z</time></trkpt><trkpt lat="43.42394851559235" lon="11.350269867561583"><ele>470.0</ele><time>2026-04-04T16:16:04Z</time></trkpt><trkpt lat="43.42396723681817" lon="11.350362142607453"><ele>468.0</ele><time>2026-04-04T16:16:05Z</time></trkpt><trkpt lat="43.423979174081104" lon="11.350466952592347"><ele>465.99999999999994</ele><time>2026-04-04T16:16:06Z</time></trkpt><trkpt lat="43.423973985734946" lon="11.35061006738306"><ele>464.0</ele><time>2026-04-04T16:16:07Z</time></trkpt><trkpt lat="43.423982313774474" lon="11.350773264589998"><ele>461.25</ele><time>2026-04-04T16:16:08Z</time></trkpt><trkpt lat="43.423972903580506" lon="11.350942360710183"><ele>458.5</ele><time>2026-04-04T16:16:09Z</time></trkpt><trkpt lat="43.42394199361362" lon="11.35110897967823"><ele>455.75</ele><time>2026-04-04T16:16:10Z</time></trkpt><trkpt lat="43.42391466356387" lon="11.351275324646926"><ele>453.0</ele><time>2026-04-04T16:16:11Z</time></trkpt><trkpt lat="43.42387861638905" lon="11.351432433498028"><ele>452.79999999999995</ele><time>2026-04-04T16:16:12Z</time></trkpt><trkpt lat="43.423853731634765" lon="11.351580349407927"><ele>452.59999999999997</ele><time>2026-04-04T16:16:13Z</time></trkpt><trkpt lat="43.42379241113426" lon="11.351708814038718"><ele>452.40000000000003</ele><time>2026-04-04T16:16:14Z</time></trkpt><trkpt lat="43.42374853248583" lon="11.351846009120361"><ele>452.20000000000005</ele><time>2026-04-04T16:16:15Z</time></trkpt><trkpt lat="43.42370583470473" lon="11.351958958567984"><ele>452.0</ele><time>2026-04-04T16:16:16Z</time></trkpt><trkpt lat="43.423676399557245" lon="11.352068092677507"><ele>451.20000000000005</ele><time>2026-04-04T16:16:17Z</time></trkpt><trkpt lat="43.423668566287475" lon="11.352171668135314"><ele>450.40000000000003</ele><time>2026-04-04T16:16:18Z</time></trkpt><trkpt lat="43.42366542555018" lon="11.352274686540227"><ele>449.59999999999997</ele><time>2026-04-04T16:16:19Z</time></trkpt><trkpt lat="43.423674294191045" lon="11.35239556462651"><ele>448.79999999999995</ele><time>2026-04-04T16:16:20Z</time></trkpt><trkpt lat="43.42368428603288" lon="11.352549055772963"><ele>448.0</ele><time>2026-04-04T16:16:21Z</time></trkpt><trkpt lat="43.423704781572425" lon="11.35273438477003"><ele>446.75</ele><time>2026-04-04T16:16:22Z</time></trkpt><trkpt lat="43.42371103556847" lon="11.35292898445202"><ele>445.5</ele><time>2026-04-04T16:16:23Z</time></trkpt><trkpt lat="43.42373296953486" lon="11.35310924994258"><ele>444.25</ele><time>2026-04-04T16:16:24Z</time></trkpt><trkpt lat="43.423753177368134" lon="11.353265580264287"><ele>443.0</ele><time>2026-04-04T16:16:25Z</time></trkpt><trkpt lat="43.423774590404214" lon="11.353421350466467"><ele>443.79999999999995</ele><time>2026-04-04T16:16:26Z</time></trkpt><trkpt lat="43.42380062107044" lon="11.353567239159553"><ele>444.59999999999997</ele><time>2026-04-04T16:16:27Z</time></trkpt><trkpt lat="43.4238208442716" lon="11.353708084037605"><ele>445.40000000000003</ele><time>2026-04-04T16:16:28Z</time></trkpt><trkpt lat="43.42383324256701" lon="11.35384752646281"><ele>446.20000000000005</ele><time>2026-04-04T16:16:29Z</time></trkpt><trkpt lat="43.423844215824396" lon="11.353980048556078"><ele>447.0</ele><time>2026-04-04T16:16:30Z</time></trkpt><trkpt lat="43.42384510133677" lon="11.354093542946558"><ele>445.0</ele><time>2026-04-04T16:16:31Z</time></trkpt><trkpt lat="43.42386454593193" lon="11.354200357083421"><ele>443.0</ele><time>2026-04-04T16:16:32Z</time></trkpt><trkpt lat="43.42390545687582" lon="11.354290075716781"><ele>441.0</ele><time>2026-04-04T16:16:33Z</time></trkpt><trkpt lat="43.42394833543668" lon="11.354379125632441"><ele>439.0</ele><time>2026-04-04T16:16:34Z</time></trkpt><trkpt lat="43.42399543826409" lon="11.354467536121673"><ele>437.0</ele><time>2026-04-04T16:16:35Z</time></trkpt><trkpt lat="43.424045014668565" lon="11.354559520729188"><ele>435.0</ele><time>2026-04-04T16:16:36Z</time></trkpt><trkpt lat="43.424095137281775" lon="11.354644288312473"><ele>431.8</ele><time>2026-04-04T16:16:37Z</time></trkpt><trkpt lat="43.424151212870385" lon="11.354730205655567"><ele>428.6</ele><time>2026-04-04T16:16:38Z</time></trkpt><trkpt lat="43.424224604802085" lon="11.35478767332078"><ele>425.4</ele><time>2026-04-04T16:16:39Z</time></trkpt><trkpt lat="43.424290052444896" lon="11.354811661695623"><ele>422.2</ele><time>2026-04-04T16:16:40Z</time></trkpt><trkpt lat="43.424411119434254" lon="11.354839532994294"><ele>419.0</ele><time>2026-04-04T16:16:41Z</time></trkpt><trkpt lat="43.42454987288037" lon="11.354843849036834"><ele>419.8333333333333</ele><time>2026-04-04T16:16:42Z</time></trkpt><trkpt lat="43.424672921571286" lon="11.354856166273397"><ele>420.66666666666663</ele><time>2026-04-04T16:16:43Z</time></trkpt><trkpt lat="43.424780878437105" lon="11.354869266081376"><ele>421.5</ele><time>2026-04-04T16:16:44Z</time></trkpt><trkpt lat="43.424854350731444" lon="11.35486802036345"><ele>422.33333333333337</ele><time>2026-04-04T16:16:45Z</time></trkpt><trkpt lat="43.42492360496898" lon="11.354854127874969"><ele>423.1666666666667</ele><time>2026-04-04T16:16:46Z</time></trkpt><trkpt lat="43.424975994476746" lon="11.35480285653611"><ele>424.0</ele><time>2026-04-04T16:16:47Z</time></trkpt><trkpt lat="43.42501864142028" lon="11.354639812189872"><ele>424.2</ele><time>2026-04-04T16:16:49Z</time></trkpt><trkpt lat="43.42504352985231" lon="11.354556392800005"><ele>424.4</ele><time>2026-04-04T16:16:50Z</time></trkpt><trkpt lat="43.425077641047686" lon="11.354463452097251"><ele>424.6</ele><time>2026-04-04T16:16:51Z</time></trkpt><trkpt lat="43.4251695498112" lon="11.354428066181047"><ele>424.8</ele><time>2026-04-04T16:16:52Z</time></trkpt><trkpt lat="43.42527923539993" lon="11.354420414213646"><ele>425.0</ele><time>2026-04-04T16:16:53Z</time></trkpt><trkpt lat="43.425392147343764" lon="11.354411201242167"><ele>421.4</ele><time>2026-04-04T16:16:54Z</time></trkpt><trkpt lat="43.42549528029822" lon="11.354391596610146"><ele>417.8</ele><time>2026-04-04T16:16:55Z</time></trkpt><trkpt lat="43.42558616519997" lon="11.354339444421491"><ele>414.20000000000005</ele><time>2026-04-04T16:16:56Z</time></trkpt><trkpt lat="43.425654188499145" lon="11.354251630478931"><ele>410.6</ele><time>2026-04-04T16:16:57Z</time></trkpt><trkpt lat="43.425710509240346" lon="11.354075165335358"><ele>407.0</ele><time>2026-04-04T16:16:58Z</time></trkpt><trkpt lat="43.425753757446884" lon="11.353944954317242"><ele>405.0</ele><time>2026-04-04T16:16:59Z</time></trkpt><trkpt lat="43.42579750670208" lon="11.353778406463796"><ele>403.0</ele><time>2026-04-04T16:17:00Z</time></trkpt><trkpt lat="43.42579873117957" lon="11.353610310673158"><ele>401.0</ele><time>2026-04-04T16:17:01Z</time></trkpt><trkpt lat="43.42578485033201" lon="11.353446808799433"><ele>399.0</ele><time>2026-04-04T16:17:02Z</time></trkpt><trkpt lat="43.425774219891245" lon="11.353308318430992"><ele>399.0</ele><time>2026-04-04T16:17:03Z</time></trkpt><trkpt lat="43.42577155046851" lon="11.353173547938294"><ele>399.0</ele><time>2026-04-04T16:17:04Z</time></trkpt><trkpt lat="43.42577978981595" lon="11.353042245793405"><ele>399.0</ele><time>2026-04-04T16:17:05Z</time></trkpt><trkpt lat="43.42577627853922" lon="11.352910072459988"><ele>399.0</ele><time>2026-04-04T16:17:06Z</time></trkpt><trkpt lat="43.42580463635604" lon="11.352765867155064"><ele>399.0</ele><time>2026-04-04T16:17:07Z</time></trkpt><trkpt lat="43.42582896056753" lon="11.352562465414355"><ele>399.4</ele><time>2026-04-04T16:17:08Z</time></trkpt><trkpt lat="43.42586573541482" lon="11.352408758021104"><ele>399.79999999999995</ele><time>2026-04-04T16:17:09Z</time></trkpt><trkpt lat="43.425902608739264" lon="11.352269422127705"><ele>400.20000000000005</ele><time>2026-04-04T16:17:10Z</time></trkpt><trkpt lat="43.425952751949765" lon="11.35215539733274"><ele>400.6</ele><time>2026-04-04T16:17:11Z</time></trkpt><trkpt lat="43.42603350326539" lon="11.352087696131509"><ele>401.0</ele><time>2026-04-04T16:17:12Z</time></trkpt><trkpt lat="43.42610276683455" lon="11.35199803331618"><ele>402.0</ele><time>2026-04-04T16:17:13Z</time></trkpt><trkpt lat="43.42619667080882" lon="11.351944928507919"><ele>403.0</ele><time>2026-04-04T16:17:14Z</time></trkpt><trkpt lat="43.42628503261453" lon="11.351865404151063"><ele>404.0</ele><time>2026-04-04T16:17:15Z</time></trkpt><trkpt lat="43.426369620832524" lon="11.351766565634666"><ele>405.0</ele><time>2026-04-04T16:17:16Z</time></trkpt><trkpt lat="43.42645472836427" lon="11.351655580219312"><ele>406.0</ele><time>2026-04-04T16:17:17Z</time></trkpt><trkpt lat="43.42654994538409" lon="11.351568883375126"><ele>403.6</ele><time>2026-04-04T16:17:18Z</time></trkpt><trkpt lat="43.42661927462098" lon="11.351446341157613"><ele>401.20000000000005</ele><time>2026-04-04T16:17:19Z</time></trkpt><trkpt lat="43.426657914421995" lon="11.35135042770455"><ele>398.79999999999995</ele><time>2026-04-04T16:17:20Z</time></trkpt><trkpt lat="43.42669357939471" lon="11.351229609856736"><ele>396.4</ele><time>2026-04-04T16:17:21Z</time></trkpt><trkpt lat="43.426740580579214" lon="11.351133557872558"><ele>394.0</ele><time>2026-04-04T16:17:22Z</time></trkpt><trkpt lat="43.426832777797934" lon="11.350948693941021"><ele>394.00000000000006</ele><time>2026-04-04T16:17:24Z</time></trkpt><trkpt lat="43.426853407793544" lon="11.350813896348287"><ele>394.0</ele><time>2026-04-04T16:17:25Z</time></trkpt><trkpt lat="43.42689530467703" lon="11.350714455063983"><ele>394.0</ele><time>2026-04-04T16:17:26Z</time></trkpt><trkpt lat="43.42694426210531" lon="11.35062448685516"><ele>394.0</ele><time>2026-04-04T16:17:27Z</time></trkpt><trkpt lat="43.42699696940937" lon="11.35055594101771"><ele>394.00000000000006</ele><time>2026-04-04T16:17:28Z</time></trkpt><trkpt lat="43.427062304737746" lon="11.350501019988362"><ele>394.0</ele><time>2026-04-04T16:17:29Z</time></trkpt><trkpt lat="43.42718774788614" lon="11.350433943718821"><ele>391.33333333333337</ele><time>2026-04-04T16:17:31Z</time></trkpt><trkpt lat="43.42727650419188" lon="11.350404795371775"><ele>388.6666666666667</ele><time>2026-04-04T16:17:32Z</time></trkpt><trkpt lat="43.42736461870568" lon="11.350380132994994"><ele>386.0</ele><time>2026-04-04T16:17:33Z</time></trkpt><trkpt lat="43.4274468432569" lon="11.350356523872497"><ele>383.33333333333337</ele><time>2026-04-04T16:17:34Z</time></trkpt><trkpt lat="43.42753305514393" lon="11.35032846499726"><ele>380.6666666666667</ele><time>2026-04-04T16:17:35Z</time></trkpt><trkpt lat="43.427617031131376" lon="11.35030012553281"><ele>378.0</ele><time>2026-04-04T16:17:36Z</time></trkpt><trkpt lat="43.42769745393364" lon="11.350257761297831"><ele>378.0</ele><time>2026-04-04T16:17:37Z</time></trkpt><trkpt lat="43.42778192014302" lon="11.350234101695301"><ele>378.0</ele><time>2026-04-04T16:17:38Z</time></trkpt><trkpt lat="43.42785123862226" lon="11.35018070168478"><ele>378.0</ele><time>2026-04-04T16:17:39Z</time></trkpt><trkpt lat="43.42792111246699" lon="11.35012010632182"><ele>378.0</ele><time>2026-04-04T16:17:40Z</time></trkpt><trkpt lat="43.4279996676636" lon="11.350075978561614"><ele>378.0</ele><time>2026-04-04T16:17:41Z</time></trkpt><trkpt lat="43.42808225514597" lon="11.350038218291854"><ele>378.0</ele><time>2026-04-04T16:17:42Z</time></trkpt><trkpt lat="43.42818048800735" lon="11.350018934825428"><ele>377.75</ele><time>2026-04-04T16:17:43Z</time></trkpt><trkpt lat="43.42830145356455" lon="11.350013415466215"><ele>377.5</ele><time>2026-04-04T16:17:44Z</time></trkpt><trkpt lat="43.428411572681526" lon="11.350027410939916"><ele>377.25</ele><time>2026-04-04T16:17:45Z</time></trkpt><trkpt lat="43.42851180161796" lon="11.350064976588351"><ele>377.0</ele><time>2026-04-04T16:17:46Z</time></trkpt><trkpt lat="43.428610796799234" lon="11.350147040730182"><ele>377.0</ele><time>2026-04-04T16:17:47Z</time></trkpt><trkpt lat="43.42873026394502" lon="11.350258318601087"><ele>377.0</ele><time>2026-04-04T16:17:48Z</time></trkpt><trkpt lat="43.428872527096246" lon="11.350374295619284"><ele>377.0</ele><time>2026-04-04T16:17:49Z</time></trkpt><trkpt lat="43.42900293748272" lon="11.350468405674532"><ele>376.0</ele><time>2026-04-04T16:17:50Z</time></trkpt><trkpt lat="43.42913306333763" lon="11.3505422919932"><ele>375.0</ele><time>2026-04-04T16:17:51Z</time></trkpt><trkpt lat="43.4292612287385" lon="11.350634281291748"><ele>374.0</ele><time>2026-04-04T16:17:52Z</time></trkpt><trkpt lat="43.429392961608166" lon="11.350731304211237"><ele>373.0</ele><time>2026-04-04T16:17:53Z</time></trkpt><trkpt lat="43.429512138813635" lon="11.35082727813249"><ele>373.0</ele><time>2026-04-04T16:17:54Z</time></trkpt><trkpt lat="43.429617752642926" lon="11.350893312710035"><ele>373.0</ele><time>2026-04-04T16:17:55Z</time></trkpt><trkpt lat="43.42971797786498" lon="11.350905867581567"><ele>373.0</ele><time>2026-04-04T16:17:56Z</time></trkpt><trkpt lat="43.42980396165029" lon="11.350873716633695"><ele>373.0</ele><time>2026-04-04T16:17:57Z</time></trkpt><trkpt lat="43.429914133745605" lon="11.35086623562864"><ele>373.0</ele><time>2026-04-04T16:17:58Z</time></trkpt><trkpt lat="43.43003732210197" lon="11.350874777842938"><ele>374.5</ele><time>2026-04-04T16:17:59Z</time></trkpt><trkpt lat="43.430165352900545" lon="11.350862797524503"><ele>376.0</ele><time>2026-04-04T16:18:00Z</time></trkpt><trkpt lat="43.430316642929476" lon="11.350839190176178"><ele>377.5</ele><time>2026-04-04T16:18:01Z</time></trkpt><trkpt lat="43.4304498663651" lon="11.35088209862314"><ele>379.0</ele><time>2026-04-04T16:18:02Z</time></trkpt><trkpt lat="43.430566751326246" lon="11.350914443179938"><ele>379.75</ele><time>2026-04-04T16:18:03Z</time></trkpt><trkpt lat="43.4306836118796" lon="11.350937041384844"><ele>380.5</ele><time>2026-04-04T16:18:04Z</time></trkpt><trkpt lat="43.43079735401906" lon="11.350947442405134"><ele>381.25</ele><time>2026-04-04T16:18:05Z</time></trkpt><trkpt lat="43.43090644717264" lon="11.350925275061597"><ele>382.0</ele><time>2026-04-04T16:18:06Z</time></trkpt><trkpt lat="43.43101838162557" lon="11.350877292774317"><ele>382.0</ele><time>2026-04-04T16:18:07Z</time></trkpt><trkpt lat="43.43113533254818" lon="11.350802762894592"><ele>382.0</ele><time>2026-04-04T16:18:08Z</time></trkpt><trkpt lat="43.43123800207847" lon="11.350710131803066"><ele>382.0</ele><time>2026-04-04T16:18:09Z</time></trkpt><trkpt lat="43.431321705684496" lon="11.350671306911542"><ele>382.0</ele><time>2026-04-04T16:18:10Z</time></trkpt><trkpt lat="43.431424507269" lon="11.350679352232065"><ele>382.0</ele><time>2026-04-04T16:18:12Z</time></trkpt><trkpt lat="43.43147120414771" lon="11.35074020180934"><ele>384.3333333333333</ele><time>2026-04-04T16:18:13Z</time></trkpt><trkpt lat="43.431515972031356" lon="11.350813743528075"><ele>386.66666666666663</ele><time>2026-04-04T16:18:14Z</time></trkpt><trkpt lat="43.43156281083898" lon="11.350889937570878"><ele>389.0</ele><time>2026-04-04T16:18:15Z</time></trkpt><trkpt lat="43.431605187324166" lon="11.35096626829682"><ele>391.3333333333333</ele><time>2026-04-04T16:18:16Z</time></trkpt><trkpt lat="43.431659843676755" lon="11.35103192094246"><ele>393.6666666666667</ele><time>2026-04-04T16:18:17Z</time></trkpt><trkpt lat="43.431733555440594" lon="11.351123145910314"><ele>396.0</ele><time>2026-04-04T16:18:18Z</time></trkpt><trkpt lat="43.43181295494618" lon="11.351196329592115"><ele>396.0</ele><time>2026-04-04T16:18:19Z</time></trkpt><trkpt lat="43.43186968322255" lon="11.351272885356531"><ele>396.0</ele><time>2026-04-04T16:18:20Z</time></trkpt><trkpt lat="43.431988013821666" lon="11.351354524994111"><ele>396.0</ele><time>2026-04-04T16:18:22Z</time></trkpt><trkpt lat="43.432079708603" lon="11.351344785435057"><ele>396.0</ele><time>2026-04-04T16:18:23Z</time></trkpt><trkpt lat="43.43217758266485" lon="11.3513897438254"><ele>396.0</ele><time>2026-04-04T16:18:24Z</time></trkpt><trkpt lat="43.43229034795931" lon="11.351408091093143"><ele>394.8</ele><time>2026-04-04T16:18:25Z</time></trkpt><trkpt lat="43.432404992215695" lon="11.351418747672398"><ele>393.6</ele><time>2026-04-04T16:18:26Z</time></trkpt><trkpt lat="43.432513231453434" lon="11.351431663648953"><ele>392.4</ele><time>2026-04-04T16:18:27Z</time></trkpt><trkpt lat="43.43262383075453" lon="11.351425655836564"><ele>391.2</ele><time>2026-04-04T16:18:28Z</time></trkpt><trkpt lat="43.432708582476494" lon="11.351398155727354"><ele>390.0</ele><time>2026-04-04T16:18:29Z</time></trkpt><trkpt lat="43.43279528592936" lon="11.3513876496498"><ele>391.75</ele><time>2026-04-04T16:18:30Z</time></trkpt><trkpt lat="43.43288975748731" lon="11.351329252729442"><ele>393.5</ele><time>2026-04-04T16:18:31Z</time></trkpt><trkpt lat="43.43298753473905" lon="11.351260041852617"><ele>395.25</ele><time>2026-04-04T16:18:32Z</time></trkpt><trkpt lat="43.43311079311576" lon="11.35115804442956"><ele>397.0</ele><time>2026-04-04T16:18:33Z</time></trkpt><trkpt lat="43.43322390132403" lon="11.351041902446335"><ele>393.0</ele><time>2026-04-04T16:18:34Z</time></trkpt><trkpt lat="43.43334689518856" lon="11.350946843004868"><ele>389.0</ele><time>2026-04-04T16:18:35Z</time></trkpt><trkpt lat="43.43345631055834" lon="11.350837790938645"><ele>385.0</ele><time>2026-04-04T16:18:36Z</time></trkpt><trkpt lat="43.433564484350676" lon="11.350719697937937"><ele>381.0</ele><time>2026-04-04T16:18:37Z</time></trkpt><trkpt lat="43.43366967513084" lon="11.350600809135745"><ele>381.25</ele><time>2026-04-04T16:18:38Z</time></trkpt><trkpt lat="43.43377238258396" lon="11.350500315791304"><ele>381.5</ele><time>2026-04-04T16:18:39Z</time></trkpt><trkpt lat="43.43387067044219" lon="11.350385721276965"><ele>381.75</ele><time>2026-04-04T16:18:40Z</time></trkpt><trkpt lat="43.433955893371916" lon="11.350268325685171"><ele>382.0</ele><time>2026-04-04T16:18:41Z</time></trkpt><trkpt lat="43.43404205789232" lon="11.350164104346346"><ele>382.0</ele><time>2026-04-04T16:18:42Z</time></trkpt><trkpt lat="43.43412768409348" lon="11.35006794981741"><ele>382.0</ele><time>2026-04-04T16:18:43Z</time></trkpt><trkpt lat="43.43419373435355" lon="11.349978995993707"><ele>382.0</ele><time>2026-04-04T16:18:44Z</time></trkpt><trkpt lat="43.43425470141702" lon="11.34989195272868"><ele>382.0</ele><time>2026-04-04T16:18:45Z</time></trkpt><trkpt lat="43.434317959723735" lon="11.349811365363376"><ele>382.0</ele><time>2026-04-04T16:18:46Z</time></trkpt><trkpt lat="43.434375307501185" lon="11.349688743262723"><ele>384.5</ele><time>2026-04-04T16:18:47Z</time></trkpt><trkpt lat="43.43441445794143" lon="11.349529857688385"><ele>387.0</ele><time>2026-04-04T16:18:48Z</time></trkpt><trkpt lat="43.43448323931959" lon="11.349370990027472"><ele>389.5</ele><time>2026-04-04T16:18:49Z</time></trkpt><trkpt lat="43.434538418051524" lon="11.349211939691276"><ele>392.0</ele><time>2026-04-04T16:18:50Z</time></trkpt><trkpt lat="43.43458977508231" lon="11.349064596736673"><ele>391.99999999999994</ele><time>2026-04-04T16:18:51Z</time></trkpt><trkpt lat="43.43463491180905" lon="11.348946508053583"><ele>392.0</ele><time>2026-04-04T16:18:52Z</time></trkpt><trkpt lat="43.43468354079066" lon="11.348841730078616"><ele>392.0</ele><time>2026-04-04T16:18:53Z</time></trkpt><trkpt lat="43.43472982324855" lon="11.348748792305509"><ele>392.0</ele><time>2026-04-04T16:18:54Z</time></trkpt><trkpt lat="43.43481307998914" lon="11.348719553927971"><ele>391.99999999999994</ele><time>2026-04-04T16:18:55Z</time></trkpt><trkpt lat="43.434889913302" lon="11.348720083253525"><ele>392.0</ele><time>2026-04-04T16:18:56Z</time></trkpt><trkpt lat="43.43495570484658" lon="11.34874210081332"><ele>390.66666666666663</ele><time>2026-04-04T16:18:57Z</time></trkpt><trkpt lat="43.43502247250071" lon="11.348775516277101"><ele>389.3333333333333</ele><time>2026-04-04T16:18:58Z</time></trkpt><trkpt lat="43.43508463121331" lon="11.348815165148848"><ele>388.0</ele><time>2026-04-04T16:18:59Z</time></trkpt><trkpt lat="43.435208944497035" lon="11.34885221218449"><ele>386.66666666666663</ele><time>2026-04-04T16:19:01Z</time></trkpt><trkpt lat="43.43527492089332" lon="11.348830882206183"><ele>385.3333333333333</ele><time>2026-04-04T16:19:02Z</time></trkpt><trkpt lat="43.435357088608114" lon="11.34880752978612"><ele>384.0</ele><time>2026-04-04T16:19:03Z</time></trkpt><trkpt lat="43.4354411850141" lon="11.348784462970078"><ele>383.8333333333333</ele><time>2026-04-04T16:19:04Z</time></trkpt><trkpt lat="43.43552230799396" lon="11.348751639511114"><ele>383.6666666666667</ele><time>2026-04-04T16:19:05Z</time></trkpt><trkpt lat="43.43559915222059" lon="11.348712782209859"><ele>383.5</ele><time>2026-04-04T16:19:06Z</time></trkpt><trkpt lat="43.43567620358616" lon="11.348678704675592"><ele>383.33333333333337</ele><time>2026-04-04T16:19:07Z</time></trkpt><trkpt lat="43.43576280544541" lon="11.348666234433445"><ele>383.1666666666667</ele><time>2026-04-04T16:19:08Z</time></trkpt><trkpt lat="43.43585103879692" lon="11.348675426529955"><ele>383.0</ele><time>2026-04-04T16:19:09Z</time></trkpt><trkpt lat="43.43594246746375" lon="11.348706859705622"><ele>383.0</ele><time>2026-04-04T16:19:10Z</time></trkpt><trkpt lat="43.436021373374764" lon="11.348742694734113"><ele>383.0</ele><time>2026-04-04T16:19:11Z</time></trkpt><trkpt lat="43.43610515369546" lon="11.348797339190076"><ele>383.0</ele><time>2026-04-04T16:19:12Z</time></trkpt><trkpt lat="43.43619222120919" lon="11.348861119233193"><ele>383.0</ele><time>2026-04-04T16:19:13Z</time></trkpt><trkpt lat="43.43628629557914" lon="11.348933854957568"><ele>383.0</ele><time>2026-04-04T16:19:14Z</time></trkpt><trkpt lat="43.436384560106866" lon="11.349033539898102"><ele>381.0</ele><time>2026-04-04T16:19:15Z</time></trkpt><trkpt lat="43.43648459240077" lon="11.349135210769669"><ele>379.0</ele><time>2026-04-04T16:19:16Z</time></trkpt><trkpt lat="43.43656943305902" lon="11.349230421962389"><ele>377.0</ele><time>2026-04-04T16:19:17Z</time></trkpt><trkpt lat="43.436646102108845" lon="11.349310758941833"><ele>375.0</ele><time>2026-04-04T16:19:18Z</time></trkpt><trkpt lat="43.43671730157384" lon="11.349371026172111"><ele>373.0</ele><time>2026-04-04T16:19:19Z</time></trkpt><trkpt lat="43.436790826763534" lon="11.349389556409289"><ele>373.0</ele><time>2026-04-04T16:19:20Z</time></trkpt><trkpt lat="43.43686580060932" lon="11.349395467326493"><ele>373.0</ele><time>2026-04-04T16:19:21Z</time></trkpt><trkpt lat="43.43694431493024" lon="11.349378739846918"><ele>373.0</ele><time>2026-04-04T16:19:22Z</time></trkpt><trkpt lat="43.43702363086557" lon="11.34933319562121"><ele>373.0</ele><time>2026-04-04T16:19:23Z</time></trkpt><trkpt lat="43.43708816702674" lon="11.34927187884631"><ele>373.0</ele><time>2026-04-04T16:19:24Z</time></trkpt><trkpt lat="43.43713822345585" lon="11.349184227724493"><ele>373.0</ele><time>2026-04-04T16:19:25Z</time></trkpt><trkpt lat="43.43719288284053" lon="11.349096423898773"><ele>372.59999999999997</ele><time>2026-04-04T16:19:26Z</time></trkpt><trkpt lat="43.43722407698208" lon="11.348971292000062"><ele>372.2</ele><time>2026-04-04T16:19:27Z</time></trkpt><trkpt lat="43.437251469655735" lon="11.348836220205188"><ele>371.8</ele><time>2026-04-04T16:19:28Z</time></trkpt><trkpt lat="43.43728673975974" lon="11.348702539125073"><ele>371.4</ele><time>2026-04-04T16:19:29Z</time></trkpt><trkpt lat="43.43732935982845" lon="11.348571661908792"><ele>371.0</ele><time>2026-04-04T16:19:30Z</time></trkpt><trkpt lat="43.43738474863677" lon="11.348459082573521"><ele>372.5</ele><time>2026-04-04T16:19:31Z</time></trkpt><trkpt lat="43.437463710072" lon="11.348365085040202"><ele>374.0</ele><time>2026-04-04T16:19:32Z</time></trkpt><trkpt lat="43.43758104156356" lon="11.348331864314705"><ele>375.5</ele><time>2026-04-04T16:19:33Z</time></trkpt><trkpt lat="43.437708067902406" lon="11.348376191266123"><ele>377.0</ele><time>2026-04-04T16:19:34Z</time></trkpt><trkpt lat="43.43781092488524" lon="11.348482353944128"><ele>377.0</ele><time>2026-04-04T16:19:35Z</time></trkpt><trkpt lat="43.437886468639704" lon="11.348634788951811"><ele>377.0</ele><time>2026-04-04T16:19:36Z</time></trkpt><trkpt lat="43.43793345133647" lon="11.34881723116958"><ele>377.0</ele><time>2026-04-04T16:19:37Z</time></trkpt><trkpt lat="43.437954580842806" lon="11.349047578660828"><ele>377.0</ele><time>2026-04-04T16:19:38Z</time></trkpt><trkpt lat="43.438009309855914" lon="11.349243665082914"><ele>376.5</ele><time>2026-04-04T16:19:39Z</time></trkpt><trkpt lat="43.43806863632935" lon="11.34941099222226"><ele>376.0</ele><time>2026-04-04T16:19:40Z</time></trkpt><trkpt lat="43.43815021206814" lon="11.349567018612623"><ele>375.5</ele><time>2026-04-04T16:19:41Z</time></trkpt><trkpt lat="43.438247831399224" lon="11.349713961592547"><ele>375.0</ele><time>2026-04-04T16:19:42Z</time></trkpt><trkpt lat="43.438370604078756" lon="11.349814821012178"><ele>375.0</ele><time>2026-04-04T16:19:43Z</time></trkpt><trkpt lat="43.43850423100334" lon="11.349896517947267"><ele>375.0</ele><time>2026-04-04T16:19:44Z</time></trkpt><trkpt lat="43.43864800347477" lon="11.349958981680143"><ele>375.0</ele><time>2026-04-04T16:19:45Z</time></trkpt><trkpt lat="43.43879934443643" lon="11.35000788026327"><ele>375.6666666666667</ele><time>2026-04-04T16:19:46Z</time></trkpt><trkpt lat="43.43895720290821" lon="11.350071613499786"><ele>376.33333333333337</ele><time>2026-04-04T16:19:47Z</time></trkpt><trkpt lat="43.439097679034475" lon="11.35013109441093"><ele>377.0</ele><time>2026-04-04T16:19:48Z</time></trkpt><trkpt lat="43.439246069473576" lon="11.350188976446388"><ele>377.0</ele><time>2026-04-04T16:19:49Z</time></trkpt><trkpt lat="43.43937168843675" lon="11.3502683679937"><ele>377.0</ele><time>2026-04-04T16:19:50Z</time></trkpt><trkpt lat="43.43949492972367" lon="11.350324939128182"><ele>377.0</ele><time>2026-04-04T16:19:51Z</time></trkpt><trkpt lat="43.439624389837995" lon="11.350389192433946"><ele>377.0</ele><time>2026-04-04T16:19:52Z</time></trkpt><trkpt lat="43.439746434372736" lon="11.350454664414691"><ele>376.75</ele><time>2026-04-04T16:19:53Z</time></trkpt><trkpt lat="43.43986964937899" lon="11.350531695761399"><ele>376.5</ele><time>2026-04-04T16:19:54Z</time></trkpt><trkpt lat="43.43998643240913" lon="11.350611202438202"><ele>376.25</ele><time>2026-04-04T16:19:55Z</time></trkpt><trkpt lat="43.44008416785708" lon="11.35068868809826"><ele>376.0</ele><time>2026-04-04T16:19:56Z</time></trkpt><trkpt lat="43.44016253968109" lon="11.350778397641815"><ele>375.4</ele><time>2026-04-04T16:19:57Z</time></trkpt><trkpt lat="43.44023698474724" lon="11.350856195275504"><ele>374.8</ele><time>2026-04-04T16:19:58Z</time></trkpt><trkpt lat="43.44028742724741" lon="11.350963998768686"><ele>374.2</ele><time>2026-04-04T16:19:59Z</time></trkpt><trkpt lat="43.44032267390188" lon="11.351090355903786"><ele>373.59999999999997</ele><time>2026-04-04T16:20:00Z</time></trkpt><trkpt lat="43.44036947684896" lon="11.351239563708345"><ele>373.0</ele><time>2026-04-04T16:20:01Z</time></trkpt><trkpt lat="43.44041654423743" lon="11.351366757372093"><ele>373.0</ele><time>2026-04-04T16:20:02Z</time></trkpt><trkpt lat="43.440458241398225" lon="11.351486784397498"><ele>373.0</ele><time>2026-04-04T16:20:03Z</time></trkpt><trkpt lat="43.440514740403415" lon="11.351584945460127"><ele>373.0</ele><time>2026-04-04T16:20:04Z</time></trkpt><trkpt lat="43.4405538483413" lon="11.351679918484038"><ele>373.0</ele><time>2026-04-04T16:20:05Z</time></trkpt><trkpt lat="43.440584328449795" lon="11.35178664704101"><ele>373.0</ele><time>2026-04-04T16:20:06Z</time></trkpt><trkpt lat="43.44055233998571" lon="11.35191268570858"><ele>373.0</ele><time>2026-04-04T16:20:07Z</time></trkpt><trkpt lat="43.440567564624615" lon="11.352055648502215"><ele>373.0</ele><time>2026-04-04T16:20:08Z</time></trkpt><trkpt lat="43.44059600029678" lon="11.352201422211962"><ele>373.0</ele><time>2026-04-04T16:20:09Z</time></trkpt><trkpt lat="43.44060110507067" lon="11.352352979703333"><ele>373.0</ele><time>2026-04-04T16:20:10Z</time></trkpt><trkpt lat="43.44063850953031" lon="11.352507277475501"><ele>373.0</ele><time>2026-04-04T16:20:11Z</time></trkpt><trkpt lat="43.4406737802976" lon="11.352675499903437"><ele>371.5</ele><time>2026-04-04T16:20:12Z</time></trkpt><trkpt lat="43.44070487731028" lon="11.352861539024552"><ele>370.0</ele><time>2026-04-04T16:20:13Z</time></trkpt><trkpt lat="43.44072158293486" lon="11.353054131607518"><ele>368.5</ele><time>2026-04-04T16:20:14Z</time></trkpt><trkpt lat="43.440738655535235" lon="11.353231737168555"><ele>367.0</ele><time>2026-04-04T16:20:15Z</time></trkpt><trkpt lat="43.44075490205107" lon="11.353389928500174"><ele>365.8</ele><time>2026-04-04T16:20:16Z</time></trkpt><trkpt lat="43.44077510845944" lon="11.353546362397543"><ele>364.6</ele><time>2026-04-04T16:20:17Z</time></trkpt><trkpt lat="43.440792458211654" lon="11.353705488108993"><ele>363.40000000000003</ele><time>2026-04-04T16:20:18Z</time></trkpt><trkpt lat="43.440806380509805" lon="11.353858971774025"><ele>362.20000000000005</ele><time>2026-04-04T16:20:19Z</time></trkpt><trkpt lat="43.44082253253541" lon="11.353998870326576"><ele>361.0</ele><time>2026-04-04T16:20:20Z</time></trkpt><trkpt lat="43.440851278100766" lon="11.354139348085482"><ele>359.5</ele><time>2026-04-04T16:20:21Z</time></trkpt><trkpt lat="43.44088427060235" lon="11.354296651977801"><ele>358.0</ele><time>2026-04-04T16:20:22Z</time></trkpt><trkpt lat="43.44092157266532" lon="11.354478237675629"><ele>356.5</ele><time>2026-04-04T16:20:23Z</time></trkpt><trkpt lat="43.44096264696095" lon="11.354655432287785"><ele>355.0</ele><time>2026-04-04T16:20:24Z</time></trkpt><trkpt lat="43.44099722358702" lon="11.354808805687416"><ele>354.66666666666663</ele><time>2026-04-04T16:20:25Z</time></trkpt><trkpt lat="43.44101681868759" lon="11.354941008789952"><ele>354.3333333333333</ele><time>2026-04-04T16:20:26Z</time></trkpt><trkpt lat="43.44102879299062" lon="11.35505598726257"><ele>354.0</ele><time>2026-04-04T16:20:27Z</time></trkpt><trkpt lat="43.441037408905125" lon="11.35516550204256"><ele>353.6666666666667</ele><time>2026-04-04T16:20:28Z</time></trkpt><trkpt lat="43.44104784242944" lon="11.355271080222826"><ele>353.33333333333337</ele><time>2026-04-04T16:20:29Z</time></trkpt><trkpt lat="43.44104918942201" lon="11.355372719376032"><ele>353.0</ele><time>2026-04-04T16:20:30Z</time></trkpt><trkpt lat="43.441040893903626" lon="11.35547975335647"><ele>352.83333333333337</ele><time>2026-04-04T16:20:31Z</time></trkpt><trkpt lat="43.440992853068835" lon="11.355570766620916"><ele>352.6666666666667</ele><time>2026-04-04T16:20:32Z</time></trkpt><trkpt lat="43.440976521791036" lon="11.355660345433279"><ele>352.5</ele><time>2026-04-04T16:20:33Z</time></trkpt><trkpt lat="43.44096552907752" lon="11.3557832276365"><ele>352.3333333333333</ele><time>2026-04-04T16:20:35Z</time></trkpt><trkpt lat="43.44103657202019" lon="11.355870618164301"><ele>352.16666666666663</ele><time>2026-04-04T16:20:37Z</time></trkpt><trkpt lat="43.44113506005958" lon="11.355879577726292"><ele>352.0</ele><time>2026-04-04T16:20:39Z</time></trkpt><trkpt lat="43.44123269926069" lon="11.355837125136206"><ele>352.6</ele><time>2026-04-04T16:20:41Z</time></trkpt><trkpt lat="43.44132626653025" lon="11.355770586777982"><ele>353.20000000000005</ele><time>2026-04-04T16:20:43Z</time></trkpt><trkpt lat="43.441422974958805" lon="11.35564953568573"><ele>353.8</ele><time>2026-04-04T16:20:45Z</time></trkpt><trkpt lat="43.441470393268006" lon="11.355562578474796"><ele>354.4</ele><time>2026-04-04T16:20:46Z</time></trkpt><trkpt lat="43.44151389579513" lon="11.355472503006832"><ele>355.0</ele><time>2026-04-04T16:20:47Z</time></trkpt><trkpt lat="43.44156429761212" lon="11.35539815000918"><ele>355.0</ele><time>2026-04-04T16:20:48Z</time></trkpt><trkpt lat="43.441621002257136" lon="11.355351444808072"><ele>355.0</ele><time>2026-04-04T16:20:49Z</time></trkpt><trkpt lat="43.44168334310836" lon="11.355327820041472"><ele>355.0</ele><time>2026-04-04T16:20:50Z</time></trkpt><trkpt lat="43.44181315861324" lon="11.355315947362119"><ele>355.0</ele><time>2026-04-04T16:20:52Z</time></trkpt><trkpt lat="43.44190322583765" lon="11.355303052370028"><ele>355.0</ele><time>2026-04-04T16:20:53Z</time></trkpt><trkpt lat="43.44198756561751" lon="11.355304641511289"><ele>355.0</ele><time>2026-04-04T16:20:54Z</time></trkpt><trkpt lat="43.442067673117215" lon="11.355297417575658"><ele>351.8333333333333</ele><time>2026-04-04T16:20:55Z</time></trkpt><trkpt lat="43.442146963740875" lon="11.355286165450703"><ele>348.66666666666663</ele><time>2026-04-04T16:20:56Z</time></trkpt><trkpt lat="43.44222234106738" lon="11.355263927032622"><ele>345.5</ele><time>2026-04-04T16:20:57Z</time></trkpt><trkpt lat="43.442288722390124" lon="11.355220211426728"><ele>342.3333333333333</ele><time>2026-04-04T16:20:58Z</time></trkpt><trkpt lat="43.44234413182614" lon="11.355163549536773"><ele>339.1666666666667</ele><time>2026-04-04T16:20:59Z</time></trkpt><trkpt lat="43.44241029308111" lon="11.355109529414623"><ele>336.0</ele><time>2026-04-04T16:21:00Z</time></trkpt><trkpt lat="43.442496111911936" lon="11.355060192212878"><ele>336.0</ele><time>2026-04-04T16:21:01Z</time></trkpt><trkpt lat="43.44258306739914" lon="11.354974714441042"><ele>336.0</ele><time>2026-04-04T16:21:02Z</time></trkpt><trkpt lat="43.44267411212765" lon="11.354887287957858"><ele>336.0</ele><time>2026-04-04T16:21:03Z</time></trkpt><trkpt lat="43.44276596145418" lon="11.354810322114744"><ele>336.0</ele><time>2026-04-04T16:21:04Z</time></trkpt><trkpt lat="43.44286417771831" lon="11.354757087212027"><ele>336.0</ele><time>2026-04-04T16:21:05Z</time></trkpt><trkpt lat="43.442970296992776" lon="11.354687583106791"><ele>335.5</ele><time>2026-04-04T16:21:06Z</time></trkpt><trkpt lat="43.443085315702305" lon="11.354615871243208"><ele>335.0</ele><time>2026-04-04T16:21:07Z</time></trkpt><trkpt lat="43.44320192783661" lon="11.354544151356034"><ele>334.5</ele><time>2026-04-04T16:21:08Z</time></trkpt><trkpt lat="43.44332532231506" lon="11.354505381153327"><ele>334.0</ele><time>2026-04-04T16:21:09Z</time></trkpt><trkpt lat="43.44343824881838" lon="11.354419466480548"><ele>334.0</ele><time>2026-04-04T16:21:10Z</time></trkpt><trkpt lat="43.44356465406351" lon="11.354325790041907"><ele>334.0</ele><time>2026-04-04T16:21:11Z</time></trkpt><trkpt lat="43.44368060948539" lon="11.354241260551598"><ele>334.0</ele><time>2026-04-04T16:21:12Z</time></trkpt><trkpt lat="43.443799416393595" lon="11.354159411458344"><ele>334.0</ele><time>2026-04-04T16:21:13Z</time></trkpt><trkpt lat="43.44391810254479" lon="11.35407662025427"><ele>335.4</ele><time>2026-04-04T16:21:14Z</time></trkpt><trkpt lat="43.44402361151357" lon="11.35401182830696"><ele>336.79999999999995</ele><time>2026-04-04T16:21:15Z</time></trkpt><trkpt lat="43.444117750621956" lon="11.353959914738796"><ele>338.20000000000005</ele><time>2026-04-04T16:21:16Z</time></trkpt><trkpt lat="43.44422039600094" lon="11.353916346753316"><ele>339.6</ele><time>2026-04-04T16:21:17Z</time></trkpt><trkpt lat="43.4443238027576" lon="11.353885682482552"><ele>341.0</ele><time>2026-04-04T16:21:18Z</time></trkpt><trkpt lat="43.44442666440667" lon="11.353854802944321"><ele>341.0</ele><time>2026-04-04T16:21:19Z</time></trkpt><trkpt lat="43.44453093008177" lon="11.353819380276354"><ele>341.0</ele><time>2026-04-04T16:21:20Z</time></trkpt><trkpt lat="43.44463613192408" lon="11.353783093152126"><ele>341.0</ele><time>2026-04-04T16:21:21Z</time></trkpt><trkpt lat="43.44473104408012" lon="11.353758010264627"><ele>341.0</ele><time>2026-04-04T16:21:22Z</time></trkpt><trkpt lat="43.44480769105597" lon="11.353759457858514"><ele>341.0</ele><time>2026-04-04T16:21:23Z</time></trkpt><trkpt lat="43.44487099180855" lon="11.35379319010142"><ele>338.4</ele><time>2026-04-04T16:21:24Z</time></trkpt><trkpt lat="43.4449124844089" lon="11.353929444952009"><ele>335.8</ele><time>2026-04-04T16:21:26Z</time></trkpt><trkpt lat="43.44492624980938" lon="11.354036745743423"><ele>333.2</ele><time>2026-04-04T16:21:27Z</time></trkpt><trkpt lat="43.444924907988884" lon="11.354161164790773"><ele>330.59999999999997</ele><time>2026-04-04T16:21:28Z</time></trkpt><trkpt lat="43.44493713387125" lon="11.354275496577023"><ele>328.0</ele><time>2026-04-04T16:21:29Z</time></trkpt><trkpt lat="43.4449601019102" lon="11.354396489338953"><ele>328.0</ele><time>2026-04-04T16:21:30Z</time></trkpt><trkpt lat="43.444998530787565" lon="11.354515936765196"><ele>328.0</ele><time>2026-04-04T16:21:31Z</time></trkpt><trkpt lat="43.44504866157125" lon="11.354623672486888"><ele>328.0</ele><time>2026-04-04T16:21:32Z</time></trkpt><trkpt lat="43.445107892468464" lon="11.354720536205116"><ele>328.0</ele><time>2026-04-04T16:21:33Z</time></trkpt><trkpt lat="43.44517556095954" lon="11.354810653047217"><ele>328.0</ele><time>2026-04-04T16:21:34Z</time></trkpt><trkpt lat="43.44526696654743" lon="11.354885634658402"><ele>327.59999999999997</ele><time>2026-04-04T16:21:35Z</time></trkpt><trkpt lat="43.44536307815718" lon="11.354972609329927"><ele>327.2</ele><time>2026-04-04T16:21:36Z</time></trkpt><trkpt lat="43.44544876770539" lon="11.355052649317916"><ele>326.8</ele><time>2026-04-04T16:21:37Z</time></trkpt><trkpt lat="43.44551944595731" lon="11.355101667598626"><ele>326.4</ele><time>2026-04-04T16:21:38Z</time></trkpt><trkpt lat="43.445595037506834" lon="11.35514745924338"><ele>326.0</ele><time>2026-04-04T16:21:39Z</time></trkpt><trkpt lat="43.4456692506689" lon="11.35517230676574"><ele>327.0</ele><time>2026-04-04T16:21:40Z</time></trkpt><trkpt lat="43.44574583886674" lon="11.35519208947935"><ele>328.0</ele><time>2026-04-04T16:21:41Z</time></trkpt><trkpt lat="43.445820762544955" lon="11.35520316448165"><ele>329.0</ele><time>2026-04-04T16:21:42Z</time></trkpt><trkpt lat="43.44588889904063" lon="11.3552018388048"><ele>330.0</ele><time>2026-04-04T16:21:43Z</time></trkpt><trkpt lat="43.44596470444764" lon="11.35520176111286"><ele>331.0</ele><time>2026-04-04T16:21:44Z</time></trkpt><trkpt lat="43.446055221144825" lon="11.35519674334243"><ele>332.0</ele><time>2026-04-04T16:21:45Z</time></trkpt><trkpt lat="43.44617139239199" lon="11.355209302849818"><ele>333.25</ele><time>2026-04-04T16:21:46Z</time></trkpt><trkpt lat="43.446306568925024" lon="11.355229015297457"><ele>334.5</ele><time>2026-04-04T16:21:47Z</time></trkpt><trkpt lat="43.44644602417256" lon="11.355245750468095"><ele>335.75</ele><time>2026-04-04T16:21:48Z</time></trkpt><trkpt lat="43.44659326699922" lon="11.355263839919123"><ele>337.0</ele><time>2026-04-04T16:21:49Z</time></trkpt><trkpt lat="43.446730804670004" lon="11.35529069332408"><ele>337.0</ele><time>2026-04-04T16:21:50Z</time></trkpt><trkpt lat="43.44687054487984" lon="11.355328774640606"><ele>337.0</ele><time>2026-04-04T16:21:51Z</time></trkpt><trkpt lat="43.44701861466881" lon="11.35536031717441"><ele>337.0</ele><time>2026-04-04T16:21:52Z</time></trkpt><trkpt lat="43.447168975719606" lon="11.355393909735364"><ele>337.0</ele><time>2026-04-04T16:21:53Z</time></trkpt><trkpt lat="43.44730727970287" lon="11.355419601401382"><ele>335.5</ele><time>2026-04-04T16:21:54Z</time></trkpt><trkpt lat="43.44744110613929" lon="11.355455165610744"><ele>334.0</ele><time>2026-04-04T16:21:55Z</time></trkpt><trkpt lat="43.447572795051975" lon="11.355506998302953"><ele>332.5</ele><time>2026-04-04T16:21:56Z</time></trkpt><trkpt lat="43.447711400078646" lon="11.355571122106877"><ele>331.0</ele><time>2026-04-04T16:21:57Z</time></trkpt><trkpt lat="43.44784379195582" lon="11.355666980203223"><ele>332.66666666666663</ele><time>2026-04-04T16:21:58Z</time></trkpt><trkpt lat="43.44797454070591" lon="11.355754617888698"><ele>334.3333333333333</ele><time>2026-04-04T16:21:59Z</time></trkpt><trkpt lat="43.448113066832235" lon="11.355844070481757"><ele>336.0</ele><time>2026-04-04T16:22:00Z</time></trkpt><trkpt lat="43.448265989172874" lon="11.355936261899139"><ele>336.0</ele><time>2026-04-04T16:22:01Z</time></trkpt><trkpt lat="43.44843399513323" lon="11.356033004776158"><ele>336.0</ele><time>2026-04-04T16:22:02Z</time></trkpt><trkpt lat="43.44859741936687" lon="11.356131125110233"><ele>336.0</ele><time>2026-04-04T16:22:03Z</time></trkpt><trkpt lat="43.448745256923424" lon="11.356217426588195"><ele>335.0</ele><time>2026-04-04T16:22:04Z</time></trkpt><trkpt lat="43.44888225607595" lon="11.356296940951886"><ele>334.0</ele><time>2026-04-04T16:22:05Z</time></trkpt><trkpt lat="43.44899766441056" lon="11.356385690653928"><ele>333.0</ele><time>2026-04-04T16:22:06Z</time></trkpt><trkpt lat="43.44910280072932" lon="11.356483314358824"><ele>332.0</ele><time>2026-04-04T16:22:07Z</time></trkpt><trkpt lat="43.44919725060501" lon="11.35657252192561"><ele>332.0</ele><time>2026-04-04T16:22:08Z</time></trkpt><trkpt lat="43.44928550760415" lon="11.356641304299107"><ele>332.0</ele><time>2026-04-04T16:22:09Z</time></trkpt><trkpt lat="43.44936746005269" lon="11.35668461278648"><ele>332.0</ele><time>2026-04-04T16:22:10Z</time></trkpt><trkpt lat="43.44943750960175" lon="11.356704467295282"><ele>332.0</ele><time>2026-04-04T16:22:11Z</time></trkpt><trkpt lat="43.44953427223596" lon="11.356712651602969"><ele>332.0</ele><time>2026-04-04T16:22:12Z</time></trkpt><trkpt lat="43.4496504938754" lon="11.356738570128583"><ele>333.6</ele><time>2026-04-04T16:22:13Z</time></trkpt><trkpt lat="43.44977433871521" lon="11.356763457266172"><ele>335.20000000000005</ele><time>2026-04-04T16:22:14Z</time></trkpt><trkpt lat="43.44988618006567" lon="11.356778469403665"><ele>336.8</ele><time>2026-04-04T16:22:15Z</time></trkpt><trkpt lat="43.44997007435084" lon="11.356773385046191"><ele>338.4</ele><time>2026-04-04T16:22:16Z</time></trkpt><trkpt lat="43.4500522152047" lon="11.356748452156868"><ele>340.0</ele><time>2026-04-04T16:22:17Z</time></trkpt><trkpt lat="43.4501251855223" lon="11.356714680191335"><ele>340.0</ele><time>2026-04-04T16:22:18Z</time></trkpt><trkpt lat="43.45019388432051" lon="11.356659124466274"><ele>340.0</ele><time>2026-04-04T16:22:19Z</time></trkpt><trkpt lat="43.45027801710921" lon="11.356584764431497"><ele>340.0</ele><time>2026-04-04T16:22:20Z</time></trkpt><trkpt lat="43.45037682759228" lon="11.356480484405695"><ele>340.0</ele><time>2026-04-04T16:22:21Z</time></trkpt><trkpt lat="43.45048441691203" lon="11.356374278130929"><ele>340.0</ele><time>2026-04-04T16:22:22Z</time></trkpt><trkpt lat="43.45058721447072" lon="11.35627461888106"><ele>341.4</ele><time>2026-04-04T16:22:23Z</time></trkpt><trkpt lat="43.45067850637167" lon="11.35617226015655"><ele>342.8</ele><time>2026-04-04T16:22:24Z</time></trkpt><trkpt lat="43.45075928170511" lon="11.356083903104189"><ele>344.20000000000005</ele><time>2026-04-04T16:22:25Z</time></trkpt><trkpt lat="43.45083943671475" lon="11.356008356834492"><ele>345.6</ele><time>2026-04-04T16:22:26Z</time></trkpt><trkpt lat="43.45091952310827" lon="11.355908801890209"><ele>347.0</ele><time>2026-04-04T16:22:27Z</time></trkpt><trkpt lat="43.45099459559765" lon="11.355821413633054"><ele>347.0</ele><time>2026-04-04T16:22:28Z</time></trkpt><trkpt lat="43.45106155967127" lon="11.355737464608133"><ele>347.0</ele><time>2026-04-04T16:22:29Z</time></trkpt><trkpt lat="43.451127698747236" lon="11.355667027015127"><ele>347.0</ele><time>2026-04-04T16:22:30Z</time></trkpt><trkpt lat="43.451200928056956" lon="11.355604907161116"><ele>347.0</ele><time>2026-04-04T16:22:31Z</time></trkpt><trkpt lat="43.45128238333989" lon="11.355547734865196"><ele>347.0</ele><time>2026-04-04T16:22:32Z</time></trkpt><trkpt lat="43.45136909506961" lon="11.355498768715384"><ele>347.0</ele><time>2026-04-04T16:22:33Z</time></trkpt><trkpt lat="43.451460884509906" lon="11.355442627024312"><ele>347.40000000000003</ele><time>2026-04-04T16:22:34Z</time></trkpt><trkpt lat="43.451550847097046" lon="11.355376569265585"><ele>347.8</ele><time>2026-04-04T16:22:35Z</time></trkpt><trkpt lat="43.45164625683473" lon="11.355309003125521"><ele>348.2</ele><time>2026-04-04T16:22:36Z</time></trkpt><trkpt lat="43.45174789745724" lon="11.355273558671522"><ele>348.6</ele><time>2026-04-04T16:22:37Z</time></trkpt><trkpt lat="43.4518604794569" lon="11.355262157645244"><ele>349.0</ele><time>2026-04-04T16:22:38Z</time></trkpt><trkpt lat="43.451977799804375" lon="11.355258234571222"><ele>349.0</ele><time>2026-04-04T16:22:39Z</time></trkpt><trkpt lat="43.452086975673" lon="11.355223277248145"><ele>349.0</ele><time>2026-04-04T16:22:40Z</time></trkpt><trkpt lat="43.4522086505859" lon="11.355172681046827"><ele>349.0</ele><time>2026-04-04T16:22:41Z</time></trkpt><trkpt lat="43.452333087026716" lon="11.35510406998122"><ele>349.0</ele><time>2026-04-04T16:22:42Z</time></trkpt><trkpt lat="43.45246843347339" lon="11.35504879388292"><ele>347.25</ele><time>2026-04-04T16:22:43Z</time></trkpt><trkpt lat="43.452603146172166" lon="11.354993348212423"><ele>345.5</ele><time>2026-04-04T16:22:44Z</time></trkpt><trkpt lat="43.45273754076785" lon="11.354920211553818"><ele>343.75</ele><time>2026-04-04T16:22:45Z</time></trkpt><trkpt lat="43.45286595218953" lon="11.35483424039476"><ele>342.0</ele><time>2026-04-04T16:22:46Z</time></trkpt><trkpt lat="43.45299394370932" lon="11.35474909538957"><ele>342.5</ele><time>2026-04-04T16:22:47Z</time></trkpt><trkpt lat="43.45312539611833" lon="11.354674928821895"><ele>343.0</ele><time>2026-04-04T16:22:48Z</time></trkpt><trkpt lat="43.453255518384076" lon="11.354602357223067"><ele>343.5</ele><time>2026-04-04T16:22:49Z</time></trkpt><trkpt lat="43.453383356500936" lon="11.354540323566859"><ele>344.0</ele><time>2026-04-04T16:22:50Z</time></trkpt><trkpt lat="43.45351144176551" lon="11.354482048733944"><ele>344.0</ele><time>2026-04-04T16:22:51Z</time></trkpt><trkpt lat="43.45362521128329" lon="11.354417887461045"><ele>344.0</ele><time>2026-04-04T16:22:52Z</time></trkpt><trkpt lat="43.453734447337105" lon="11.354365674054154"><ele>344.0</ele><time>2026-04-04T16:22:53Z</time></trkpt><trkpt lat="43.45383542788905" lon="11.354302603082408"><ele>344.0</ele><time>2026-04-04T16:22:54Z</time></trkpt><trkpt lat="43.45392434681148" lon="11.35425285407752"><ele>344.0</ele><time>2026-04-04T16:22:55Z</time></trkpt><trkpt lat="43.45399631286642" lon="11.354231868556246"><ele>342.6666666666667</ele><time>2026-04-04T16:22:56Z</time></trkpt><trkpt lat="43.45410279596537" lon="11.354283463897218"><ele>341.33333333333337</ele><time>2026-04-04T16:22:58Z</time></trkpt><trkpt lat="43.454165671674815" lon="11.354341215554085"><ele>340.0</ele><time>2026-04-04T16:22:59Z</time></trkpt><trkpt lat="43.454239994597266" lon="11.35436663566912"><ele>338.6666666666667</ele><time>2026-04-04T16:23:00Z</time></trkpt><trkpt lat="43.45431570429522" lon="11.354380804746361"><ele>337.3333333333333</ele><time>2026-04-04T16:23:01Z</time></trkpt><trkpt lat="43.454400266327674" lon="11.354355462288511"><ele>336.0</ele><time>2026-04-04T16:23:02Z</time></trkpt><trkpt lat="43.454486585499346" lon="11.354306740206862"><ele>336.0</ele><time>2026-04-04T16:23:03Z</time></trkpt><trkpt lat="43.45456814974854" lon="11.354238265054361"><ele>336.0</ele><time>2026-04-04T16:23:04Z</time></trkpt><trkpt lat="43.45467220607498" lon="11.354151681774653"><ele>336.0</ele><time>2026-04-04T16:23:05Z</time></trkpt><trkpt lat="43.45477058799176" lon="11.354076245588345"><ele>336.0</ele><time>2026-04-04T16:23:06Z</time></trkpt><trkpt lat="43.45486659389294" lon="11.354022386780793"><ele>336.0</ele><time>2026-04-04T16:23:07Z</time></trkpt><trkpt lat="43.45495843857012" lon="11.353985578400783"><ele>337.4</ele><time>2026-04-04T16:23:08Z</time></trkpt><trkpt lat="43.45506079140581" lon="11.353968148143155"><ele>338.8</ele><time>2026-04-04T16:23:09Z</time></trkpt><trkpt lat="43.455171542537315" lon="11.35394669618879"><ele>340.2</ele><time>2026-04-04T16:23:10Z</time></trkpt><trkpt lat="43.455280768567015" lon="11.353925068143607"><ele>341.59999999999997</ele><time>2026-04-04T16:23:11Z</time></trkpt><trkpt lat="43.455362352215566" lon="11.35390827328909"><ele>343.0</ele><time>2026-04-04T16:23:12Z</time></trkpt><trkpt lat="43.455438447897265" lon="11.353904546514546"><ele>343.5</ele><time>2026-04-04T16:23:13Z</time></trkpt><trkpt lat="43.45553672560263" lon="11.353929478547961"><ele>344.0</ele><time>2026-04-04T16:23:14Z</time></trkpt><trkpt lat="43.45564290192457" lon="11.353972764974296"><ele>344.5</ele><time>2026-04-04T16:23:15Z</time></trkpt><trkpt lat="43.455756039538244" lon="11.354022020519608"><ele>345.0</ele><time>2026-04-04T16:23:16Z</time></trkpt><trkpt lat="43.45587614500536" lon="11.354074297159157"><ele>345.0</ele><time>2026-04-04T16:23:17Z</time></trkpt><trkpt lat="43.45600430096541" lon="11.35412073564104"><ele>345.0</ele><time>2026-04-04T16:23:18Z</time></trkpt><trkpt lat="43.456130447257266" lon="11.3541547157667"><ele>345.0</ele><time>2026-04-04T16:23:19Z</time></trkpt><trkpt lat="43.456270043949566" lon="11.354179742838301"><ele>345.0</ele><time>2026-04-04T16:23:20Z</time></trkpt><trkpt lat="43.45641683978067" lon="11.354202550238849"><ele>345.25</ele><time>2026-04-04T16:23:21Z</time></trkpt><trkpt lat="43.45655905874406" lon="11.354228257791332"><ele>345.5</ele><time>2026-04-04T16:23:22Z</time></trkpt><trkpt lat="43.45669735865532" lon="11.35425877735833"><ele>345.75</ele><time>2026-04-04T16:23:23Z</time></trkpt><trkpt lat="43.45683610283418" lon="11.354296990915838"><ele>346.0</ele><time>2026-04-04T16:23:24Z</time></trkpt><trkpt lat="43.456957437247155" lon="11.35432741987017"><ele>346.0</ele><time>2026-04-04T16:23:25Z</time></trkpt><trkpt lat="43.457061415631884" lon="11.354349101793945"><ele>346.0</ele><time>2026-04-04T16:23:26Z</time></trkpt><trkpt lat="43.457165001408654" lon="11.354374844572165"><ele>346.0</ele><time>2026-04-04T16:23:27Z</time></trkpt><trkpt lat="43.45727080093554" lon="11.35442974087974"><ele>346.0</ele><time>2026-04-04T16:23:28Z</time></trkpt><trkpt lat="43.45738036655555" lon="11.354498300598303"><ele>346.0</ele><time>2026-04-04T16:23:29Z</time></trkpt><trkpt lat="43.45748141392576" lon="11.354566562842042"><ele>346.5</ele><time>2026-04-04T16:23:30Z</time></trkpt><trkpt lat="43.45758938058016" lon="11.354595972154"><ele>347.0</ele><time>2026-04-04T16:23:31Z</time></trkpt><trkpt lat="43.457697528289366" lon="11.354639472016355"><ele>347.5</ele><time>2026-04-04T16:23:32Z</time></trkpt><trkpt lat="43.45782220979535" lon="11.354680476329598"><ele>348.0</ele><time>2026-04-04T16:23:33Z</time></trkpt><trkpt lat="43.45794557115141" lon="11.354709481784376"><ele>348.4</ele><time>2026-04-04T16:23:34Z</time></trkpt><trkpt lat="43.4580547912537" lon="11.354746898047903"><ele>348.79999999999995</ele><time>2026-04-04T16:23:35Z</time></trkpt><trkpt lat="43.458154706557025" lon="11.354801645332056"><ele>349.2</ele><time>2026-04-04T16:23:36Z</time></trkpt><trkpt lat="43.45824438215754" lon="11.354872313198557"><ele>349.6</ele><time>2026-04-04T16:23:37Z</time></trkpt><trkpt lat="43.458333671629944" lon="11.354968423903092"><ele>350.0</ele><time>2026-04-04T16:23:38Z</time></trkpt><trkpt lat="43.4584303852054" lon="11.355067521967703"><ele>350.0</ele><time>2026-04-04T16:23:39Z</time></trkpt><trkpt lat="43.45852489039343" lon="11.355158668641227"><ele>350.0</ele><time>2026-04-04T16:23:40Z</time></trkpt><trkpt lat="43.45862822330077" lon="11.355241409262137"><ele>350.0</ele><time>2026-04-04T16:23:41Z</time></trkpt><trkpt lat="43.4587363508113" lon="11.355320717069297"><ele>350.0</ele><time>2026-04-04T16:23:42Z</time></trkpt><trkpt lat="43.4588173100041" lon="11.355372227363837"><ele>350.0</ele><time>2026-04-04T16:23:43Z</time></trkpt><trkpt lat="43.4589009934392" lon="11.355413357290685"><ele>349.8</ele><time>2026-04-04T16:23:44Z</time></trkpt><trkpt lat="43.45898908888187" lon="11.355443929874736"><ele>349.6</ele><time>2026-04-04T16:23:45Z</time></trkpt><trkpt lat="43.45909433718118" lon="11.355467600995487"><ele>349.4</ele><time>2026-04-04T16:23:46Z</time></trkpt><trkpt lat="43.45920556370177" lon="11.355485534049587"><ele>349.2</ele><time>2026-04-04T16:23:47Z</time></trkpt><trkpt lat="43.45932628719104" lon="11.355515536131563"><ele>349.0</ele><time>2026-04-04T16:23:48Z</time></trkpt><trkpt lat="43.45945179036562" lon="11.355548695623886"><ele>349.0</ele><time>2026-04-04T16:23:49Z</time></trkpt><trkpt lat="43.45957185998903" lon="11.355566066066963"><ele>349.0</ele><time>2026-04-04T16:23:50Z</time></trkpt><trkpt lat="43.459675468461946" lon="11.355576488982557"><ele>349.0</ele><time>2026-04-04T16:23:51Z</time></trkpt><trkpt lat="43.45977591632998" lon="11.355579045817013"><ele>349.0</ele><time>2026-04-04T16:23:52Z</time></trkpt><trkpt lat="43.4598707965086" lon="11.355571438988296"><ele>349.0</ele><time>2026-04-04T16:23:53Z</time></trkpt><trkpt lat="43.45995651016213" lon="11.355542597633722"><ele>350.0</ele><time>2026-04-04T16:23:54Z</time></trkpt><trkpt lat="43.46004646679126" lon="11.355510051886979"><ele>351.0</ele><time>2026-04-04T16:23:55Z</time></trkpt><trkpt lat="43.460150371359234" lon="11.355490990277598"><ele>352.0</ele><time>2026-04-04T16:23:56Z</time></trkpt><trkpt lat="43.460258840673305" lon="11.355493063044293"><ele>353.0</ele><time>2026-04-04T16:23:57Z</time></trkpt><trkpt lat="43.46036545482953" lon="11.355527570407993"><ele>354.0</ele><time>2026-04-04T16:23:58Z</time></trkpt><trkpt lat="43.460478803449746" lon="11.355567707675059"><ele>354.0</ele><time>2026-04-04T16:23:59Z</time></trkpt><trkpt lat="43.46058215345922" lon="11.355591871619728"><ele>354.0</ele><time>2026-04-04T16:24:00Z</time></trkpt><trkpt lat="43.460695009751184" lon="11.355613338405348"><ele>354.0</ele><time>2026-04-04T16:24:01Z</time></trkpt><trkpt lat="43.4608002537026" lon="11.355619131663213"><ele>354.0</ele><time>2026-04-04T16:24:02Z</time></trkpt><trkpt lat="43.46089557623863" lon="11.355603050653146"><ele>354.0</ele><time>2026-04-04T16:24:03Z</time></trkpt><trkpt lat="43.460999781495154" lon="11.355570370828627"><ele>354.5</ele><time>2026-04-04T16:24:04Z</time></trkpt><trkpt lat="43.461117182763346" lon="11.355527648479347"><ele>355.0</ele><time>2026-04-04T16:24:05Z</time></trkpt><trkpt lat="43.46126233566352" lon="11.355502207895382"><ele>355.5</ele><time>2026-04-04T16:24:06Z</time></trkpt><trkpt lat="43.46138803645424" lon="11.355506842253488"><ele>356.0</ele><time>2026-04-04T16:24:07Z</time></trkpt><trkpt lat="43.46146658625101" lon="11.355538004731798"><ele>356.0</ele><time>2026-04-04T16:24:08Z</time></trkpt><trkpt lat="43.46155184097963" lon="11.355587335628986"><ele>356.0</ele><time>2026-04-04T16:24:09Z</time></trkpt><trkpt lat="43.461637459110186" lon="11.35565953153227"><ele>356.0</ele><time>2026-04-04T16:24:10Z</time></trkpt><trkpt lat="43.46173341503902" lon="11.355742999370825"><ele>356.0</ele><time>2026-04-04T16:24:11Z</time></trkpt><trkpt lat="43.46183537473304" lon="11.355824640029539"><ele>356.0</ele><time>2026-04-04T16:24:12Z</time></trkpt><trkpt lat="43.46193347412972" lon="11.355907674516544"><ele>356.0</ele><time>2026-04-04T16:24:13Z</time></trkpt><trkpt lat="43.462029552901456" lon="11.355983861568081"><ele>356.0</ele><time>2026-04-04T16:24:14Z</time></trkpt><trkpt lat="43.46213096978161" lon="11.356076903898439"><ele>356.0</ele><time>2026-04-04T16:24:15Z</time></trkpt><trkpt lat="43.46223643492346" lon="11.35618075621821"><ele>356.0</ele><time>2026-04-04T16:24:16Z</time></trkpt><trkpt lat="43.46235201810941" lon="11.35629735948617"><ele>355.75</ele><time>2026-04-04T16:24:17Z</time></trkpt><trkpt lat="43.46246588749766" lon="11.356397754310883"><ele>355.5</ele><time>2026-04-04T16:24:18Z</time></trkpt><trkpt lat="43.46258705983214" lon="11.35649410530177"><ele>355.25</ele><time>2026-04-04T16:24:19Z</time></trkpt><trkpt lat="43.46271344929748" lon="11.356610616241495"><ele>355.0</ele><time>2026-04-04T16:24:20Z</time></trkpt><trkpt lat="43.462825281364964" lon="11.35673028967102"><ele>355.0</ele><time>2026-04-04T16:24:21Z</time></trkpt><trkpt lat="43.462929038850056" lon="11.356833652345916"><ele>355.0</ele><time>2026-04-04T16:24:22Z</time></trkpt><trkpt lat="43.46301832866485" lon="11.356915143122665"><ele>355.0</ele><time>2026-04-04T16:24:23Z</time></trkpt><trkpt lat="43.46308957983956" lon="11.35697598557686"><ele>355.0</ele><time>2026-04-04T16:24:24Z</time></trkpt><trkpt lat="43.46316422681207" lon="11.35702197651619"><ele>355.0</ele><time>2026-04-04T16:24:25Z</time></trkpt><trkpt lat="43.463243301593195" lon="11.357013648144573"><ele>357.6</ele><time>2026-04-04T16:24:26Z</time></trkpt><trkpt lat="43.463338665056575" lon="11.357023141979884"><ele>360.2</ele><time>2026-04-04T16:24:27Z</time></trkpt><trkpt lat="43.463453172977964" lon="11.357031515716836"><ele>362.79999999999995</ele><time>2026-04-04T16:24:28Z</time></trkpt><trkpt lat="43.46356231033649" lon="11.357045261531798"><ele>365.4</ele><time>2026-04-04T16:24:29Z</time></trkpt><trkpt lat="43.46368134808307" lon="11.357071698863646"><ele>368.0</ele><time>2026-04-04T16:24:30Z</time></trkpt><trkpt lat="43.46378240950419" lon="11.357088028214909"><ele>367.0</ele><time>2026-04-04T16:24:31Z</time></trkpt><trkpt lat="43.463878803892314" lon="11.357118490984487"><ele>366.0</ele><time>2026-04-04T16:24:32Z</time></trkpt><trkpt lat="43.46398733068704" lon="11.357142815416495"><ele>365.0</ele><time>2026-04-04T16:24:33Z</time></trkpt><trkpt lat="43.46409366172907" lon="11.357224058366189"><ele>364.0</ele><time>2026-04-04T16:24:34Z</time></trkpt><trkpt lat="43.46419202294102" lon="11.357324425677328"><ele>364.0</ele><time>2026-04-04T16:24:35Z</time></trkpt><trkpt lat="43.464286699099304" lon="11.357417243138565"><ele>364.0</ele><time>2026-04-04T16:24:36Z</time></trkpt><trkpt lat="43.464365343200775" lon="11.357523141906837"><ele>364.0</ele><time>2026-04-04T16:24:37Z</time></trkpt><trkpt lat="43.46447076785533" lon="11.35764375919445"><ele>364.0</ele><time>2026-04-04T16:24:38Z</time></trkpt><trkpt lat="43.46455054408324" lon="11.35776267194988"><ele>365.25</ele><time>2026-04-04T16:24:39Z</time></trkpt><trkpt lat="43.4646173130499" lon="11.357887433294177"><ele>366.5</ele><time>2026-04-04T16:24:40Z</time></trkpt><trkpt lat="43.4646858043893" lon="11.358021219629881"><ele>367.75</ele><time>2026-04-04T16:24:41Z</time></trkpt><trkpt lat="43.464746571125985" lon="11.358176527844016"><ele>369.0</ele><time>2026-04-04T16:24:42Z</time></trkpt><trkpt lat="43.46479214773869" lon="11.358345200578158"><ele>369.0</ele><time>2026-04-04T16:24:43Z</time></trkpt><trkpt lat="43.46484198526523" lon="11.358520859582518"><ele>369.0</ele><time>2026-04-04T16:24:44Z</time></trkpt><trkpt lat="43.464892527007365" lon="11.358685992664206"><ele>369.0</ele><time>2026-04-04T16:24:45Z</time></trkpt><trkpt lat="43.464917188724954" lon="11.358853017703101"><ele>369.0</ele><time>2026-04-04T16:24:46Z</time></trkpt><trkpt lat="43.464936299482204" lon="11.359030318956723"><ele>368.0</ele><time>2026-04-04T16:24:47Z</time></trkpt><trkpt lat="43.4649574082009" lon="11.359187300432543"><ele>367.0</ele><time>2026-04-04T16:24:48Z</time></trkpt><trkpt lat="43.464985905069874" lon="11.359336360027637"><ele>366.0</ele><time>2026-04-04T16:24:49Z</time></trkpt><trkpt lat="43.46500706031229" lon="11.359501844008413"><ele>365.0</ele><time>2026-04-04T16:24:50Z</time></trkpt><trkpt lat="43.46505003397057" lon="11.359665788193015"><ele>364.6</ele><time>2026-04-04T16:24:51Z</time></trkpt><trkpt lat="43.46512325555618" lon="11.35980452621288"><ele>364.2</ele><time>2026-04-04T16:24:52Z</time></trkpt><trkpt lat="43.46517912803398" lon="11.359938191256898"><ele>363.79999999999995</ele><time>2026-04-04T16:24:53Z</time></trkpt><trkpt lat="43.46524030637631" lon="11.360044467600293"><ele>363.4</ele><time>2026-04-04T16:24:54Z</time></trkpt><trkpt lat="43.46531170424831" lon="11.360137760382777"><ele>363.0</ele><time>2026-04-04T16:24:55Z</time></trkpt><trkpt lat="43.46541147953203" lon="11.360249711069253"><ele>364.75</ele><time>2026-04-04T16:24:56Z</time></trkpt><trkpt lat="43.46550742159425" lon="11.360383907801621"><ele>366.5</ele><time>2026-04-04T16:24:57Z</time></trkpt><trkpt lat="43.46558111662262" lon="11.360534552344834"><ele>368.25</ele><time>2026-04-04T16:24:58Z</time></trkpt><trkpt lat="43.465644446430474" lon="11.360667518259104"><ele>370.0</ele><time>2026-04-04T16:24:59Z</time></trkpt><trkpt lat="43.46571058815758" lon="11.360792681391414"><ele>370.0</ele><time>2026-04-04T16:25:00Z</time></trkpt><trkpt lat="43.46578364097234" lon="11.360896723502627"><ele>370.0</ele><time>2026-04-04T16:25:01Z</time></trkpt><trkpt lat="43.46586522518679" lon="11.360982327403645"><ele>370.0</ele><time>2026-04-04T16:25:02Z</time></trkpt><trkpt lat="43.4659704389226" lon="11.361039550623794"><ele>370.0</ele><time>2026-04-04T16:25:03Z</time></trkpt><trkpt lat="43.46607267024371" lon="11.361106341793098"><ele>370.0</ele><time>2026-04-04T16:25:04Z</time></trkpt><trkpt lat="43.46614381037143" lon="11.361198263781088"><ele>370.0</ele><time>2026-04-04T16:25:05Z</time></trkpt><trkpt lat="43.466190099993035" lon="11.361316884487408"><ele>370.0</ele><time>2026-04-04T16:25:06Z</time></trkpt><trkpt lat="43.466228955330195" lon="11.361459813482568"><ele>370.0</ele><time>2026-04-04T16:25:07Z</time></trkpt><trkpt lat="43.466286025337574" lon="11.36161279712179"><ele>370.0</ele><time>2026-04-04T16:25:08Z</time></trkpt><trkpt lat="43.466329493485155" lon="11.361800602263056"><ele>369.75</ele><time>2026-04-04T16:25:09Z</time></trkpt><trkpt lat="43.46635883093055" lon="11.361956046150807"><ele>369.5</ele><time>2026-04-04T16:25:10Z</time></trkpt><trkpt lat="43.46640696381843" lon="11.36210926181651"><ele>369.25</ele><time>2026-04-04T16:25:11Z</time></trkpt><trkpt lat="43.46646200793884" lon="11.36223877903983"><ele>369.0</ele><time>2026-04-04T16:25:12Z</time></trkpt><trkpt lat="43.46651760899975" lon="11.362381774871404"><ele>369.0</ele><time>2026-04-04T16:25:13Z</time></trkpt><trkpt lat="43.46658554702216" lon="11.362513986398627"><ele>369.0</ele><time>2026-04-04T16:25:14Z</time></trkpt><trkpt lat="43.46667244573792" lon="11.362652157591489"><ele>369.0</ele><time>2026-04-04T16:25:15Z</time></trkpt><trkpt lat="43.46674712512583" lon="11.362755070688966"><ele>369.0</ele><time>2026-04-04T16:25:16Z</time></trkpt><trkpt lat="43.46680087928928" lon="11.362848896781884"><ele>369.0</ele><time>2026-04-04T16:25:17Z</time></trkpt><trkpt lat="43.466849575550185" lon="11.362963910073786"><ele>368.4</ele><time>2026-04-04T16:25:18Z</time></trkpt><trkpt lat="43.46687762406218" lon="11.363083085178463"><ele>367.79999999999995</ele><time>2026-04-04T16:25:19Z</time></trkpt><trkpt lat="43.46686038413211" lon="11.363207403099066"><ele>367.20000000000005</ele><time>2026-04-04T16:25:20Z</time></trkpt><trkpt lat="43.46682441216251" lon="11.363343351097697"><ele>366.6</ele><time>2026-04-04T16:25:21Z</time></trkpt><trkpt lat="43.46678377375438" lon="11.363506824310809"><ele>366.0</ele><time>2026-04-04T16:25:22Z</time></trkpt><trkpt lat="43.46673754585765" lon="11.363684648846302"><ele>366.0</ele><time>2026-04-04T16:25:23Z</time></trkpt><trkpt lat="43.466699220810305" lon="11.363863120730342"><ele>366.0</ele><time>2026-04-04T16:25:24Z</time></trkpt><trkpt lat="43.46666156388738" lon="11.364044380977903"><ele>366.0</ele><time>2026-04-04T16:25:25Z</time></trkpt><trkpt lat="43.466619675289955" lon="11.364250239807737"><ele>366.0</ele><time>2026-04-04T16:25:26Z</time></trkpt><trkpt lat="43.466574567116275" lon="11.364463896158503"><ele>367.3333333333333</ele><time>2026-04-04T16:25:27Z</time></trkpt><trkpt lat="43.466526345524336" lon="11.364697583695804"><ele>368.66666666666663</ele><time>2026-04-04T16:25:28Z</time></trkpt><trkpt lat="43.46647438742455" lon="11.364937531099695"><ele>370.0</ele><time>2026-04-04T16:25:29Z</time></trkpt><trkpt lat="43.46642123450516" lon="11.36518332255727"><ele>370.0</ele><time>2026-04-04T16:25:30Z</time></trkpt><trkpt lat="43.46636614143445" lon="11.365430977232403"><ele>370.0</ele><time>2026-04-04T16:25:31Z</time></trkpt><trkpt lat="43.46631527749297" lon="11.365669700722464"><ele>370.0</ele><time>2026-04-04T16:25:32Z</time></trkpt><trkpt lat="43.46626559390232" lon="11.365899873708496"><ele>369.66666666666663</ele><time>2026-04-04T16:25:33Z</time></trkpt><trkpt lat="43.4662197874272" lon="11.366133980108005"><ele>369.3333333333333</ele><time>2026-04-04T16:25:34Z</time></trkpt><trkpt lat="43.4661695751531" lon="11.36636311557973"><ele>369.0</ele><time>2026-04-04T16:25:35Z</time></trkpt><trkpt lat="43.46612117954567" lon="11.366608666735292"><ele>369.0</ele><time>2026-04-04T16:25:36Z</time></trkpt><trkpt lat="43.46607149216823" lon="11.366848038041727"><ele>369.0</ele><time>2026-04-04T16:25:37Z</time></trkpt><trkpt lat="43.46602230016226" lon="11.36707970815901"><ele>369.0</ele><time>2026-04-04T16:25:38Z</time></trkpt><trkpt lat="43.46596984294767" lon="11.367304540417123"><ele>369.6666666666667</ele><time>2026-04-04T16:25:39Z</time></trkpt><trkpt lat="43.465923945547736" lon="11.3675384412399"><ele>370.33333333333337</ele><time>2026-04-04T16:25:40Z</time></trkpt><trkpt lat="43.46587832600523" lon="11.367764146754004"><ele>371.0</ele><time>2026-04-04T16:25:41Z</time></trkpt><trkpt lat="43.4658337188516" lon="11.367975472959996"><ele>371.75</ele><time>2026-04-04T16:25:42Z</time></trkpt><trkpt lat="43.46579368460615" lon="11.36816086173778"><ele>372.5</ele><time>2026-04-04T16:25:43Z</time></trkpt><trkpt lat="43.46576420072349" lon="11.368322893023228"><ele>373.25</ele><time>2026-04-04T16:25:44Z</time></trkpt><trkpt lat="43.46575490366285" lon="11.368472156062873"><ele>374.0</ele><time>2026-04-04T16:25:45Z</time></trkpt><trkpt lat="43.465762304312044" lon="11.368611574820832"><ele>374.0</ele><time>2026-04-04T16:25:46Z</time></trkpt><trkpt lat="43.46578787524092" lon="11.36875912658786"><ele>374.0</ele><time>2026-04-04T16:25:47Z</time></trkpt><trkpt lat="43.465817238804526" lon="11.368921268697092"><ele>374.0</ele><time>2026-04-04T16:25:48Z</time></trkpt><trkpt lat="43.46585637595251" lon="11.369086949471193"><ele>374.0</ele><time>2026-04-04T16:25:49Z</time></trkpt><trkpt lat="43.465900948793376" lon="11.369258843267744"><ele>374.0</ele><time>2026-04-04T16:25:50Z</time></trkpt><trkpt lat="43.46594923812618" lon="11.369435048595381"><ele>374.0</ele><time>2026-04-04T16:25:51Z</time></trkpt><trkpt lat="43.46599486188681" lon="11.369617013705318"><ele>374.0</ele><time>2026-04-04T16:25:52Z</time></trkpt><trkpt lat="43.46604453679418" lon="11.369798773071995"><ele>374.0</ele><time>2026-04-04T16:25:53Z</time></trkpt><trkpt lat="43.466100628273765" lon="11.369956667156874"><ele>374.5</ele><time>2026-04-04T16:25:54Z</time></trkpt><trkpt lat="43.4661637072806" lon="11.370112381132312"><ele>375.0</ele><time>2026-04-04T16:25:55Z</time></trkpt><trkpt lat="43.466236801974404" lon="11.370266889849562"><ele>375.5</ele><time>2026-04-04T16:25:56Z</time></trkpt><trkpt lat="43.46630779960323" lon="11.370435145271848"><ele>376.0</ele><time>2026-04-04T16:25:57Z</time></trkpt><trkpt lat="43.466392799710896" lon="11.370612086315829"><ele>376.75</ele><time>2026-04-04T16:25:58Z</time></trkpt><trkpt lat="43.46648802273815" lon="11.370753172644973"><ele>377.5</ele><time>2026-04-04T16:25:59Z</time></trkpt><trkpt lat="43.466580073397786" lon="11.370896785720994"><ele>378.25</ele><time>2026-04-04T16:26:00Z</time></trkpt><trkpt lat="43.46667213416541" lon="11.37103765034298"><ele>379.0</ele><time>2026-04-04T16:26:01Z</time></trkpt><trkpt lat="43.46676212142629" lon="11.371161333115033"><ele>379.0</ele><time>2026-04-04T16:26:02Z</time></trkpt><trkpt lat="43.46685983614549" lon="11.371256522158617"><ele>379.0</ele><time>2026-04-04T16:26:03Z</time></trkpt><trkpt lat="43.466970905393076" lon="11.371333994583361"><ele>379.0</ele><time>2026-04-04T16:26:04Z</time></trkpt><trkpt lat="43.46709745635194" lon="11.37140833123887"><ele>379.0</ele><time>2026-04-04T16:26:05Z</time></trkpt><trkpt lat="43.46723376817226" lon="11.37148423600877"><ele>379.25</ele><time>2026-04-04T16:26:06Z</time></trkpt><trkpt lat="43.46734808334568" lon="11.371578085537104"><ele>379.5</ele><time>2026-04-04T16:26:07Z</time></trkpt><trkpt lat="43.467444295585274" lon="11.371684256884196"><ele>379.75</ele><time>2026-04-04T16:26:08Z</time></trkpt><trkpt lat="43.46751596929855" lon="11.371788216528687"><ele>380.0</ele><time>2026-04-04T16:26:09Z</time></trkpt><trkpt lat="43.46757631866324" lon="11.37189609226847"><ele>380.0</ele><time>2026-04-04T16:26:10Z</time></trkpt><trkpt lat="43.467627204506655" lon="11.372029119868168"><ele>380.0</ele><time>2026-04-04T16:26:11Z</time></trkpt><trkpt lat="43.467679565162605" lon="11.372181096623414"><ele>380.0</ele><time>2026-04-04T16:26:12Z</time></trkpt><trkpt lat="43.46774368277748" lon="11.372339987919517"><ele>380.0</ele><time>2026-04-04T16:26:13Z</time></trkpt><trkpt lat="43.46780192661305" lon="11.37249183945928"><ele>379.4</ele><time>2026-04-04T16:26:14Z</time></trkpt><trkpt lat="43.467842914657616" lon="11.372636246263994"><ele>378.8</ele><time>2026-04-04T16:26:15Z</time></trkpt><trkpt lat="43.46786069598979" lon="11.37276891950883"><ele>378.20000000000005</ele><time>2026-04-04T16:26:16Z</time></trkpt><trkpt lat="43.46786837128519" lon="11.372897668800768"><ele>377.6</ele><time>2026-04-04T16:26:17Z</time></trkpt><trkpt lat="43.46787178075121" lon="11.373016470848352"><ele>377.0</ele><time>2026-04-04T16:26:18Z</time></trkpt><trkpt lat="43.46788059861188" lon="11.37310716164512"><ele>377.0</ele><time>2026-04-04T16:26:19Z</time></trkpt><trkpt lat="43.46790319174058" lon="11.373215054271274"><ele>377.0</ele><time>2026-04-04T16:26:21Z</time></trkpt><trkpt lat="43.46801276306994" lon="11.373317025732243"><ele>377.0</ele><time>2026-04-04T16:26:23Z</time></trkpt><trkpt lat="43.468099012100346" lon="11.373348113241207"><ele>377.0</ele><time>2026-04-04T16:26:24Z</time></trkpt><trkpt lat="43.46817750453185" lon="11.373372032571654"><ele>377.0</ele><time>2026-04-04T16:26:25Z</time></trkpt><trkpt lat="43.46827227271005" lon="11.373422745945126"><ele>378.5</ele><time>2026-04-04T16:26:26Z</time></trkpt><trkpt lat="43.46837972990082" lon="11.373473069436583"><ele>380.0</ele><time>2026-04-04T16:26:27Z</time></trkpt><trkpt lat="43.46848970291858" lon="11.373560283422728"><ele>381.5</ele><time>2026-04-04T16:26:28Z</time></trkpt><trkpt lat="43.468584735575185" lon="11.373675890436076"><ele>383.0</ele><time>2026-04-04T16:26:29Z</time></trkpt><trkpt lat="43.46867468642819" lon="11.373799076050474"><ele>383.0</ele><time>2026-04-04T16:26:30Z</time></trkpt><trkpt lat="43.468760161866676" lon="11.373926817870542"><ele>383.0</ele><time>2026-04-04T16:26:31Z</time></trkpt><trkpt lat="43.468855247577046" lon="11.37406161740582"><ele>383.0</ele><time>2026-04-04T16:26:32Z</time></trkpt><trkpt lat="43.468970416815495" lon="11.374174461031785"><ele>383.0</ele><time>2026-04-04T16:26:33Z</time></trkpt><trkpt lat="43.469103019305166" lon="11.374249140811742"><ele>383.6666666666667</ele><time>2026-04-04T16:26:34Z</time></trkpt><trkpt lat="43.46924974343577" lon="11.374274472504691"><ele>384.33333333333337</ele><time>2026-04-04T16:26:35Z</time></trkpt><trkpt lat="43.46940979635693" lon="11.37426764545262"><ele>385.0</ele><time>2026-04-04T16:26:36Z</time></trkpt><trkpt lat="43.46957741145495" lon="11.37426100632675"><ele>387.33333333333337</ele><time>2026-04-04T16:26:37Z</time></trkpt><trkpt lat="43.46976244447331" lon="11.374261561488794"><ele>389.66666666666663</ele><time>2026-04-04T16:26:38Z</time></trkpt><trkpt lat="43.46995786927054" lon="11.37427175096163"><ele>392.0</ele><time>2026-04-04T16:26:39Z</time></trkpt><trkpt lat="43.47013993073373" lon="11.374277325591645"><ele>392.0</ele><time>2026-04-04T16:26:40Z</time></trkpt><trkpt lat="43.47031281029563" lon="11.374281067234152"><ele>392.0</ele><time>2026-04-04T16:26:41Z</time></trkpt><trkpt lat="43.4704924605516" lon="11.37429583943488"><ele>392.0</ele><time>2026-04-04T16:26:42Z</time></trkpt><trkpt lat="43.470671977487456" lon="11.374295903367598"><ele>393.0</ele><time>2026-04-04T16:26:43Z</time></trkpt><trkpt lat="43.47085369806395" lon="11.374295906142482"><ele>394.0</ele><time>2026-04-04T16:26:44Z</time></trkpt><trkpt lat="43.471025846754515" lon="11.374261605822747"><ele>395.0</ele><time>2026-04-04T16:26:45Z</time></trkpt><trkpt lat="43.47120676491137" lon="11.374212129162405"><ele>395.66666666666663</ele><time>2026-04-04T16:26:46Z</time></trkpt><trkpt lat="43.471399565818224" lon="11.374144740705432"><ele>396.33333333333337</ele><time>2026-04-04T16:26:47Z</time></trkpt><trkpt lat="43.4715873883127" lon="11.374087312081318"><ele>397.0</ele><time>2026-04-04T16:26:48Z</time></trkpt><trkpt lat="43.47177855534702" lon="11.37403390252172"><ele>397.0</ele><time>2026-04-04T16:26:49Z</time></trkpt><trkpt lat="43.47196792820835" lon="11.374008699417185"><ele>397.0</ele><time>2026-04-04T16:26:50Z</time></trkpt><trkpt lat="43.47213695521752" lon="11.373972131797426"><ele>397.0</ele><time>2026-04-04T16:26:51Z</time></trkpt><trkpt lat="43.472295343924806" lon="11.373950587736683"><ele>399.0</ele><time>2026-04-04T16:26:52Z</time></trkpt><trkpt lat="43.47243908735742" lon="11.373958945017602"><ele>401.0</ele><time>2026-04-04T16:26:53Z</time></trkpt><trkpt lat="43.47257786552379" lon="11.374021182966297"><ele>403.0</ele><time>2026-04-04T16:26:54Z</time></trkpt><trkpt lat="43.472729694364276" lon="11.374112779417304"><ele>403.0</ele><time>2026-04-04T16:26:55Z</time></trkpt><trkpt lat="43.47289488349614" lon="11.374214412983042"><ele>403.0</ele><time>2026-04-04T16:26:56Z</time></trkpt><trkpt lat="43.47306280327851" lon="11.374309333952965"><ele>403.0</ele><time>2026-04-04T16:26:57Z</time></trkpt><trkpt lat="43.473225138061295" lon="11.374370982053899"><ele>405.75</ele><time>2026-04-04T16:26:58Z</time></trkpt><trkpt lat="43.47337439898563" lon="11.37440186673602"><ele>408.5</ele><time>2026-04-04T16:26:59Z</time></trkpt><trkpt lat="43.473520511744674" lon="11.374413960051687"><ele>411.25</ele><time>2026-04-04T16:27:00Z</time></trkpt><trkpt lat="43.47364055507972" lon="11.374346876523274"><ele>414.0</ele><time>2026-04-04T16:27:01Z</time></trkpt><trkpt lat="43.47375668371345" lon="11.3742305116978"><ele>414.0</ele><time>2026-04-04T16:27:02Z</time></trkpt><trkpt lat="43.47385700504518" lon="11.374104965928582"><ele>414.0</ele><time>2026-04-04T16:27:03Z</time></trkpt><trkpt lat="43.47394558114902" lon="11.37393623048288"><ele>414.0</ele><time>2026-04-04T16:27:04Z</time></trkpt><trkpt lat="43.4740486547479" lon="11.373777830928937"><ele>414.0</ele><time>2026-04-04T16:27:05Z</time></trkpt><trkpt lat="43.474170649857136" lon="11.373651535214874"><ele>417.75</ele><time>2026-04-04T16:27:06Z</time></trkpt><trkpt lat="43.47429151243427" lon="11.373552015233782"><ele>421.5</ele><time>2026-04-04T16:27:07Z</time></trkpt><trkpt lat="43.4744150428985" lon="11.373543835256456"><ele>425.25</ele><time>2026-04-04T16:27:08Z</time></trkpt><trkpt lat="43.47453004866717" lon="11.373591407941264"><ele>429.0</ele><time>2026-04-04T16:27:09Z</time></trkpt><trkpt lat="43.47461667091796" lon="11.373707553251982"><ele>430.25</ele><time>2026-04-04T16:27:10Z</time></trkpt><trkpt lat="43.47469257077899" lon="11.37382528870676"><ele>431.5</ele><time>2026-04-04T16:27:11Z</time></trkpt><trkpt lat="43.47477546007035" lon="11.373926315330646"><ele>432.75</ele><time>2026-04-04T16:27:12Z</time></trkpt><trkpt lat="43.47489300061296" lon="11.373967837397858"><ele>434.0</ele><time>2026-04-04T16:27:13Z</time></trkpt><trkpt lat="43.475026938265906" lon="11.3739827494569"><ele>431.3333333333333</ele><time>2026-04-04T16:27:14Z</time></trkpt><trkpt lat="43.475206005379555" lon="11.373919009802389"><ele>428.66666666666663</ele><time>2026-04-04T16:27:15Z</time></trkpt><trkpt lat="43.47537491454211" lon="11.373891291890684"><ele>426.0</ele><time>2026-04-04T16:27:16Z</time></trkpt><trkpt lat="43.47556387485812" lon="11.373857459346562"><ele>430.66666666666663</ele><time>2026-04-04T16:27:17Z</time></trkpt><trkpt lat="43.47576948580728" lon="11.373849895294084"><ele>435.3333333333333</ele><time>2026-04-04T16:27:18Z</time></trkpt><trkpt lat="43.47593536400749" lon="11.373811440186746"><ele>440.0</ele><time>2026-04-04T16:27:19Z</time></trkpt><trkpt lat="43.4760800489306" lon="11.373800519665874"><ele>440.0</ele><time>2026-04-04T16:27:20Z</time></trkpt><trkpt lat="43.47620883376672" lon="11.373789542999331"><ele>440.0</ele><time>2026-04-04T16:27:21Z</time></trkpt><trkpt lat="43.47632714376343" lon="11.373785019685673"><ele>440.0</ele><time>2026-04-04T16:27:22Z</time></trkpt><trkpt lat="43.47642129513652" lon="11.373732457011542"><ele>440.0</ele><time>2026-04-04T16:27:23Z</time></trkpt><trkpt lat="43.47649503851364" lon="11.373622775829386"><ele>438.5</ele><time>2026-04-04T16:27:24Z</time></trkpt><trkpt lat="43.47654559783946" lon="11.373499440281815"><ele>437.0</ele><time>2026-04-04T16:27:25Z</time></trkpt><trkpt lat="43.47657770085636" lon="11.373331832790361"><ele>435.5</ele><time>2026-04-04T16:27:26Z</time></trkpt><trkpt lat="43.47659425549551" lon="11.37311965176319"><ele>434.0</ele><time>2026-04-04T16:27:27Z</time></trkpt><trkpt lat="43.476620393762964" lon="11.372878492013614"><ele>438.0</ele><time>2026-04-04T16:27:28Z</time></trkpt><trkpt lat="43.476667417826604" lon="11.372633174430522"><ele>442.0</ele><time>2026-04-04T16:27:29Z</time></trkpt><trkpt lat="43.476697156637286" lon="11.372390615196512"><ele>446.0</ele><time>2026-04-04T16:27:30Z</time></trkpt><trkpt lat="43.47672482003743" lon="11.372192326458734"><ele>448.25</ele><time>2026-04-04T16:27:31Z</time></trkpt><trkpt lat="43.476745139823144" lon="11.37203696852827"><ele>450.5</ele><time>2026-04-04T16:27:32Z</time></trkpt><trkpt lat="43.47681167494177" lon="11.371911586593345"><ele>452.75</ele><time>2026-04-04T16:27:33Z</time></trkpt><trkpt lat="43.476917776826696" lon="11.371839909139961"><ele>455.0</ele><time>2026-04-04T16:27:34Z</time></trkpt><trkpt lat="43.47704133797159" lon="11.371827789817573"><ele>455.5</ele><time>2026-04-04T16:27:35Z</time></trkpt><trkpt lat="43.47717490731561" lon="11.371851926909326"><ele>456.0</ele><time>2026-04-04T16:27:36Z</time></trkpt><trkpt lat="43.47732048326258" lon="11.371928883592103"><ele>456.5</ele><time>2026-04-04T16:27:37Z</time></trkpt><trkpt lat="43.47746381229846" lon="11.372009358945487"><ele>457.0</ele><time>2026-04-04T16:27:38Z</time></trkpt><trkpt lat="43.47761247841477" lon="11.372022477551964"><ele>457.0</ele><time>2026-04-04T16:27:39Z</time></trkpt><trkpt lat="43.477768507040764" lon="11.37200914249791"><ele>457.0</ele><time>2026-04-04T16:27:40Z</time></trkpt><trkpt lat="43.47790906620662" lon="11.371972860964371"><ele>457.0</ele><time>2026-04-04T16:27:41Z</time></trkpt><trkpt lat="43.478020980708315" lon="11.371903775220634"><ele>457.0</ele><time>2026-04-04T16:27:42Z</time></trkpt><trkpt lat="43.478126600116255" lon="11.371823651813276"><ele>456.25</ele><time>2026-04-04T16:27:43Z</time></trkpt><trkpt lat="43.47820410127974" lon="11.371691316415685"><ele>455.5</ele><time>2026-04-04T16:27:44Z</time></trkpt><trkpt lat="43.47825640892682" lon="11.371523029760496"><ele>454.75</ele><time>2026-04-04T16:27:45Z</time></trkpt><trkpt lat="43.47826260194652" lon="11.371340782306136"><ele>454.0</ele><time>2026-04-04T16:27:46Z</time></trkpt><trkpt lat="43.47823148720412" lon="11.371170851270314"><ele>457.0</ele><time>2026-04-04T16:27:47Z</time></trkpt><trkpt lat="43.4781778924704" lon="11.370968737325287"><ele>460.0</ele><time>2026-04-04T16:27:48Z</time></trkpt><trkpt lat="43.47811861823704" lon="11.370745066299497"><ele>463.0</ele><time>2026-04-04T16:27:49Z</time></trkpt><trkpt lat="43.47805795384853" lon="11.37057274517952"><ele>464.59999999999997</ele><time>2026-04-04T16:27:50Z</time></trkpt><trkpt lat="43.4780234121058" lon="11.370378634269985"><ele>466.19999999999993</ele><time>2026-04-04T16:27:51Z</time></trkpt><trkpt lat="43.477989991206854" lon="11.37023210802933"><ele>467.8</ele><time>2026-04-04T16:27:52Z</time></trkpt><trkpt lat="43.4779672970867" lon="11.370093180943064"><ele>469.4</ele><time>2026-04-04T16:27:53Z</time></trkpt><trkpt lat="43.47797558700319" lon="11.370003282875697"><ele>471.0</ele><time>2026-04-04T16:27:54Z</time></trkpt><trkpt lat="43.478013576523644" lon="11.369923023279778"><ele>471.0</ele><time>2026-04-04T16:27:55Z</time></trkpt><trkpt lat="43.47812478524255" lon="11.369863390071078"><ele>471.0</ele><time>2026-04-04T16:27:56Z</time></trkpt><trkpt lat="43.47822905159898" lon="11.369858736973532"><ele>471.0</ele><time>2026-04-04T16:27:57Z</time></trkpt><trkpt lat="43.47832577814139" lon="11.369860162539817"><ele>471.0</ele><time>2026-04-04T16:27:58Z</time></trkpt><trkpt lat="43.47840854775031" lon="11.369837994206637"><ele>471.0</ele><time>2026-04-04T16:27:59Z</time></trkpt><trkpt lat="43.478493928124074" lon="11.369844317684771"><ele>471.0</ele><time>2026-04-04T16:28:00Z</time></trkpt><trkpt lat="43.47859071014731" lon="11.369830669025955"><ele>471.0</ele><time>2026-04-04T16:28:01Z</time></trkpt><trkpt lat="43.47867996584426" lon="11.3697790903466"><ele>471.0</ele><time>2026-04-04T16:28:02Z</time></trkpt><trkpt lat="43.478783738462226" lon="11.369692934241328"><ele>471.0</ele><time>2026-04-04T16:28:03Z</time></trkpt><trkpt lat="43.47888877921475" lon="11.369560430579705"><ele>474.33333333333337</ele><time>2026-04-04T16:28:04Z</time></trkpt><trkpt lat="43.47900439715062" lon="11.369397588993081"><ele>477.6666666666667</ele><time>2026-04-04T16:28:05Z</time></trkpt><trkpt lat="43.479124348699386" lon="11.369228809486707"><ele>481.0</ele><time>2026-04-04T16:28:06Z</time></trkpt><trkpt lat="43.479247673293706" lon="11.369047256344167"><ele>481.0</ele><time>2026-04-04T16:28:07Z</time></trkpt><trkpt lat="43.47937559513118" lon="11.368865165585246"><ele>481.0</ele><time>2026-04-04T16:28:08Z</time></trkpt><trkpt lat="43.479504065643674" lon="11.368674383648989"><ele>481.0</ele><time>2026-04-04T16:28:09Z</time></trkpt><trkpt lat="43.4796414290957" lon="11.368491580309584"><ele>481.33333333333337</ele><time>2026-04-04T16:28:10Z</time></trkpt><trkpt lat="43.47976516624048" lon="11.368299664719487"><ele>481.66666666666663</ele><time>2026-04-04T16:28:11Z</time></trkpt><trkpt lat="43.47988313468169" lon="11.368119937417811"><ele>482.0</ele><time>2026-04-04T16:28:12Z</time></trkpt><trkpt lat="43.479996330871394" lon="11.367953346229514"><ele>485.5</ele><time>2026-04-04T16:28:13Z</time></trkpt><trkpt lat="43.4800941445899" lon="11.367816010699928"><ele>489.0</ele><time>2026-04-04T16:28:14Z</time></trkpt><trkpt lat="43.480194054074154" lon="11.3677050904171"><ele>492.5</ele><time>2026-04-04T16:28:15Z</time></trkpt><trkpt lat="43.48030352462086" lon="11.367661549054828"><ele>496.0</ele><time>2026-04-04T16:28:16Z</time></trkpt><trkpt lat="43.48041308028851" lon="11.367678483109199"><ele>494.8</ele><time>2026-04-04T16:28:17Z</time></trkpt><trkpt lat="43.48050793108187" lon="11.36773208246432"><ele>493.6</ele><time>2026-04-04T16:28:18Z</time></trkpt><trkpt lat="43.480601645764935" lon="11.367762455317507"><ele>492.4</ele><time>2026-04-04T16:28:19Z</time></trkpt><trkpt lat="43.480681199501255" lon="11.367763678022186"><ele>491.2</ele><time>2026-04-04T16:28:20Z</time></trkpt><trkpt lat="43.48075427602241" lon="11.367721573152043"><ele>490.0</ele><time>2026-04-04T16:28:21Z</time></trkpt><trkpt lat="43.48082929123573" lon="11.367636180800442"><ele>490.0</ele><time>2026-04-04T16:28:22Z</time></trkpt><trkpt lat="43.480877070265436" lon="11.367543099281429"><ele>490.0</ele><time>2026-04-04T16:28:23Z</time></trkpt><trkpt lat="43.480931368726495" lon="11.367436838186855"><ele>490.0</ele><time>2026-04-04T16:28:24Z</time></trkpt><trkpt lat="43.48100218294074" lon="11.367327212224268"><ele>490.0</ele><time>2026-04-04T16:28:25Z</time></trkpt><trkpt lat="43.481098609540396" lon="11.367223795837589"><ele>490.0</ele><time>2026-04-04T16:28:26Z</time></trkpt><trkpt lat="43.481222179507846" lon="11.3671613185626"><ele>491.5</ele><time>2026-04-04T16:28:27Z</time></trkpt><trkpt lat="43.481356438361225" lon="11.367137910383057"><ele>493.0</ele><time>2026-04-04T16:28:28Z</time></trkpt><trkpt lat="43.48149171159581" lon="11.367158390065722"><ele>494.5</ele><time>2026-04-04T16:28:29Z</time></trkpt><trkpt lat="43.48161308578056" lon="11.367158093834687"><ele>496.0</ele><time>2026-04-04T16:28:30Z</time></trkpt><trkpt lat="43.48173881054064" lon="11.367085197015316"><ele>496.0</ele><time>2026-04-04T16:28:31Z</time></trkpt><trkpt lat="43.48186287232047" lon="11.366985917189044"><ele>496.0</ele><time>2026-04-04T16:28:32Z</time></trkpt><trkpt lat="43.48196381088657" lon="11.36684694080544"><ele>496.0</ele><time>2026-04-04T16:28:33Z</time></trkpt><trkpt lat="43.48206392953332" lon="11.36670225020565"><ele>496.0</ele><time>2026-04-04T16:28:34Z</time></trkpt><trkpt lat="43.482154840621845" lon="11.366565833498404"><ele>495.0</ele><time>2026-04-04T16:28:35Z</time></trkpt><trkpt lat="43.48224162004375" lon="11.366443517149115"><ele>494.0</ele><time>2026-04-04T16:28:36Z</time></trkpt><trkpt lat="43.482358082502984" lon="11.366402637504846"><ele>493.0</ele><time>2026-04-04T16:28:37Z</time></trkpt><trkpt lat="43.482477359716825" lon="11.366410138618082"><ele>492.0</ele><time>2026-04-04T16:28:38Z</time></trkpt><trkpt lat="43.48261168562042" lon="11.366440193383099"><ele>492.0</ele><time>2026-04-04T16:28:39Z</time></trkpt><trkpt lat="43.48275186503637" lon="11.366470541254953"><ele>492.0</ele><time>2026-04-04T16:28:40Z</time></trkpt><trkpt lat="43.48288298785777" lon="11.366501808904024"><ele>492.0</ele><time>2026-04-04T16:28:41Z</time></trkpt><trkpt lat="43.48299536395409" lon="11.366524495200972"><ele>492.0</ele><time>2026-04-04T16:28:42Z</time></trkpt><trkpt lat="43.48310103044373" lon="11.366509903013666"><ele>492.25</ele><time>2026-04-04T16:28:43Z</time></trkpt><trkpt lat="43.483206876454226" lon="11.366457366771954"><ele>492.5</ele><time>2026-04-04T16:28:44Z</time></trkpt><trkpt lat="43.48331933178624" lon="11.366369517636794"><ele>492.75</ele><time>2026-04-04T16:28:45Z</time></trkpt><trkpt lat="43.4834339265226" lon="11.366248412449323"><ele>493.0</ele><time>2026-04-04T16:28:46Z</time></trkpt><trkpt lat="43.48353808650357" lon="11.36610892654068"><ele>495.0</ele><time>2026-04-04T16:28:47Z</time></trkpt><trkpt lat="43.48363455028098" lon="11.365946812811353"><ele>497.0</ele><time>2026-04-04T16:28:48Z</time></trkpt><trkpt lat="43.48372307458369" lon="11.36579809070925"><ele>499.0</ele><time>2026-04-04T16:28:49Z</time></trkpt><trkpt lat="43.48380640715862" lon="11.36569381063055"><ele>501.0</ele><time>2026-04-04T16:28:50Z</time></trkpt><trkpt lat="43.483879191828755" lon="11.365638835273487"><ele>501.0</ele><time>2026-04-04T16:28:51Z</time></trkpt><trkpt lat="43.48394148742984" lon="11.365580846899558"><ele>501.0</ele><time>2026-04-04T16:28:52Z</time></trkpt><trkpt lat="43.48403159391116" lon="11.365533275857164"><ele>501.0</ele><time>2026-04-04T16:28:54Z</time></trkpt><trkpt lat="43.48413304375464" lon="11.365567996566131"><ele>501.0</ele><time>2026-04-04T16:28:56Z</time></trkpt><trkpt lat="43.48419601226955" lon="11.365603569736177"><ele>501.0</ele><time>2026-04-04T16:28:57Z</time></trkpt><trkpt lat="43.48427142291793" lon="11.365658698318594"><ele>501.0</ele><time>2026-04-04T16:28:58Z</time></trkpt><trkpt lat="43.48433410737887" lon="11.365723860723373"><ele>501.0</ele><time>2026-04-04T16:28:59Z</time></trkpt><trkpt lat="43.48437770432576" lon="11.365808371384613"><ele>501.0</ele><time>2026-04-04T16:29:00Z</time></trkpt><trkpt lat="43.48439659118293" lon="11.365911672278171"><ele>501.0</ele><time>2026-04-04T16:29:01Z</time></trkpt><trkpt lat="43.48439457792212" lon="11.366027834488902"><ele>501.0</ele><time>2026-04-04T16:29:02Z</time></trkpt><trkpt lat="43.484376080048065" lon="11.366152216528468"><ele>501.0</ele><time>2026-04-04T16:29:03Z</time></trkpt><trkpt lat="43.48435657584543" lon="11.36627888829059"><ele>501.0</ele><time>2026-04-04T16:29:04Z</time></trkpt><trkpt lat="43.48433953163458" lon="11.366407713192107"><ele>499.5</ele><time>2026-04-04T16:29:05Z</time></trkpt><trkpt lat="43.48433429853738" lon="11.366558726460806"><ele>498.0</ele><time>2026-04-04T16:29:06Z</time></trkpt><trkpt lat="43.48434150461309" lon="11.366707957538566"><ele>496.5</ele><time>2026-04-04T16:29:07Z</time></trkpt><trkpt lat="43.48437744887937" lon="11.366863796944145"><ele>495.0</ele><time>2026-04-04T16:29:08Z</time></trkpt><trkpt lat="43.48442735627554" lon="11.367026197561177"><ele>495.0</ele><time>2026-04-04T16:29:09Z</time></trkpt><trkpt lat="43.484471182662446" lon="11.367174613836124"><ele>495.0</ele><time>2026-04-04T16:29:10Z</time></trkpt><trkpt lat="43.48450764893541" lon="11.367318502463121"><ele>495.0</ele><time>2026-04-04T16:29:11Z</time></trkpt><trkpt lat="43.48453953361761" lon="11.367472955240135"><ele>495.0</ele><time>2026-04-04T16:29:12Z</time></trkpt><trkpt lat="43.4845698189934" lon="11.367641640055586"><ele>494.0</ele><time>2026-04-04T16:29:13Z</time></trkpt><trkpt lat="43.48460078922919" lon="11.367822004492774"><ele>493.0</ele><time>2026-04-04T16:29:14Z</time></trkpt><trkpt lat="43.484626699900396" lon="11.368010249868332"><ele>492.0</ele><time>2026-04-04T16:29:15Z</time></trkpt><trkpt lat="43.48464969508382" lon="11.368199238536059"><ele>491.0</ele><time>2026-04-04T16:29:16Z</time></trkpt><trkpt lat="43.484675628605274" lon="11.36838981336031"><ele>493.75</ele><time>2026-04-04T16:29:17Z</time></trkpt><trkpt lat="43.48469929984831" lon="11.36857530184483"><ele>496.5</ele><time>2026-04-04T16:29:18Z</time></trkpt><trkpt lat="43.484720343629164" lon="11.36875149912655"><ele>499.25</ele><time>2026-04-04T16:29:19Z</time></trkpt><trkpt lat="43.48473509326291" lon="11.368909126719114"><ele>502.0</ele><time>2026-04-04T16:29:20Z</time></trkpt><trkpt lat="43.484758372139964" lon="11.369048977347427"><ele>507.0</ele><time>2026-04-04T16:29:21Z</time></trkpt><trkpt lat="43.48479251990768" lon="11.369177382582611"><ele>507.0</ele><time>2026-04-04T16:29:22Z</time></trkpt><trkpt lat="43.48483576069532" lon="11.369303324582031"><ele>507.0</ele><time>2026-04-04T16:29:23Z</time></trkpt><trkpt lat="43.48489293516064" lon="11.36941408107667"><ele>507.0</ele><time>2026-04-04T16:29:24Z</time></trkpt><trkpt lat="43.48496276249582" lon="11.369506243728514"><ele>507.0</ele><time>2026-04-04T16:29:25Z</time></trkpt></trkseg></trk></gpx>